<?xml version="1.0" encoding="UTF-8" standalone="no" ?>
<gpx xmlns="http://www.topografix.com/GPX/1/1" xmlns:xsi="http://www.w3.org/2001/XMLSchema-instance" xsi:schemaLocation="http://www.topografix.com/GPX/1/1 http://www.topografix.com/GPX/1/1/gpx.xsd" version="1.1" creator="VisuGPX - https://www.visugpx.com">
  <metadata>
    <name>Col Du Mont</name>
  </metadata>
  <trk>
    <name><![CDATA[260227-Montmelian-ColDuMont]]></name>
    <trkseg>
      <trkpt lat="45.50368" lon="6.03925">
        <ele>290.2</ele>
        <time>2026-02-27T09:06:03</time>
      </trkpt>
      <trkpt lat="45.5037" lon="6.03925">
        <ele>290.2</ele>
        <time>2026-02-27T09:06:04</time>
      </trkpt>
      <trkpt lat="45.50371" lon="6.03925">
        <ele>290.2</ele>
        <time>2026-02-27T09:06:05</time>
      </trkpt>
      <trkpt lat="45.50375" lon="6.03926">
        <ele>283.4</ele>
        <time>2026-02-27T09:06:08</time>
      </trkpt>
      <trkpt lat="45.50377" lon="6.03927">
        <ele>283.4</ele>
        <time>2026-02-27T09:06:09</time>
      </trkpt>
      <trkpt lat="45.50379" lon="6.03928">
        <ele>283.4</ele>
        <time>2026-02-27T09:06:10</time>
      </trkpt>
      <trkpt lat="45.5038" lon="6.0393">
        <ele>283.4</ele>
        <time>2026-02-27T09:06:12</time>
      </trkpt>
      <trkpt lat="45.50372" lon="6.03892">
        <ele>283.4</ele>
        <time>2026-02-27T09:06:13</time>
      </trkpt>
      <trkpt lat="45.50366" lon="6.03858">
        <ele>283.4</ele>
        <time>2026-02-27T09:06:15</time>
      </trkpt>
      <trkpt lat="45.50367" lon="6.03858">
        <ele>283.3</ele>
        <time>2026-02-27T09:06:16</time>
      </trkpt>
      <trkpt lat="45.5037" lon="6.03864">
        <ele>283.3</ele>
        <time>2026-02-27T09:06:18</time>
      </trkpt>
      <trkpt lat="45.50371" lon="6.03865">
        <ele>283.3</ele>
        <time>2026-02-27T09:06:18</time>
      </trkpt>
      <trkpt lat="45.50375" lon="6.03868">
        <ele>283.3</ele>
        <time>2026-02-27T09:06:20</time>
      </trkpt>
      <trkpt lat="45.5038" lon="6.03884">
        <ele>283</ele>
        <time>2026-02-27T09:06:21</time>
      </trkpt>
      <trkpt lat="45.50382" lon="6.0389">
        <ele>283</ele>
        <time>2026-02-27T09:06:22</time>
      </trkpt>
      <trkpt lat="45.50385" lon="6.03893">
        <ele>283</ele>
        <time>2026-02-27T09:06:23</time>
      </trkpt>
      <trkpt lat="45.5039" lon="6.039">
        <ele>283</ele>
        <time>2026-02-27T09:06:27</time>
      </trkpt>
      <trkpt lat="45.50392" lon="6.03903">
        <ele>283</ele>
        <time>2026-02-27T09:06:29</time>
      </trkpt>
      <trkpt lat="45.50395" lon="6.03915">
        <ele>281.53333</ele>
        <time>2026-02-27T09:06:31</time>
      </trkpt>
      <trkpt lat="45.50398" lon="6.03922">
        <ele>281.53333</ele>
        <time>2026-02-27T09:06:32</time>
      </trkpt>
      <trkpt lat="45.50399" lon="6.03926">
        <ele>281.53333</ele>
        <time>2026-02-27T09:06:32</time>
      </trkpt>
      <trkpt lat="45.504" lon="6.0393">
        <ele>281.53333</ele>
        <time>2026-02-27T09:06:33</time>
      </trkpt>
      <trkpt lat="45.50402" lon="6.03936">
        <ele>281.53333</ele>
        <time>2026-02-27T09:06:35</time>
      </trkpt>
      <trkpt lat="45.50404" lon="6.03938">
        <ele>281.2</ele>
        <time>2026-02-27T09:06:36</time>
      </trkpt>
      <trkpt lat="45.50413" lon="6.03953">
        <ele>281.2</ele>
        <time>2026-02-27T09:06:41</time>
      </trkpt>
      <trkpt lat="45.50417" lon="6.03957">
        <ele>282</ele>
        <time>2026-02-27T09:06:44</time>
      </trkpt>
      <trkpt lat="45.50418" lon="6.03961">
        <ele>282</ele>
        <time>2026-02-27T09:06:44</time>
      </trkpt>
      <trkpt lat="45.50421" lon="6.03972">
        <ele>282</ele>
        <time>2026-02-27T09:06:48</time>
      </trkpt>
      <trkpt lat="45.50424" lon="6.03973">
        <ele>282.4</ele>
        <time>2026-02-27T09:06:51</time>
      </trkpt>
      <trkpt lat="45.50427" lon="6.03974">
        <ele>282.4</ele>
        <time>2026-02-27T09:06:54</time>
      </trkpt>
      <trkpt lat="45.50428" lon="6.03974">
        <ele>282.4</ele>
        <time>2026-02-27T09:06:55</time>
      </trkpt>
      <trkpt lat="45.50429" lon="6.03974">
        <ele>282.4</ele>
        <time>2026-02-27T09:06:56</time>
      </trkpt>
      <trkpt lat="45.50431" lon="6.03975">
        <ele>283.1</ele>
        <time>2026-02-27T09:06:57</time>
      </trkpt>
      <trkpt lat="45.50432" lon="6.03977">
        <ele>283.1</ele>
        <time>2026-02-27T09:06:58</time>
      </trkpt>
      <trkpt lat="45.50433" lon="6.0398">
        <ele>283.1</ele>
        <time>2026-02-27T09:06:59</time>
      </trkpt>
      <trkpt lat="45.50435" lon="6.03981">
        <ele>283.1</ele>
        <time>2026-02-27T09:07:01</time>
      </trkpt>
      <trkpt lat="45.50437" lon="6.03983">
        <ele>283.1</ele>
        <time>2026-02-27T09:07:02</time>
      </trkpt>
      <trkpt lat="45.50441" lon="6.03984">
        <ele>281.1</ele>
        <time>2026-02-27T09:07:04</time>
      </trkpt>
      <trkpt lat="45.50441" lon="6.03984">
        <ele>281.1</ele>
        <time>2026-02-27T09:07:05</time>
      </trkpt>
      <trkpt lat="45.50441" lon="6.03985">
        <ele>281.1</ele>
        <time>2026-02-27T09:07:06</time>
      </trkpt>
      <trkpt lat="45.50442" lon="6.03986">
        <ele>281.1</ele>
        <time>2026-02-27T09:07:06</time>
      </trkpt>
      <trkpt lat="45.50442" lon="6.03988">
        <ele>281.1</ele>
        <time>2026-02-27T09:07:08</time>
      </trkpt>
      <trkpt lat="45.50443" lon="6.03988">
        <ele>281.1</ele>
        <time>2026-02-27T09:07:09</time>
      </trkpt>
      <trkpt lat="45.50447" lon="6.03991">
        <ele>282.46667</ele>
        <time>2026-02-27T09:07:12</time>
      </trkpt>
      <trkpt lat="45.50447" lon="6.03992">
        <ele>282.46667</ele>
        <time>2026-02-27T09:07:13</time>
      </trkpt>
      <trkpt lat="45.50447" lon="6.03993">
        <ele>282.46667</ele>
        <time>2026-02-27T09:07:13</time>
      </trkpt>
      <trkpt lat="45.50447" lon="6.03996">
        <ele>282.46667</ele>
        <time>2026-02-27T09:07:16</time>
      </trkpt>
      <trkpt lat="45.50448" lon="6.03995">
        <ele>282.46667</ele>
        <time>2026-02-27T09:07:17</time>
      </trkpt>
      <trkpt lat="45.50448" lon="6.03994">
        <ele>282.46667</ele>
        <time>2026-02-27T09:07:19</time>
      </trkpt>
      <trkpt lat="45.50448" lon="6.03994">
        <ele>285.63333</ele>
        <time>2026-02-27T09:07:21</time>
      </trkpt>
      <trkpt lat="45.50447" lon="6.03994">
        <ele>285.63333</ele>
        <time>2026-02-27T09:07:22</time>
      </trkpt>
      <trkpt lat="45.50447" lon="6.03994">
        <ele>285.63333</ele>
        <time>2026-02-27T09:07:24</time>
      </trkpt>
      <trkpt lat="45.50448" lon="6.03994">
        <ele>285.63333</ele>
        <time>2026-02-27T09:07:26</time>
      </trkpt>
      <trkpt lat="45.50448" lon="6.03994">
        <ele>285.63333</ele>
        <time>2026-02-27T09:07:27</time>
      </trkpt>
      <trkpt lat="45.50448" lon="6.03994">
        <ele>285.63333</ele>
        <time>2026-02-27T09:07:28</time>
      </trkpt>
      <trkpt lat="45.50448" lon="6.03994">
        <ele>286.4</ele>
        <time>2026-02-27T09:07:30</time>
      </trkpt>
      <trkpt lat="45.50448" lon="6.03994">
        <ele>286.4</ele>
        <time>2026-02-27T09:07:30</time>
      </trkpt>
      <trkpt lat="45.50448" lon="6.03994">
        <ele>286.4</ele>
        <time>2026-02-27T09:07:32</time>
      </trkpt>
      <trkpt lat="45.50448" lon="6.03994">
        <ele>286.4</ele>
        <time>2026-02-27T09:07:35</time>
      </trkpt>
      <trkpt lat="45.50448" lon="6.03995">
        <ele>286.4</ele>
        <time>2026-02-27T09:07:36</time>
      </trkpt>
      <trkpt lat="45.50448" lon="6.03995">
        <ele>286.4</ele>
        <time>2026-02-27T09:07:39</time>
      </trkpt>
      <trkpt lat="45.50448" lon="6.03995">
        <ele>286.1</ele>
        <time>2026-02-27T09:08:12</time>
      </trkpt>
      <trkpt lat="45.50448" lon="6.03995">
        <ele>286.1</ele>
        <time>2026-02-27T09:08:45</time>
      </trkpt>
      <trkpt lat="45.50448" lon="6.03995">
        <ele>286.1</ele>
        <time>2026-02-27T09:08:45</time>
      </trkpt>
      <trkpt lat="45.50448" lon="6.03995">
        <ele>286.1</ele>
        <time>2026-02-27T09:08:47</time>
      </trkpt>
      <trkpt lat="45.50448" lon="6.03995">
        <ele>286.1</ele>
        <time>2026-02-27T09:08:49</time>
      </trkpt>
      <trkpt lat="45.50448" lon="6.03995">
        <ele>286.1</ele>
        <time>2026-02-27T09:08:50</time>
      </trkpt>
      <trkpt lat="45.50448" lon="6.03995">
        <ele>286.1</ele>
        <time>2026-02-27T09:08:51</time>
      </trkpt>
      <trkpt lat="45.50448" lon="6.03995">
        <ele>286.1</ele>
        <time>2026-02-27T09:09:46</time>
      </trkpt>
      <trkpt lat="45.50448" lon="6.03993">
        <ele>286.1</ele>
        <time>2026-02-27T09:10:24</time>
      </trkpt>
      <trkpt lat="45.50448" lon="6.03995">
        <ele>286.1</ele>
        <time>2026-02-27T09:10:25</time>
      </trkpt>
      <trkpt lat="45.50448" lon="6.03997">
        <ele>286.1</ele>
        <time>2026-02-27T09:10:26</time>
      </trkpt>
      <trkpt lat="45.50446" lon="6.04002">
        <ele>287.43332</ele>
        <time>2026-02-27T09:10:29</time>
      </trkpt>
      <trkpt lat="45.50444" lon="6.04008">
        <ele>287.43332</ele>
        <time>2026-02-27T09:10:31</time>
      </trkpt>
      <trkpt lat="45.50443" lon="6.04016">
        <ele>288.03333</ele>
        <time>2026-02-27T09:10:35</time>
      </trkpt>
      <trkpt lat="45.50442" lon="6.0402">
        <ele>288.03333</ele>
        <time>2026-02-27T09:10:38</time>
      </trkpt>
      <trkpt lat="45.50441" lon="6.04022">
        <ele>288.03333</ele>
        <time>2026-02-27T09:10:39</time>
      </trkpt>
      <trkpt lat="45.50439" lon="6.04025">
        <ele>287.5</ele>
        <time>2026-02-27T09:10:40</time>
      </trkpt>
      <trkpt lat="45.50437" lon="6.04029">
        <ele>287.5</ele>
        <time>2026-02-27T09:10:43</time>
      </trkpt>
      <trkpt lat="45.50436" lon="6.04034">
        <ele>287.5</ele>
        <time>2026-02-27T09:10:46</time>
      </trkpt>
      <trkpt lat="45.50434" lon="6.04041">
        <ele>287.4</ele>
        <time>2026-02-27T09:10:49</time>
      </trkpt>
      <trkpt lat="45.50433" lon="6.04044">
        <ele>287.4</ele>
        <time>2026-02-27T09:10:51</time>
      </trkpt>
      <trkpt lat="45.50434" lon="6.04045">
        <ele>287.4</ele>
        <time>2026-02-27T09:10:52</time>
      </trkpt>
      <trkpt lat="45.50433" lon="6.04049">
        <ele>287.8</ele>
        <time>2026-02-27T09:10:54</time>
      </trkpt>
      <trkpt lat="45.50433" lon="6.0405">
        <ele>287.8</ele>
        <time>2026-02-27T09:10:55</time>
      </trkpt>
      <trkpt lat="45.50431" lon="6.04051">
        <ele>287.8</ele>
        <time>2026-02-27T09:10:56</time>
      </trkpt>
      <trkpt lat="45.50431" lon="6.04052">
        <ele>287.8</ele>
        <time>2026-02-27T09:10:56</time>
      </trkpt>
      <trkpt lat="45.5043" lon="6.04054">
        <ele>287.8</ele>
        <time>2026-02-27T09:10:58</time>
      </trkpt>
      <trkpt lat="45.50428" lon="6.04061">
        <ele>288.1</ele>
        <time>2026-02-27T09:11:01</time>
      </trkpt>
      <trkpt lat="45.50427" lon="6.04062">
        <ele>288.1</ele>
        <time>2026-02-27T09:11:02</time>
      </trkpt>
      <trkpt lat="45.50427" lon="6.04069">
        <ele>287.8</ele>
        <time>2026-02-27T09:11:05</time>
      </trkpt>
      <trkpt lat="45.50426" lon="6.0407">
        <ele>287.8</ele>
        <time>2026-02-27T09:11:06</time>
      </trkpt>
      <trkpt lat="45.50425" lon="6.04071">
        <ele>287.8</ele>
        <time>2026-02-27T09:11:07</time>
      </trkpt>
      <trkpt lat="45.50423" lon="6.04071">
        <ele>287.8</ele>
        <time>2026-02-27T09:11:08</time>
      </trkpt>
      <trkpt lat="45.50423" lon="6.04073">
        <ele>287.8</ele>
        <time>2026-02-27T09:11:09</time>
      </trkpt>
      <trkpt lat="45.50419" lon="6.04082">
        <ele>288.1</ele>
        <time>2026-02-27T09:11:14</time>
      </trkpt>
      <trkpt lat="45.50419" lon="6.04086">
        <ele>288.1</ele>
        <time>2026-02-27T09:11:15</time>
      </trkpt>
      <trkpt lat="45.50418" lon="6.04088">
        <ele>288.1</ele>
        <time>2026-02-27T09:11:17</time>
      </trkpt>
      <trkpt lat="45.50417" lon="6.04092">
        <ele>288.1</ele>
        <time>2026-02-27T09:11:19</time>
      </trkpt>
      <trkpt lat="45.50416" lon="6.04093">
        <ele>288.1</ele>
        <time>2026-02-27T09:11:20</time>
      </trkpt>
      <trkpt lat="45.50415" lon="6.04096">
        <ele>287</ele>
        <time>2026-02-27T09:11:22</time>
      </trkpt>
      <trkpt lat="45.50415" lon="6.04098">
        <ele>287</ele>
        <time>2026-02-27T09:11:23</time>
      </trkpt>
      <trkpt lat="45.50414" lon="6.04099">
        <ele>287</ele>
        <time>2026-02-27T09:11:23</time>
      </trkpt>
      <trkpt lat="45.50413" lon="6.04102">
        <ele>287</ele>
        <time>2026-02-27T09:11:25</time>
      </trkpt>
      <trkpt lat="45.50413" lon="6.04106">
        <ele>286.2</ele>
        <time>2026-02-27T09:11:28</time>
      </trkpt>
      <trkpt lat="45.50413" lon="6.04107">
        <ele>286.2</ele>
        <time>2026-02-27T09:11:28</time>
      </trkpt>
      <trkpt lat="45.50413" lon="6.04111">
        <ele>286.2</ele>
        <time>2026-02-27T09:11:31</time>
      </trkpt>
      <trkpt lat="45.50411" lon="6.04114">
        <ele>286.2</ele>
        <time>2026-02-27T09:11:33</time>
      </trkpt>
      <trkpt lat="45.50402" lon="6.04138">
        <ele>287.6</ele>
        <time>2026-02-27T09:11:46</time>
      </trkpt>
      <trkpt lat="45.50395" lon="6.0416">
        <ele>287.2</ele>
        <time>2026-02-27T09:11:58</time>
      </trkpt>
      <trkpt lat="45.5039" lon="6.04171">
        <ele>287.2</ele>
        <time>2026-02-27T09:12:04</time>
      </trkpt>
      <trkpt lat="45.50384" lon="6.04192">
        <ele>286.1</ele>
        <time>2026-02-27T09:12:16</time>
      </trkpt>
      <trkpt lat="45.50384" lon="6.04193">
        <ele>286.1</ele>
        <time>2026-02-27T09:12:16</time>
      </trkpt>
      <trkpt lat="45.50384" lon="6.04195">
        <ele>286.1</ele>
        <time>2026-02-27T09:12:18</time>
      </trkpt>
      <trkpt lat="45.50384" lon="6.04195">
        <ele>286.1</ele>
        <time>2026-02-27T09:12:19</time>
      </trkpt>
      <trkpt lat="45.50384" lon="6.04196">
        <ele>286.8</ele>
        <time>2026-02-27T09:12:19</time>
      </trkpt>
      <trkpt lat="45.50382" lon="6.04198">
        <ele>286.8</ele>
        <time>2026-02-27T09:12:21</time>
      </trkpt>
      <trkpt lat="45.50382" lon="6.04199">
        <ele>286.8</ele>
        <time>2026-02-27T09:12:24</time>
      </trkpt>
      <trkpt lat="45.50382" lon="6.04199">
        <ele>286.8</ele>
        <time>2026-02-27T09:12:25</time>
      </trkpt>
      <trkpt lat="45.50382" lon="6.04199">
        <ele>286.8</ele>
        <time>2026-02-27T09:12:26</time>
      </trkpt>
      <trkpt lat="45.50383" lon="6.04199">
        <ele>286.8</ele>
        <time>2026-02-27T09:12:26</time>
      </trkpt>
      <trkpt lat="45.50383" lon="6.04199">
        <ele>291</ele>
        <time>2026-02-27T09:12:28</time>
      </trkpt>
      <trkpt lat="45.50383" lon="6.04199">
        <ele>291</ele>
        <time>2026-02-27T09:12:28</time>
      </trkpt>
      <trkpt lat="45.50383" lon="6.04199">
        <ele>291</ele>
        <time>2026-02-27T09:12:29</time>
      </trkpt>
      <trkpt lat="45.50383" lon="6.04199">
        <ele>291</ele>
        <time>2026-02-27T09:12:30</time>
      </trkpt>
      <trkpt lat="45.50383" lon="6.04199">
        <ele>291</ele>
        <time>2026-02-27T09:12:31</time>
      </trkpt>
      <trkpt lat="45.50383" lon="6.04199">
        <ele>291</ele>
        <time>2026-02-27T09:12:32</time>
      </trkpt>
      <trkpt lat="45.50383" lon="6.04199">
        <ele>291</ele>
        <time>2026-02-27T09:12:33</time>
      </trkpt>
      <trkpt lat="45.50383" lon="6.04199">
        <ele>291</ele>
        <time>2026-02-27T09:12:34</time>
      </trkpt>
      <trkpt lat="45.50384" lon="6.04199">
        <ele>291.6</ele>
        <time>2026-02-27T09:13:08</time>
      </trkpt>
      <trkpt lat="45.50383" lon="6.04199">
        <ele>291.6</ele>
        <time>2026-02-27T09:13:08</time>
      </trkpt>
      <trkpt lat="45.50383" lon="6.042">
        <ele>291.6</ele>
        <time>2026-02-27T09:13:09</time>
      </trkpt>
      <trkpt lat="45.50382" lon="6.042">
        <ele>291.6</ele>
        <time>2026-02-27T09:13:09</time>
      </trkpt>
      <trkpt lat="45.50381" lon="6.04202">
        <ele>291.6</ele>
        <time>2026-02-27T09:13:10</time>
      </trkpt>
      <trkpt lat="45.50377" lon="6.04211">
        <ele>291.6</ele>
        <time>2026-02-27T09:13:15</time>
      </trkpt>
      <trkpt lat="45.50376" lon="6.04214">
        <ele>290.7</ele>
        <time>2026-02-27T09:13:16</time>
      </trkpt>
      <trkpt lat="45.50376" lon="6.04215">
        <ele>290.7</ele>
        <time>2026-02-27T09:13:16</time>
      </trkpt>
      <trkpt lat="45.50375" lon="6.04217">
        <ele>290.7</ele>
        <time>2026-02-27T09:13:17</time>
      </trkpt>
      <trkpt lat="45.50374" lon="6.04218">
        <ele>290.7</ele>
        <time>2026-02-27T09:13:18</time>
      </trkpt>
      <trkpt lat="45.50374" lon="6.04219">
        <ele>290.7</ele>
        <time>2026-02-27T09:13:18</time>
      </trkpt>
      <trkpt lat="45.50374" lon="6.0422">
        <ele>290.7</ele>
        <time>2026-02-27T09:13:19</time>
      </trkpt>
      <trkpt lat="45.50374" lon="6.04225">
        <ele>291.6</ele>
        <time>2026-02-27T09:13:21</time>
      </trkpt>
      <trkpt lat="45.50372" lon="6.04228">
        <ele>291.6</ele>
        <time>2026-02-27T09:13:23</time>
      </trkpt>
      <trkpt lat="45.50372" lon="6.04228">
        <ele>291.6</ele>
        <time>2026-02-27T09:13:23</time>
      </trkpt>
      <trkpt lat="45.50371" lon="6.04229">
        <ele>291.6</ele>
        <time>2026-02-27T09:13:24</time>
      </trkpt>
      <trkpt lat="45.50371" lon="6.0423">
        <ele>291.6</ele>
        <time>2026-02-27T09:13:25</time>
      </trkpt>
      <trkpt lat="45.5037" lon="6.04232">
        <ele>291.6</ele>
        <time>2026-02-27T09:13:26</time>
      </trkpt>
      <trkpt lat="45.50358" lon="6.0427">
        <ele>294</ele>
        <time>2026-02-27T09:13:46</time>
      </trkpt>
      <trkpt lat="45.50358" lon="6.04273">
        <ele>294.7</ele>
        <time>2026-02-27T09:13:48</time>
      </trkpt>
      <trkpt lat="45.50357" lon="6.04277">
        <ele>294.7</ele>
        <time>2026-02-27T09:13:50</time>
      </trkpt>
      <trkpt lat="45.50351" lon="6.04297">
        <ele>294.4</ele>
        <time>2026-02-27T09:14:01</time>
      </trkpt>
      <trkpt lat="45.5035" lon="6.04298">
        <ele>294.4</ele>
        <time>2026-02-27T09:14:01</time>
      </trkpt>
      <trkpt lat="45.5035" lon="6.04299">
        <ele>294.4</ele>
        <time>2026-02-27T09:14:02</time>
      </trkpt>
      <trkpt lat="45.50349" lon="6.043">
        <ele>294.4</ele>
        <time>2026-02-27T09:14:03</time>
      </trkpt>
      <trkpt lat="45.50347" lon="6.04306">
        <ele>293.5</ele>
        <time>2026-02-27T09:14:06</time>
      </trkpt>
      <trkpt lat="45.50346" lon="6.0431">
        <ele>293.5</ele>
        <time>2026-02-27T09:14:08</time>
      </trkpt>
      <trkpt lat="45.50346" lon="6.04313">
        <ele>293.5</ele>
        <time>2026-02-27T09:14:10</time>
      </trkpt>
      <trkpt lat="45.50341" lon="6.04327">
        <ele>294.2</ele>
        <time>2026-02-27T09:14:18</time>
      </trkpt>
      <trkpt lat="45.5034" lon="6.0433">
        <ele>294.2</ele>
        <time>2026-02-27T09:14:19</time>
      </trkpt>
      <trkpt lat="45.50341" lon="6.04331">
        <ele>294.2</ele>
        <time>2026-02-27T09:14:20</time>
      </trkpt>
      <trkpt lat="45.5034" lon="6.04333">
        <ele>294.2</ele>
        <time>2026-02-27T09:14:21</time>
      </trkpt>
      <trkpt lat="45.50336" lon="6.04339">
        <ele>293.5</ele>
        <time>2026-02-27T09:14:24</time>
      </trkpt>
      <trkpt lat="45.50336" lon="6.04341">
        <ele>293.5</ele>
        <time>2026-02-27T09:14:25</time>
      </trkpt>
      <trkpt lat="45.50335" lon="6.04343">
        <ele>293.5</ele>
        <time>2026-02-27T09:14:27</time>
      </trkpt>
      <trkpt lat="45.50334" lon="6.04347">
        <ele>293.8</ele>
        <time>2026-02-27T09:14:29</time>
      </trkpt>
      <trkpt lat="45.50326" lon="6.04374">
        <ele>295</ele>
        <time>2026-02-27T09:14:44</time>
      </trkpt>
      <trkpt lat="45.50326" lon="6.04381">
        <ele>295</ele>
        <time>2026-02-27T09:14:47</time>
      </trkpt>
      <trkpt lat="45.50325" lon="6.04382">
        <ele>295</ele>
        <time>2026-02-27T09:14:48</time>
      </trkpt>
      <trkpt lat="45.50325" lon="6.04382">
        <ele>296.06668</ele>
        <time>2026-02-27T09:14:48</time>
      </trkpt>
      <trkpt lat="45.50325" lon="6.04384">
        <ele>296.06668</ele>
        <time>2026-02-27T09:14:49</time>
      </trkpt>
      <trkpt lat="45.50325" lon="6.04385">
        <ele>296.06668</ele>
        <time>2026-02-27T09:14:49</time>
      </trkpt>
      <trkpt lat="45.50325" lon="6.04386">
        <ele>296.06668</ele>
        <time>2026-02-27T09:14:50</time>
      </trkpt>
      <trkpt lat="45.50326" lon="6.04396">
        <ele>295.9</ele>
        <time>2026-02-27T09:14:55</time>
      </trkpt>
      <trkpt lat="45.50325" lon="6.044">
        <ele>295.9</ele>
        <time>2026-02-27T09:14:58</time>
      </trkpt>
      <trkpt lat="45.50323" lon="6.04403">
        <ele>297.6</ele>
        <time>2026-02-27T09:15:00</time>
      </trkpt>
      <trkpt lat="45.50322" lon="6.04407">
        <ele>297.6</ele>
        <time>2026-02-27T09:15:02</time>
      </trkpt>
      <trkpt lat="45.50321" lon="6.04411">
        <ele>297.6</ele>
        <time>2026-02-27T09:15:05</time>
      </trkpt>
      <trkpt lat="45.50321" lon="6.04411">
        <ele>297.6</ele>
        <time>2026-02-27T09:15:05</time>
      </trkpt>
      <trkpt lat="45.50322" lon="6.04411">
        <ele>298.1</ele>
        <time>2026-02-27T09:15:06</time>
      </trkpt>
      <trkpt lat="45.50322" lon="6.04411">
        <ele>298.1</ele>
        <time>2026-02-27T09:15:07</time>
      </trkpt>
      <trkpt lat="45.50321" lon="6.04413">
        <ele>298.1</ele>
        <time>2026-02-27T09:15:08</time>
      </trkpt>
      <trkpt lat="45.5032" lon="6.04415">
        <ele>298.1</ele>
        <time>2026-02-27T09:15:08</time>
      </trkpt>
      <trkpt lat="45.50319" lon="6.04426">
        <ele>297.8</ele>
        <time>2026-02-27T09:15:13</time>
      </trkpt>
      <trkpt lat="45.50315" lon="6.04448">
        <ele>296.8</ele>
        <time>2026-02-27T09:15:24</time>
      </trkpt>
      <trkpt lat="45.50314" lon="6.04453">
        <ele>296.8</ele>
        <time>2026-02-27T09:15:27</time>
      </trkpt>
      <trkpt lat="45.50312" lon="6.04477">
        <ele>297.7</ele>
        <time>2026-02-27T09:15:40</time>
      </trkpt>
      <trkpt lat="45.50312" lon="6.0448">
        <ele>297.8</ele>
        <time>2026-02-27T09:15:41</time>
      </trkpt>
      <trkpt lat="45.50311" lon="6.04487">
        <ele>297.8</ele>
        <time>2026-02-27T09:15:45</time>
      </trkpt>
      <trkpt lat="45.50311" lon="6.0449">
        <ele>297.8</ele>
        <time>2026-02-27T09:15:46</time>
      </trkpt>
      <trkpt lat="45.5031" lon="6.04494">
        <ele>297.8</ele>
        <time>2026-02-27T09:15:49</time>
      </trkpt>
      <trkpt lat="45.5031" lon="6.04497">
        <ele>297.8</ele>
        <time>2026-02-27T09:15:51</time>
      </trkpt>
      <trkpt lat="45.5031" lon="6.04499">
        <ele>299.2</ele>
        <time>2026-02-27T09:15:52</time>
      </trkpt>
      <trkpt lat="45.50311" lon="6.04503">
        <ele>299.2</ele>
        <time>2026-02-27T09:15:54</time>
      </trkpt>
      <trkpt lat="45.50311" lon="6.04504">
        <ele>299.2</ele>
        <time>2026-02-27T09:15:55</time>
      </trkpt>
      <trkpt lat="45.5031" lon="6.04509">
        <ele>300.4</ele>
        <time>2026-02-27T09:15:57</time>
      </trkpt>
      <trkpt lat="45.5031" lon="6.04516">
        <ele>300.4</ele>
        <time>2026-02-27T09:16:00</time>
      </trkpt>
      <trkpt lat="45.5031" lon="6.04518">
        <ele>300.4</ele>
        <time>2026-02-27T09:16:01</time>
      </trkpt>
      <trkpt lat="45.5031" lon="6.04521">
        <ele>300.3</ele>
        <time>2026-02-27T09:16:02</time>
      </trkpt>
      <trkpt lat="45.50308" lon="6.04527">
        <ele>300.3</ele>
        <time>2026-02-27T09:16:06</time>
      </trkpt>
      <trkpt lat="45.50308" lon="6.04528">
        <ele>300.3</ele>
        <time>2026-02-27T09:16:06</time>
      </trkpt>
      <trkpt lat="45.50308" lon="6.04529">
        <ele>300.3</ele>
        <time>2026-02-27T09:16:07</time>
      </trkpt>
      <trkpt lat="45.50306" lon="6.04532">
        <ele>299.2</ele>
        <time>2026-02-27T09:16:09</time>
      </trkpt>
      <trkpt lat="45.50307" lon="6.04529">
        <ele>296.2</ele>
        <time>2026-02-27T09:16:23</time>
      </trkpt>
      <trkpt lat="45.50307" lon="6.04529">
        <ele>296.2</ele>
        <time>2026-02-27T09:16:26</time>
      </trkpt>
      <trkpt lat="45.50307" lon="6.04532">
        <ele>294.6</ele>
        <time>2026-02-27T09:16:27</time>
      </trkpt>
      <trkpt lat="45.50307" lon="6.04534">
        <ele>294.6</ele>
        <time>2026-02-27T09:16:28</time>
      </trkpt>
      <trkpt lat="45.50308" lon="6.04536">
        <ele>294.6</ele>
        <time>2026-02-27T09:16:29</time>
      </trkpt>
      <trkpt lat="45.50308" lon="6.0454">
        <ele>294.6</ele>
        <time>2026-02-27T09:16:31</time>
      </trkpt>
      <trkpt lat="45.50308" lon="6.04541">
        <ele>294.6</ele>
        <time>2026-02-27T09:16:32</time>
      </trkpt>
      <trkpt lat="45.50309" lon="6.04543">
        <ele>294.6</ele>
        <time>2026-02-27T09:16:32</time>
      </trkpt>
      <trkpt lat="45.50309" lon="6.04545">
        <ele>294.5</ele>
        <time>2026-02-27T09:16:33</time>
      </trkpt>
      <trkpt lat="45.5031" lon="6.04548">
        <ele>294.5</ele>
        <time>2026-02-27T09:16:34</time>
      </trkpt>
      <trkpt lat="45.5031" lon="6.0455">
        <ele>294.5</ele>
        <time>2026-02-27T09:16:35</time>
      </trkpt>
      <trkpt lat="45.5031" lon="6.04555">
        <ele>294.5</ele>
        <time>2026-02-27T09:16:37</time>
      </trkpt>
      <trkpt lat="45.50309" lon="6.04561">
        <ele>294.3</ele>
        <time>2026-02-27T09:16:41</time>
      </trkpt>
      <trkpt lat="45.50309" lon="6.0457">
        <ele>294.1</ele>
        <time>2026-02-27T09:16:46</time>
      </trkpt>
      <trkpt lat="45.50309" lon="6.04591">
        <ele>298</ele>
        <time>2026-02-27T09:16:57</time>
      </trkpt>
      <trkpt lat="45.50309" lon="6.04592">
        <ele>298</ele>
        <time>2026-02-27T09:16:58</time>
      </trkpt>
      <trkpt lat="45.50309" lon="6.04596">
        <ele>298</ele>
        <time>2026-02-27T09:17:01</time>
      </trkpt>
      <trkpt lat="45.50309" lon="6.04621">
        <ele>295.6</ele>
        <time>2026-02-27T09:17:14</time>
      </trkpt>
      <trkpt lat="45.50309" lon="6.04626">
        <ele>295.7</ele>
        <time>2026-02-27T09:17:17</time>
      </trkpt>
      <trkpt lat="45.50308" lon="6.04635">
        <ele>296.2</ele>
        <time>2026-02-27T09:17:21</time>
      </trkpt>
      <trkpt lat="45.50308" lon="6.04641">
        <ele>296.2</ele>
        <time>2026-02-27T09:17:25</time>
      </trkpt>
      <trkpt lat="45.50309" lon="6.04645">
        <ele>296</ele>
        <time>2026-02-27T09:17:28</time>
      </trkpt>
      <trkpt lat="45.50309" lon="6.04646">
        <ele>296</ele>
        <time>2026-02-27T09:17:29</time>
      </trkpt>
      <trkpt lat="45.50309" lon="6.04648">
        <ele>296</ele>
        <time>2026-02-27T09:17:30</time>
      </trkpt>
      <trkpt lat="45.50309" lon="6.0465">
        <ele>296</ele>
        <time>2026-02-27T09:17:32</time>
      </trkpt>
      <trkpt lat="45.50309" lon="6.04652">
        <ele>296.7</ele>
        <time>2026-02-27T09:17:34</time>
      </trkpt>
      <trkpt lat="45.5031" lon="6.04656">
        <ele>296.7</ele>
        <time>2026-02-27T09:17:37</time>
      </trkpt>
      <trkpt lat="45.50309" lon="6.04657">
        <ele>296.7</ele>
        <time>2026-02-27T09:17:38</time>
      </trkpt>
      <trkpt lat="45.50308" lon="6.04657">
        <ele>296.7</ele>
        <time>2026-02-27T09:17:39</time>
      </trkpt>
      <trkpt lat="45.50308" lon="6.04658">
        <ele>295.6</ele>
        <time>2026-02-27T09:17:41</time>
      </trkpt>
      <trkpt lat="45.50309" lon="6.04659">
        <ele>295.6</ele>
        <time>2026-02-27T09:17:41</time>
      </trkpt>
      <trkpt lat="45.50309" lon="6.04659">
        <ele>295.6</ele>
        <time>2026-02-27T09:17:42</time>
      </trkpt>
      <trkpt lat="45.50309" lon="6.0466">
        <ele>295.6</ele>
        <time>2026-02-27T09:17:43</time>
      </trkpt>
      <trkpt lat="45.50309" lon="6.0466">
        <ele>295.6</ele>
        <time>2026-02-27T09:17:44</time>
      </trkpt>
      <trkpt lat="45.50309" lon="6.0466">
        <ele>295.6</ele>
        <time>2026-02-27T09:17:45</time>
      </trkpt>
      <trkpt lat="45.50309" lon="6.0466">
        <ele>295.6</ele>
        <time>2026-02-27T09:17:46</time>
      </trkpt>
      <trkpt lat="45.50309" lon="6.04659">
        <ele>295.6</ele>
        <time>2026-02-27T09:17:48</time>
      </trkpt>
      <trkpt lat="45.50309" lon="6.04659">
        <ele>295.6</ele>
        <time>2026-02-27T09:17:49</time>
      </trkpt>
      <trkpt lat="45.50309" lon="6.04659">
        <ele>294.9</ele>
        <time>2026-02-27T09:17:50</time>
      </trkpt>
      <trkpt lat="45.5031" lon="6.04658">
        <ele>295</ele>
        <time>2026-02-27T09:18:01</time>
      </trkpt>
      <trkpt lat="45.5031" lon="6.04658">
        <ele>295</ele>
        <time>2026-02-27T09:18:03</time>
      </trkpt>
      <trkpt lat="45.5031" lon="6.04658">
        <ele>295</ele>
        <time>2026-02-27T09:18:04</time>
      </trkpt>
      <trkpt lat="45.5031" lon="6.04659">
        <ele>295</ele>
        <time>2026-02-27T09:18:04</time>
      </trkpt>
      <trkpt lat="45.50311" lon="6.04663">
        <ele>295.23334</ele>
        <time>2026-02-27T09:18:07</time>
      </trkpt>
      <trkpt lat="45.50313" lon="6.04681">
        <ele>295.8</ele>
        <time>2026-02-27T09:18:14</time>
      </trkpt>
      <trkpt lat="45.50314" lon="6.04693">
        <ele>295.6</ele>
        <time>2026-02-27T09:18:20</time>
      </trkpt>
      <trkpt lat="45.50313" lon="6.04695">
        <ele>295.6</ele>
        <time>2026-02-27T09:18:20</time>
      </trkpt>
      <trkpt lat="45.50312" lon="6.047">
        <ele>295.6</ele>
        <time>2026-02-27T09:18:23</time>
      </trkpt>
      <trkpt lat="45.50313" lon="6.04703">
        <ele>295.6</ele>
        <time>2026-02-27T09:18:25</time>
      </trkpt>
      <trkpt lat="45.50313" lon="6.04704">
        <ele>294.9</ele>
        <time>2026-02-27T09:18:25</time>
      </trkpt>
      <trkpt lat="45.50314" lon="6.04705">
        <ele>294.9</ele>
        <time>2026-02-27T09:18:26</time>
      </trkpt>
      <trkpt lat="45.50314" lon="6.04706">
        <ele>294.9</ele>
        <time>2026-02-27T09:18:27</time>
      </trkpt>
      <trkpt lat="45.50314" lon="6.04707">
        <ele>294.9</ele>
        <time>2026-02-27T09:18:27</time>
      </trkpt>
      <trkpt lat="45.50314" lon="6.04711">
        <ele>294.6</ele>
        <time>2026-02-27T09:18:31</time>
      </trkpt>
      <trkpt lat="45.50316" lon="6.04742">
        <ele>294.9</ele>
        <time>2026-02-27T09:18:46</time>
      </trkpt>
      <trkpt lat="45.5032" lon="6.04776">
        <ele>294.5</ele>
        <time>2026-02-27T09:19:03</time>
      </trkpt>
      <trkpt lat="45.50322" lon="6.04792">
        <ele>295.8</ele>
        <time>2026-02-27T09:19:12</time>
      </trkpt>
      <trkpt lat="45.50325" lon="6.04825">
        <ele>296.4</ele>
        <time>2026-02-27T09:19:27</time>
      </trkpt>
      <trkpt lat="45.50332" lon="6.04862">
        <ele>295.5</ele>
        <time>2026-02-27T09:19:45</time>
      </trkpt>
      <trkpt lat="45.50335" lon="6.04873">
        <ele>295.6</ele>
        <time>2026-02-27T09:19:52</time>
      </trkpt>
      <trkpt lat="45.50341" lon="6.04904">
        <ele>295.6</ele>
        <time>2026-02-27T09:20:09</time>
      </trkpt>
      <trkpt lat="45.50342" lon="6.04912">
        <ele>297.7</ele>
        <time>2026-02-27T09:20:13</time>
      </trkpt>
      <trkpt lat="45.50343" lon="6.04915">
        <ele>297.7</ele>
        <time>2026-02-27T09:20:14</time>
      </trkpt>
      <trkpt lat="45.50344" lon="6.04922">
        <ele>297.9</ele>
        <time>2026-02-27T09:20:18</time>
      </trkpt>
      <trkpt lat="45.50345" lon="6.04925">
        <ele>297.9</ele>
        <time>2026-02-27T09:20:20</time>
      </trkpt>
      <trkpt lat="45.50349" lon="6.04932">
        <ele>296.7</ele>
        <time>2026-02-27T09:20:24</time>
      </trkpt>
      <trkpt lat="45.50351" lon="6.04934">
        <ele>296.7</ele>
        <time>2026-02-27T09:20:26</time>
      </trkpt>
      <trkpt lat="45.50352" lon="6.04937">
        <ele>296.7</ele>
        <time>2026-02-27T09:20:28</time>
      </trkpt>
      <trkpt lat="45.50354" lon="6.04946">
        <ele>296</ele>
        <time>2026-02-27T09:20:32</time>
      </trkpt>
      <trkpt lat="45.50354" lon="6.04951">
        <ele>296</ele>
        <time>2026-02-27T09:20:34</time>
      </trkpt>
      <trkpt lat="45.50355" lon="6.04952">
        <ele>296</ele>
        <time>2026-02-27T09:20:35</time>
      </trkpt>
      <trkpt lat="45.50355" lon="6.04954">
        <ele>295</ele>
        <time>2026-02-27T09:20:35</time>
      </trkpt>
      <trkpt lat="45.50355" lon="6.04958">
        <ele>295</ele>
        <time>2026-02-27T09:20:37</time>
      </trkpt>
      <trkpt lat="45.50356" lon="6.04967">
        <ele>294.7</ele>
        <time>2026-02-27T09:20:41</time>
      </trkpt>
      <trkpt lat="45.50356" lon="6.04967">
        <ele>294.7</ele>
        <time>2026-02-27T09:20:42</time>
      </trkpt>
      <trkpt lat="45.50357" lon="6.04968">
        <ele>294.7</ele>
        <time>2026-02-27T09:20:42</time>
      </trkpt>
      <trkpt lat="45.50357" lon="6.04969">
        <ele>294.7</ele>
        <time>2026-02-27T09:20:43</time>
      </trkpt>
      <trkpt lat="45.5036" lon="6.04972">
        <ele>294.7</ele>
        <time>2026-02-27T09:20:46</time>
      </trkpt>
      <trkpt lat="45.5036" lon="6.04973">
        <ele>294.7</ele>
        <time>2026-02-27T09:20:46</time>
      </trkpt>
      <trkpt lat="45.5036" lon="6.04974">
        <ele>296.16666</ele>
        <time>2026-02-27T09:20:47</time>
      </trkpt>
      <trkpt lat="45.5036" lon="6.04976">
        <ele>296.16666</ele>
        <time>2026-02-27T09:20:47</time>
      </trkpt>
      <trkpt lat="45.5036" lon="6.04977">
        <ele>296.16666</ele>
        <time>2026-02-27T09:20:48</time>
      </trkpt>
      <trkpt lat="45.50361" lon="6.0498">
        <ele>296.16666</ele>
        <time>2026-02-27T09:20:49</time>
      </trkpt>
      <trkpt lat="45.50364" lon="6.04998">
        <ele>296.3</ele>
        <time>2026-02-27T09:20:58</time>
      </trkpt>
      <trkpt lat="45.50365" lon="6.05001">
        <ele>294.43332</ele>
        <time>2026-02-27T09:21:00</time>
      </trkpt>
      <trkpt lat="45.50366" lon="6.05006">
        <ele>294.43332</ele>
        <time>2026-02-27T09:21:02</time>
      </trkpt>
      <trkpt lat="45.50367" lon="6.05007">
        <ele>294.43332</ele>
        <time>2026-02-27T09:21:03</time>
      </trkpt>
      <trkpt lat="45.50368" lon="6.05007">
        <ele>294.9</ele>
        <time>2026-02-27T09:21:04</time>
      </trkpt>
      <trkpt lat="45.50369" lon="6.05009">
        <ele>294.9</ele>
        <time>2026-02-27T09:21:05</time>
      </trkpt>
      <trkpt lat="45.5037" lon="6.05011">
        <ele>294.9</ele>
        <time>2026-02-27T09:21:06</time>
      </trkpt>
      <trkpt lat="45.50378" lon="6.05042">
        <ele>297.6</ele>
        <time>2026-02-27T09:21:23</time>
      </trkpt>
      <trkpt lat="45.50381" lon="6.0505">
        <ele>297.9</ele>
        <time>2026-02-27T09:21:27</time>
      </trkpt>
      <trkpt lat="45.50385" lon="6.0506">
        <ele>297.4</ele>
        <time>2026-02-27T09:21:33</time>
      </trkpt>
      <trkpt lat="45.50386" lon="6.05064">
        <ele>297.4</ele>
        <time>2026-02-27T09:21:36</time>
      </trkpt>
      <trkpt lat="45.50386" lon="6.05065">
        <ele>297.3</ele>
        <time>2026-02-27T09:21:36</time>
      </trkpt>
      <trkpt lat="45.50387" lon="6.05068">
        <ele>297.3</ele>
        <time>2026-02-27T09:21:38</time>
      </trkpt>
      <trkpt lat="45.50391" lon="6.0508">
        <ele>296.76666</ele>
        <time>2026-02-27T09:21:44</time>
      </trkpt>
      <trkpt lat="45.50395" lon="6.05089">
        <ele>296</ele>
        <time>2026-02-27T09:21:50</time>
      </trkpt>
      <trkpt lat="45.50396" lon="6.0509">
        <ele>296</ele>
        <time>2026-02-27T09:21:51</time>
      </trkpt>
      <trkpt lat="45.50397" lon="6.05092">
        <ele>296</ele>
        <time>2026-02-27T09:21:52</time>
      </trkpt>
      <trkpt lat="45.50406" lon="6.05121">
        <ele>296.33334</ele>
        <time>2026-02-27T09:22:06</time>
      </trkpt>
      <trkpt lat="45.50407" lon="6.05126">
        <ele>296.6</ele>
        <time>2026-02-27T09:22:09</time>
      </trkpt>
      <trkpt lat="45.50409" lon="6.0513">
        <ele>296.6</ele>
        <time>2026-02-27T09:22:11</time>
      </trkpt>
      <trkpt lat="45.50411" lon="6.05131">
        <ele>297.3</ele>
        <time>2026-02-27T09:22:13</time>
      </trkpt>
      <trkpt lat="45.50413" lon="6.05133">
        <ele>297.3</ele>
        <time>2026-02-27T09:22:14</time>
      </trkpt>
      <trkpt lat="45.50414" lon="6.05133">
        <ele>297.3</ele>
        <time>2026-02-27T09:22:15</time>
      </trkpt>
      <trkpt lat="45.50415" lon="6.05133">
        <ele>297.3</ele>
        <time>2026-02-27T09:22:16</time>
      </trkpt>
      <trkpt lat="45.50416" lon="6.05134">
        <ele>297.3</ele>
        <time>2026-02-27T09:22:17</time>
      </trkpt>
      <trkpt lat="45.50417" lon="6.05134">
        <ele>295.6</ele>
        <time>2026-02-27T09:22:18</time>
      </trkpt>
      <trkpt lat="45.50418" lon="6.05135">
        <ele>295.6</ele>
        <time>2026-02-27T09:22:19</time>
      </trkpt>
      <trkpt lat="45.5042" lon="6.05136">
        <ele>295.6</ele>
        <time>2026-02-27T09:22:21</time>
      </trkpt>
      <trkpt lat="45.50429" lon="6.05143">
        <ele>295.43332</ele>
        <time>2026-02-27T09:22:27</time>
      </trkpt>
      <trkpt lat="45.50442" lon="6.05151">
        <ele>294.2</ele>
        <time>2026-02-27T09:22:38</time>
      </trkpt>
      <trkpt lat="45.50444" lon="6.05151">
        <ele>294.2</ele>
        <time>2026-02-27T09:22:40</time>
      </trkpt>
      <trkpt lat="45.50445" lon="6.05151">
        <ele>294.2</ele>
        <time>2026-02-27T09:22:40</time>
      </trkpt>
      <trkpt lat="45.50449" lon="6.05149">
        <ele>293.7</ele>
        <time>2026-02-27T09:22:43</time>
      </trkpt>
      <trkpt lat="45.5046" lon="6.05144">
        <ele>293.5</ele>
        <time>2026-02-27T09:22:53</time>
      </trkpt>
      <trkpt lat="45.50467" lon="6.0514">
        <ele>293.8</ele>
        <time>2026-02-27T09:23:00</time>
      </trkpt>
      <trkpt lat="45.50469" lon="6.05138">
        <ele>293.8</ele>
        <time>2026-02-27T09:23:02</time>
      </trkpt>
      <trkpt lat="45.50469" lon="6.05136">
        <ele>293.8</ele>
        <time>2026-02-27T09:23:05</time>
      </trkpt>
      <trkpt lat="45.50471" lon="6.05134">
        <ele>294.7</ele>
        <time>2026-02-27T09:23:07</time>
      </trkpt>
      <trkpt lat="45.50473" lon="6.05132">
        <ele>294.7</ele>
        <time>2026-02-27T09:23:11</time>
      </trkpt>
      <trkpt lat="45.50475" lon="6.05131">
        <ele>294.7</ele>
        <time>2026-02-27T09:23:13</time>
      </trkpt>
      <trkpt lat="45.50488" lon="6.05128">
        <ele>294.7</ele>
        <time>2026-02-27T09:23:20</time>
      </trkpt>
      <trkpt lat="45.50489" lon="6.05128">
        <ele>293.1</ele>
        <time>2026-02-27T09:23:21</time>
      </trkpt>
      <trkpt lat="45.50492" lon="6.05129">
        <ele>293.1</ele>
        <time>2026-02-27T09:23:22</time>
      </trkpt>
      <trkpt lat="45.50493" lon="6.05128">
        <ele>293.1</ele>
        <time>2026-02-27T09:23:23</time>
      </trkpt>
      <trkpt lat="45.50496" lon="6.05128">
        <ele>293.1</ele>
        <time>2026-02-27T09:23:26</time>
      </trkpt>
      <trkpt lat="45.505" lon="6.05127">
        <ele>293.1</ele>
        <time>2026-02-27T09:23:29</time>
      </trkpt>
      <trkpt lat="45.50506" lon="6.05124">
        <ele>293.8</ele>
        <time>2026-02-27T09:23:33</time>
      </trkpt>
      <trkpt lat="45.50507" lon="6.05124">
        <ele>293.8</ele>
        <time>2026-02-27T09:23:35</time>
      </trkpt>
      <trkpt lat="45.50521" lon="6.05119">
        <ele>293.8</ele>
        <time>2026-02-27T09:23:44</time>
      </trkpt>
      <trkpt lat="45.50523" lon="6.0512">
        <ele>293.8</ele>
        <time>2026-02-27T09:23:46</time>
      </trkpt>
      <trkpt lat="45.50526" lon="6.0512">
        <ele>293.8</ele>
        <time>2026-02-27T09:23:49</time>
      </trkpt>
      <trkpt lat="45.50528" lon="6.05119">
        <ele>294.4</ele>
        <time>2026-02-27T09:23:50</time>
      </trkpt>
      <trkpt lat="45.5053" lon="6.05119">
        <ele>294.4</ele>
        <time>2026-02-27T09:23:53</time>
      </trkpt>
      <trkpt lat="45.50536" lon="6.05119">
        <ele>296.7</ele>
        <time>2026-02-27T09:23:58</time>
      </trkpt>
      <trkpt lat="45.50538" lon="6.05119">
        <ele>296.7</ele>
        <time>2026-02-27T09:24:00</time>
      </trkpt>
      <trkpt lat="45.50539" lon="6.05119">
        <ele>296.7</ele>
        <time>2026-02-27T09:24:00</time>
      </trkpt>
      <trkpt lat="45.5054" lon="6.05119">
        <ele>296.7</ele>
        <time>2026-02-27T09:24:01</time>
      </trkpt>
      <trkpt lat="45.5054" lon="6.05119">
        <ele>296.7</ele>
        <time>2026-02-27T09:24:02</time>
      </trkpt>
      <trkpt lat="45.50541" lon="6.0512">
        <ele>296.7</ele>
        <time>2026-02-27T09:24:02</time>
      </trkpt>
      <trkpt lat="45.50541" lon="6.05122">
        <ele>296.7</ele>
        <time>2026-02-27T09:24:03</time>
      </trkpt>
      <trkpt lat="45.50543" lon="6.05121">
        <ele>300.5</ele>
        <time>2026-02-27T09:24:04</time>
      </trkpt>
      <trkpt lat="45.50545" lon="6.0512">
        <ele>300.5</ele>
        <time>2026-02-27T09:24:05</time>
      </trkpt>
      <trkpt lat="45.50551" lon="6.05118">
        <ele>300.5</ele>
        <time>2026-02-27T09:24:09</time>
      </trkpt>
      <trkpt lat="45.50552" lon="6.05118">
        <ele>302.9</ele>
        <time>2026-02-27T09:24:10</time>
      </trkpt>
      <trkpt lat="45.50553" lon="6.05119">
        <ele>302.9</ele>
        <time>2026-02-27T09:24:11</time>
      </trkpt>
      <trkpt lat="45.50555" lon="6.0512">
        <ele>302.9</ele>
        <time>2026-02-27T09:24:13</time>
      </trkpt>
      <trkpt lat="45.50562" lon="6.0512">
        <ele>304.6</ele>
        <time>2026-02-27T09:24:18</time>
      </trkpt>
      <trkpt lat="45.50567" lon="6.05122">
        <ele>305.8</ele>
        <time>2026-02-27T09:24:23</time>
      </trkpt>
      <trkpt lat="45.50567" lon="6.05122">
        <ele>305.8</ele>
        <time>2026-02-27T09:24:23</time>
      </trkpt>
      <trkpt lat="45.50445" lon="6.05273">
        <ele>305.8</ele>
        <time>2026-02-27T09:24:24</time>
      </trkpt>
      <trkpt lat="45.50505" lon="6.05207">
        <ele>305.8</ele>
        <time>2026-02-27T09:24:25</time>
      </trkpt>
      <trkpt lat="45.50565" lon="6.05139">
        <ele>305.8</ele>
        <time>2026-02-27T09:24:26</time>
      </trkpt>
      <trkpt lat="45.50571" lon="6.05132">
        <ele>305.8</ele>
        <time>2026-02-27T09:24:27</time>
      </trkpt>
      <trkpt lat="45.50574" lon="6.05129">
        <ele>305.8</ele>
        <time>2026-02-27T09:24:27</time>
      </trkpt>
      <trkpt lat="45.50576" lon="6.05129">
        <ele>308.4</ele>
        <time>2026-02-27T09:24:29</time>
      </trkpt>
      <trkpt lat="45.50581" lon="6.05132">
        <ele>310.3</ele>
        <time>2026-02-27T09:24:38</time>
      </trkpt>
      <trkpt lat="45.50581" lon="6.05132">
        <ele>310.3</ele>
        <time>2026-02-27T09:24:38</time>
      </trkpt>
      <trkpt lat="45.50583" lon="6.05134">
        <ele>310.3</ele>
        <time>2026-02-27T09:24:40</time>
      </trkpt>
      <trkpt lat="45.50586" lon="6.05136">
        <ele>308.7</ele>
        <time>2026-02-27T09:24:43</time>
      </trkpt>
      <trkpt lat="45.50588" lon="6.05138">
        <ele>308.7</ele>
        <time>2026-02-27T09:24:45</time>
      </trkpt>
      <trkpt lat="45.5059" lon="6.05141">
        <ele>307.73334</ele>
        <time>2026-02-27T09:24:48</time>
      </trkpt>
      <trkpt lat="45.50591" lon="6.05143">
        <ele>307.73334</ele>
        <time>2026-02-27T09:24:50</time>
      </trkpt>
      <trkpt lat="45.50593" lon="6.05145">
        <ele>307.73334</ele>
        <time>2026-02-27T09:24:53</time>
      </trkpt>
      <trkpt lat="45.50594" lon="6.05146">
        <ele>307.5</ele>
        <time>2026-02-27T09:24:55</time>
      </trkpt>
      <trkpt lat="45.50596" lon="6.05148">
        <ele>307.5</ele>
        <time>2026-02-27T09:24:58</time>
      </trkpt>
      <trkpt lat="45.50597" lon="6.0515">
        <ele>307.5</ele>
        <time>2026-02-27T09:24:59</time>
      </trkpt>
      <trkpt lat="45.50599" lon="6.0515">
        <ele>307.7</ele>
        <time>2026-02-27T09:25:00</time>
      </trkpt>
      <trkpt lat="45.50605" lon="6.05155">
        <ele>310.3</ele>
        <time>2026-02-27T09:25:09</time>
      </trkpt>
      <trkpt lat="45.50609" lon="6.05157">
        <ele>311</ele>
        <time>2026-02-27T09:25:14</time>
      </trkpt>
      <trkpt lat="45.50611" lon="6.05159">
        <ele>311</ele>
        <time>2026-02-27T09:25:17</time>
      </trkpt>
      <trkpt lat="45.50613" lon="6.05161">
        <ele>311</ele>
        <time>2026-02-27T09:25:19</time>
      </trkpt>
      <trkpt lat="45.50615" lon="6.05165">
        <ele>310.73334</ele>
        <time>2026-02-27T09:25:24</time>
      </trkpt>
      <trkpt lat="45.50616" lon="6.05166">
        <ele>310.73334</ele>
        <time>2026-02-27T09:25:26</time>
      </trkpt>
      <trkpt lat="45.50616" lon="6.05168">
        <ele>312.1</ele>
        <time>2026-02-27T09:25:27</time>
      </trkpt>
      <trkpt lat="45.50617" lon="6.0517">
        <ele>312.1</ele>
        <time>2026-02-27T09:25:30</time>
      </trkpt>
      <trkpt lat="45.50618" lon="6.05172">
        <ele>312.1</ele>
        <time>2026-02-27T09:25:32</time>
      </trkpt>
      <trkpt lat="45.50621" lon="6.05175">
        <ele>313.1</ele>
        <time>2026-02-27T09:25:35</time>
      </trkpt>
      <trkpt lat="45.50623" lon="6.05179">
        <ele>313.1</ele>
        <time>2026-02-27T09:25:39</time>
      </trkpt>
      <trkpt lat="45.50626" lon="6.05185">
        <ele>314.53333</ele>
        <time>2026-02-27T09:25:46</time>
      </trkpt>
      <trkpt lat="45.50628" lon="6.05189">
        <ele>315.2</ele>
        <time>2026-02-27T09:25:51</time>
      </trkpt>
      <trkpt lat="45.50629" lon="6.05191">
        <ele>315.2</ele>
        <time>2026-02-27T09:25:55</time>
      </trkpt>
      <trkpt lat="45.50631" lon="6.05194">
        <ele>316.3</ele>
        <time>2026-02-27T09:25:59</time>
      </trkpt>
      <trkpt lat="45.50632" lon="6.05196">
        <ele>316.3</ele>
        <time>2026-02-27T09:26:00</time>
      </trkpt>
      <trkpt lat="45.50638" lon="6.05204">
        <ele>319.73334</ele>
        <time>2026-02-27T09:26:09</time>
      </trkpt>
      <trkpt lat="45.50639" lon="6.05209">
        <ele>319.73334</ele>
        <time>2026-02-27T09:26:14</time>
      </trkpt>
      <trkpt lat="45.5064" lon="6.05216">
        <ele>321.13333</ele>
        <time>2026-02-27T09:26:20</time>
      </trkpt>
      <trkpt lat="45.50641" lon="6.05221">
        <ele>323.7</ele>
        <time>2026-02-27T09:26:25</time>
      </trkpt>
      <trkpt lat="45.50643" lon="6.05224">
        <ele>323.7</ele>
        <time>2026-02-27T09:26:29</time>
      </trkpt>
      <trkpt lat="45.50643" lon="6.05225">
        <ele>323.7</ele>
        <time>2026-02-27T09:26:30</time>
      </trkpt>
      <trkpt lat="45.50644" lon="6.05225">
        <ele>325.5</ele>
        <time>2026-02-27T09:26:30</time>
      </trkpt>
      <trkpt lat="45.50647" lon="6.05228">
        <ele>325.5</ele>
        <time>2026-02-27T09:26:37</time>
      </trkpt>
      <trkpt lat="45.5065" lon="6.05234">
        <ele>326.6</ele>
        <time>2026-02-27T09:26:42</time>
      </trkpt>
      <trkpt lat="45.5065" lon="6.05237">
        <ele>328.93332</ele>
        <time>2026-02-27T09:26:45</time>
      </trkpt>
      <trkpt lat="45.50651" lon="6.05242">
        <ele>328.93332</ele>
        <time>2026-02-27T09:26:49</time>
      </trkpt>
      <trkpt lat="45.50651" lon="6.05245">
        <ele>330.83334</ele>
        <time>2026-02-27T09:26:52</time>
      </trkpt>
      <trkpt lat="45.50652" lon="6.05248">
        <ele>330.83334</ele>
        <time>2026-02-27T09:26:54</time>
      </trkpt>
      <trkpt lat="45.50653" lon="6.05251">
        <ele>330.83334</ele>
        <time>2026-02-27T09:26:56</time>
      </trkpt>
      <trkpt lat="45.50655" lon="6.05255">
        <ele>332.4</ele>
        <time>2026-02-27T09:27:00</time>
      </trkpt>
      <trkpt lat="45.50657" lon="6.05257">
        <ele>332.4</ele>
        <time>2026-02-27T09:27:04</time>
      </trkpt>
      <trkpt lat="45.50657" lon="6.05257">
        <ele>332.4</ele>
        <time>2026-02-27T09:27:05</time>
      </trkpt>
      <trkpt lat="45.50657" lon="6.05257">
        <ele>332.5</ele>
        <time>2026-02-27T09:27:06</time>
      </trkpt>
      <trkpt lat="45.50657" lon="6.05257">
        <ele>332.5</ele>
        <time>2026-02-27T09:27:07</time>
      </trkpt>
      <trkpt lat="45.50658" lon="6.05259">
        <ele>332.5</ele>
        <time>2026-02-27T09:27:08</time>
      </trkpt>
      <trkpt lat="45.50659" lon="6.05259">
        <ele>332.5</ele>
        <time>2026-02-27T09:27:09</time>
      </trkpt>
      <trkpt lat="45.50659" lon="6.0526">
        <ele>332.5</ele>
        <time>2026-02-27T09:27:10</time>
      </trkpt>
      <trkpt lat="45.50661" lon="6.05262">
        <ele>332.5</ele>
        <time>2026-02-27T09:27:12</time>
      </trkpt>
      <trkpt lat="45.50662" lon="6.05263">
        <ele>333.6</ele>
        <time>2026-02-27T09:27:14</time>
      </trkpt>
      <trkpt lat="45.50662" lon="6.05263">
        <ele>333.6</ele>
        <time>2026-02-27T09:27:15</time>
      </trkpt>
      <trkpt lat="45.50662" lon="6.05264">
        <ele>333.6</ele>
        <time>2026-02-27T09:27:15</time>
      </trkpt>
      <trkpt lat="45.50664" lon="6.05267">
        <ele>333.6</ele>
        <time>2026-02-27T09:27:18</time>
      </trkpt>
      <trkpt lat="45.50666" lon="6.05272">
        <ele>334.1</ele>
        <time>2026-02-27T09:27:22</time>
      </trkpt>
      <trkpt lat="45.50669" lon="6.05275">
        <ele>334.1</ele>
        <time>2026-02-27T09:27:25</time>
      </trkpt>
      <trkpt lat="45.5067" lon="6.05278">
        <ele>334</ele>
        <time>2026-02-27T09:27:27</time>
      </trkpt>
      <trkpt lat="45.50677" lon="6.0529">
        <ele>334.6</ele>
        <time>2026-02-27T09:27:37</time>
      </trkpt>
      <trkpt lat="45.50677" lon="6.05293">
        <ele>334.6</ele>
        <time>2026-02-27T09:27:39</time>
      </trkpt>
      <trkpt lat="45.50678" lon="6.05296">
        <ele>337.33334</ele>
        <time>2026-02-27T09:27:41</time>
      </trkpt>
      <trkpt lat="45.5068" lon="6.05305">
        <ele>337.33334</ele>
        <time>2026-02-27T09:27:47</time>
      </trkpt>
      <trkpt lat="45.50681" lon="6.05307">
        <ele>340.1</ele>
        <time>2026-02-27T09:27:48</time>
      </trkpt>
      <trkpt lat="45.50682" lon="6.05311">
        <ele>340.1</ele>
        <time>2026-02-27T09:27:51</time>
      </trkpt>
      <trkpt lat="45.50684" lon="6.0532">
        <ele>340.7</ele>
        <time>2026-02-27T09:27:56</time>
      </trkpt>
      <trkpt lat="45.50684" lon="6.05321">
        <ele>340.7</ele>
        <time>2026-02-27T09:27:57</time>
      </trkpt>
      <trkpt lat="45.50684" lon="6.05321">
        <ele>340.7</ele>
        <time>2026-02-27T09:27:58</time>
      </trkpt>
      <trkpt lat="45.50685" lon="6.05323">
        <ele>340.7</ele>
        <time>2026-02-27T09:27:59</time>
      </trkpt>
      <trkpt lat="45.50686" lon="6.05324">
        <ele>340.7</ele>
        <time>2026-02-27T09:27:59</time>
      </trkpt>
      <trkpt lat="45.50687" lon="6.05325">
        <ele>341.66666</ele>
        <time>2026-02-27T09:28:01</time>
      </trkpt>
      <trkpt lat="45.50688" lon="6.05326">
        <ele>341.66666</ele>
        <time>2026-02-27T09:28:02</time>
      </trkpt>
      <trkpt lat="45.50688" lon="6.05328">
        <ele>341.66666</ele>
        <time>2026-02-27T09:28:03</time>
      </trkpt>
      <trkpt lat="45.50689" lon="6.05329">
        <ele>341.66666</ele>
        <time>2026-02-27T09:28:04</time>
      </trkpt>
      <trkpt lat="45.5069" lon="6.0533">
        <ele>341.66666</ele>
        <time>2026-02-27T09:28:06</time>
      </trkpt>
      <trkpt lat="45.50691" lon="6.0533">
        <ele>343.3</ele>
        <time>2026-02-27T09:28:06</time>
      </trkpt>
      <trkpt lat="45.50692" lon="6.05329">
        <ele>343.3</ele>
        <time>2026-02-27T09:28:07</time>
      </trkpt>
      <trkpt lat="45.50692" lon="6.05328">
        <ele>343.3</ele>
        <time>2026-02-27T09:28:08</time>
      </trkpt>
      <trkpt lat="45.50692" lon="6.05327">
        <ele>343.3</ele>
        <time>2026-02-27T09:28:09</time>
      </trkpt>
      <trkpt lat="45.50692" lon="6.05326">
        <ele>343.3</ele>
        <time>2026-02-27T09:28:10</time>
      </trkpt>
      <trkpt lat="45.50692" lon="6.05325">
        <ele>343.3</ele>
        <time>2026-02-27T09:28:10</time>
      </trkpt>
      <trkpt lat="45.50692" lon="6.05324">
        <ele>343.3</ele>
        <time>2026-02-27T09:28:11</time>
      </trkpt>
      <trkpt lat="45.50692" lon="6.0532">
        <ele>343.4</ele>
        <time>2026-02-27T09:28:15</time>
      </trkpt>
      <trkpt lat="45.50693" lon="6.05316">
        <ele>343.4</ele>
        <time>2026-02-27T09:28:20</time>
      </trkpt>
      <trkpt lat="45.50693" lon="6.05316">
        <ele>344.3</ele>
        <time>2026-02-27T09:28:21</time>
      </trkpt>
      <trkpt lat="45.50693" lon="6.05315">
        <ele>344.3</ele>
        <time>2026-02-27T09:28:22</time>
      </trkpt>
      <trkpt lat="45.50694" lon="6.05315">
        <ele>344.3</ele>
        <time>2026-02-27T09:28:22</time>
      </trkpt>
      <trkpt lat="45.50693" lon="6.05316">
        <ele>344.3</ele>
        <time>2026-02-27T09:28:27</time>
      </trkpt>
      <trkpt lat="45.50693" lon="6.05316">
        <ele>344.3</ele>
        <time>2026-02-27T09:28:29</time>
      </trkpt>
      <trkpt lat="45.50693" lon="6.05318">
        <ele>344.8</ele>
        <time>2026-02-27T09:28:33</time>
      </trkpt>
      <trkpt lat="45.50694" lon="6.05318">
        <ele>344.8</ele>
        <time>2026-02-27T09:28:34</time>
      </trkpt>
      <trkpt lat="45.50694" lon="6.05317">
        <ele>344.8</ele>
        <time>2026-02-27T09:28:35</time>
      </trkpt>
      <trkpt lat="45.50694" lon="6.05317">
        <ele>344.8</ele>
        <time>2026-02-27T09:28:36</time>
      </trkpt>
      <trkpt lat="45.50695" lon="6.05316">
        <ele>344.8</ele>
        <time>2026-02-27T09:28:37</time>
      </trkpt>
      <trkpt lat="45.50696" lon="6.05315">
        <ele>344.8</ele>
        <time>2026-02-27T09:28:37</time>
      </trkpt>
      <trkpt lat="45.50697" lon="6.05312">
        <ele>344.8</ele>
        <time>2026-02-27T09:28:38</time>
      </trkpt>
      <trkpt lat="45.50697" lon="6.05311">
        <ele>346.8</ele>
        <time>2026-02-27T09:28:39</time>
      </trkpt>
      <trkpt lat="45.50696" lon="6.05308">
        <ele>346.8</ele>
        <time>2026-02-27T09:28:41</time>
      </trkpt>
      <trkpt lat="45.50696" lon="6.05306">
        <ele>346.8</ele>
        <time>2026-02-27T09:28:41</time>
      </trkpt>
      <trkpt lat="45.50696" lon="6.05305">
        <ele>346.8</ele>
        <time>2026-02-27T09:28:43</time>
      </trkpt>
      <trkpt lat="45.50697" lon="6.05305">
        <ele>346.8</ele>
        <time>2026-02-27T09:28:44</time>
      </trkpt>
      <trkpt lat="45.50698" lon="6.05304">
        <ele>346.8</ele>
        <time>2026-02-27T09:28:46</time>
      </trkpt>
      <trkpt lat="45.50699" lon="6.05305">
        <ele>346.96667</ele>
        <time>2026-02-27T09:28:50</time>
      </trkpt>
      <trkpt lat="45.50699" lon="6.05306">
        <ele>346.96667</ele>
        <time>2026-02-27T09:28:52</time>
      </trkpt>
      <trkpt lat="45.50699" lon="6.05306">
        <ele>346.96667</ele>
        <time>2026-02-27T09:28:52</time>
      </trkpt>
      <trkpt lat="45.50699" lon="6.05306">
        <ele>346.96667</ele>
        <time>2026-02-27T09:28:54</time>
      </trkpt>
      <trkpt lat="45.50699" lon="6.05306">
        <ele>346</ele>
        <time>2026-02-27T09:28:58</time>
      </trkpt>
      <trkpt lat="45.50699" lon="6.05307">
        <ele>346</ele>
        <time>2026-02-27T09:29:01</time>
      </trkpt>
      <trkpt lat="45.50699" lon="6.05307">
        <ele>346</ele>
        <time>2026-02-27T09:29:01</time>
      </trkpt>
      <trkpt lat="45.50699" lon="6.05307">
        <ele>346</ele>
        <time>2026-02-27T09:29:03</time>
      </trkpt>
      <trkpt lat="45.50699" lon="6.05307">
        <ele>346</ele>
        <time>2026-02-27T09:29:03</time>
      </trkpt>
      <trkpt lat="45.50699" lon="6.05307">
        <ele>346</ele>
        <time>2026-02-27T09:29:43</time>
      </trkpt>
      <trkpt lat="45.50699" lon="6.05307">
        <ele>346</ele>
        <time>2026-02-27T09:29:43</time>
      </trkpt>
      <trkpt lat="45.50699" lon="6.05307">
        <ele>346</ele>
        <time>2026-02-27T09:29:44</time>
      </trkpt>
      <trkpt lat="45.50699" lon="6.05307">
        <ele>346</ele>
        <time>2026-02-27T09:29:46</time>
      </trkpt>
      <trkpt lat="45.50699" lon="6.05307">
        <ele>346</ele>
        <time>2026-02-27T09:29:47</time>
      </trkpt>
      <trkpt lat="45.50699" lon="6.05307">
        <ele>346</ele>
        <time>2026-02-27T09:29:48</time>
      </trkpt>
      <trkpt lat="45.50699" lon="6.05307">
        <ele>346</ele>
        <time>2026-02-27T09:29:50</time>
      </trkpt>
      <trkpt lat="45.50699" lon="6.05307">
        <ele>346</ele>
        <time>2026-02-27T09:29:51</time>
      </trkpt>
      <trkpt lat="45.50699" lon="6.05306">
        <ele>346</ele>
        <time>2026-02-27T09:29:53</time>
      </trkpt>
      <trkpt lat="45.50699" lon="6.05306">
        <ele>346</ele>
        <time>2026-02-27T09:29:55</time>
      </trkpt>
      <trkpt lat="45.50699" lon="6.05306">
        <ele>346</ele>
        <time>2026-02-27T09:29:58</time>
      </trkpt>
      <trkpt lat="45.50699" lon="6.05306">
        <ele>346</ele>
        <time>2026-02-27T09:29:58</time>
      </trkpt>
      <trkpt lat="45.50699" lon="6.05306">
        <ele>346</ele>
        <time>2026-02-27T09:30:00</time>
      </trkpt>
      <trkpt lat="45.50699" lon="6.05306">
        <ele>346</ele>
        <time>2026-02-27T09:30:01</time>
      </trkpt>
      <trkpt lat="45.50699" lon="6.05307">
        <ele>346</ele>
        <time>2026-02-27T09:30:02</time>
      </trkpt>
      <trkpt lat="45.50699" lon="6.05307">
        <ele>346</ele>
        <time>2026-02-27T09:30:06</time>
      </trkpt>
      <trkpt lat="45.50699" lon="6.05306">
        <ele>346</ele>
        <time>2026-02-27T09:30:07</time>
      </trkpt>
      <trkpt lat="45.50699" lon="6.05306">
        <ele>346</ele>
        <time>2026-02-27T09:30:09</time>
      </trkpt>
      <trkpt lat="45.50699" lon="6.05306">
        <ele>346</ele>
        <time>2026-02-27T09:30:10</time>
      </trkpt>
      <trkpt lat="45.50699" lon="6.05306">
        <ele>346</ele>
        <time>2026-02-27T09:30:10</time>
      </trkpt>
      <trkpt lat="45.50699" lon="6.05306">
        <ele>346</ele>
        <time>2026-02-27T09:30:12</time>
      </trkpt>
      <trkpt lat="45.50699" lon="6.05306">
        <ele>346</ele>
        <time>2026-02-27T09:30:12</time>
      </trkpt>
      <trkpt lat="45.50699" lon="6.05306">
        <ele>346</ele>
        <time>2026-02-27T09:30:14</time>
      </trkpt>
      <trkpt lat="45.50699" lon="6.05306">
        <ele>346</ele>
        <time>2026-02-27T09:30:16</time>
      </trkpt>
      <trkpt lat="45.50699" lon="6.05306">
        <ele>346</ele>
        <time>2026-02-27T09:30:17</time>
      </trkpt>
      <trkpt lat="45.50699" lon="6.05306">
        <ele>346</ele>
        <time>2026-02-27T09:30:18</time>
      </trkpt>
      <trkpt lat="45.50699" lon="6.05306">
        <ele>346</ele>
        <time>2026-02-27T09:30:20</time>
      </trkpt>
      <trkpt lat="45.50699" lon="6.05306">
        <ele>346</ele>
        <time>2026-02-27T09:30:21</time>
      </trkpt>
      <trkpt lat="45.50699" lon="6.05306">
        <ele>346</ele>
        <time>2026-02-27T09:30:23</time>
      </trkpt>
      <trkpt lat="45.50699" lon="6.05306">
        <ele>346</ele>
        <time>2026-02-27T09:30:24</time>
      </trkpt>
      <trkpt lat="45.50699" lon="6.05306">
        <ele>346</ele>
        <time>2026-02-27T09:30:25</time>
      </trkpt>
      <trkpt lat="45.50699" lon="6.05306">
        <ele>346</ele>
        <time>2026-02-27T09:30:27</time>
      </trkpt>
      <trkpt lat="45.50699" lon="6.05306">
        <ele>346</ele>
        <time>2026-02-27T09:30:42</time>
      </trkpt>
      <trkpt lat="45.50699" lon="6.05306">
        <ele>346</ele>
        <time>2026-02-27T09:30:43</time>
      </trkpt>
      <trkpt lat="45.50699" lon="6.05306">
        <ele>346</ele>
        <time>2026-02-27T09:30:44</time>
      </trkpt>
      <trkpt lat="45.50699" lon="6.05306">
        <ele>346</ele>
        <time>2026-02-27T09:30:45</time>
      </trkpt>
      <trkpt lat="45.50699" lon="6.05306">
        <ele>346</ele>
        <time>2026-02-27T09:30:47</time>
      </trkpt>
      <trkpt lat="45.50699" lon="6.05306">
        <ele>346</ele>
        <time>2026-02-27T09:30:48</time>
      </trkpt>
      <trkpt lat="45.50699" lon="6.05307">
        <ele>346</ele>
        <time>2026-02-27T09:30:51</time>
      </trkpt>
      <trkpt lat="45.50699" lon="6.05306">
        <ele>346</ele>
        <time>2026-02-27T09:30:52</time>
      </trkpt>
      <trkpt lat="45.50699" lon="6.05306">
        <ele>346</ele>
        <time>2026-02-27T09:30:55</time>
      </trkpt>
      <trkpt lat="45.50699" lon="6.05306">
        <ele>346</ele>
        <time>2026-02-27T09:30:55</time>
      </trkpt>
      <trkpt lat="45.50699" lon="6.05306">
        <ele>346</ele>
        <time>2026-02-27T09:30:56</time>
      </trkpt>
      <trkpt lat="45.50699" lon="6.05306">
        <ele>346</ele>
        <time>2026-02-27T09:30:56</time>
      </trkpt>
      <trkpt lat="45.50699" lon="6.05306">
        <ele>346</ele>
        <time>2026-02-27T09:30:57</time>
      </trkpt>
      <trkpt lat="45.50699" lon="6.05306">
        <ele>346</ele>
        <time>2026-02-27T09:30:57</time>
      </trkpt>
      <trkpt lat="45.50699" lon="6.05307">
        <ele>346</ele>
        <time>2026-02-27T09:31:00</time>
      </trkpt>
      <trkpt lat="45.50699" lon="6.05307">
        <ele>346</ele>
        <time>2026-02-27T09:31:00</time>
      </trkpt>
      <trkpt lat="45.50699" lon="6.05307">
        <ele>346</ele>
        <time>2026-02-27T09:31:02</time>
      </trkpt>
      <trkpt lat="45.50697" lon="6.05308">
        <ele>346</ele>
        <time>2026-02-27T09:31:04</time>
      </trkpt>
      <trkpt lat="45.50695" lon="6.05309">
        <ele>346</ele>
        <time>2026-02-27T09:31:05</time>
      </trkpt>
      <trkpt lat="45.50694" lon="6.05309">
        <ele>346</ele>
        <time>2026-02-27T09:31:08</time>
      </trkpt>
      <trkpt lat="45.50694" lon="6.05309">
        <ele>346</ele>
        <time>2026-02-27T09:31:09</time>
      </trkpt>
      <trkpt lat="45.50694" lon="6.05308">
        <ele>346</ele>
        <time>2026-02-27T09:31:21</time>
      </trkpt>
      <trkpt lat="45.50694" lon="6.05308">
        <ele>346</ele>
        <time>2026-02-27T09:32:23</time>
      </trkpt>
      <trkpt lat="45.50695" lon="6.0531">
        <ele>346</ele>
        <time>2026-02-27T09:32:51</time>
      </trkpt>
      <trkpt lat="45.50696" lon="6.05314">
        <ele>346</ele>
        <time>2026-02-27T09:32:53</time>
      </trkpt>
      <trkpt lat="45.50697" lon="6.05318">
        <ele>346</ele>
        <time>2026-02-27T09:32:56</time>
      </trkpt>
      <trkpt lat="45.50698" lon="6.05319">
        <ele>346</ele>
        <time>2026-02-27T09:32:57</time>
      </trkpt>
      <trkpt lat="45.507" lon="6.05322">
        <ele>346</ele>
        <time>2026-02-27T09:32:57</time>
      </trkpt>
      <trkpt lat="45.50702" lon="6.05329">
        <ele>344.83334</ele>
        <time>2026-02-27T09:33:03</time>
      </trkpt>
      <trkpt lat="45.50708" lon="6.05349">
        <ele>347.4</ele>
        <time>2026-02-27T09:33:15</time>
      </trkpt>
      <trkpt lat="45.5071" lon="6.05352">
        <ele>347.4</ele>
        <time>2026-02-27T09:33:19</time>
      </trkpt>
      <trkpt lat="45.50711" lon="6.05354">
        <ele>347.4</ele>
        <time>2026-02-27T09:33:20</time>
      </trkpt>
      <trkpt lat="45.50719" lon="6.05366">
        <ele>350.7</ele>
        <time>2026-02-27T09:33:36</time>
      </trkpt>
      <trkpt lat="45.50725" lon="6.05372">
        <ele>353.23334</ele>
        <time>2026-02-27T09:33:48</time>
      </trkpt>
      <trkpt lat="45.50728" lon="6.05375">
        <ele>353.23334</ele>
        <time>2026-02-27T09:33:52</time>
      </trkpt>
      <trkpt lat="45.50734" lon="6.05383">
        <ele>354.6</ele>
        <time>2026-02-27T09:34:05</time>
      </trkpt>
      <trkpt lat="45.50735" lon="6.05384">
        <ele>354.6</ele>
        <time>2026-02-27T09:34:05</time>
      </trkpt>
      <trkpt lat="45.50735" lon="6.05385">
        <ele>354.6</ele>
        <time>2026-02-27T09:34:06</time>
      </trkpt>
      <trkpt lat="45.50734" lon="6.05385">
        <ele>354.6</ele>
        <time>2026-02-27T09:34:08</time>
      </trkpt>
      <trkpt lat="45.50734" lon="6.05385">
        <ele>354.6</ele>
        <time>2026-02-27T09:34:09</time>
      </trkpt>
      <trkpt lat="45.50734" lon="6.05385">
        <ele>354.6</ele>
        <time>2026-02-27T09:34:10</time>
      </trkpt>
      <trkpt lat="45.50734" lon="6.05385">
        <ele>354.6</ele>
        <time>2026-02-27T09:34:10</time>
      </trkpt>
      <trkpt lat="45.50733" lon="6.05385">
        <ele>354.6</ele>
        <time>2026-02-27T09:34:11</time>
      </trkpt>
      <trkpt lat="45.50733" lon="6.05385">
        <ele>354.6</ele>
        <time>2026-02-27T09:34:12</time>
      </trkpt>
      <trkpt lat="45.50733" lon="6.05385">
        <ele>353.96667</ele>
        <time>2026-02-27T09:34:14</time>
      </trkpt>
      <trkpt lat="45.50732" lon="6.05385">
        <ele>353.96667</ele>
        <time>2026-02-27T09:34:17</time>
      </trkpt>
      <trkpt lat="45.50732" lon="6.05385">
        <ele>354</ele>
        <time>2026-02-27T09:34:28</time>
      </trkpt>
      <trkpt lat="45.50732" lon="6.05385">
        <ele>354</ele>
        <time>2026-02-27T09:34:28</time>
      </trkpt>
      <trkpt lat="45.50732" lon="6.05385">
        <ele>354</ele>
        <time>2026-02-27T09:34:30</time>
      </trkpt>
      <trkpt lat="45.50734" lon="6.05387">
        <ele>354</ele>
        <time>2026-02-27T09:34:31</time>
      </trkpt>
      <trkpt lat="45.50735" lon="6.05388">
        <ele>354</ele>
        <time>2026-02-27T09:34:33</time>
      </trkpt>
      <trkpt lat="45.50739" lon="6.05393">
        <ele>355.8</ele>
        <time>2026-02-27T09:34:39</time>
      </trkpt>
      <trkpt lat="45.5074" lon="6.05394">
        <ele>355.8</ele>
        <time>2026-02-27T09:34:40</time>
      </trkpt>
      <trkpt lat="45.50743" lon="6.054">
        <ele>359.3</ele>
        <time>2026-02-27T09:34:50</time>
      </trkpt>
      <trkpt lat="45.50744" lon="6.054">
        <ele>359.3</ele>
        <time>2026-02-27T09:34:51</time>
      </trkpt>
      <trkpt lat="45.50745" lon="6.054">
        <ele>359.3</ele>
        <time>2026-02-27T09:34:53</time>
      </trkpt>
      <trkpt lat="45.50745" lon="6.054">
        <ele>359.3</ele>
        <time>2026-02-27T09:34:53</time>
      </trkpt>
      <trkpt lat="45.50745" lon="6.054">
        <ele>360.8</ele>
        <time>2026-02-27T09:34:54</time>
      </trkpt>
      <trkpt lat="45.50745" lon="6.054">
        <ele>360.8</ele>
        <time>2026-02-27T09:34:55</time>
      </trkpt>
      <trkpt lat="45.50745" lon="6.054">
        <ele>360.8</ele>
        <time>2026-02-27T09:34:55</time>
      </trkpt>
      <trkpt lat="45.50746" lon="6.05399">
        <ele>360.8</ele>
        <time>2026-02-27T09:34:56</time>
      </trkpt>
      <trkpt lat="45.50746" lon="6.05398">
        <ele>360.8</ele>
        <time>2026-02-27T09:34:57</time>
      </trkpt>
      <trkpt lat="45.50746" lon="6.05398">
        <ele>360.8</ele>
        <time>2026-02-27T09:34:58</time>
      </trkpt>
      <trkpt lat="45.50748" lon="6.05396">
        <ele>360.8</ele>
        <time>2026-02-27T09:35:00</time>
      </trkpt>
      <trkpt lat="45.50749" lon="6.05395">
        <ele>361.7</ele>
        <time>2026-02-27T09:35:01</time>
      </trkpt>
      <trkpt lat="45.50749" lon="6.05394">
        <ele>361.7</ele>
        <time>2026-02-27T09:35:02</time>
      </trkpt>
      <trkpt lat="45.5075" lon="6.05393">
        <ele>361.7</ele>
        <time>2026-02-27T09:35:05</time>
      </trkpt>
      <trkpt lat="45.50759" lon="6.05385">
        <ele>365.7</ele>
        <time>2026-02-27T09:35:20</time>
      </trkpt>
      <trkpt lat="45.5076" lon="6.05384">
        <ele>365.7</ele>
        <time>2026-02-27T09:35:21</time>
      </trkpt>
      <trkpt lat="45.50761" lon="6.05384">
        <ele>365.7</ele>
        <time>2026-02-27T09:35:22</time>
      </trkpt>
      <trkpt lat="45.50761" lon="6.05384">
        <ele>366.1</ele>
        <time>2026-02-27T09:35:23</time>
      </trkpt>
      <trkpt lat="45.50761" lon="6.05385">
        <ele>366.1</ele>
        <time>2026-02-27T09:35:23</time>
      </trkpt>
      <trkpt lat="45.50761" lon="6.05385">
        <ele>366.1</ele>
        <time>2026-02-27T09:35:24</time>
      </trkpt>
      <trkpt lat="45.50761" lon="6.05386">
        <ele>366.1</ele>
        <time>2026-02-27T09:35:25</time>
      </trkpt>
      <trkpt lat="45.50761" lon="6.05387">
        <ele>367.36667</ele>
        <time>2026-02-27T09:35:31</time>
      </trkpt>
      <trkpt lat="45.50763" lon="6.0539">
        <ele>367.36667</ele>
        <time>2026-02-27T09:35:34</time>
      </trkpt>
      <trkpt lat="45.50769" lon="6.05395">
        <ele>368.6</ele>
        <time>2026-02-27T09:35:40</time>
      </trkpt>
      <trkpt lat="45.50771" lon="6.05398">
        <ele>368.6</ele>
        <time>2026-02-27T09:35:45</time>
      </trkpt>
      <trkpt lat="45.50771" lon="6.05399">
        <ele>368.6</ele>
        <time>2026-02-27T09:35:45</time>
      </trkpt>
      <trkpt lat="45.50771" lon="6.05405">
        <ele>372.26666</ele>
        <time>2026-02-27T09:35:50</time>
      </trkpt>
      <trkpt lat="45.5077" lon="6.05413">
        <ele>372.8</ele>
        <time>2026-02-27T09:35:55</time>
      </trkpt>
      <trkpt lat="45.5077" lon="6.05414">
        <ele>372.8</ele>
        <time>2026-02-27T09:35:56</time>
      </trkpt>
      <trkpt lat="45.5077" lon="6.05422">
        <ele>372.8</ele>
        <time>2026-02-27T09:36:01</time>
      </trkpt>
      <trkpt lat="45.50772" lon="6.05431">
        <ele>374.3</ele>
        <time>2026-02-27T09:36:06</time>
      </trkpt>
      <trkpt lat="45.50773" lon="6.05437">
        <ele>373.8</ele>
        <time>2026-02-27T09:36:09</time>
      </trkpt>
      <trkpt lat="45.50777" lon="6.05459">
        <ele>374.8</ele>
        <time>2026-02-27T09:36:22</time>
      </trkpt>
      <trkpt lat="45.50781" lon="6.05489">
        <ele>376.4</ele>
        <time>2026-02-27T09:36:42</time>
      </trkpt>
      <trkpt lat="45.50785" lon="6.05498">
        <ele>376.4</ele>
        <time>2026-02-27T09:36:49</time>
      </trkpt>
      <trkpt lat="45.50786" lon="6.05499">
        <ele>375.26666</ele>
        <time>2026-02-27T09:36:51</time>
      </trkpt>
      <trkpt lat="45.50787" lon="6.05502">
        <ele>375.26666</ele>
        <time>2026-02-27T09:36:53</time>
      </trkpt>
      <trkpt lat="45.50788" lon="6.05503">
        <ele>375.26666</ele>
        <time>2026-02-27T09:36:54</time>
      </trkpt>
      <trkpt lat="45.50789" lon="6.05504">
        <ele>375.26666</ele>
        <time>2026-02-27T09:36:55</time>
      </trkpt>
      <trkpt lat="45.50789" lon="6.05505">
        <ele>375.26666</ele>
        <time>2026-02-27T09:36:56</time>
      </trkpt>
      <trkpt lat="45.5079" lon="6.05505">
        <ele>375.26666</ele>
        <time>2026-02-27T09:36:57</time>
      </trkpt>
      <trkpt lat="45.5079" lon="6.05506">
        <ele>375.33334</ele>
        <time>2026-02-27T09:36:57</time>
      </trkpt>
      <trkpt lat="45.50792" lon="6.05506">
        <ele>375.33334</ele>
        <time>2026-02-27T09:37:00</time>
      </trkpt>
      <trkpt lat="45.50792" lon="6.05505">
        <ele>375.33334</ele>
        <time>2026-02-27T09:37:01</time>
      </trkpt>
      <trkpt lat="45.50792" lon="6.05505">
        <ele>375.33334</ele>
        <time>2026-02-27T09:37:02</time>
      </trkpt>
      <trkpt lat="45.50792" lon="6.05504">
        <ele>375.33334</ele>
        <time>2026-02-27T09:37:03</time>
      </trkpt>
      <trkpt lat="45.50792" lon="6.05503">
        <ele>375.33334</ele>
        <time>2026-02-27T09:37:04</time>
      </trkpt>
      <trkpt lat="45.50792" lon="6.05502">
        <ele>375.33334</ele>
        <time>2026-02-27T09:37:05</time>
      </trkpt>
      <trkpt lat="45.50791" lon="6.05501">
        <ele>375.33334</ele>
        <time>2026-02-27T09:37:05</time>
      </trkpt>
      <trkpt lat="45.5079" lon="6.05498">
        <ele>376.63333</ele>
        <time>2026-02-27T09:37:08</time>
      </trkpt>
      <trkpt lat="45.50789" lon="6.05491">
        <ele>376.63333</ele>
        <time>2026-02-27T09:37:13</time>
      </trkpt>
      <trkpt lat="45.50789" lon="6.05487">
        <ele>376.8</ele>
        <time>2026-02-27T09:37:16</time>
      </trkpt>
      <trkpt lat="45.50789" lon="6.05485">
        <ele>376.8</ele>
        <time>2026-02-27T09:37:19</time>
      </trkpt>
      <trkpt lat="45.50789" lon="6.0548">
        <ele>377.8</ele>
        <time>2026-02-27T09:37:25</time>
      </trkpt>
      <trkpt lat="45.50789" lon="6.05475">
        <ele>377.8</ele>
        <time>2026-02-27T09:37:29</time>
      </trkpt>
      <trkpt lat="45.5079" lon="6.05468">
        <ele>378</ele>
        <time>2026-02-27T09:37:35</time>
      </trkpt>
      <trkpt lat="45.5079" lon="6.05466">
        <ele>378.5</ele>
        <time>2026-02-27T09:37:37</time>
      </trkpt>
      <trkpt lat="45.5079" lon="6.05463">
        <ele>378.5</ele>
        <time>2026-02-27T09:37:40</time>
      </trkpt>
      <trkpt lat="45.5079" lon="6.05461">
        <ele>378.5</ele>
        <time>2026-02-27T09:37:42</time>
      </trkpt>
      <trkpt lat="45.5079" lon="6.05458">
        <ele>378.5</ele>
        <time>2026-02-27T09:37:44</time>
      </trkpt>
      <trkpt lat="45.50791" lon="6.05454">
        <ele>379.9</ele>
        <time>2026-02-27T09:37:46</time>
      </trkpt>
      <trkpt lat="45.50799" lon="6.05428">
        <ele>381.3</ele>
        <time>2026-02-27T09:38:06</time>
      </trkpt>
      <trkpt lat="45.50801" lon="6.05413">
        <ele>382.96667</ele>
        <time>2026-02-27T09:38:18</time>
      </trkpt>
      <trkpt lat="45.508" lon="6.05405">
        <ele>383.9</ele>
        <time>2026-02-27T09:38:24</time>
      </trkpt>
      <trkpt lat="45.50799" lon="6.05402">
        <ele>383.9</ele>
        <time>2026-02-27T09:38:27</time>
      </trkpt>
      <trkpt lat="45.50797" lon="6.05387">
        <ele>388.93332</ele>
        <time>2026-02-27T09:38:39</time>
      </trkpt>
      <trkpt lat="45.50797" lon="6.05386">
        <ele>388.93332</ele>
        <time>2026-02-27T09:38:41</time>
      </trkpt>
      <trkpt lat="45.50798" lon="6.05382">
        <ele>388.93332</ele>
        <time>2026-02-27T09:38:43</time>
      </trkpt>
      <trkpt lat="45.50799" lon="6.0538">
        <ele>388.93332</ele>
        <time>2026-02-27T09:38:46</time>
      </trkpt>
      <trkpt lat="45.508" lon="6.05378">
        <ele>390.7</ele>
        <time>2026-02-27T09:38:47</time>
      </trkpt>
      <trkpt lat="45.50801" lon="6.05378">
        <ele>390.7</ele>
        <time>2026-02-27T09:38:48</time>
      </trkpt>
      <trkpt lat="45.50801" lon="6.05377">
        <ele>390.7</ele>
        <time>2026-02-27T09:38:48</time>
      </trkpt>
      <trkpt lat="45.50802" lon="6.05377">
        <ele>390.7</ele>
        <time>2026-02-27T09:38:49</time>
      </trkpt>
      <trkpt lat="45.50802" lon="6.05377">
        <ele>390.7</ele>
        <time>2026-02-27T09:38:50</time>
      </trkpt>
      <trkpt lat="45.50803" lon="6.05377">
        <ele>390.7</ele>
        <time>2026-02-27T09:38:50</time>
      </trkpt>
      <trkpt lat="45.50804" lon="6.05378">
        <ele>390.7</ele>
        <time>2026-02-27T09:38:52</time>
      </trkpt>
      <trkpt lat="45.50804" lon="6.05379">
        <ele>390.7</ele>
        <time>2026-02-27T09:38:53</time>
      </trkpt>
      <trkpt lat="45.50805" lon="6.05379">
        <ele>393.4</ele>
        <time>2026-02-27T09:38:54</time>
      </trkpt>
      <trkpt lat="45.50805" lon="6.0538">
        <ele>393.4</ele>
        <time>2026-02-27T09:38:54</time>
      </trkpt>
      <trkpt lat="45.50805" lon="6.05381">
        <ele>393.4</ele>
        <time>2026-02-27T09:38:56</time>
      </trkpt>
      <trkpt lat="45.50805" lon="6.05382">
        <ele>393.4</ele>
        <time>2026-02-27T09:38:57</time>
      </trkpt>
      <trkpt lat="45.50805" lon="6.05383">
        <ele>393.4</ele>
        <time>2026-02-27T09:38:58</time>
      </trkpt>
      <trkpt lat="45.50805" lon="6.05384">
        <ele>393.4</ele>
        <time>2026-02-27T09:38:59</time>
      </trkpt>
      <trkpt lat="45.50804" lon="6.05384">
        <ele>395.9</ele>
        <time>2026-02-27T09:39:04</time>
      </trkpt>
      <trkpt lat="45.50804" lon="6.05383">
        <ele>395.9</ele>
        <time>2026-02-27T09:39:05</time>
      </trkpt>
      <trkpt lat="45.50804" lon="6.05383">
        <ele>395.9</ele>
        <time>2026-02-27T09:39:06</time>
      </trkpt>
      <trkpt lat="45.50804" lon="6.05383">
        <ele>395.9</ele>
        <time>2026-02-27T09:39:07</time>
      </trkpt>
      <trkpt lat="45.50804" lon="6.05383">
        <ele>395.9</ele>
        <time>2026-02-27T09:39:08</time>
      </trkpt>
      <trkpt lat="45.50804" lon="6.05383">
        <ele>395.9</ele>
        <time>2026-02-27T09:39:09</time>
      </trkpt>
      <trkpt lat="45.50804" lon="6.05383">
        <ele>395.9</ele>
        <time>2026-02-27T09:39:10</time>
      </trkpt>
      <trkpt lat="45.50804" lon="6.05383">
        <ele>395.9</ele>
        <time>2026-02-27T09:39:10</time>
      </trkpt>
      <trkpt lat="45.50804" lon="6.05384">
        <ele>395.9</ele>
        <time>2026-02-27T09:39:11</time>
      </trkpt>
      <trkpt lat="45.50805" lon="6.05386">
        <ele>395.9</ele>
        <time>2026-02-27T09:39:13</time>
      </trkpt>
      <trkpt lat="45.50808" lon="6.05393">
        <ele>396</ele>
        <time>2026-02-27T09:39:17</time>
      </trkpt>
      <trkpt lat="45.5081" lon="6.05407">
        <ele>395.7</ele>
        <time>2026-02-27T09:39:27</time>
      </trkpt>
      <trkpt lat="45.5081" lon="6.0541">
        <ele>395.7</ele>
        <time>2026-02-27T09:39:29</time>
      </trkpt>
      <trkpt lat="45.50809" lon="6.0541">
        <ele>395.7</ele>
        <time>2026-02-27T09:39:30</time>
      </trkpt>
      <trkpt lat="45.50809" lon="6.0541">
        <ele>395.7</ele>
        <time>2026-02-27T09:39:31</time>
      </trkpt>
      <trkpt lat="45.50808" lon="6.05409">
        <ele>398.13333</ele>
        <time>2026-02-27T09:39:35</time>
      </trkpt>
      <trkpt lat="45.50808" lon="6.05409">
        <ele>398.13333</ele>
        <time>2026-02-27T09:39:36</time>
      </trkpt>
      <trkpt lat="45.50809" lon="6.0541">
        <ele>397.4</ele>
        <time>2026-02-27T09:39:53</time>
      </trkpt>
      <trkpt lat="45.5081" lon="6.0541">
        <ele>397.4</ele>
        <time>2026-02-27T09:39:54</time>
      </trkpt>
      <trkpt lat="45.50812" lon="6.05413">
        <ele>397.4</ele>
        <time>2026-02-27T09:39:57</time>
      </trkpt>
      <trkpt lat="45.50817" lon="6.05421">
        <ele>398.3</ele>
        <time>2026-02-27T09:40:05</time>
      </trkpt>
      <trkpt lat="45.50825" lon="6.05446">
        <ele>402.9</ele>
        <time>2026-02-27T09:40:25</time>
      </trkpt>
      <trkpt lat="45.50827" lon="6.05453">
        <ele>403.8</ele>
        <time>2026-02-27T09:40:31</time>
      </trkpt>
      <trkpt lat="45.50833" lon="6.05462">
        <ele>403.8</ele>
        <time>2026-02-27T09:40:39</time>
      </trkpt>
      <trkpt lat="45.50843" lon="6.05484">
        <ele>407.4</ele>
        <time>2026-02-27T09:40:59</time>
      </trkpt>
      <trkpt lat="45.50846" lon="6.05491">
        <ele>407.9</ele>
        <time>2026-02-27T09:41:05</time>
      </trkpt>
      <trkpt lat="45.50847" lon="6.05492">
        <ele>407.9</ele>
        <time>2026-02-27T09:41:06</time>
      </trkpt>
      <trkpt lat="45.50848" lon="6.05493">
        <ele>407.9</ele>
        <time>2026-02-27T09:41:07</time>
      </trkpt>
      <trkpt lat="45.50848" lon="6.05495">
        <ele>407.9</ele>
        <time>2026-02-27T09:41:09</time>
      </trkpt>
      <trkpt lat="45.50849" lon="6.05497">
        <ele>409.5</ele>
        <time>2026-02-27T09:41:11</time>
      </trkpt>
      <trkpt lat="45.5085" lon="6.05498">
        <ele>409.5</ele>
        <time>2026-02-27T09:41:13</time>
      </trkpt>
      <trkpt lat="45.50852" lon="6.05499">
        <ele>409.5</ele>
        <time>2026-02-27T09:41:15</time>
      </trkpt>
      <trkpt lat="45.50856" lon="6.05502">
        <ele>411.5</ele>
        <time>2026-02-27T09:41:19</time>
      </trkpt>
      <trkpt lat="45.50859" lon="6.05505">
        <ele>411.5</ele>
        <time>2026-02-27T09:41:24</time>
      </trkpt>
      <trkpt lat="45.5086" lon="6.05506">
        <ele>411.5</ele>
        <time>2026-02-27T09:41:26</time>
      </trkpt>
      <trkpt lat="45.50865" lon="6.05511">
        <ele>412.1</ele>
        <time>2026-02-27T09:41:33</time>
      </trkpt>
      <trkpt lat="45.50866" lon="6.05513">
        <ele>412.1</ele>
        <time>2026-02-27T09:41:34</time>
      </trkpt>
      <trkpt lat="45.50874" lon="6.05526">
        <ele>414.9</ele>
        <time>2026-02-27T09:41:48</time>
      </trkpt>
      <trkpt lat="45.50874" lon="6.05528">
        <ele>414.9</ele>
        <time>2026-02-27T09:41:49</time>
      </trkpt>
      <trkpt lat="45.50875" lon="6.05531">
        <ele>415</ele>
        <time>2026-02-27T09:41:51</time>
      </trkpt>
      <trkpt lat="45.5088" lon="6.05542">
        <ele>417.3</ele>
        <time>2026-02-27T09:42:03</time>
      </trkpt>
      <trkpt lat="45.50884" lon="6.05547">
        <ele>419.6</ele>
        <time>2026-02-27T09:42:09</time>
      </trkpt>
      <trkpt lat="45.50885" lon="6.05549">
        <ele>419.6</ele>
        <time>2026-02-27T09:42:11</time>
      </trkpt>
      <trkpt lat="45.50893" lon="6.0556">
        <ele>422.6</ele>
        <time>2026-02-27T09:42:26</time>
      </trkpt>
      <trkpt lat="45.50897" lon="6.05564">
        <ele>422.5</ele>
        <time>2026-02-27T09:42:32</time>
      </trkpt>
      <trkpt lat="45.509" lon="6.05569">
        <ele>423.7</ele>
        <time>2026-02-27T09:42:37</time>
      </trkpt>
      <trkpt lat="45.50902" lon="6.05571">
        <ele>423.7</ele>
        <time>2026-02-27T09:42:39</time>
      </trkpt>
      <trkpt lat="45.50904" lon="6.05575">
        <ele>425.8</ele>
        <time>2026-02-27T09:42:43</time>
      </trkpt>
      <trkpt lat="45.50906" lon="6.05577">
        <ele>425.8</ele>
        <time>2026-02-27T09:42:47</time>
      </trkpt>
      <trkpt lat="45.50909" lon="6.05582">
        <ele>427.6</ele>
        <time>2026-02-27T09:42:53</time>
      </trkpt>
      <trkpt lat="45.50909" lon="6.05583">
        <ele>427.6</ele>
        <time>2026-02-27T09:42:53</time>
      </trkpt>
      <trkpt lat="45.5091" lon="6.05583">
        <ele>427.6</ele>
        <time>2026-02-27T09:42:54</time>
      </trkpt>
      <trkpt lat="45.5091" lon="6.05583">
        <ele>427.6</ele>
        <time>2026-02-27T09:42:55</time>
      </trkpt>
      <trkpt lat="45.5091" lon="6.05582">
        <ele>427.6</ele>
        <time>2026-02-27T09:42:56</time>
      </trkpt>
      <trkpt lat="45.5091" lon="6.05582">
        <ele>428.7</ele>
        <time>2026-02-27T09:42:57</time>
      </trkpt>
      <trkpt lat="45.5091" lon="6.05581">
        <ele>428.7</ele>
        <time>2026-02-27T09:42:57</time>
      </trkpt>
      <trkpt lat="45.5091" lon="6.0558">
        <ele>428.7</ele>
        <time>2026-02-27T09:42:59</time>
      </trkpt>
      <trkpt lat="45.50909" lon="6.05579">
        <ele>428.7</ele>
        <time>2026-02-27T09:43:01</time>
      </trkpt>
      <trkpt lat="45.50909" lon="6.05576">
        <ele>429.16666</ele>
        <time>2026-02-27T09:43:07</time>
      </trkpt>
      <trkpt lat="45.50909" lon="6.05576">
        <ele>429.16666</ele>
        <time>2026-02-27T09:43:08</time>
      </trkpt>
      <trkpt lat="45.50909" lon="6.05576">
        <ele>429.16666</ele>
        <time>2026-02-27T09:43:09</time>
      </trkpt>
      <trkpt lat="45.50909" lon="6.05576">
        <ele>429.16666</ele>
        <time>2026-02-27T09:43:09</time>
      </trkpt>
      <trkpt lat="45.50909" lon="6.05576">
        <ele>429.16666</ele>
        <time>2026-02-27T09:43:10</time>
      </trkpt>
      <trkpt lat="45.50908" lon="6.05575">
        <ele>429.16666</ele>
        <time>2026-02-27T09:43:10</time>
      </trkpt>
      <trkpt lat="45.50908" lon="6.05575">
        <ele>430.1</ele>
        <time>2026-02-27T09:43:11</time>
      </trkpt>
      <trkpt lat="45.50908" lon="6.05575">
        <ele>430.1</ele>
        <time>2026-02-27T09:43:12</time>
      </trkpt>
      <trkpt lat="45.50908" lon="6.05575">
        <ele>430.1</ele>
        <time>2026-02-27T09:43:13</time>
      </trkpt>
      <trkpt lat="45.50908" lon="6.05575">
        <ele>430.1</ele>
        <time>2026-02-27T09:43:15</time>
      </trkpt>
      <trkpt lat="45.50908" lon="6.05575">
        <ele>430.1</ele>
        <time>2026-02-27T09:43:15</time>
      </trkpt>
      <trkpt lat="45.50908" lon="6.05575">
        <ele>430.1</ele>
        <time>2026-02-27T09:43:16</time>
      </trkpt>
      <trkpt lat="45.50908" lon="6.05574">
        <ele>430.1</ele>
        <time>2026-02-27T09:43:18</time>
      </trkpt>
      <trkpt lat="45.50908" lon="6.05573">
        <ele>430.1</ele>
        <time>2026-02-27T09:43:19</time>
      </trkpt>
      <trkpt lat="45.50908" lon="6.05571">
        <ele>429.6</ele>
        <time>2026-02-27T09:43:20</time>
      </trkpt>
      <trkpt lat="45.50908" lon="6.0557">
        <ele>429.6</ele>
        <time>2026-02-27T09:43:20</time>
      </trkpt>
      <trkpt lat="45.50908" lon="6.05569">
        <ele>429.6</ele>
        <time>2026-02-27T09:43:21</time>
      </trkpt>
      <trkpt lat="45.50907" lon="6.05566">
        <ele>429.6</ele>
        <time>2026-02-27T09:43:24</time>
      </trkpt>
      <trkpt lat="45.50907" lon="6.05564">
        <ele>430.4</ele>
        <time>2026-02-27T09:43:28</time>
      </trkpt>
      <trkpt lat="45.50906" lon="6.05565">
        <ele>430.4</ele>
        <time>2026-02-27T09:43:31</time>
      </trkpt>
      <trkpt lat="45.50906" lon="6.05565">
        <ele>430.4</ele>
        <time>2026-02-27T09:43:32</time>
      </trkpt>
      <trkpt lat="45.50906" lon="6.05565">
        <ele>430.4</ele>
        <time>2026-02-27T09:43:33</time>
      </trkpt>
      <trkpt lat="45.50906" lon="6.05565">
        <ele>430.5</ele>
        <time>2026-02-27T09:43:41</time>
      </trkpt>
      <trkpt lat="45.50906" lon="6.05565">
        <ele>430.5</ele>
        <time>2026-02-27T09:43:48</time>
      </trkpt>
      <trkpt lat="45.50906" lon="6.05564">
        <ele>430.5</ele>
        <time>2026-02-27T09:43:49</time>
      </trkpt>
      <trkpt lat="45.50909" lon="6.05565">
        <ele>430.5</ele>
        <time>2026-02-27T09:43:51</time>
      </trkpt>
      <trkpt lat="45.50911" lon="6.05565">
        <ele>430.5</ele>
        <time>2026-02-27T09:43:53</time>
      </trkpt>
      <trkpt lat="45.50914" lon="6.0557">
        <ele>430.8</ele>
        <time>2026-02-27T09:43:58</time>
      </trkpt>
      <trkpt lat="45.50916" lon="6.05573">
        <ele>432.63333</ele>
        <time>2026-02-27T09:44:01</time>
      </trkpt>
      <trkpt lat="45.50922" lon="6.05582">
        <ele>433.8</ele>
        <time>2026-02-27T09:44:11</time>
      </trkpt>
      <trkpt lat="45.50929" lon="6.05597">
        <ele>435.86667</ele>
        <time>2026-02-27T09:44:26</time>
      </trkpt>
      <trkpt lat="45.5093" lon="6.05598">
        <ele>435.86667</ele>
        <time>2026-02-27T09:44:28</time>
      </trkpt>
      <trkpt lat="45.50931" lon="6.05602">
        <ele>436.7</ele>
        <time>2026-02-27T09:44:31</time>
      </trkpt>
      <trkpt lat="45.50933" lon="6.05605">
        <ele>436.7</ele>
        <time>2026-02-27T09:44:34</time>
      </trkpt>
      <trkpt lat="45.50933" lon="6.05606">
        <ele>436.7</ele>
        <time>2026-02-27T09:44:35</time>
      </trkpt>
      <trkpt lat="45.50935" lon="6.05606">
        <ele>436.7</ele>
        <time>2026-02-27T09:44:37</time>
      </trkpt>
      <trkpt lat="45.50935" lon="6.05605">
        <ele>439.2</ele>
        <time>2026-02-27T09:44:37</time>
      </trkpt>
      <trkpt lat="45.50936" lon="6.05604">
        <ele>439.2</ele>
        <time>2026-02-27T09:44:38</time>
      </trkpt>
      <trkpt lat="45.50936" lon="6.05603">
        <ele>439.2</ele>
        <time>2026-02-27T09:44:39</time>
      </trkpt>
      <trkpt lat="45.50935" lon="6.05602">
        <ele>439.2</ele>
        <time>2026-02-27T09:44:39</time>
      </trkpt>
      <trkpt lat="45.50934" lon="6.05597">
        <ele>439.2</ele>
        <time>2026-02-27T09:44:44</time>
      </trkpt>
      <trkpt lat="45.50935" lon="6.05591">
        <ele>441.56668</ele>
        <time>2026-02-27T09:44:49</time>
      </trkpt>
      <trkpt lat="45.50935" lon="6.05587">
        <ele>443.4</ele>
        <time>2026-02-27T09:44:53</time>
      </trkpt>
      <trkpt lat="45.50935" lon="6.05583">
        <ele>443.4</ele>
        <time>2026-02-27T09:44:57</time>
      </trkpt>
      <trkpt lat="45.50935" lon="6.0558">
        <ele>443.4</ele>
        <time>2026-02-27T09:44:58</time>
      </trkpt>
      <trkpt lat="45.50934" lon="6.05576">
        <ele>445.4</ele>
        <time>2026-02-27T09:45:02</time>
      </trkpt>
      <trkpt lat="45.50934" lon="6.05575">
        <ele>445.4</ele>
        <time>2026-02-27T09:45:03</time>
      </trkpt>
      <trkpt lat="45.50932" lon="6.05567">
        <ele>447.2</ele>
        <time>2026-02-27T09:45:10</time>
      </trkpt>
      <trkpt lat="45.50932" lon="6.05548">
        <ele>450</ele>
        <time>2026-02-27T09:45:23</time>
      </trkpt>
      <trkpt lat="45.50927" lon="6.0554">
        <ele>451.9</ele>
        <time>2026-02-27T09:45:32</time>
      </trkpt>
      <trkpt lat="45.50924" lon="6.05529">
        <ele>452.4</ele>
        <time>2026-02-27T09:45:43</time>
      </trkpt>
      <trkpt lat="45.50924" lon="6.05528">
        <ele>452.4</ele>
        <time>2026-02-27T09:45:44</time>
      </trkpt>
      <trkpt lat="45.5092" lon="6.05518">
        <ele>453.6</ele>
        <time>2026-02-27T09:45:54</time>
      </trkpt>
      <trkpt lat="45.5092" lon="6.05516">
        <ele>454.8</ele>
        <time>2026-02-27T09:45:56</time>
      </trkpt>
      <trkpt lat="45.5092" lon="6.05513">
        <ele>454.8</ele>
        <time>2026-02-27T09:45:58</time>
      </trkpt>
      <trkpt lat="45.50919" lon="6.05505">
        <ele>454.4</ele>
        <time>2026-02-27T09:46:05</time>
      </trkpt>
      <trkpt lat="45.50916" lon="6.05498">
        <ele>454.4</ele>
        <time>2026-02-27T09:46:11</time>
      </trkpt>
      <trkpt lat="45.50916" lon="6.05496">
        <ele>455.9</ele>
        <time>2026-02-27T09:46:12</time>
      </trkpt>
      <trkpt lat="45.50916" lon="6.05481">
        <ele>455.3</ele>
        <time>2026-02-27T09:46:22</time>
      </trkpt>
      <trkpt lat="45.50916" lon="6.0548">
        <ele>455.3</ele>
        <time>2026-02-27T09:46:23</time>
      </trkpt>
      <trkpt lat="45.50917" lon="6.05474">
        <ele>457.1</ele>
        <time>2026-02-27T09:46:27</time>
      </trkpt>
      <trkpt lat="45.50919" lon="6.0546">
        <ele>459.7</ele>
        <time>2026-02-27T09:46:40</time>
      </trkpt>
      <trkpt lat="45.50919" lon="6.0546">
        <ele>459.7</ele>
        <time>2026-02-27T09:46:41</time>
      </trkpt>
      <trkpt lat="45.5092" lon="6.05459">
        <ele>459.7</ele>
        <time>2026-02-27T09:46:41</time>
      </trkpt>
      <trkpt lat="45.5092" lon="6.05459">
        <ele>459.7</ele>
        <time>2026-02-27T09:46:43</time>
      </trkpt>
      <trkpt lat="45.50921" lon="6.05459">
        <ele>459.7</ele>
        <time>2026-02-27T09:46:44</time>
      </trkpt>
      <trkpt lat="45.50921" lon="6.05459">
        <ele>459.7</ele>
        <time>2026-02-27T09:46:44</time>
      </trkpt>
      <trkpt lat="45.50921" lon="6.0546">
        <ele>459.7</ele>
        <time>2026-02-27T09:46:45</time>
      </trkpt>
      <trkpt lat="45.50922" lon="6.05462">
        <ele>463.7</ele>
        <time>2026-02-27T09:46:48</time>
      </trkpt>
      <trkpt lat="45.50922" lon="6.05463">
        <ele>463.7</ele>
        <time>2026-02-27T09:46:50</time>
      </trkpt>
      <trkpt lat="45.50923" lon="6.05464">
        <ele>463.7</ele>
        <time>2026-02-27T09:46:51</time>
      </trkpt>
      <trkpt lat="45.50923" lon="6.05465">
        <ele>463.7</ele>
        <time>2026-02-27T09:46:52</time>
      </trkpt>
      <trkpt lat="45.50923" lon="6.05466">
        <ele>463.7</ele>
        <time>2026-02-27T09:46:53</time>
      </trkpt>
      <trkpt lat="45.50924" lon="6.05469">
        <ele>464.8</ele>
        <time>2026-02-27T09:46:56</time>
      </trkpt>
      <trkpt lat="45.50926" lon="6.05474">
        <ele>464.8</ele>
        <time>2026-02-27T09:47:00</time>
      </trkpt>
      <trkpt lat="45.50928" lon="6.05478">
        <ele>465.1</ele>
        <time>2026-02-27T09:47:04</time>
      </trkpt>
      <trkpt lat="45.50929" lon="6.05481">
        <ele>465.1</ele>
        <time>2026-02-27T09:47:07</time>
      </trkpt>
      <trkpt lat="45.5093" lon="6.05484">
        <ele>465.1</ele>
        <time>2026-02-27T09:47:09</time>
      </trkpt>
      <trkpt lat="45.5093" lon="6.05486">
        <ele>465.5</ele>
        <time>2026-02-27T09:47:11</time>
      </trkpt>
      <trkpt lat="45.50936" lon="6.05496">
        <ele>466.3</ele>
        <time>2026-02-27T09:47:19</time>
      </trkpt>
      <trkpt lat="45.50938" lon="6.05499">
        <ele>466.3</ele>
        <time>2026-02-27T09:47:23</time>
      </trkpt>
      <trkpt lat="45.50939" lon="6.055">
        <ele>466.3</ele>
        <time>2026-02-27T09:47:24</time>
      </trkpt>
      <trkpt lat="45.50942" lon="6.05505">
        <ele>466.3</ele>
        <time>2026-02-27T09:47:28</time>
      </trkpt>
      <trkpt lat="45.50947" lon="6.0551">
        <ele>466.3</ele>
        <time>2026-02-27T09:47:35</time>
      </trkpt>
      <trkpt lat="45.50949" lon="6.05512">
        <ele>467.4</ele>
        <time>2026-02-27T09:47:38</time>
      </trkpt>
      <trkpt lat="45.50952" lon="6.05518">
        <ele>468</ele>
        <time>2026-02-27T09:47:44</time>
      </trkpt>
      <trkpt lat="45.50954" lon="6.0552">
        <ele>468</ele>
        <time>2026-02-27T09:47:46</time>
      </trkpt>
      <trkpt lat="45.50969" lon="6.05534">
        <ele>472.93332</ele>
        <time>2026-02-27T09:48:07</time>
      </trkpt>
      <trkpt lat="45.50971" lon="6.05539">
        <ele>472.93332</ele>
        <time>2026-02-27T09:48:10</time>
      </trkpt>
      <trkpt lat="45.50974" lon="6.05546">
        <ele>473.2</ele>
        <time>2026-02-27T09:48:16</time>
      </trkpt>
      <trkpt lat="45.50975" lon="6.05548">
        <ele>473.2</ele>
        <time>2026-02-27T09:48:18</time>
      </trkpt>
      <trkpt lat="45.50976" lon="6.05548">
        <ele>473.2</ele>
        <time>2026-02-27T09:48:18</time>
      </trkpt>
      <trkpt lat="45.50979" lon="6.0555">
        <ele>471.9</ele>
        <time>2026-02-27T09:48:23</time>
      </trkpt>
      <trkpt lat="45.5098" lon="6.0555">
        <ele>471.9</ele>
        <time>2026-02-27T09:48:24</time>
      </trkpt>
      <trkpt lat="45.50982" lon="6.05551">
        <ele>471.9</ele>
        <time>2026-02-27T09:48:26</time>
      </trkpt>
      <trkpt lat="45.50982" lon="6.05551">
        <ele>471.9</ele>
        <time>2026-02-27T09:48:27</time>
      </trkpt>
      <trkpt lat="45.50982" lon="6.05551">
        <ele>471.9</ele>
        <time>2026-02-27T09:48:28</time>
      </trkpt>
      <trkpt lat="45.50983" lon="6.05552">
        <ele>472.86667</ele>
        <time>2026-02-27T09:48:29</time>
      </trkpt>
      <trkpt lat="45.50984" lon="6.05552">
        <ele>472.86667</ele>
        <time>2026-02-27T09:48:31</time>
      </trkpt>
      <trkpt lat="45.50984" lon="6.05552">
        <ele>472.86667</ele>
        <time>2026-02-27T09:48:31</time>
      </trkpt>
      <trkpt lat="45.50983" lon="6.05552">
        <ele>472.86667</ele>
        <time>2026-02-27T09:48:33</time>
      </trkpt>
      <trkpt lat="45.50983" lon="6.05552">
        <ele>472.86667</ele>
        <time>2026-02-27T09:48:34</time>
      </trkpt>
      <trkpt lat="45.50983" lon="6.05553">
        <ele>472.86667</ele>
        <time>2026-02-27T09:48:35</time>
      </trkpt>
      <trkpt lat="45.50983" lon="6.05553">
        <ele>472.86667</ele>
        <time>2026-02-27T09:48:36</time>
      </trkpt>
      <trkpt lat="45.50982" lon="6.05553">
        <ele>472.86667</ele>
        <time>2026-02-27T09:48:37</time>
      </trkpt>
      <trkpt lat="45.50982" lon="6.05553">
        <ele>476.03333</ele>
        <time>2026-02-27T09:48:43</time>
      </trkpt>
      <trkpt lat="45.50982" lon="6.05553">
        <ele>476</ele>
        <time>2026-02-27T09:48:49</time>
      </trkpt>
      <trkpt lat="45.50982" lon="6.05553">
        <ele>476</ele>
        <time>2026-02-27T09:48:50</time>
      </trkpt>
      <trkpt lat="45.50982" lon="6.05553">
        <ele>476</ele>
        <time>2026-02-27T09:48:51</time>
      </trkpt>
      <trkpt lat="45.50982" lon="6.05552">
        <ele>476</ele>
        <time>2026-02-27T09:48:51</time>
      </trkpt>
      <trkpt lat="45.50981" lon="6.05552">
        <ele>476</ele>
        <time>2026-02-27T09:48:52</time>
      </trkpt>
      <trkpt lat="45.50981" lon="6.05552">
        <ele>476</ele>
        <time>2026-02-27T09:48:53</time>
      </trkpt>
      <trkpt lat="45.5098" lon="6.0555">
        <ele>476</ele>
        <time>2026-02-27T09:48:55</time>
      </trkpt>
      <trkpt lat="45.5098" lon="6.05549">
        <ele>476</ele>
        <time>2026-02-27T09:48:56</time>
      </trkpt>
      <trkpt lat="45.5098" lon="6.05544">
        <ele>476</ele>
        <time>2026-02-27T09:49:00</time>
      </trkpt>
      <trkpt lat="45.50981" lon="6.05542">
        <ele>476.1</ele>
        <time>2026-02-27T09:49:03</time>
      </trkpt>
      <trkpt lat="45.50981" lon="6.0554">
        <ele>476.1</ele>
        <time>2026-02-27T09:49:05</time>
      </trkpt>
      <trkpt lat="45.50981" lon="6.0554">
        <ele>476.1</ele>
        <time>2026-02-27T09:49:06</time>
      </trkpt>
      <trkpt lat="45.50981" lon="6.05539">
        <ele>476.1</ele>
        <time>2026-02-27T09:49:06</time>
      </trkpt>
      <trkpt lat="45.50981" lon="6.05537">
        <ele>476.1</ele>
        <time>2026-02-27T09:49:08</time>
      </trkpt>
      <trkpt lat="45.5098" lon="6.05536">
        <ele>476.1</ele>
        <time>2026-02-27T09:49:09</time>
      </trkpt>
      <trkpt lat="45.5098" lon="6.05536">
        <ele>477</ele>
        <time>2026-02-27T09:49:11</time>
      </trkpt>
      <trkpt lat="45.5098" lon="6.05536">
        <ele>477</ele>
        <time>2026-02-27T09:49:11</time>
      </trkpt>
      <trkpt lat="45.5098" lon="6.05536">
        <ele>477</ele>
        <time>2026-02-27T09:49:12</time>
      </trkpt>
      <trkpt lat="45.5098" lon="6.05536">
        <ele>477</ele>
        <time>2026-02-27T09:49:13</time>
      </trkpt>
      <trkpt lat="45.5098" lon="6.05536">
        <ele>477</ele>
        <time>2026-02-27T09:49:14</time>
      </trkpt>
      <trkpt lat="45.5098" lon="6.05535">
        <ele>477</ele>
        <time>2026-02-27T09:49:14</time>
      </trkpt>
      <trkpt lat="45.5098" lon="6.05535">
        <ele>477</ele>
        <time>2026-02-27T09:49:15</time>
      </trkpt>
      <trkpt lat="45.50979" lon="6.05535">
        <ele>477</ele>
        <time>2026-02-27T09:49:15</time>
      </trkpt>
      <trkpt lat="45.50979" lon="6.05534">
        <ele>477</ele>
        <time>2026-02-27T09:49:16</time>
      </trkpt>
      <trkpt lat="45.50979" lon="6.05533">
        <ele>479</ele>
        <time>2026-02-27T09:49:17</time>
      </trkpt>
      <trkpt lat="45.50979" lon="6.05532">
        <ele>479</ele>
        <time>2026-02-27T09:49:18</time>
      </trkpt>
      <trkpt lat="45.5098" lon="6.05531">
        <ele>479</ele>
        <time>2026-02-27T09:49:19</time>
      </trkpt>
      <trkpt lat="45.5098" lon="6.0553">
        <ele>479</ele>
        <time>2026-02-27T09:49:20</time>
      </trkpt>
      <trkpt lat="45.5098" lon="6.0553">
        <ele>479</ele>
        <time>2026-02-27T09:49:20</time>
      </trkpt>
      <trkpt lat="45.5098" lon="6.05529">
        <ele>479</ele>
        <time>2026-02-27T09:49:21</time>
      </trkpt>
      <trkpt lat="45.5098" lon="6.05529">
        <ele>479</ele>
        <time>2026-02-27T09:49:22</time>
      </trkpt>
      <trkpt lat="45.50981" lon="6.05529">
        <ele>479</ele>
        <time>2026-02-27T09:49:23</time>
      </trkpt>
      <trkpt lat="45.50981" lon="6.05528">
        <ele>479.8</ele>
        <time>2026-02-27T09:49:24</time>
      </trkpt>
      <trkpt lat="45.50981" lon="6.05528">
        <ele>479.8</ele>
        <time>2026-02-27T09:49:25</time>
      </trkpt>
      <trkpt lat="45.50983" lon="6.05527">
        <ele>479.8</ele>
        <time>2026-02-27T09:49:28</time>
      </trkpt>
      <trkpt lat="45.50985" lon="6.05528">
        <ele>479.8</ele>
        <time>2026-02-27T09:49:31</time>
      </trkpt>
      <trkpt lat="45.50989" lon="6.05528">
        <ele>479.8</ele>
        <time>2026-02-27T09:49:35</time>
      </trkpt>
      <trkpt lat="45.50991" lon="6.05529">
        <ele>480.5</ele>
        <time>2026-02-27T09:49:40</time>
      </trkpt>
      <trkpt lat="45.50992" lon="6.05529">
        <ele>480.5</ele>
        <time>2026-02-27T09:49:42</time>
      </trkpt>
      <trkpt lat="45.50992" lon="6.05528">
        <ele>480.5</ele>
        <time>2026-02-27T09:49:43</time>
      </trkpt>
      <trkpt lat="45.50992" lon="6.05527">
        <ele>480.5</ele>
        <time>2026-02-27T09:49:43</time>
      </trkpt>
      <trkpt lat="45.50991" lon="6.05527">
        <ele>480.5</ele>
        <time>2026-02-27T09:49:44</time>
      </trkpt>
      <trkpt lat="45.5099" lon="6.05524">
        <ele>480.5</ele>
        <time>2026-02-27T09:49:46</time>
      </trkpt>
      <trkpt lat="45.50983" lon="6.05509">
        <ele>482.2</ele>
        <time>2026-02-27T09:50:01</time>
      </trkpt>
      <trkpt lat="45.5098" lon="6.05501">
        <ele>484.6</ele>
        <time>2026-02-27T09:50:09</time>
      </trkpt>
      <trkpt lat="45.50979" lon="6.05491">
        <ele>485.4</ele>
        <time>2026-02-27T09:50:17</time>
      </trkpt>
      <trkpt lat="45.50979" lon="6.05487">
        <ele>485.4</ele>
        <time>2026-02-27T09:50:20</time>
      </trkpt>
      <trkpt lat="45.50973" lon="6.05459">
        <ele>487.3</ele>
        <time>2026-02-27T09:50:41</time>
      </trkpt>
      <trkpt lat="45.50974" lon="6.05457">
        <ele>487.3</ele>
        <time>2026-02-27T09:50:42</time>
      </trkpt>
      <trkpt lat="45.50974" lon="6.05453">
        <ele>490.1</ele>
        <time>2026-02-27T09:50:47</time>
      </trkpt>
      <trkpt lat="45.50974" lon="6.05453">
        <ele>490.1</ele>
        <time>2026-02-27T09:50:53</time>
      </trkpt>
      <trkpt lat="45.50974" lon="6.05454">
        <ele>490.1</ele>
        <time>2026-02-27T09:50:55</time>
      </trkpt>
      <trkpt lat="45.50974" lon="6.05454">
        <ele>495.33334</ele>
        <time>2026-02-27T09:50:57</time>
      </trkpt>
      <trkpt lat="45.50974" lon="6.05454">
        <ele>495.33334</ele>
        <time>2026-02-27T09:50:57</time>
      </trkpt>
      <trkpt lat="45.50974" lon="6.05454">
        <ele>495.33334</ele>
        <time>2026-02-27T09:50:59</time>
      </trkpt>
      <trkpt lat="45.50974" lon="6.05454">
        <ele>495.33334</ele>
        <time>2026-02-27T09:51:00</time>
      </trkpt>
      <trkpt lat="45.50974" lon="6.05454">
        <ele>495.33334</ele>
        <time>2026-02-27T09:51:00</time>
      </trkpt>
      <trkpt lat="45.50974" lon="6.05454">
        <ele>495.33334</ele>
        <time>2026-02-27T09:51:02</time>
      </trkpt>
      <trkpt lat="45.50974" lon="6.05454">
        <ele>495.33334</ele>
        <time>2026-02-27T09:51:03</time>
      </trkpt>
      <trkpt lat="45.50974" lon="6.05454">
        <ele>495.33334</ele>
        <time>2026-02-27T09:51:03</time>
      </trkpt>
      <trkpt lat="45.50974" lon="6.05454">
        <ele>495.33334</ele>
        <time>2026-02-27T09:51:06</time>
      </trkpt>
      <trkpt lat="45.50974" lon="6.05454">
        <ele>495.6</ele>
        <time>2026-02-27T09:51:08</time>
      </trkpt>
      <trkpt lat="45.50974" lon="6.05454">
        <ele>495.6</ele>
        <time>2026-02-27T09:51:08</time>
      </trkpt>
      <trkpt lat="45.50974" lon="6.05453">
        <ele>495.6</ele>
        <time>2026-02-27T09:51:10</time>
      </trkpt>
      <trkpt lat="45.50978" lon="6.05445">
        <ele>495.6</ele>
        <time>2026-02-27T09:51:16</time>
      </trkpt>
      <trkpt lat="45.50979" lon="6.05444">
        <ele>495.6</ele>
        <time>2026-02-27T09:51:17</time>
      </trkpt>
      <trkpt lat="45.50979" lon="6.05442">
        <ele>495.6</ele>
        <time>2026-02-27T09:51:18</time>
      </trkpt>
      <trkpt lat="45.50979" lon="6.0544">
        <ele>497.13333</ele>
        <time>2026-02-27T09:51:21</time>
      </trkpt>
      <trkpt lat="45.50979" lon="6.05439">
        <ele>497.13333</ele>
        <time>2026-02-27T09:51:21</time>
      </trkpt>
      <trkpt lat="45.50979" lon="6.05439">
        <ele>497.13333</ele>
        <time>2026-02-27T09:51:22</time>
      </trkpt>
      <trkpt lat="45.50979" lon="6.05438">
        <ele>497.13333</ele>
        <time>2026-02-27T09:51:22</time>
      </trkpt>
      <trkpt lat="45.50979" lon="6.05437">
        <ele>497.13333</ele>
        <time>2026-02-27T09:51:24</time>
      </trkpt>
      <trkpt lat="45.50976" lon="6.0543">
        <ele>498.3</ele>
        <time>2026-02-27T09:51:30</time>
      </trkpt>
      <trkpt lat="45.50974" lon="6.05425">
        <ele>498.3</ele>
        <time>2026-02-27T09:51:32</time>
      </trkpt>
      <trkpt lat="45.50968" lon="6.05411">
        <ele>497.8</ele>
        <time>2026-02-27T09:51:42</time>
      </trkpt>
      <trkpt lat="45.50964" lon="6.05393">
        <ele>500.1</ele>
        <time>2026-02-27T09:51:54</time>
      </trkpt>
      <trkpt lat="45.50961" lon="6.05378">
        <ele>501.5</ele>
        <time>2026-02-27T09:52:03</time>
      </trkpt>
      <trkpt lat="45.50961" lon="6.05375">
        <ele>502.76666</ele>
        <time>2026-02-27T09:52:05</time>
      </trkpt>
      <trkpt lat="45.5096" lon="6.05364">
        <ele>505</ele>
        <time>2026-02-27T09:52:14</time>
      </trkpt>
      <trkpt lat="45.50959" lon="6.05358">
        <ele>505</ele>
        <time>2026-02-27T09:52:19</time>
      </trkpt>
      <trkpt lat="45.50958" lon="6.05358">
        <ele>505</ele>
        <time>2026-02-27T09:52:21</time>
      </trkpt>
      <trkpt lat="45.50958" lon="6.05359">
        <ele>507.2</ele>
        <time>2026-02-27T09:52:29</time>
      </trkpt>
      <trkpt lat="45.50957" lon="6.05356">
        <ele>509.9</ele>
        <time>2026-02-27T09:53:13</time>
      </trkpt>
      <trkpt lat="45.50956" lon="6.05354">
        <ele>509.9</ele>
        <time>2026-02-27T09:53:14</time>
      </trkpt>
      <trkpt lat="45.50956" lon="6.05353">
        <ele>509.9</ele>
        <time>2026-02-27T09:53:15</time>
      </trkpt>
      <trkpt lat="45.50956" lon="6.05352">
        <ele>509.9</ele>
        <time>2026-02-27T09:53:16</time>
      </trkpt>
      <trkpt lat="45.50956" lon="6.05351">
        <ele>509.9</ele>
        <time>2026-02-27T09:53:17</time>
      </trkpt>
      <trkpt lat="45.50956" lon="6.0535">
        <ele>509.9</ele>
        <time>2026-02-27T09:53:18</time>
      </trkpt>
      <trkpt lat="45.50956" lon="6.05349">
        <ele>509.9</ele>
        <time>2026-02-27T09:53:19</time>
      </trkpt>
      <trkpt lat="45.50957" lon="6.05348">
        <ele>510.16666</ele>
        <time>2026-02-27T09:53:20</time>
      </trkpt>
      <trkpt lat="45.50957" lon="6.05347">
        <ele>510.16666</ele>
        <time>2026-02-27T09:53:21</time>
      </trkpt>
      <trkpt lat="45.50957" lon="6.05346">
        <ele>510.16666</ele>
        <time>2026-02-27T09:53:21</time>
      </trkpt>
      <trkpt lat="45.50958" lon="6.05345">
        <ele>510.16666</ele>
        <time>2026-02-27T09:53:23</time>
      </trkpt>
      <trkpt lat="45.50958" lon="6.05344">
        <ele>510.16666</ele>
        <time>2026-02-27T09:53:25</time>
      </trkpt>
      <trkpt lat="45.50959" lon="6.05344">
        <ele>510.16666</ele>
        <time>2026-02-27T09:53:26</time>
      </trkpt>
      <trkpt lat="45.5096" lon="6.05343">
        <ele>510.16666</ele>
        <time>2026-02-27T09:53:27</time>
      </trkpt>
      <trkpt lat="45.50961" lon="6.05342">
        <ele>512</ele>
        <time>2026-02-27T09:53:29</time>
      </trkpt>
      <trkpt lat="45.50961" lon="6.05342">
        <ele>512</ele>
        <time>2026-02-27T09:53:29</time>
      </trkpt>
      <trkpt lat="45.50961" lon="6.05341">
        <ele>512</ele>
        <time>2026-02-27T09:53:30</time>
      </trkpt>
      <trkpt lat="45.50961" lon="6.05339">
        <ele>512</ele>
        <time>2026-02-27T09:53:31</time>
      </trkpt>
      <trkpt lat="45.50961" lon="6.05337">
        <ele>512</ele>
        <time>2026-02-27T09:53:32</time>
      </trkpt>
      <trkpt lat="45.5096" lon="6.05336">
        <ele>512</ele>
        <time>2026-02-27T09:53:33</time>
      </trkpt>
      <trkpt lat="45.5096" lon="6.05335">
        <ele>512</ele>
        <time>2026-02-27T09:53:34</time>
      </trkpt>
      <trkpt lat="45.5096" lon="6.05334">
        <ele>512</ele>
        <time>2026-02-27T09:53:34</time>
      </trkpt>
      <trkpt lat="45.50959" lon="6.05334">
        <ele>512.9</ele>
        <time>2026-02-27T09:53:35</time>
      </trkpt>
      <trkpt lat="45.50958" lon="6.05332">
        <ele>512.9</ele>
        <time>2026-02-27T09:53:36</time>
      </trkpt>
      <trkpt lat="45.50956" lon="6.0533">
        <ele>512.9</ele>
        <time>2026-02-27T09:53:38</time>
      </trkpt>
      <trkpt lat="45.50955" lon="6.05329">
        <ele>512.9</ele>
        <time>2026-02-27T09:53:38</time>
      </trkpt>
      <trkpt lat="45.50955" lon="6.05329">
        <ele>512.9</ele>
        <time>2026-02-27T09:53:39</time>
      </trkpt>
      <trkpt lat="45.50954" lon="6.05328">
        <ele>512.9</ele>
        <time>2026-02-27T09:53:39</time>
      </trkpt>
      <trkpt lat="45.50954" lon="6.05326">
        <ele>513.3</ele>
        <time>2026-02-27T09:53:40</time>
      </trkpt>
      <trkpt lat="45.50954" lon="6.05324">
        <ele>513.3</ele>
        <time>2026-02-27T09:53:41</time>
      </trkpt>
      <trkpt lat="45.50952" lon="6.05315">
        <ele>513.6</ele>
        <time>2026-02-27T09:53:46</time>
      </trkpt>
      <trkpt lat="45.50949" lon="6.05296">
        <ele>514.1</ele>
        <time>2026-02-27T09:53:58</time>
      </trkpt>
      <trkpt lat="45.50948" lon="6.05293">
        <ele>514.9</ele>
        <time>2026-02-27T09:54:01</time>
      </trkpt>
      <trkpt lat="45.50949" lon="6.0529">
        <ele>514.9</ele>
        <time>2026-02-27T09:54:04</time>
      </trkpt>
      <trkpt lat="45.50949" lon="6.05285">
        <ele>516.2</ele>
        <time>2026-02-27T09:54:12</time>
      </trkpt>
      <trkpt lat="45.50949" lon="6.05283">
        <ele>516.2</ele>
        <time>2026-02-27T09:54:13</time>
      </trkpt>
      <trkpt lat="45.50947" lon="6.05276">
        <ele>517.3</ele>
        <time>2026-02-27T09:54:16</time>
      </trkpt>
      <trkpt lat="45.50946" lon="6.0527">
        <ele>519.1</ele>
        <time>2026-02-27T09:54:22</time>
      </trkpt>
      <trkpt lat="45.50946" lon="6.05269">
        <ele>519.1</ele>
        <time>2026-02-27T09:54:23</time>
      </trkpt>
      <trkpt lat="45.50946" lon="6.05265">
        <ele>519.1</ele>
        <time>2026-02-27T09:54:26</time>
      </trkpt>
      <trkpt lat="45.50946" lon="6.05258">
        <ele>520.2</ele>
        <time>2026-02-27T09:54:31</time>
      </trkpt>
      <trkpt lat="45.50944" lon="6.05246">
        <ele>521.9</ele>
        <time>2026-02-27T09:54:40</time>
      </trkpt>
      <trkpt lat="45.50944" lon="6.0524">
        <ele>524.4</ele>
        <time>2026-02-27T09:54:45</time>
      </trkpt>
      <trkpt lat="45.50945" lon="6.05238">
        <ele>524.4</ele>
        <time>2026-02-27T09:54:46</time>
      </trkpt>
      <trkpt lat="45.50946" lon="6.05228">
        <ele>525.8333</ele>
        <time>2026-02-27T09:54:56</time>
      </trkpt>
      <trkpt lat="45.50946" lon="6.05227">
        <ele>525.8333</ele>
        <time>2026-02-27T09:54:58</time>
      </trkpt>
      <trkpt lat="45.50947" lon="6.05224">
        <ele>528.5</ele>
        <time>2026-02-27T09:55:01</time>
      </trkpt>
      <trkpt lat="45.50947" lon="6.05218">
        <ele>528.5</ele>
        <time>2026-02-27T09:55:04</time>
      </trkpt>
      <trkpt lat="45.50948" lon="6.05217">
        <ele>528.5</ele>
        <time>2026-02-27T09:55:06</time>
      </trkpt>
      <trkpt lat="45.50948" lon="6.05212">
        <ele>528.5</ele>
        <time>2026-02-27T09:55:08</time>
      </trkpt>
      <trkpt lat="45.50947" lon="6.05209">
        <ele>529</ele>
        <time>2026-02-27T09:55:10</time>
      </trkpt>
      <trkpt lat="45.50947" lon="6.05207">
        <ele>529</ele>
        <time>2026-02-27T09:55:14</time>
      </trkpt>
      <trkpt lat="45.50946" lon="6.05204">
        <ele>529</ele>
        <time>2026-02-27T09:55:15</time>
      </trkpt>
      <trkpt lat="45.50943" lon="6.05193">
        <ele>530.8</ele>
        <time>2026-02-27T09:55:23</time>
      </trkpt>
      <trkpt lat="45.50943" lon="6.05192">
        <ele>530.8</ele>
        <time>2026-02-27T09:55:24</time>
      </trkpt>
      <trkpt lat="45.50944" lon="6.0519">
        <ele>532.2</ele>
        <time>2026-02-27T09:55:25</time>
      </trkpt>
      <trkpt lat="45.50944" lon="6.05185">
        <ele>532.2</ele>
        <time>2026-02-27T09:55:28</time>
      </trkpt>
      <trkpt lat="45.50945" lon="6.0517">
        <ele>534.9</ele>
        <time>2026-02-27T09:55:42</time>
      </trkpt>
      <trkpt lat="45.50945" lon="6.05168">
        <ele>534.9</ele>
        <time>2026-02-27T09:55:43</time>
      </trkpt>
      <trkpt lat="45.50944" lon="6.05161">
        <ele>534.9</ele>
        <time>2026-02-27T09:55:47</time>
      </trkpt>
      <trkpt lat="45.50945" lon="6.05158">
        <ele>537.2</ele>
        <time>2026-02-27T09:55:51</time>
      </trkpt>
      <trkpt lat="45.50945" lon="6.05157">
        <ele>537.2</ele>
        <time>2026-02-27T09:55:52</time>
      </trkpt>
      <trkpt lat="45.50945" lon="6.05156">
        <ele>537.2</ele>
        <time>2026-02-27T09:55:53</time>
      </trkpt>
      <trkpt lat="45.50946" lon="6.05152">
        <ele>537.2</ele>
        <time>2026-02-27T09:55:56</time>
      </trkpt>
      <trkpt lat="45.50946" lon="6.0515">
        <ele>537.76666</ele>
        <time>2026-02-27T09:55:57</time>
      </trkpt>
      <trkpt lat="45.50942" lon="6.05127">
        <ele>538.3</ele>
        <time>2026-02-27T09:56:14</time>
      </trkpt>
      <trkpt lat="45.50942" lon="6.05125">
        <ele>538.3</ele>
        <time>2026-02-27T09:56:17</time>
      </trkpt>
      <trkpt lat="45.50942" lon="6.05123">
        <ele>539.6</ele>
        <time>2026-02-27T09:56:18</time>
      </trkpt>
      <trkpt lat="45.50942" lon="6.05122">
        <ele>539.6</ele>
        <time>2026-02-27T09:56:19</time>
      </trkpt>
      <trkpt lat="45.50943" lon="6.0512">
        <ele>539.6</ele>
        <time>2026-02-27T09:56:21</time>
      </trkpt>
      <trkpt lat="45.50944" lon="6.05118">
        <ele>539.6</ele>
        <time>2026-02-27T09:56:23</time>
      </trkpt>
      <trkpt lat="45.50945" lon="6.05115">
        <ele>539.7</ele>
        <time>2026-02-27T09:56:26</time>
      </trkpt>
      <trkpt lat="45.50946" lon="6.05111">
        <ele>539.7</ele>
        <time>2026-02-27T09:56:31</time>
      </trkpt>
      <trkpt lat="45.50947" lon="6.05108">
        <ele>540.1</ele>
        <time>2026-02-27T09:56:35</time>
      </trkpt>
      <trkpt lat="45.50947" lon="6.05107">
        <ele>540.1</ele>
        <time>2026-02-27T09:56:36</time>
      </trkpt>
      <trkpt lat="45.50947" lon="6.05106">
        <ele>540.1</ele>
        <time>2026-02-27T09:56:40</time>
      </trkpt>
      <trkpt lat="45.50947" lon="6.05104">
        <ele>541</ele>
        <time>2026-02-27T09:56:42</time>
      </trkpt>
      <trkpt lat="45.50946" lon="6.05098">
        <ele>541</ele>
        <time>2026-02-27T09:56:45</time>
      </trkpt>
      <trkpt lat="45.50946" lon="6.05096">
        <ele>541</ele>
        <time>2026-02-27T09:56:47</time>
      </trkpt>
      <trkpt lat="45.50946" lon="6.05095">
        <ele>541</ele>
        <time>2026-02-27T09:56:48</time>
      </trkpt>
      <trkpt lat="45.50945" lon="6.05091">
        <ele>542.4667</ele>
        <time>2026-02-27T09:56:50</time>
      </trkpt>
      <trkpt lat="45.50944" lon="6.05083">
        <ele>542.4667</ele>
        <time>2026-02-27T09:56:58</time>
      </trkpt>
      <trkpt lat="45.50944" lon="6.05082">
        <ele>542.9667</ele>
        <time>2026-02-27T09:56:58</time>
      </trkpt>
      <trkpt lat="45.50944" lon="6.05081">
        <ele>542.9667</ele>
        <time>2026-02-27T09:56:59</time>
      </trkpt>
      <trkpt lat="45.50943" lon="6.05078">
        <ele>542.9667</ele>
        <time>2026-02-27T09:57:01</time>
      </trkpt>
      <trkpt lat="45.50941" lon="6.05073">
        <ele>542.9667</ele>
        <time>2026-02-27T09:57:05</time>
      </trkpt>
      <trkpt lat="45.50939" lon="6.05069">
        <ele>545.2</ele>
        <time>2026-02-27T09:57:09</time>
      </trkpt>
      <trkpt lat="45.50938" lon="6.05066">
        <ele>545.2</ele>
        <time>2026-02-27T09:57:11</time>
      </trkpt>
      <trkpt lat="45.50938" lon="6.05063">
        <ele>545.2</ele>
        <time>2026-02-27T09:57:13</time>
      </trkpt>
      <trkpt lat="45.50936" lon="6.05052">
        <ele>549.6</ele>
        <time>2026-02-27T09:57:24</time>
      </trkpt>
      <trkpt lat="45.50936" lon="6.05052">
        <ele>549.6</ele>
        <time>2026-02-27T09:57:25</time>
      </trkpt>
      <trkpt lat="45.50936" lon="6.05052">
        <ele>549.6</ele>
        <time>2026-02-27T09:57:26</time>
      </trkpt>
      <trkpt lat="45.50936" lon="6.05051">
        <ele>549.6</ele>
        <time>2026-02-27T09:57:26</time>
      </trkpt>
      <trkpt lat="45.50935" lon="6.05049">
        <ele>550.3</ele>
        <time>2026-02-27T09:57:28</time>
      </trkpt>
      <trkpt lat="45.50935" lon="6.05047">
        <ele>550.3</ele>
        <time>2026-02-27T09:57:31</time>
      </trkpt>
      <trkpt lat="45.50935" lon="6.05046">
        <ele>550.3</ele>
        <time>2026-02-27T09:57:32</time>
      </trkpt>
      <trkpt lat="45.50935" lon="6.05045">
        <ele>550.3</ele>
        <time>2026-02-27T09:57:33</time>
      </trkpt>
      <trkpt lat="45.50935" lon="6.05043">
        <ele>550.3</ele>
        <time>2026-02-27T09:57:34</time>
      </trkpt>
      <trkpt lat="45.50934" lon="6.05042">
        <ele>552.2</ele>
        <time>2026-02-27T09:57:35</time>
      </trkpt>
      <trkpt lat="45.50934" lon="6.05041">
        <ele>552.2</ele>
        <time>2026-02-27T09:57:36</time>
      </trkpt>
      <trkpt lat="45.50934" lon="6.0504">
        <ele>552.2</ele>
        <time>2026-02-27T09:57:37</time>
      </trkpt>
      <trkpt lat="45.50934" lon="6.05039">
        <ele>552.2</ele>
        <time>2026-02-27T09:57:38</time>
      </trkpt>
      <trkpt lat="45.50934" lon="6.05038">
        <ele>552.2</ele>
        <time>2026-02-27T09:57:39</time>
      </trkpt>
      <trkpt lat="45.50934" lon="6.05035">
        <ele>552.2</ele>
        <time>2026-02-27T09:57:42</time>
      </trkpt>
      <trkpt lat="45.50934" lon="6.05034">
        <ele>553.9</ele>
        <time>2026-02-27T09:57:43</time>
      </trkpt>
      <trkpt lat="45.50934" lon="6.05033">
        <ele>553.9</ele>
        <time>2026-02-27T09:57:43</time>
      </trkpt>
      <trkpt lat="45.50934" lon="6.0503">
        <ele>553.9</ele>
        <time>2026-02-27T09:57:46</time>
      </trkpt>
      <trkpt lat="45.50934" lon="6.05029">
        <ele>553.9</ele>
        <time>2026-02-27T09:57:47</time>
      </trkpt>
      <trkpt lat="45.50934" lon="6.05027">
        <ele>553.9</ele>
        <time>2026-02-27T09:57:48</time>
      </trkpt>
      <trkpt lat="45.50934" lon="6.05025">
        <ele>553.9</ele>
        <time>2026-02-27T09:57:49</time>
      </trkpt>
      <trkpt lat="45.50934" lon="6.05023">
        <ele>555.8</ele>
        <time>2026-02-27T09:57:50</time>
      </trkpt>
      <trkpt lat="45.50934" lon="6.05022">
        <ele>555.8</ele>
        <time>2026-02-27T09:57:51</time>
      </trkpt>
      <trkpt lat="45.50934" lon="6.05021">
        <ele>555.8</ele>
        <time>2026-02-27T09:57:53</time>
      </trkpt>
      <trkpt lat="45.50934" lon="6.05017">
        <ele>555.8</ele>
        <time>2026-02-27T09:57:56</time>
      </trkpt>
      <trkpt lat="45.50933" lon="6.05013">
        <ele>557.9667</ele>
        <time>2026-02-27T09:57:59</time>
      </trkpt>
      <trkpt lat="45.50933" lon="6.05013">
        <ele>557.9667</ele>
        <time>2026-02-27T09:58:00</time>
      </trkpt>
      <trkpt lat="45.50932" lon="6.05012">
        <ele>557.9667</ele>
        <time>2026-02-27T09:58:00</time>
      </trkpt>
      <trkpt lat="45.50932" lon="6.05011">
        <ele>557.9667</ele>
        <time>2026-02-27T09:58:01</time>
      </trkpt>
      <trkpt lat="45.50932" lon="6.05011">
        <ele>557.9667</ele>
        <time>2026-02-27T09:58:02</time>
      </trkpt>
      <trkpt lat="45.5093" lon="6.05007">
        <ele>559.4</ele>
        <time>2026-02-27T09:58:06</time>
      </trkpt>
      <trkpt lat="45.50929" lon="6.05007">
        <ele>559.4</ele>
        <time>2026-02-27T09:58:06</time>
      </trkpt>
      <trkpt lat="45.50929" lon="6.05006">
        <ele>559.4</ele>
        <time>2026-02-27T09:58:07</time>
      </trkpt>
      <trkpt lat="45.50928" lon="6.05006">
        <ele>559.4</ele>
        <time>2026-02-27T09:58:08</time>
      </trkpt>
      <trkpt lat="45.50925" lon="6.05002">
        <ele>559.4</ele>
        <time>2026-02-27T09:58:11</time>
      </trkpt>
      <trkpt lat="45.50923" lon="6.05">
        <ele>561.1667</ele>
        <time>2026-02-27T09:58:12</time>
      </trkpt>
      <trkpt lat="45.50922" lon="6.04998">
        <ele>561.1667</ele>
        <time>2026-02-27T09:58:13</time>
      </trkpt>
      <trkpt lat="45.5092" lon="6.04993">
        <ele>561.1667</ele>
        <time>2026-02-27T09:58:15</time>
      </trkpt>
      <trkpt lat="45.50917" lon="6.04987">
        <ele>561.1667</ele>
        <time>2026-02-27T09:58:19</time>
      </trkpt>
      <trkpt lat="45.50917" lon="6.04985">
        <ele>561.1667</ele>
        <time>2026-02-27T09:58:20</time>
      </trkpt>
      <trkpt lat="45.50915" lon="6.04974">
        <ele>559.1</ele>
        <time>2026-02-27T09:58:28</time>
      </trkpt>
      <trkpt lat="45.50916" lon="6.04971">
        <ele>559.1</ele>
        <time>2026-02-27T09:58:31</time>
      </trkpt>
      <trkpt lat="45.50919" lon="6.04964">
        <ele>560.1</ele>
        <time>2026-02-27T09:58:39</time>
      </trkpt>
      <trkpt lat="45.50922" lon="6.04951">
        <ele>560.9</ele>
        <time>2026-02-27T09:58:49</time>
      </trkpt>
      <trkpt lat="45.50924" lon="6.04946">
        <ele>560.9</ele>
        <time>2026-02-27T09:58:52</time>
      </trkpt>
      <trkpt lat="45.50927" lon="6.0494">
        <ele>561.3</ele>
        <time>2026-02-27T09:58:55</time>
      </trkpt>
      <trkpt lat="45.50927" lon="6.04939">
        <ele>561.3</ele>
        <time>2026-02-27T09:58:57</time>
      </trkpt>
      <trkpt lat="45.50938" lon="6.04924">
        <ele>562.8</ele>
        <time>2026-02-27T09:59:13</time>
      </trkpt>
      <trkpt lat="45.50938" lon="6.04923">
        <ele>562.8</ele>
        <time>2026-02-27T09:59:14</time>
      </trkpt>
      <trkpt lat="45.50936" lon="6.04923">
        <ele>565.9</ele>
        <time>2026-02-27T09:59:25</time>
      </trkpt>
      <trkpt lat="45.50939" lon="6.04918">
        <ele>565.9</ele>
        <time>2026-02-27T09:59:54</time>
      </trkpt>
      <trkpt lat="45.50941" lon="6.04917">
        <ele>565.9</ele>
        <time>2026-02-27T09:59:56</time>
      </trkpt>
      <trkpt lat="45.50944" lon="6.04916">
        <ele>565.9</ele>
        <time>2026-02-27T09:59:59</time>
      </trkpt>
      <trkpt lat="45.50946" lon="6.04915">
        <ele>565.9</ele>
        <time>2026-02-27T10:00:01</time>
      </trkpt>
      <trkpt lat="45.50948" lon="6.04915">
        <ele>566.2</ele>
        <time>2026-02-27T10:00:04</time>
      </trkpt>
      <trkpt lat="45.5095" lon="6.04915">
        <ele>566.2</ele>
        <time>2026-02-27T10:00:05</time>
      </trkpt>
      <trkpt lat="45.50956" lon="6.04915">
        <ele>566.2</ele>
        <time>2026-02-27T10:00:11</time>
      </trkpt>
      <trkpt lat="45.50956" lon="6.04914">
        <ele>565.7</ele>
        <time>2026-02-27T10:00:12</time>
      </trkpt>
      <trkpt lat="45.50956" lon="6.04915">
        <ele>565.7</ele>
        <time>2026-02-27T10:00:13</time>
      </trkpt>
      <trkpt lat="45.50956" lon="6.04915">
        <ele>565.7</ele>
        <time>2026-02-27T10:00:13</time>
      </trkpt>
      <trkpt lat="45.50957" lon="6.04913">
        <ele>565.7</ele>
        <time>2026-02-27T10:00:18</time>
      </trkpt>
      <trkpt lat="45.50957" lon="6.04913">
        <ele>565.7</ele>
        <time>2026-02-27T10:00:19</time>
      </trkpt>
      <trkpt lat="45.50957" lon="6.04913">
        <ele>565.3</ele>
        <time>2026-02-27T10:00:20</time>
      </trkpt>
      <trkpt lat="45.50957" lon="6.04913">
        <ele>565.3</ele>
        <time>2026-02-27T10:00:21</time>
      </trkpt>
      <trkpt lat="45.50957" lon="6.04913">
        <ele>565.3</ele>
        <time>2026-02-27T10:00:22</time>
      </trkpt>
      <trkpt lat="45.50957" lon="6.04913">
        <ele>565.3</ele>
        <time>2026-02-27T10:00:22</time>
      </trkpt>
      <trkpt lat="45.50957" lon="6.04913">
        <ele>565.3</ele>
        <time>2026-02-27T10:00:23</time>
      </trkpt>
      <trkpt lat="45.50957" lon="6.04915">
        <ele>565.3</ele>
        <time>2026-02-27T10:00:25</time>
      </trkpt>
      <trkpt lat="45.50957" lon="6.04915">
        <ele>565.3</ele>
        <time>2026-02-27T10:00:26</time>
      </trkpt>
      <trkpt lat="45.50957" lon="6.04917">
        <ele>567.8</ele>
        <time>2026-02-27T10:00:27</time>
      </trkpt>
      <trkpt lat="45.50956" lon="6.04926">
        <ele>567.8</ele>
        <time>2026-02-27T10:00:33</time>
      </trkpt>
      <trkpt lat="45.50951" lon="6.04931">
        <ele>567.8</ele>
        <time>2026-02-27T10:00:40</time>
      </trkpt>
      <trkpt lat="45.50948" lon="6.04932">
        <ele>567.8</ele>
        <time>2026-02-27T10:00:43</time>
      </trkpt>
      <trkpt lat="45.50947" lon="6.04933">
        <ele>569</ele>
        <time>2026-02-27T10:00:45</time>
      </trkpt>
      <trkpt lat="45.50945" lon="6.04936">
        <ele>569</ele>
        <time>2026-02-27T10:00:48</time>
      </trkpt>
      <trkpt lat="45.50945" lon="6.04939">
        <ele>569</ele>
        <time>2026-02-27T10:00:50</time>
      </trkpt>
      <trkpt lat="45.50945" lon="6.04941">
        <ele>571.2</ele>
        <time>2026-02-27T10:00:51</time>
      </trkpt>
      <trkpt lat="45.50945" lon="6.04949">
        <ele>571.2</ele>
        <time>2026-02-27T10:00:57</time>
      </trkpt>
      <trkpt lat="45.50946" lon="6.04954">
        <ele>573.5</ele>
        <time>2026-02-27T10:01:01</time>
      </trkpt>
      <trkpt lat="45.50947" lon="6.04963">
        <ele>573.5</ele>
        <time>2026-02-27T10:01:08</time>
      </trkpt>
      <trkpt lat="45.50947" lon="6.04969">
        <ele>576.0333</ele>
        <time>2026-02-27T10:01:14</time>
      </trkpt>
      <trkpt lat="45.50948" lon="6.04971">
        <ele>577.8333</ele>
        <time>2026-02-27T10:01:16</time>
      </trkpt>
      <trkpt lat="45.50949" lon="6.04973">
        <ele>577.8333</ele>
        <time>2026-02-27T10:01:18</time>
      </trkpt>
      <trkpt lat="45.50949" lon="6.04974">
        <ele>577.8333</ele>
        <time>2026-02-27T10:01:19</time>
      </trkpt>
      <trkpt lat="45.5095" lon="6.04975">
        <ele>577.8333</ele>
        <time>2026-02-27T10:01:21</time>
      </trkpt>
      <trkpt lat="45.5095" lon="6.04976">
        <ele>579.3</ele>
        <time>2026-02-27T10:01:24</time>
      </trkpt>
      <trkpt lat="45.50952" lon="6.04978">
        <ele>579.3</ele>
        <time>2026-02-27T10:01:26</time>
      </trkpt>
      <trkpt lat="45.50953" lon="6.0498">
        <ele>580</ele>
        <time>2026-02-27T10:01:30</time>
      </trkpt>
      <trkpt lat="45.50956" lon="6.04984">
        <ele>580.9</ele>
        <time>2026-02-27T10:01:36</time>
      </trkpt>
      <trkpt lat="45.50958" lon="6.04986">
        <ele>580.9</ele>
        <time>2026-02-27T10:01:38</time>
      </trkpt>
      <trkpt lat="45.50958" lon="6.04987">
        <ele>580.9</ele>
        <time>2026-02-27T10:01:39</time>
      </trkpt>
      <trkpt lat="45.50959" lon="6.04988">
        <ele>580.9</ele>
        <time>2026-02-27T10:01:40</time>
      </trkpt>
      <trkpt lat="45.50959" lon="6.04989">
        <ele>580.9</ele>
        <time>2026-02-27T10:01:41</time>
      </trkpt>
      <trkpt lat="45.5096" lon="6.0499">
        <ele>580.9</ele>
        <time>2026-02-27T10:01:42</time>
      </trkpt>
      <trkpt lat="45.50961" lon="6.04991">
        <ele>580.9</ele>
        <time>2026-02-27T10:01:43</time>
      </trkpt>
      <trkpt lat="45.50962" lon="6.04992">
        <ele>581.9</ele>
        <time>2026-02-27T10:01:44</time>
      </trkpt>
      <trkpt lat="45.50965" lon="6.04996">
        <ele>581.9</ele>
        <time>2026-02-27T10:01:49</time>
      </trkpt>
      <trkpt lat="45.5097" lon="6.05002">
        <ele>584.36664</ele>
        <time>2026-02-27T10:01:55</time>
      </trkpt>
      <trkpt lat="45.50971" lon="6.05003">
        <ele>584.36664</ele>
        <time>2026-02-27T10:01:58</time>
      </trkpt>
      <trkpt lat="45.50971" lon="6.05003">
        <ele>586.5</ele>
        <time>2026-02-27T10:01:59</time>
      </trkpt>
      <trkpt lat="45.50971" lon="6.05003">
        <ele>586.5</ele>
        <time>2026-02-27T10:02:00</time>
      </trkpt>
      <trkpt lat="45.50971" lon="6.05003">
        <ele>586.5</ele>
        <time>2026-02-27T10:02:00</time>
      </trkpt>
      <trkpt lat="45.50972" lon="6.05003">
        <ele>586.5</ele>
        <time>2026-02-27T10:02:01</time>
      </trkpt>
      <trkpt lat="45.50972" lon="6.05003">
        <ele>586.5</ele>
        <time>2026-02-27T10:02:02</time>
      </trkpt>
      <trkpt lat="45.50972" lon="6.05003">
        <ele>586.5</ele>
        <time>2026-02-27T10:02:02</time>
      </trkpt>
      <trkpt lat="45.50974" lon="6.05008">
        <ele>586.5</ele>
        <time>2026-02-27T10:02:04</time>
      </trkpt>
      <trkpt lat="45.50975" lon="6.0501">
        <ele>586.5</ele>
        <time>2026-02-27T10:02:06</time>
      </trkpt>
      <trkpt lat="45.5098" lon="6.05013">
        <ele>586.06665</ele>
        <time>2026-02-27T10:02:09</time>
      </trkpt>
      <trkpt lat="45.50983" lon="6.05013">
        <ele>586.06665</ele>
        <time>2026-02-27T10:02:11</time>
      </trkpt>
      <trkpt lat="45.50987" lon="6.05015">
        <ele>585.5333</ele>
        <time>2026-02-27T10:02:16</time>
      </trkpt>
      <trkpt lat="45.50991" lon="6.05021">
        <ele>585</ele>
        <time>2026-02-27T10:02:24</time>
      </trkpt>
      <trkpt lat="45.50994" lon="6.05023">
        <ele>585</ele>
        <time>2026-02-27T10:02:27</time>
      </trkpt>
      <trkpt lat="45.50997" lon="6.05027">
        <ele>584.9</ele>
        <time>2026-02-27T10:02:33</time>
      </trkpt>
      <trkpt lat="45.51001" lon="6.05029">
        <ele>584.6</ele>
        <time>2026-02-27T10:02:38</time>
      </trkpt>
      <trkpt lat="45.51002" lon="6.05031">
        <ele>584.6</ele>
        <time>2026-02-27T10:02:41</time>
      </trkpt>
      <trkpt lat="45.51006" lon="6.05034">
        <ele>583.4</ele>
        <time>2026-02-27T10:02:46</time>
      </trkpt>
      <trkpt lat="45.51007" lon="6.05036">
        <ele>583.4</ele>
        <time>2026-02-27T10:02:48</time>
      </trkpt>
      <trkpt lat="45.51007" lon="6.05038">
        <ele>583.4</ele>
        <time>2026-02-27T10:02:49</time>
      </trkpt>
      <trkpt lat="45.51009" lon="6.05044">
        <ele>582.4</ele>
        <time>2026-02-27T10:02:55</time>
      </trkpt>
      <trkpt lat="45.51011" lon="6.05047">
        <ele>582.4</ele>
        <time>2026-02-27T10:02:58</time>
      </trkpt>
      <trkpt lat="45.51011" lon="6.0505">
        <ele>582.4</ele>
        <time>2026-02-27T10:03:01</time>
      </trkpt>
      <trkpt lat="45.51011" lon="6.05052">
        <ele>583.93335</ele>
        <time>2026-02-27T10:03:02</time>
      </trkpt>
      <trkpt lat="45.51012" lon="6.05053">
        <ele>583.93335</ele>
        <time>2026-02-27T10:03:04</time>
      </trkpt>
      <trkpt lat="45.51017" lon="6.05063">
        <ele>585.4</ele>
        <time>2026-02-27T10:03:12</time>
      </trkpt>
      <trkpt lat="45.51017" lon="6.05064">
        <ele>585.4</ele>
        <time>2026-02-27T10:03:14</time>
      </trkpt>
      <trkpt lat="45.51017" lon="6.05066">
        <ele>585.4</ele>
        <time>2026-02-27T10:03:15</time>
      </trkpt>
      <trkpt lat="45.51017" lon="6.05068">
        <ele>585.4</ele>
        <time>2026-02-27T10:03:18</time>
      </trkpt>
      <trkpt lat="45.51017" lon="6.05069">
        <ele>588.13336</ele>
        <time>2026-02-27T10:03:21</time>
      </trkpt>
      <trkpt lat="45.51017" lon="6.05069">
        <ele>588.13336</ele>
        <time>2026-02-27T10:03:22</time>
      </trkpt>
      <trkpt lat="45.51017" lon="6.05069">
        <ele>588.13336</ele>
        <time>2026-02-27T10:03:23</time>
      </trkpt>
      <trkpt lat="45.51017" lon="6.05069">
        <ele>588.13336</ele>
        <time>2026-02-27T10:03:24</time>
      </trkpt>
      <trkpt lat="45.51016" lon="6.05071">
        <ele>592</ele>
        <time>2026-02-27T10:04:08</time>
      </trkpt>
      <trkpt lat="45.51016" lon="6.05071">
        <ele>592</ele>
        <time>2026-02-27T10:04:10</time>
      </trkpt>
      <trkpt lat="45.51017" lon="6.05078">
        <ele>592</ele>
        <time>2026-02-27T10:04:13</time>
      </trkpt>
      <trkpt lat="45.51018" lon="6.05083">
        <ele>595.43335</ele>
        <time>2026-02-27T10:04:16</time>
      </trkpt>
      <trkpt lat="45.51019" lon="6.05087">
        <ele>595.43335</ele>
        <time>2026-02-27T10:04:19</time>
      </trkpt>
      <trkpt lat="45.51022" lon="6.0509">
        <ele>595.43335</ele>
        <time>2026-02-27T10:04:22</time>
      </trkpt>
      <trkpt lat="45.51023" lon="6.05093">
        <ele>602.3</ele>
        <time>2026-02-27T10:04:25</time>
      </trkpt>
      <trkpt lat="45.51022" lon="6.05094">
        <ele>602.3</ele>
        <time>2026-02-27T10:04:26</time>
      </trkpt>
      <trkpt lat="45.5102" lon="6.05099">
        <ele>602.3</ele>
        <time>2026-02-27T10:04:29</time>
      </trkpt>
      <trkpt lat="45.51019" lon="6.051">
        <ele>602.3</ele>
        <time>2026-02-27T10:04:31</time>
      </trkpt>
      <trkpt lat="45.51019" lon="6.05102">
        <ele>602.2</ele>
        <time>2026-02-27T10:04:31</time>
      </trkpt>
      <trkpt lat="45.51019" lon="6.05103">
        <ele>602.2</ele>
        <time>2026-02-27T10:04:32</time>
      </trkpt>
      <trkpt lat="45.51019" lon="6.05105">
        <ele>602.2</ele>
        <time>2026-02-27T10:04:33</time>
      </trkpt>
      <trkpt lat="45.5102" lon="6.05107">
        <ele>602.2</ele>
        <time>2026-02-27T10:04:35</time>
      </trkpt>
      <trkpt lat="45.51022" lon="6.05111">
        <ele>603.5333</ele>
        <time>2026-02-27T10:04:38</time>
      </trkpt>
      <trkpt lat="45.51022" lon="6.05113">
        <ele>603.5333</ele>
        <time>2026-02-27T10:04:39</time>
      </trkpt>
      <trkpt lat="45.51022" lon="6.05115">
        <ele>603.5333</ele>
        <time>2026-02-27T10:04:40</time>
      </trkpt>
      <trkpt lat="45.51022" lon="6.05127">
        <ele>605.93335</ele>
        <time>2026-02-27T10:04:51</time>
      </trkpt>
      <trkpt lat="45.51023" lon="6.05128">
        <ele>606.6</ele>
        <time>2026-02-27T10:04:53</time>
      </trkpt>
      <trkpt lat="45.51024" lon="6.05136">
        <ele>607.1</ele>
        <time>2026-02-27T10:05:01</time>
      </trkpt>
      <trkpt lat="45.51029" lon="6.05154">
        <ele>610.1</ele>
        <time>2026-02-27T10:05:16</time>
      </trkpt>
      <trkpt lat="45.51041" lon="6.05177">
        <ele>612.2</ele>
        <time>2026-02-27T10:05:38</time>
      </trkpt>
      <trkpt lat="45.51042" lon="6.05178">
        <ele>612.2</ele>
        <time>2026-02-27T10:05:39</time>
      </trkpt>
      <trkpt lat="45.51044" lon="6.05181">
        <ele>612.2</ele>
        <time>2026-02-27T10:05:43</time>
      </trkpt>
      <trkpt lat="45.51045" lon="6.05182">
        <ele>612.2</ele>
        <time>2026-02-27T10:05:45</time>
      </trkpt>
      <trkpt lat="45.51045" lon="6.05183">
        <ele>613</ele>
        <time>2026-02-27T10:05:46</time>
      </trkpt>
      <trkpt lat="45.51045" lon="6.05184">
        <ele>613</ele>
        <time>2026-02-27T10:05:46</time>
      </trkpt>
      <trkpt lat="45.51046" lon="6.05186">
        <ele>613</ele>
        <time>2026-02-27T10:05:48</time>
      </trkpt>
      <trkpt lat="45.51046" lon="6.05189">
        <ele>613</ele>
        <time>2026-02-27T10:05:50</time>
      </trkpt>
      <trkpt lat="45.51046" lon="6.05193">
        <ele>613</ele>
        <time>2026-02-27T10:05:53</time>
      </trkpt>
      <trkpt lat="45.51046" lon="6.05196">
        <ele>613</ele>
        <time>2026-02-27T10:05:55</time>
      </trkpt>
      <trkpt lat="45.51049" lon="6.05203">
        <ele>616</ele>
        <time>2026-02-27T10:06:02</time>
      </trkpt>
      <trkpt lat="45.51049" lon="6.05205">
        <ele>616</ele>
        <time>2026-02-27T10:06:03</time>
      </trkpt>
      <trkpt lat="45.51051" lon="6.05216">
        <ele>619.9</ele>
        <time>2026-02-27T10:06:14</time>
      </trkpt>
      <trkpt lat="45.51052" lon="6.05217">
        <ele>619.9</ele>
        <time>2026-02-27T10:06:15</time>
      </trkpt>
      <trkpt lat="45.51052" lon="6.05218">
        <ele>619.9</ele>
        <time>2026-02-27T10:06:18</time>
      </trkpt>
      <trkpt lat="45.51054" lon="6.05219">
        <ele>621.9</ele>
        <time>2026-02-27T10:06:21</time>
      </trkpt>
      <trkpt lat="45.51058" lon="6.05223">
        <ele>623.3</ele>
        <time>2026-02-27T10:06:29</time>
      </trkpt>
      <trkpt lat="45.51064" lon="6.05228">
        <ele>624.6</ele>
        <time>2026-02-27T10:06:40</time>
      </trkpt>
      <trkpt lat="45.51072" lon="6.0523">
        <ele>627.5</ele>
        <time>2026-02-27T10:06:51</time>
      </trkpt>
      <trkpt lat="45.51073" lon="6.0523">
        <ele>627.5</ele>
        <time>2026-02-27T10:06:52</time>
      </trkpt>
      <trkpt lat="45.51077" lon="6.05232">
        <ele>629.2</ele>
        <time>2026-02-27T10:06:59</time>
      </trkpt>
      <trkpt lat="45.51081" lon="6.05236">
        <ele>632.6</ele>
        <time>2026-02-27T10:07:06</time>
      </trkpt>
      <trkpt lat="45.51085" lon="6.05237">
        <ele>634.8</ele>
        <time>2026-02-27T10:07:14</time>
      </trkpt>
      <trkpt lat="45.51085" lon="6.05238">
        <ele>634.8</ele>
        <time>2026-02-27T10:07:15</time>
      </trkpt>
      <trkpt lat="45.51085" lon="6.05238">
        <ele>634.8</ele>
        <time>2026-02-27T10:07:16</time>
      </trkpt>
      <trkpt lat="45.51085" lon="6.0524">
        <ele>634.8</ele>
        <time>2026-02-27T10:07:18</time>
      </trkpt>
      <trkpt lat="45.51086" lon="6.05243">
        <ele>634.8</ele>
        <time>2026-02-27T10:07:20</time>
      </trkpt>
      <trkpt lat="45.51087" lon="6.05245">
        <ele>638.3</ele>
        <time>2026-02-27T10:07:22</time>
      </trkpt>
      <trkpt lat="45.51089" lon="6.05247">
        <ele>638.3</ele>
        <time>2026-02-27T10:07:25</time>
      </trkpt>
      <trkpt lat="45.5109" lon="6.05247">
        <ele>638.3</ele>
        <time>2026-02-27T10:07:26</time>
      </trkpt>
      <trkpt lat="45.51091" lon="6.05247">
        <ele>638.3</ele>
        <time>2026-02-27T10:07:27</time>
      </trkpt>
      <trkpt lat="45.51096" lon="6.05251">
        <ele>638.5</ele>
        <time>2026-02-27T10:07:37</time>
      </trkpt>
      <trkpt lat="45.51097" lon="6.05252">
        <ele>638.5</ele>
        <time>2026-02-27T10:07:38</time>
      </trkpt>
      <trkpt lat="45.51098" lon="6.05253">
        <ele>638.5</ele>
        <time>2026-02-27T10:07:40</time>
      </trkpt>
      <trkpt lat="45.51098" lon="6.05255">
        <ele>638.5</ele>
        <time>2026-02-27T10:07:41</time>
      </trkpt>
      <trkpt lat="45.51099" lon="6.05259">
        <ele>638.4</ele>
        <time>2026-02-27T10:07:45</time>
      </trkpt>
      <trkpt lat="45.51101" lon="6.05265">
        <ele>640.6</ele>
        <time>2026-02-27T10:07:52</time>
      </trkpt>
      <trkpt lat="45.51105" lon="6.05271">
        <ele>643.3</ele>
        <time>2026-02-27T10:08:03</time>
      </trkpt>
      <trkpt lat="45.51109" lon="6.05276">
        <ele>645.8</ele>
        <time>2026-02-27T10:08:10</time>
      </trkpt>
      <trkpt lat="45.5111" lon="6.05278">
        <ele>645.8</ele>
        <time>2026-02-27T10:08:14</time>
      </trkpt>
      <trkpt lat="45.51112" lon="6.05278">
        <ele>646</ele>
        <time>2026-02-27T10:08:16</time>
      </trkpt>
      <trkpt lat="45.51114" lon="6.0528">
        <ele>646</ele>
        <time>2026-02-27T10:08:21</time>
      </trkpt>
      <trkpt lat="45.51117" lon="6.05283">
        <ele>646.2</ele>
        <time>2026-02-27T10:08:26</time>
      </trkpt>
      <trkpt lat="45.51119" lon="6.05285">
        <ele>646.2</ele>
        <time>2026-02-27T10:08:29</time>
      </trkpt>
      <trkpt lat="45.51121" lon="6.05287">
        <ele>646.36664</ele>
        <time>2026-02-27T10:08:32</time>
      </trkpt>
      <trkpt lat="45.51122" lon="6.05287">
        <ele>646.36664</ele>
        <time>2026-02-27T10:08:33</time>
      </trkpt>
      <trkpt lat="45.51123" lon="6.05288">
        <ele>646.36664</ele>
        <time>2026-02-27T10:08:35</time>
      </trkpt>
      <trkpt lat="45.51126" lon="6.0529">
        <ele>646.7</ele>
        <time>2026-02-27T10:08:40</time>
      </trkpt>
      <trkpt lat="45.51127" lon="6.0529">
        <ele>646.7</ele>
        <time>2026-02-27T10:08:41</time>
      </trkpt>
      <trkpt lat="45.51129" lon="6.05292">
        <ele>648.2</ele>
        <time>2026-02-27T10:08:46</time>
      </trkpt>
      <trkpt lat="45.5113" lon="6.05292">
        <ele>648.2</ele>
        <time>2026-02-27T10:08:48</time>
      </trkpt>
      <trkpt lat="45.51132" lon="6.05293">
        <ele>648.2</ele>
        <time>2026-02-27T10:08:51</time>
      </trkpt>
      <trkpt lat="45.51133" lon="6.05293">
        <ele>648.2</ele>
        <time>2026-02-27T10:08:52</time>
      </trkpt>
      <trkpt lat="45.51133" lon="6.05293">
        <ele>648.7</ele>
        <time>2026-02-27T10:08:53</time>
      </trkpt>
      <trkpt lat="45.51139" lon="6.05295">
        <ele>652.3</ele>
        <time>2026-02-27T10:09:01</time>
      </trkpt>
      <trkpt lat="45.5114" lon="6.05297">
        <ele>652.3</ele>
        <time>2026-02-27T10:09:04</time>
      </trkpt>
      <trkpt lat="45.51141" lon="6.05298">
        <ele>652.3</ele>
        <time>2026-02-27T10:09:06</time>
      </trkpt>
      <trkpt lat="45.51141" lon="6.05298">
        <ele>652.3</ele>
        <time>2026-02-27T10:09:06</time>
      </trkpt>
      <trkpt lat="45.51141" lon="6.05299">
        <ele>652.3</ele>
        <time>2026-02-27T10:09:07</time>
      </trkpt>
      <trkpt lat="45.51141" lon="6.05299">
        <ele>652.3</ele>
        <time>2026-02-27T10:09:08</time>
      </trkpt>
      <trkpt lat="45.51141" lon="6.05299">
        <ele>653.3</ele>
        <time>2026-02-27T10:09:09</time>
      </trkpt>
      <trkpt lat="45.51141" lon="6.05299">
        <ele>653.3</ele>
        <time>2026-02-27T10:09:11</time>
      </trkpt>
      <trkpt lat="45.5114" lon="6.05299">
        <ele>656.9</ele>
        <time>2026-02-27T10:09:34</time>
      </trkpt>
      <trkpt lat="45.5114" lon="6.05299">
        <ele>656.9</ele>
        <time>2026-02-27T10:11:04</time>
      </trkpt>
      <trkpt lat="45.51141" lon="6.05301">
        <ele>656.9</ele>
        <time>2026-02-27T10:11:48</time>
      </trkpt>
      <trkpt lat="45.51141" lon="6.05301">
        <ele>656.9</ele>
        <time>2026-02-27T10:11:49</time>
      </trkpt>
      <trkpt lat="45.51142" lon="6.05301">
        <ele>656.9</ele>
        <time>2026-02-27T10:11:52</time>
      </trkpt>
      <trkpt lat="45.51142" lon="6.05301">
        <ele>656.9</ele>
        <time>2026-02-27T10:11:52</time>
      </trkpt>
      <trkpt lat="45.51143" lon="6.05302">
        <ele>656.9</ele>
        <time>2026-02-27T10:11:53</time>
      </trkpt>
      <trkpt lat="45.51143" lon="6.05302">
        <ele>656.9</ele>
        <time>2026-02-27T10:11:55</time>
      </trkpt>
      <trkpt lat="45.51145" lon="6.05302">
        <ele>656.9</ele>
        <time>2026-02-27T10:11:57</time>
      </trkpt>
      <trkpt lat="45.51146" lon="6.05302">
        <ele>666.26666</ele>
        <time>2026-02-27T10:11:57</time>
      </trkpt>
      <trkpt lat="45.5115" lon="6.05302">
        <ele>666.26666</ele>
        <time>2026-02-27T10:12:01</time>
      </trkpt>
      <trkpt lat="45.51153" lon="6.05301">
        <ele>665.5</ele>
        <time>2026-02-27T10:12:04</time>
      </trkpt>
      <trkpt lat="45.51155" lon="6.053">
        <ele>665.5</ele>
        <time>2026-02-27T10:12:08</time>
      </trkpt>
      <trkpt lat="45.51156" lon="6.053">
        <ele>665.5</ele>
        <time>2026-02-27T10:12:09</time>
      </trkpt>
      <trkpt lat="45.51158" lon="6.05299">
        <ele>665.6</ele>
        <time>2026-02-27T10:12:12</time>
      </trkpt>
      <trkpt lat="45.51159" lon="6.05299">
        <ele>665.6</ele>
        <time>2026-02-27T10:12:13</time>
      </trkpt>
      <trkpt lat="45.51159" lon="6.053">
        <ele>665.6</ele>
        <time>2026-02-27T10:12:14</time>
      </trkpt>
      <trkpt lat="45.51159" lon="6.053">
        <ele>665.6</ele>
        <time>2026-02-27T10:12:14</time>
      </trkpt>
      <trkpt lat="45.51159" lon="6.053">
        <ele>665.6</ele>
        <time>2026-02-27T10:12:16</time>
      </trkpt>
      <trkpt lat="45.51161" lon="6.053">
        <ele>665.6</ele>
        <time>2026-02-27T10:12:18</time>
      </trkpt>
      <trkpt lat="45.51162" lon="6.053">
        <ele>666.9</ele>
        <time>2026-02-27T10:12:20</time>
      </trkpt>
      <trkpt lat="45.51163" lon="6.053">
        <ele>666.9</ele>
        <time>2026-02-27T10:12:22</time>
      </trkpt>
      <trkpt lat="45.51163" lon="6.053">
        <ele>666.9</ele>
        <time>2026-02-27T10:12:22</time>
      </trkpt>
      <trkpt lat="45.51164" lon="6.053">
        <ele>666.9</ele>
        <time>2026-02-27T10:12:23</time>
      </trkpt>
      <trkpt lat="45.51165" lon="6.053">
        <ele>666.9</ele>
        <time>2026-02-27T10:12:24</time>
      </trkpt>
      <trkpt lat="45.51165" lon="6.053">
        <ele>666.9</ele>
        <time>2026-02-27T10:12:24</time>
      </trkpt>
      <trkpt lat="45.51166" lon="6.05301">
        <ele>666.9</ele>
        <time>2026-02-27T10:12:26</time>
      </trkpt>
      <trkpt lat="45.51167" lon="6.05303">
        <ele>667.4</ele>
        <time>2026-02-27T10:12:28</time>
      </trkpt>
      <trkpt lat="45.51168" lon="6.05305">
        <ele>667.4</ele>
        <time>2026-02-27T10:12:31</time>
      </trkpt>
      <trkpt lat="45.51168" lon="6.05306">
        <ele>667.4</ele>
        <time>2026-02-27T10:12:31</time>
      </trkpt>
      <trkpt lat="45.51174" lon="6.05315">
        <ele>668.6</ele>
        <time>2026-02-27T10:12:43</time>
      </trkpt>
      <trkpt lat="45.51176" lon="6.05316">
        <ele>668.6</ele>
        <time>2026-02-27T10:12:46</time>
      </trkpt>
      <trkpt lat="45.51182" lon="6.05322">
        <ele>669.8</ele>
        <time>2026-02-27T10:12:57</time>
      </trkpt>
      <trkpt lat="45.51182" lon="6.05322">
        <ele>669.8</ele>
        <time>2026-02-27T10:12:58</time>
      </trkpt>
      <trkpt lat="45.51183" lon="6.05324">
        <ele>669.8</ele>
        <time>2026-02-27T10:13:00</time>
      </trkpt>
      <trkpt lat="45.51184" lon="6.05327">
        <ele>670.6</ele>
        <time>2026-02-27T10:13:04</time>
      </trkpt>
      <trkpt lat="45.51185" lon="6.05327">
        <ele>670.6</ele>
        <time>2026-02-27T10:13:05</time>
      </trkpt>
      <trkpt lat="45.51186" lon="6.05327">
        <ele>670.6</ele>
        <time>2026-02-27T10:13:08</time>
      </trkpt>
      <trkpt lat="45.51192" lon="6.05334">
        <ele>670</ele>
        <time>2026-02-27T10:13:21</time>
      </trkpt>
      <trkpt lat="45.51197" lon="6.05339">
        <ele>670.43335</ele>
        <time>2026-02-27T10:13:29</time>
      </trkpt>
      <trkpt lat="45.51199" lon="6.05342">
        <ele>670.43335</ele>
        <time>2026-02-27T10:13:32</time>
      </trkpt>
      <trkpt lat="45.51201" lon="6.05343">
        <ele>671.8</ele>
        <time>2026-02-27T10:13:35</time>
      </trkpt>
      <trkpt lat="45.51202" lon="6.05344">
        <ele>671.8</ele>
        <time>2026-02-27T10:13:38</time>
      </trkpt>
      <trkpt lat="45.51208" lon="6.05344">
        <ele>673.1</ele>
        <time>2026-02-27T10:13:45</time>
      </trkpt>
      <trkpt lat="45.5122" lon="6.05347">
        <ele>676.6</ele>
        <time>2026-02-27T10:14:07</time>
      </trkpt>
      <trkpt lat="45.5123" lon="6.05352">
        <ele>682.2</ele>
        <time>2026-02-27T10:14:23</time>
      </trkpt>
      <trkpt lat="45.51234" lon="6.05352">
        <ele>683.4</ele>
        <time>2026-02-27T10:14:30</time>
      </trkpt>
      <trkpt lat="45.51235" lon="6.05353">
        <ele>683.4</ele>
        <time>2026-02-27T10:14:33</time>
      </trkpt>
      <trkpt lat="45.51238" lon="6.05354">
        <ele>683.4</ele>
        <time>2026-02-27T10:14:37</time>
      </trkpt>
      <trkpt lat="45.5124" lon="6.05355">
        <ele>685.1</ele>
        <time>2026-02-27T10:14:40</time>
      </trkpt>
      <trkpt lat="45.51242" lon="6.05355">
        <ele>685.1</ele>
        <time>2026-02-27T10:14:42</time>
      </trkpt>
      <trkpt lat="45.51243" lon="6.05354">
        <ele>685.1</ele>
        <time>2026-02-27T10:14:44</time>
      </trkpt>
      <trkpt lat="45.51245" lon="6.05353">
        <ele>685.1</ele>
        <time>2026-02-27T10:14:45</time>
      </trkpt>
      <trkpt lat="45.51248" lon="6.0535">
        <ele>686.8</ele>
        <time>2026-02-27T10:14:48</time>
      </trkpt>
      <trkpt lat="45.51249" lon="6.0535">
        <ele>686.8</ele>
        <time>2026-02-27T10:14:49</time>
      </trkpt>
      <trkpt lat="45.5125" lon="6.0535">
        <ele>686.8</ele>
        <time>2026-02-27T10:14:51</time>
      </trkpt>
      <trkpt lat="45.51251" lon="6.05351">
        <ele>686.8</ele>
        <time>2026-02-27T10:14:51</time>
      </trkpt>
      <trkpt lat="45.51254" lon="6.05359">
        <ele>688.8</ele>
        <time>2026-02-27T10:15:02</time>
      </trkpt>
      <trkpt lat="45.51258" lon="6.05361">
        <ele>688.8</ele>
        <time>2026-02-27T10:15:08</time>
      </trkpt>
      <trkpt lat="45.5126" lon="6.05361">
        <ele>691</ele>
        <time>2026-02-27T10:15:10</time>
      </trkpt>
      <trkpt lat="45.5126" lon="6.0536">
        <ele>691</ele>
        <time>2026-02-27T10:15:11</time>
      </trkpt>
      <trkpt lat="45.51262" lon="6.0536">
        <ele>691</ele>
        <time>2026-02-27T10:15:14</time>
      </trkpt>
      <trkpt lat="45.51263" lon="6.0536">
        <ele>691</ele>
        <time>2026-02-27T10:15:16</time>
      </trkpt>
      <trkpt lat="45.51264" lon="6.0536">
        <ele>692.8</ele>
        <time>2026-02-27T10:15:20</time>
      </trkpt>
      <trkpt lat="45.51266" lon="6.05358">
        <ele>692.8</ele>
        <time>2026-02-27T10:15:23</time>
      </trkpt>
      <trkpt lat="45.51268" lon="6.05356">
        <ele>692.8</ele>
        <time>2026-02-27T10:15:25</time>
      </trkpt>
      <trkpt lat="45.51269" lon="6.05356">
        <ele>692.8</ele>
        <time>2026-02-27T10:15:25</time>
      </trkpt>
      <trkpt lat="45.5127" lon="6.05356">
        <ele>694.4</ele>
        <time>2026-02-27T10:15:26</time>
      </trkpt>
      <trkpt lat="45.51271" lon="6.05356">
        <ele>694.4</ele>
        <time>2026-02-27T10:15:27</time>
      </trkpt>
      <trkpt lat="45.51271" lon="6.05356">
        <ele>694.4</ele>
        <time>2026-02-27T10:15:28</time>
      </trkpt>
      <trkpt lat="45.51273" lon="6.05357">
        <ele>694.4</ele>
        <time>2026-02-27T10:15:30</time>
      </trkpt>
      <trkpt lat="45.51274" lon="6.0536">
        <ele>694.4</ele>
        <time>2026-02-27T10:15:32</time>
      </trkpt>
      <trkpt lat="45.51275" lon="6.05362">
        <ele>696.8</ele>
        <time>2026-02-27T10:15:36</time>
      </trkpt>
      <trkpt lat="45.51275" lon="6.05365">
        <ele>696.8</ele>
        <time>2026-02-27T10:15:39</time>
      </trkpt>
      <trkpt lat="45.51283" lon="6.05374">
        <ele>703.2</ele>
        <time>2026-02-27T10:15:54</time>
      </trkpt>
      <trkpt lat="45.51285" lon="6.05374">
        <ele>706</ele>
        <time>2026-02-27T10:15:58</time>
      </trkpt>
      <trkpt lat="45.5129" lon="6.05374">
        <ele>706</ele>
        <time>2026-02-27T10:16:03</time>
      </trkpt>
      <trkpt lat="45.51294" lon="6.05378">
        <ele>707</ele>
        <time>2026-02-27T10:16:12</time>
      </trkpt>
      <trkpt lat="45.51296" lon="6.05382">
        <ele>707.13336</ele>
        <time>2026-02-27T10:16:17</time>
      </trkpt>
      <trkpt lat="45.51298" lon="6.05382">
        <ele>707.13336</ele>
        <time>2026-02-27T10:16:20</time>
      </trkpt>
      <trkpt lat="45.51304" lon="6.05381">
        <ele>708.1</ele>
        <time>2026-02-27T10:16:27</time>
      </trkpt>
      <trkpt lat="45.51304" lon="6.05381">
        <ele>709.1</ele>
        <time>2026-02-27T10:16:29</time>
      </trkpt>
      <trkpt lat="45.51309" lon="6.05381">
        <ele>711</ele>
        <time>2026-02-27T10:16:37</time>
      </trkpt>
      <trkpt lat="45.51311" lon="6.05379">
        <ele>711</ele>
        <time>2026-02-27T10:16:40</time>
      </trkpt>
      <trkpt lat="45.51313" lon="6.05379">
        <ele>712.1</ele>
        <time>2026-02-27T10:16:46</time>
      </trkpt>
      <trkpt lat="45.51314" lon="6.05379">
        <ele>712.1</ele>
        <time>2026-02-27T10:16:47</time>
      </trkpt>
      <trkpt lat="45.51314" lon="6.05379">
        <ele>712.1</ele>
        <time>2026-02-27T10:16:48</time>
      </trkpt>
      <trkpt lat="45.51314" lon="6.05379">
        <ele>712.1</ele>
        <time>2026-02-27T10:16:49</time>
      </trkpt>
      <trkpt lat="45.51314" lon="6.05379">
        <ele>712.1</ele>
        <time>2026-02-27T10:16:50</time>
      </trkpt>
      <trkpt lat="45.51314" lon="6.05378">
        <ele>712.1</ele>
        <time>2026-02-27T10:16:50</time>
      </trkpt>
      <trkpt lat="45.51315" lon="6.05378">
        <ele>712.1</ele>
        <time>2026-02-27T10:16:51</time>
      </trkpt>
      <trkpt lat="45.51314" lon="6.05374">
        <ele>712.3</ele>
        <time>2026-02-27T10:16:59</time>
      </trkpt>
      <trkpt lat="45.51314" lon="6.05374">
        <ele>712.3</ele>
        <time>2026-02-27T10:17:00</time>
      </trkpt>
      <trkpt lat="45.51314" lon="6.05372">
        <ele>714.3</ele>
        <time>2026-02-27T10:17:02</time>
      </trkpt>
      <trkpt lat="45.51314" lon="6.0537">
        <ele>714.3</ele>
        <time>2026-02-27T10:17:03</time>
      </trkpt>
      <trkpt lat="45.51313" lon="6.05366">
        <ele>714.3</ele>
        <time>2026-02-27T10:17:06</time>
      </trkpt>
      <trkpt lat="45.51312" lon="6.05361">
        <ele>716.2</ele>
        <time>2026-02-27T10:17:11</time>
      </trkpt>
      <trkpt lat="45.51311" lon="6.0536">
        <ele>716.2</ele>
        <time>2026-02-27T10:17:13</time>
      </trkpt>
      <trkpt lat="45.51311" lon="6.0536">
        <ele>716.2</ele>
        <time>2026-02-27T10:17:13</time>
      </trkpt>
      <trkpt lat="45.5131" lon="6.05358">
        <ele>718.1</ele>
        <time>2026-02-27T10:17:17</time>
      </trkpt>
      <trkpt lat="45.51308" lon="6.05355">
        <ele>718.1</ele>
        <time>2026-02-27T10:17:21</time>
      </trkpt>
      <trkpt lat="45.51307" lon="6.05354">
        <ele>718.1</ele>
        <time>2026-02-27T10:17:21</time>
      </trkpt>
      <trkpt lat="45.51306" lon="6.05353">
        <ele>718.1</ele>
        <time>2026-02-27T10:17:23</time>
      </trkpt>
      <trkpt lat="45.51305" lon="6.05352">
        <ele>719.1</ele>
        <time>2026-02-27T10:17:25</time>
      </trkpt>
      <trkpt lat="45.51304" lon="6.05351">
        <ele>719.1</ele>
        <time>2026-02-27T10:17:27</time>
      </trkpt>
      <trkpt lat="45.51304" lon="6.05351">
        <ele>719.1</ele>
        <time>2026-02-27T10:17:28</time>
      </trkpt>
      <trkpt lat="45.51303" lon="6.0535">
        <ele>719.1</ele>
        <time>2026-02-27T10:17:30</time>
      </trkpt>
      <trkpt lat="45.51302" lon="6.0535">
        <ele>719.1</ele>
        <time>2026-02-27T10:17:30</time>
      </trkpt>
      <trkpt lat="45.513" lon="6.05347">
        <ele>721</ele>
        <time>2026-02-27T10:17:34</time>
      </trkpt>
      <trkpt lat="45.51299" lon="6.05346">
        <ele>721</ele>
        <time>2026-02-27T10:17:36</time>
      </trkpt>
      <trkpt lat="45.51299" lon="6.05345">
        <ele>721</ele>
        <time>2026-02-27T10:17:36</time>
      </trkpt>
      <trkpt lat="45.51298" lon="6.05342">
        <ele>721</ele>
        <time>2026-02-27T10:17:39</time>
      </trkpt>
      <trkpt lat="45.51297" lon="6.0534">
        <ele>722.7</ele>
        <time>2026-02-27T10:17:41</time>
      </trkpt>
      <trkpt lat="45.51297" lon="6.0534">
        <ele>722.7</ele>
        <time>2026-02-27T10:17:42</time>
      </trkpt>
      <trkpt lat="45.51297" lon="6.05339">
        <ele>722.7</ele>
        <time>2026-02-27T10:17:43</time>
      </trkpt>
      <trkpt lat="45.51297" lon="6.05339">
        <ele>722.7</ele>
        <time>2026-02-27T10:17:44</time>
      </trkpt>
      <trkpt lat="45.51297" lon="6.05339">
        <ele>722.7</ele>
        <time>2026-02-27T10:17:45</time>
      </trkpt>
      <trkpt lat="45.51297" lon="6.05337">
        <ele>722.7</ele>
        <time>2026-02-27T10:17:47</time>
      </trkpt>
      <trkpt lat="45.51297" lon="6.05336">
        <ele>725.2</ele>
        <time>2026-02-27T10:17:48</time>
      </trkpt>
      <trkpt lat="45.51297" lon="6.05336">
        <ele>725.2</ele>
        <time>2026-02-27T10:17:49</time>
      </trkpt>
      <trkpt lat="45.51296" lon="6.05335">
        <ele>725.2</ele>
        <time>2026-02-27T10:17:50</time>
      </trkpt>
      <trkpt lat="45.51296" lon="6.05334">
        <ele>725.2</ele>
        <time>2026-02-27T10:17:51</time>
      </trkpt>
      <trkpt lat="45.51295" lon="6.05332">
        <ele>726.8</ele>
        <time>2026-02-27T10:17:56</time>
      </trkpt>
      <trkpt lat="45.51295" lon="6.05332">
        <ele>726.8</ele>
        <time>2026-02-27T10:17:57</time>
      </trkpt>
      <trkpt lat="45.51295" lon="6.05331">
        <ele>726.8</ele>
        <time>2026-02-27T10:17:58</time>
      </trkpt>
      <trkpt lat="45.51295" lon="6.05331">
        <ele>726.8</ele>
        <time>2026-02-27T10:17:59</time>
      </trkpt>
      <trkpt lat="45.51294" lon="6.05329">
        <ele>726.8</ele>
        <time>2026-02-27T10:18:00</time>
      </trkpt>
      <trkpt lat="45.51294" lon="6.05326">
        <ele>726.8</ele>
        <time>2026-02-27T10:18:02</time>
      </trkpt>
      <trkpt lat="45.51293" lon="6.05324">
        <ele>726.8</ele>
        <time>2026-02-27T10:18:04</time>
      </trkpt>
      <trkpt lat="45.51293" lon="6.05323">
        <ele>727.6667</ele>
        <time>2026-02-27T10:18:05</time>
      </trkpt>
      <trkpt lat="45.51292" lon="6.0532">
        <ele>727.6667</ele>
        <time>2026-02-27T10:18:07</time>
      </trkpt>
      <trkpt lat="45.51292" lon="6.0532">
        <ele>727.6667</ele>
        <time>2026-02-27T10:18:08</time>
      </trkpt>
      <trkpt lat="45.51291" lon="6.05319">
        <ele>727.6667</ele>
        <time>2026-02-27T10:18:09</time>
      </trkpt>
      <trkpt lat="45.5129" lon="6.05316">
        <ele>728.1</ele>
        <time>2026-02-27T10:18:13</time>
      </trkpt>
      <trkpt lat="45.51288" lon="6.05312">
        <ele>728.1</ele>
        <time>2026-02-27T10:18:18</time>
      </trkpt>
      <trkpt lat="45.51287" lon="6.05311">
        <ele>728.1</ele>
        <time>2026-02-27T10:18:18</time>
      </trkpt>
      <trkpt lat="45.51287" lon="6.05311">
        <ele>728.1</ele>
        <time>2026-02-27T10:18:19</time>
      </trkpt>
      <trkpt lat="45.51286" lon="6.05311">
        <ele>728.5</ele>
        <time>2026-02-27T10:18:20</time>
      </trkpt>
      <trkpt lat="45.51285" lon="6.05311">
        <ele>728.5</ele>
        <time>2026-02-27T10:18:22</time>
      </trkpt>
      <trkpt lat="45.51285" lon="6.05311">
        <ele>728.5</ele>
        <time>2026-02-27T10:18:22</time>
      </trkpt>
      <trkpt lat="45.51284" lon="6.05311">
        <ele>728.5</ele>
        <time>2026-02-27T10:18:23</time>
      </trkpt>
      <trkpt lat="45.51283" lon="6.05312">
        <ele>728.5</ele>
        <time>2026-02-27T10:18:25</time>
      </trkpt>
      <trkpt lat="45.51282" lon="6.05312">
        <ele>728.5</ele>
        <time>2026-02-27T10:18:26</time>
      </trkpt>
      <trkpt lat="45.5128" lon="6.05313">
        <ele>730.6</ele>
        <time>2026-02-27T10:18:30</time>
      </trkpt>
      <trkpt lat="45.51279" lon="6.05314">
        <ele>730.6</ele>
        <time>2026-02-27T10:18:30</time>
      </trkpt>
      <trkpt lat="45.51278" lon="6.05314">
        <ele>730.6</ele>
        <time>2026-02-27T10:18:31</time>
      </trkpt>
      <trkpt lat="45.51277" lon="6.05314">
        <ele>730.6</ele>
        <time>2026-02-27T10:18:32</time>
      </trkpt>
      <trkpt lat="45.51275" lon="6.05314">
        <ele>730.6</ele>
        <time>2026-02-27T10:18:34</time>
      </trkpt>
      <trkpt lat="45.51274" lon="6.05313">
        <ele>734.56665</ele>
        <time>2026-02-27T10:18:35</time>
      </trkpt>
      <trkpt lat="45.51273" lon="6.05311">
        <ele>734.56665</ele>
        <time>2026-02-27T10:18:39</time>
      </trkpt>
      <trkpt lat="45.51272" lon="6.05307">
        <ele>734.56665</ele>
        <time>2026-02-27T10:18:43</time>
      </trkpt>
      <trkpt lat="45.51271" lon="6.05305">
        <ele>736.1</ele>
        <time>2026-02-27T10:18:44</time>
      </trkpt>
      <trkpt lat="45.51268" lon="6.05302">
        <ele>736.1</ele>
        <time>2026-02-27T10:18:49</time>
      </trkpt>
      <trkpt lat="45.51266" lon="6.053">
        <ele>738.26666</ele>
        <time>2026-02-27T10:18:54</time>
      </trkpt>
      <trkpt lat="45.51265" lon="6.05299">
        <ele>738.26666</ele>
        <time>2026-02-27T10:18:55</time>
      </trkpt>
      <trkpt lat="45.51265" lon="6.05299">
        <ele>738.26666</ele>
        <time>2026-02-27T10:18:55</time>
      </trkpt>
      <trkpt lat="45.51264" lon="6.05298">
        <ele>738.26666</ele>
        <time>2026-02-27T10:18:57</time>
      </trkpt>
      <trkpt lat="45.51263" lon="6.05294">
        <ele>739.43335</ele>
        <time>2026-02-27T10:19:03</time>
      </trkpt>
      <trkpt lat="45.51262" lon="6.05292">
        <ele>739.43335</ele>
        <time>2026-02-27T10:19:04</time>
      </trkpt>
      <trkpt lat="45.51262" lon="6.05291">
        <ele>740.5</ele>
        <time>2026-02-27T10:19:08</time>
      </trkpt>
      <trkpt lat="45.51261" lon="6.05287">
        <ele>740.5</ele>
        <time>2026-02-27T10:19:12</time>
      </trkpt>
      <trkpt lat="45.51258" lon="6.05281">
        <ele>740.7</ele>
        <time>2026-02-27T10:19:20</time>
      </trkpt>
      <trkpt lat="45.51257" lon="6.05279">
        <ele>740.7</ele>
        <time>2026-02-27T10:19:22</time>
      </trkpt>
      <trkpt lat="45.51256" lon="6.05278">
        <ele>740.7</ele>
        <time>2026-02-27T10:19:23</time>
      </trkpt>
      <trkpt lat="45.51256" lon="6.05277">
        <ele>742.4</ele>
        <time>2026-02-27T10:19:24</time>
      </trkpt>
      <trkpt lat="45.51256" lon="6.05276">
        <ele>742.4</ele>
        <time>2026-02-27T10:19:25</time>
      </trkpt>
      <trkpt lat="45.51255" lon="6.05275">
        <ele>742.4</ele>
        <time>2026-02-27T10:19:26</time>
      </trkpt>
      <trkpt lat="45.51255" lon="6.05274">
        <ele>742.4</ele>
        <time>2026-02-27T10:19:27</time>
      </trkpt>
      <trkpt lat="45.51254" lon="6.05273">
        <ele>742.4</ele>
        <time>2026-02-27T10:19:28</time>
      </trkpt>
      <trkpt lat="45.51253" lon="6.05271">
        <ele>742.4</ele>
        <time>2026-02-27T10:19:31</time>
      </trkpt>
      <trkpt lat="45.51252" lon="6.05271">
        <ele>743</ele>
        <time>2026-02-27T10:19:32</time>
      </trkpt>
      <trkpt lat="45.51252" lon="6.0527">
        <ele>743</ele>
        <time>2026-02-27T10:19:32</time>
      </trkpt>
      <trkpt lat="45.51251" lon="6.05267">
        <ele>743</ele>
        <time>2026-02-27T10:19:35</time>
      </trkpt>
      <trkpt lat="45.51251" lon="6.05254">
        <ele>738.3</ele>
        <time>2026-02-27T10:19:48</time>
      </trkpt>
      <trkpt lat="45.51251" lon="6.05252">
        <ele>738.3</ele>
        <time>2026-02-27T10:19:50</time>
      </trkpt>
      <trkpt lat="45.51252" lon="6.05246">
        <ele>738.3</ele>
        <time>2026-02-27T10:19:53</time>
      </trkpt>
      <trkpt lat="45.51252" lon="6.05243">
        <ele>736.8</ele>
        <time>2026-02-27T10:19:56</time>
      </trkpt>
      <trkpt lat="45.51252" lon="6.05243">
        <ele>736.8</ele>
        <time>2026-02-27T10:19:59</time>
      </trkpt>
      <trkpt lat="45.51252" lon="6.05244">
        <ele>736.8</ele>
        <time>2026-02-27T10:20:00</time>
      </trkpt>
      <trkpt lat="45.51251" lon="6.05244">
        <ele>736.8</ele>
        <time>2026-02-27T10:20:01</time>
      </trkpt>
      <trkpt lat="45.51251" lon="6.05244">
        <ele>738.5</ele>
        <time>2026-02-27T10:20:03</time>
      </trkpt>
      <trkpt lat="45.51251" lon="6.05243">
        <ele>738.5</ele>
        <time>2026-02-27T10:20:07</time>
      </trkpt>
      <trkpt lat="45.51251" lon="6.05242">
        <ele>738.5</ele>
        <time>2026-02-27T10:20:07</time>
      </trkpt>
      <trkpt lat="45.51252" lon="6.05242">
        <ele>738.5</ele>
        <time>2026-02-27T10:20:08</time>
      </trkpt>
      <trkpt lat="45.51252" lon="6.05242">
        <ele>738.5</ele>
        <time>2026-02-27T10:20:09</time>
      </trkpt>
      <trkpt lat="45.51252" lon="6.05242">
        <ele>738.5</ele>
        <time>2026-02-27T10:20:10</time>
      </trkpt>
      <trkpt lat="45.51252" lon="6.05241">
        <ele>741.1</ele>
        <time>2026-02-27T10:20:11</time>
      </trkpt>
      <trkpt lat="45.51252" lon="6.05241">
        <ele>741.1</ele>
        <time>2026-02-27T10:20:11</time>
      </trkpt>
      <trkpt lat="45.51252" lon="6.0524">
        <ele>741.1</ele>
        <time>2026-02-27T10:20:13</time>
      </trkpt>
      <trkpt lat="45.51252" lon="6.0524">
        <ele>741.1</ele>
        <time>2026-02-27T10:20:14</time>
      </trkpt>
      <trkpt lat="45.51251" lon="6.05237">
        <ele>742.26666</ele>
        <time>2026-02-27T10:20:24</time>
      </trkpt>
      <trkpt lat="45.51249" lon="6.05234">
        <ele>742.26666</ele>
        <time>2026-02-27T10:20:27</time>
      </trkpt>
      <trkpt lat="45.51248" lon="6.0523">
        <ele>744.4</ele>
        <time>2026-02-27T10:20:31</time>
      </trkpt>
      <trkpt lat="45.51247" lon="6.05226">
        <ele>744.4</ele>
        <time>2026-02-27T10:20:32</time>
      </trkpt>
      <trkpt lat="45.51247" lon="6.05224">
        <ele>744.4</ele>
        <time>2026-02-27T10:20:35</time>
      </trkpt>
      <trkpt lat="45.51247" lon="6.05223">
        <ele>744.4</ele>
        <time>2026-02-27T10:20:35</time>
      </trkpt>
      <trkpt lat="45.51247" lon="6.0522">
        <ele>747</ele>
        <time>2026-02-27T10:20:38</time>
      </trkpt>
      <trkpt lat="45.51246" lon="6.05219">
        <ele>747</ele>
        <time>2026-02-27T10:20:38</time>
      </trkpt>
      <trkpt lat="45.51244" lon="6.05217">
        <ele>747</ele>
        <time>2026-02-27T10:20:42</time>
      </trkpt>
      <trkpt lat="45.51241" lon="6.05212">
        <ele>751.5</ele>
        <time>2026-02-27T10:20:51</time>
      </trkpt>
      <trkpt lat="45.51241" lon="6.05211">
        <ele>755.13336</ele>
        <time>2026-02-27T10:20:52</time>
      </trkpt>
      <trkpt lat="45.51241" lon="6.05208">
        <ele>755.13336</ele>
        <time>2026-02-27T10:20:55</time>
      </trkpt>
      <trkpt lat="45.51241" lon="6.05204">
        <ele>755.13336</ele>
        <time>2026-02-27T10:20:57</time>
      </trkpt>
      <trkpt lat="45.5124" lon="6.052">
        <ele>757.2</ele>
        <time>2026-02-27T10:21:01</time>
      </trkpt>
      <trkpt lat="45.5124" lon="6.052">
        <ele>757.2</ele>
        <time>2026-02-27T10:21:01</time>
      </trkpt>
      <trkpt lat="45.51239" lon="6.052">
        <ele>757.2</ele>
        <time>2026-02-27T10:21:03</time>
      </trkpt>
      <trkpt lat="45.51239" lon="6.05199">
        <ele>757.2</ele>
        <time>2026-02-27T10:21:04</time>
      </trkpt>
      <trkpt lat="45.51238" lon="6.05199">
        <ele>757.2</ele>
        <time>2026-02-27T10:21:05</time>
      </trkpt>
      <trkpt lat="45.51237" lon="6.05198">
        <ele>758.9</ele>
        <time>2026-02-27T10:21:07</time>
      </trkpt>
      <trkpt lat="45.51235" lon="6.05197">
        <ele>758.9</ele>
        <time>2026-02-27T10:21:10</time>
      </trkpt>
      <trkpt lat="45.51235" lon="6.05196">
        <ele>758.9</ele>
        <time>2026-02-27T10:21:10</time>
      </trkpt>
      <trkpt lat="45.51233" lon="6.05193">
        <ele>758.9</ele>
        <time>2026-02-27T10:21:13</time>
      </trkpt>
      <trkpt lat="45.51231" lon="6.05192">
        <ele>759.5</ele>
        <time>2026-02-27T10:21:15</time>
      </trkpt>
      <trkpt lat="45.51229" lon="6.0519">
        <ele>759.5</ele>
        <time>2026-02-27T10:21:18</time>
      </trkpt>
      <trkpt lat="45.51228" lon="6.05185">
        <ele>761.5</ele>
        <time>2026-02-27T10:21:23</time>
      </trkpt>
      <trkpt lat="45.51228" lon="6.05184">
        <ele>761.5</ele>
        <time>2026-02-27T10:21:24</time>
      </trkpt>
      <trkpt lat="45.51227" lon="6.05181">
        <ele>761.5</ele>
        <time>2026-02-27T10:21:27</time>
      </trkpt>
      <trkpt lat="45.51227" lon="6.0518">
        <ele>761.5</ele>
        <time>2026-02-27T10:21:28</time>
      </trkpt>
      <trkpt lat="45.51227" lon="6.05178">
        <ele>764.3</ele>
        <time>2026-02-27T10:21:29</time>
      </trkpt>
      <trkpt lat="45.51226" lon="6.05177">
        <ele>764.3</ele>
        <time>2026-02-27T10:21:31</time>
      </trkpt>
      <trkpt lat="45.51225" lon="6.05174">
        <ele>764.3</ele>
        <time>2026-02-27T10:21:33</time>
      </trkpt>
      <trkpt lat="45.51225" lon="6.05174">
        <ele>764.3</ele>
        <time>2026-02-27T10:21:34</time>
      </trkpt>
      <trkpt lat="45.51223" lon="6.05172">
        <ele>765.4</ele>
        <time>2026-02-27T10:21:38</time>
      </trkpt>
      <trkpt lat="45.51221" lon="6.05169">
        <ele>765.4</ele>
        <time>2026-02-27T10:21:43</time>
      </trkpt>
      <trkpt lat="45.51221" lon="6.05167">
        <ele>767.4</ele>
        <time>2026-02-27T10:21:45</time>
      </trkpt>
      <trkpt lat="45.51222" lon="6.05165">
        <ele>767.4</ele>
        <time>2026-02-27T10:21:46</time>
      </trkpt>
      <trkpt lat="45.51224" lon="6.05157">
        <ele>767.4</ele>
        <time>2026-02-27T10:21:51</time>
      </trkpt>
      <trkpt lat="45.51224" lon="6.05156">
        <ele>767.4</ele>
        <time>2026-02-27T10:21:52</time>
      </trkpt>
      <trkpt lat="45.51224" lon="6.05156">
        <ele>768.26666</ele>
        <time>2026-02-27T10:21:53</time>
      </trkpt>
      <trkpt lat="45.51223" lon="6.05155">
        <ele>768.26666</ele>
        <time>2026-02-27T10:21:53</time>
      </trkpt>
      <trkpt lat="45.51223" lon="6.05154">
        <ele>768.26666</ele>
        <time>2026-02-27T10:21:54</time>
      </trkpt>
      <trkpt lat="45.51223" lon="6.05154">
        <ele>768.26666</ele>
        <time>2026-02-27T10:21:55</time>
      </trkpt>
      <trkpt lat="45.51222" lon="6.05154">
        <ele>768.26666</ele>
        <time>2026-02-27T10:21:57</time>
      </trkpt>
      <trkpt lat="45.51222" lon="6.05154">
        <ele>768.26666</ele>
        <time>2026-02-27T10:21:57</time>
      </trkpt>
      <trkpt lat="45.51216" lon="6.05154">
        <ele>770.7</ele>
        <time>2026-02-27T10:22:04</time>
      </trkpt>
      <trkpt lat="45.51214" lon="6.05152">
        <ele>770.7</ele>
        <time>2026-02-27T10:22:07</time>
      </trkpt>
      <trkpt lat="45.51209" lon="6.05148">
        <ele>770.9</ele>
        <time>2026-02-27T10:22:14</time>
      </trkpt>
      <trkpt lat="45.51209" lon="6.05147">
        <ele>770.9</ele>
        <time>2026-02-27T10:22:14</time>
      </trkpt>
      <trkpt lat="45.51208" lon="6.05146">
        <ele>768.4</ele>
        <time>2026-02-27T10:22:16</time>
      </trkpt>
      <trkpt lat="45.51207" lon="6.05145">
        <ele>768.4</ele>
        <time>2026-02-27T10:22:17</time>
      </trkpt>
      <trkpt lat="45.51207" lon="6.05145">
        <ele>768.4</ele>
        <time>2026-02-27T10:22:17</time>
      </trkpt>
      <trkpt lat="45.51206" lon="6.05144">
        <ele>768.4</ele>
        <time>2026-02-27T10:22:18</time>
      </trkpt>
      <trkpt lat="45.51206" lon="6.05144">
        <ele>768.4</ele>
        <time>2026-02-27T10:22:19</time>
      </trkpt>
      <trkpt lat="45.51205" lon="6.05143">
        <ele>768.4</ele>
        <time>2026-02-27T10:22:21</time>
      </trkpt>
      <trkpt lat="45.51202" lon="6.0514">
        <ele>767.8333</ele>
        <time>2026-02-27T10:22:24</time>
      </trkpt>
      <trkpt lat="45.51202" lon="6.05139">
        <ele>767.8333</ele>
        <time>2026-02-27T10:22:25</time>
      </trkpt>
      <trkpt lat="45.51202" lon="6.05138">
        <ele>767.8333</ele>
        <time>2026-02-27T10:22:26</time>
      </trkpt>
      <trkpt lat="45.51202" lon="6.05138">
        <ele>767.8333</ele>
        <time>2026-02-27T10:22:26</time>
      </trkpt>
      <trkpt lat="45.51202" lon="6.05137">
        <ele>767.8333</ele>
        <time>2026-02-27T10:22:27</time>
      </trkpt>
      <trkpt lat="45.51202" lon="6.05137">
        <ele>767.8333</ele>
        <time>2026-02-27T10:22:28</time>
      </trkpt>
      <trkpt lat="45.51203" lon="6.05137">
        <ele>767.8333</ele>
        <time>2026-02-27T10:22:29</time>
      </trkpt>
      <trkpt lat="45.51204" lon="6.05137">
        <ele>768.43335</ele>
        <time>2026-02-27T10:22:32</time>
      </trkpt>
      <trkpt lat="45.51206" lon="6.05137">
        <ele>768.43335</ele>
        <time>2026-02-27T10:22:35</time>
      </trkpt>
      <trkpt lat="45.51207" lon="6.05138">
        <ele>768.43335</ele>
        <time>2026-02-27T10:22:38</time>
      </trkpt>
      <trkpt lat="45.5121" lon="6.05138">
        <ele>768.5</ele>
        <time>2026-02-27T10:22:41</time>
      </trkpt>
      <trkpt lat="45.5121" lon="6.05139">
        <ele>768.5</ele>
        <time>2026-02-27T10:22:43</time>
      </trkpt>
      <trkpt lat="45.51213" lon="6.05139">
        <ele>767.7</ele>
        <time>2026-02-27T10:22:48</time>
      </trkpt>
      <trkpt lat="45.51214" lon="6.05138">
        <ele>767.7</ele>
        <time>2026-02-27T10:22:52</time>
      </trkpt>
      <trkpt lat="45.51216" lon="6.05137">
        <ele>766.9</ele>
        <time>2026-02-27T10:22:56</time>
      </trkpt>
      <trkpt lat="45.51216" lon="6.05137">
        <ele>766.9</ele>
        <time>2026-02-27T10:22:56</time>
      </trkpt>
      <trkpt lat="45.51219" lon="6.05136">
        <ele>766.9</ele>
        <time>2026-02-27T10:23:01</time>
      </trkpt>
      <trkpt lat="45.51221" lon="6.05135">
        <ele>767</ele>
        <time>2026-02-27T10:23:04</time>
      </trkpt>
      <trkpt lat="45.51226" lon="6.05135">
        <ele>767</ele>
        <time>2026-02-27T10:23:10</time>
      </trkpt>
      <trkpt lat="45.51227" lon="6.05134">
        <ele>768.9</ele>
        <time>2026-02-27T10:23:13</time>
      </trkpt>
      <trkpt lat="45.51228" lon="6.05134">
        <ele>768.9</ele>
        <time>2026-02-27T10:23:15</time>
      </trkpt>
      <trkpt lat="45.51229" lon="6.05134">
        <ele>768.9</ele>
        <time>2026-02-27T10:23:17</time>
      </trkpt>
      <trkpt lat="45.51231" lon="6.05135">
        <ele>768.9</ele>
        <time>2026-02-27T10:23:18</time>
      </trkpt>
      <trkpt lat="45.51232" lon="6.05136">
        <ele>770.4</ele>
        <time>2026-02-27T10:23:19</time>
      </trkpt>
      <trkpt lat="45.51232" lon="6.05136">
        <ele>770.4</ele>
        <time>2026-02-27T10:23:20</time>
      </trkpt>
      <trkpt lat="45.51233" lon="6.05138">
        <ele>770.4</ele>
        <time>2026-02-27T10:23:22</time>
      </trkpt>
      <trkpt lat="45.51233" lon="6.05139">
        <ele>770.4</ele>
        <time>2026-02-27T10:23:23</time>
      </trkpt>
      <trkpt lat="45.51233" lon="6.05143">
        <ele>770.4</ele>
        <time>2026-02-27T10:23:26</time>
      </trkpt>
      <trkpt lat="45.51235" lon="6.05149">
        <ele>774.06665</ele>
        <time>2026-02-27T10:23:33</time>
      </trkpt>
      <trkpt lat="45.51236" lon="6.05162">
        <ele>778.9</ele>
        <time>2026-02-27T10:23:41</time>
      </trkpt>
      <trkpt lat="45.51237" lon="6.05167">
        <ele>781.8</ele>
        <time>2026-02-27T10:23:44</time>
      </trkpt>
      <trkpt lat="45.51238" lon="6.05168">
        <ele>781.8</ele>
        <time>2026-02-27T10:23:47</time>
      </trkpt>
      <trkpt lat="45.5124" lon="6.05169">
        <ele>781.8</ele>
        <time>2026-02-27T10:23:50</time>
      </trkpt>
      <trkpt lat="45.51242" lon="6.05169">
        <ele>782.7</ele>
        <time>2026-02-27T10:23:52</time>
      </trkpt>
      <trkpt lat="45.51243" lon="6.0517">
        <ele>782.7</ele>
        <time>2026-02-27T10:23:55</time>
      </trkpt>
      <trkpt lat="45.51244" lon="6.0517">
        <ele>782.7</ele>
        <time>2026-02-27T10:23:58</time>
      </trkpt>
      <trkpt lat="45.51247" lon="6.0517">
        <ele>784.4</ele>
        <time>2026-02-27T10:24:01</time>
      </trkpt>
      <trkpt lat="45.51248" lon="6.0517">
        <ele>784.4</ele>
        <time>2026-02-27T10:24:03</time>
      </trkpt>
      <trkpt lat="45.51249" lon="6.0517">
        <ele>784.4</ele>
        <time>2026-02-27T10:24:05</time>
      </trkpt>
      <trkpt lat="45.5125" lon="6.0517">
        <ele>785.5</ele>
        <time>2026-02-27T10:24:08</time>
      </trkpt>
      <trkpt lat="45.51251" lon="6.05169">
        <ele>785.5</ele>
        <time>2026-02-27T10:24:09</time>
      </trkpt>
      <trkpt lat="45.51252" lon="6.05169">
        <ele>785.5</ele>
        <time>2026-02-27T10:24:10</time>
      </trkpt>
      <trkpt lat="45.51254" lon="6.05169">
        <ele>785.5</ele>
        <time>2026-02-27T10:24:11</time>
      </trkpt>
      <trkpt lat="45.51259" lon="6.05171">
        <ele>786.7</ele>
        <time>2026-02-27T10:24:18</time>
      </trkpt>
      <trkpt lat="45.51264" lon="6.05177">
        <ele>787.4667</ele>
        <time>2026-02-27T10:24:26</time>
      </trkpt>
      <trkpt lat="45.51267" lon="6.05182">
        <ele>789.2</ele>
        <time>2026-02-27T10:24:34</time>
      </trkpt>
      <trkpt lat="45.51268" lon="6.05183">
        <ele>789.2</ele>
        <time>2026-02-27T10:24:37</time>
      </trkpt>
      <trkpt lat="45.51269" lon="6.05184">
        <ele>789.2</ele>
        <time>2026-02-27T10:24:38</time>
      </trkpt>
      <trkpt lat="45.5127" lon="6.05188">
        <ele>790.6</ele>
        <time>2026-02-27T10:24:41</time>
      </trkpt>
      <trkpt lat="45.5127" lon="6.05191">
        <ele>792.06665</ele>
        <time>2026-02-27T10:24:48</time>
      </trkpt>
      <trkpt lat="45.51271" lon="6.05192">
        <ele>792.06665</ele>
        <time>2026-02-27T10:24:48</time>
      </trkpt>
      <trkpt lat="45.51271" lon="6.05192">
        <ele>792.06665</ele>
        <time>2026-02-27T10:24:49</time>
      </trkpt>
      <trkpt lat="45.51271" lon="6.05192">
        <ele>792.06665</ele>
        <time>2026-02-27T10:24:50</time>
      </trkpt>
      <trkpt lat="45.51271" lon="6.05192">
        <ele>792.06665</ele>
        <time>2026-02-27T10:24:51</time>
      </trkpt>
      <trkpt lat="45.51272" lon="6.05192">
        <ele>792.06665</ele>
        <time>2026-02-27T10:24:52</time>
      </trkpt>
      <trkpt lat="45.51272" lon="6.05191">
        <ele>792.06665</ele>
        <time>2026-02-27T10:24:54</time>
      </trkpt>
      <trkpt lat="45.51272" lon="6.05191">
        <ele>792.06665</ele>
        <time>2026-02-27T10:24:55</time>
      </trkpt>
      <trkpt lat="45.51273" lon="6.05188">
        <ele>793.06665</ele>
        <time>2026-02-27T10:24:58</time>
      </trkpt>
      <trkpt lat="45.51273" lon="6.05185">
        <ele>793.06665</ele>
        <time>2026-02-27T10:25:00</time>
      </trkpt>
      <trkpt lat="45.51273" lon="6.05182">
        <ele>793.06665</ele>
        <time>2026-02-27T10:25:02</time>
      </trkpt>
      <trkpt lat="45.51273" lon="6.05174">
        <ele>793.23334</ele>
        <time>2026-02-27T10:25:08</time>
      </trkpt>
      <trkpt lat="45.51273" lon="6.05173">
        <ele>793.23334</ele>
        <time>2026-02-27T10:25:09</time>
      </trkpt>
      <trkpt lat="45.51273" lon="6.05173">
        <ele>793.23334</ele>
        <time>2026-02-27T10:25:10</time>
      </trkpt>
      <trkpt lat="45.51272" lon="6.05168">
        <ele>792.2</ele>
        <time>2026-02-27T10:25:13</time>
      </trkpt>
      <trkpt lat="45.51272" lon="6.05166">
        <ele>792.2</ele>
        <time>2026-02-27T10:25:14</time>
      </trkpt>
      <trkpt lat="45.51271" lon="6.05166">
        <ele>792.2</ele>
        <time>2026-02-27T10:25:14</time>
      </trkpt>
      <trkpt lat="45.51269" lon="6.05158">
        <ele>792.2</ele>
        <time>2026-02-27T10:25:19</time>
      </trkpt>
      <trkpt lat="45.51268" lon="6.05153">
        <ele>790.26666</ele>
        <time>2026-02-27T10:25:22</time>
      </trkpt>
      <trkpt lat="45.51267" lon="6.05152">
        <ele>790.26666</ele>
        <time>2026-02-27T10:25:23</time>
      </trkpt>
      <trkpt lat="45.51267" lon="6.05151">
        <ele>790.26666</ele>
        <time>2026-02-27T10:25:23</time>
      </trkpt>
      <trkpt lat="45.51266" lon="6.0515">
        <ele>790.26666</ele>
        <time>2026-02-27T10:25:24</time>
      </trkpt>
      <trkpt lat="45.51264" lon="6.05147">
        <ele>791.13336</ele>
        <time>2026-02-27T10:25:28</time>
      </trkpt>
      <trkpt lat="45.51259" lon="6.0514">
        <ele>792.7</ele>
        <time>2026-02-27T10:25:36</time>
      </trkpt>
      <trkpt lat="45.51258" lon="6.05139">
        <ele>792.7</ele>
        <time>2026-02-27T10:25:38</time>
      </trkpt>
      <trkpt lat="45.51257" lon="6.05137">
        <ele>792.7</ele>
        <time>2026-02-27T10:25:39</time>
      </trkpt>
      <trkpt lat="45.51257" lon="6.05135">
        <ele>792.7</ele>
        <time>2026-02-27T10:25:41</time>
      </trkpt>
      <trkpt lat="45.51256" lon="6.05134">
        <ele>792.7</ele>
        <time>2026-02-27T10:25:41</time>
      </trkpt>
      <trkpt lat="45.51253" lon="6.05126">
        <ele>796.1</ele>
        <time>2026-02-27T10:25:51</time>
      </trkpt>
      <trkpt lat="45.51252" lon="6.05124">
        <ele>796.1</ele>
        <time>2026-02-27T10:25:52</time>
      </trkpt>
      <trkpt lat="45.5125" lon="6.05121">
        <ele>796.6667</ele>
        <time>2026-02-27T10:25:56</time>
      </trkpt>
      <trkpt lat="45.5125" lon="6.05117">
        <ele>797</ele>
        <time>2026-02-27T10:26:00</time>
      </trkpt>
      <trkpt lat="45.51251" lon="6.05115">
        <ele>797</ele>
        <time>2026-02-27T10:26:03</time>
      </trkpt>
      <trkpt lat="45.5125" lon="6.05113">
        <ele>797</ele>
        <time>2026-02-27T10:26:06</time>
      </trkpt>
      <trkpt lat="45.5125" lon="6.05112">
        <ele>797</ele>
        <time>2026-02-27T10:26:07</time>
      </trkpt>
      <trkpt lat="45.51249" lon="6.05109">
        <ele>798.5</ele>
        <time>2026-02-27T10:26:14</time>
      </trkpt>
      <trkpt lat="45.51249" lon="6.05108">
        <ele>801.5</ele>
        <time>2026-02-27T10:26:18</time>
      </trkpt>
      <trkpt lat="45.51248" lon="6.05107">
        <ele>801.5</ele>
        <time>2026-02-27T10:26:19</time>
      </trkpt>
      <trkpt lat="45.51248" lon="6.05106">
        <ele>801.5</ele>
        <time>2026-02-27T10:26:22</time>
      </trkpt>
      <trkpt lat="45.51247" lon="6.05106">
        <ele>801.5</ele>
        <time>2026-02-27T10:26:23</time>
      </trkpt>
      <trkpt lat="45.51247" lon="6.05105">
        <ele>802.1</ele>
        <time>2026-02-27T10:26:25</time>
      </trkpt>
      <trkpt lat="45.51245" lon="6.05104">
        <ele>802.1</ele>
        <time>2026-02-27T10:26:29</time>
      </trkpt>
      <trkpt lat="45.51245" lon="6.05103">
        <ele>802.1</ele>
        <time>2026-02-27T10:26:30</time>
      </trkpt>
      <trkpt lat="45.51244" lon="6.05103">
        <ele>802.1</ele>
        <time>2026-02-27T10:26:30</time>
      </trkpt>
      <trkpt lat="45.51244" lon="6.05102">
        <ele>802.1</ele>
        <time>2026-02-27T10:26:31</time>
      </trkpt>
      <trkpt lat="45.51244" lon="6.05102">
        <ele>802.3</ele>
        <time>2026-02-27T10:26:32</time>
      </trkpt>
      <trkpt lat="45.51244" lon="6.05102">
        <ele>802.3</ele>
        <time>2026-02-27T10:26:33</time>
      </trkpt>
      <trkpt lat="45.51244" lon="6.05101">
        <ele>802.3</ele>
        <time>2026-02-27T10:26:33</time>
      </trkpt>
      <trkpt lat="45.51243" lon="6.051">
        <ele>802.3</ele>
        <time>2026-02-27T10:26:34</time>
      </trkpt>
      <trkpt lat="45.51243" lon="6.05099">
        <ele>802.3</ele>
        <time>2026-02-27T10:26:36</time>
      </trkpt>
      <trkpt lat="45.51243" lon="6.05098">
        <ele>802.3</ele>
        <time>2026-02-27T10:26:36</time>
      </trkpt>
      <trkpt lat="45.51241" lon="6.05093">
        <ele>803.9</ele>
        <time>2026-02-27T10:26:42</time>
      </trkpt>
      <trkpt lat="45.51233" lon="6.05087">
        <ele>805.9</ele>
        <time>2026-02-27T10:26:57</time>
      </trkpt>
      <trkpt lat="45.51232" lon="6.05087">
        <ele>805.9</ele>
        <time>2026-02-27T10:26:59</time>
      </trkpt>
      <trkpt lat="45.51228" lon="6.05086">
        <ele>805.9</ele>
        <time>2026-02-27T10:27:03</time>
      </trkpt>
      <trkpt lat="45.51228" lon="6.05086">
        <ele>810.1</ele>
        <time>2026-02-27T10:27:03</time>
      </trkpt>
      <trkpt lat="45.51228" lon="6.05085">
        <ele>810.1</ele>
        <time>2026-02-27T10:27:04</time>
      </trkpt>
      <trkpt lat="45.51227" lon="6.05084">
        <ele>810.1</ele>
        <time>2026-02-27T10:27:05</time>
      </trkpt>
      <trkpt lat="45.51227" lon="6.05084">
        <ele>810.1</ele>
        <time>2026-02-27T10:27:06</time>
      </trkpt>
      <trkpt lat="45.51228" lon="6.05083">
        <ele>810.1</ele>
        <time>2026-02-27T10:27:07</time>
      </trkpt>
      <trkpt lat="45.51228" lon="6.05083">
        <ele>810.1</ele>
        <time>2026-02-27T10:27:07</time>
      </trkpt>
      <trkpt lat="45.51229" lon="6.05083">
        <ele>810.1</ele>
        <time>2026-02-27T10:27:08</time>
      </trkpt>
      <trkpt lat="45.51229" lon="6.05084">
        <ele>810.1</ele>
        <time>2026-02-27T10:27:11</time>
      </trkpt>
      <trkpt lat="45.51229" lon="6.05084">
        <ele>810.9</ele>
        <time>2026-02-27T10:27:13</time>
      </trkpt>
      <trkpt lat="45.51229" lon="6.05084">
        <ele>810.9</ele>
        <time>2026-02-27T10:27:14</time>
      </trkpt>
      <trkpt lat="45.5123" lon="6.05085">
        <ele>810.9</ele>
        <time>2026-02-27T10:27:16</time>
      </trkpt>
      <trkpt lat="45.51232" lon="6.05086">
        <ele>811.2</ele>
        <time>2026-02-27T10:27:19</time>
      </trkpt>
      <trkpt lat="45.51242" lon="6.0508">
        <ele>813.86664</ele>
        <time>2026-02-27T10:27:39</time>
      </trkpt>
      <trkpt lat="45.51246" lon="6.05077">
        <ele>813.86664</ele>
        <time>2026-02-27T10:27:43</time>
      </trkpt>
      <trkpt lat="45.51249" lon="6.05076">
        <ele>813.8</ele>
        <time>2026-02-27T10:27:46</time>
      </trkpt>
      <trkpt lat="45.5125" lon="6.05077">
        <ele>813.8</ele>
        <time>2026-02-27T10:27:47</time>
      </trkpt>
      <trkpt lat="45.51252" lon="6.05079">
        <ele>813.8</ele>
        <time>2026-02-27T10:27:49</time>
      </trkpt>
      <trkpt lat="45.51253" lon="6.0508">
        <ele>813</ele>
        <time>2026-02-27T10:27:51</time>
      </trkpt>
      <trkpt lat="45.51253" lon="6.0508">
        <ele>813</ele>
        <time>2026-02-27T10:27:52</time>
      </trkpt>
      <trkpt lat="45.51254" lon="6.0508">
        <ele>813</ele>
        <time>2026-02-27T10:27:53</time>
      </trkpt>
      <trkpt lat="45.51254" lon="6.0508">
        <ele>813</ele>
        <time>2026-02-27T10:27:53</time>
      </trkpt>
      <trkpt lat="45.51254" lon="6.0508">
        <ele>813</ele>
        <time>2026-02-27T10:27:54</time>
      </trkpt>
      <trkpt lat="45.51254" lon="6.0508">
        <ele>813</ele>
        <time>2026-02-27T10:27:55</time>
      </trkpt>
      <trkpt lat="45.51254" lon="6.0508">
        <ele>813</ele>
        <time>2026-02-27T10:27:56</time>
      </trkpt>
      <trkpt lat="45.51254" lon="6.05078">
        <ele>813</ele>
        <time>2026-02-27T10:27:57</time>
      </trkpt>
      <trkpt lat="45.51254" lon="6.05077">
        <ele>813</ele>
        <time>2026-02-27T10:27:58</time>
      </trkpt>
      <trkpt lat="45.51254" lon="6.05075">
        <ele>814.1</ele>
        <time>2026-02-27T10:28:00</time>
      </trkpt>
      <trkpt lat="45.51254" lon="6.05072">
        <ele>814.1</ele>
        <time>2026-02-27T10:28:04</time>
      </trkpt>
      <trkpt lat="45.51254" lon="6.05071">
        <ele>814.1</ele>
        <time>2026-02-27T10:28:04</time>
      </trkpt>
      <trkpt lat="45.51252" lon="6.05068">
        <ele>814.9</ele>
        <time>2026-02-27T10:28:08</time>
      </trkpt>
      <trkpt lat="45.51252" lon="6.05068">
        <ele>814.9</ele>
        <time>2026-02-27T10:28:09</time>
      </trkpt>
      <trkpt lat="45.51252" lon="6.05067">
        <ele>814.9</ele>
        <time>2026-02-27T10:28:10</time>
      </trkpt>
      <trkpt lat="45.51252" lon="6.05066">
        <ele>814.9</ele>
        <time>2026-02-27T10:28:10</time>
      </trkpt>
      <trkpt lat="45.51252" lon="6.05066">
        <ele>814.9</ele>
        <time>2026-02-27T10:28:11</time>
      </trkpt>
      <trkpt lat="45.51252" lon="6.05065">
        <ele>814.9</ele>
        <time>2026-02-27T10:28:12</time>
      </trkpt>
      <trkpt lat="45.51252" lon="6.05065">
        <ele>814.9</ele>
        <time>2026-02-27T10:28:13</time>
      </trkpt>
      <trkpt lat="45.51252" lon="6.05065">
        <ele>819.7</ele>
        <time>2026-02-27T10:28:14</time>
      </trkpt>
      <trkpt lat="45.51252" lon="6.05065">
        <ele>819.7</ele>
        <time>2026-02-27T10:28:16</time>
      </trkpt>
      <trkpt lat="45.51252" lon="6.05066">
        <ele>819.7</ele>
        <time>2026-02-27T10:28:18</time>
      </trkpt>
      <trkpt lat="45.51256" lon="6.05072">
        <ele>821.8</ele>
        <time>2026-02-27T10:28:30</time>
      </trkpt>
      <trkpt lat="45.51259" lon="6.05074">
        <ele>821.8</ele>
        <time>2026-02-27T10:28:34</time>
      </trkpt>
      <trkpt lat="45.5126" lon="6.05075">
        <ele>821.8</ele>
        <time>2026-02-27T10:28:35</time>
      </trkpt>
      <trkpt lat="45.51261" lon="6.05075">
        <ele>823.2</ele>
        <time>2026-02-27T10:28:37</time>
      </trkpt>
      <trkpt lat="45.51261" lon="6.05075">
        <ele>823.2</ele>
        <time>2026-02-27T10:28:38</time>
      </trkpt>
      <trkpt lat="45.51261" lon="6.05075">
        <ele>823.2</ele>
        <time>2026-02-27T10:28:40</time>
      </trkpt>
      <trkpt lat="45.51261" lon="6.05075">
        <ele>823.2</ele>
        <time>2026-02-27T10:28:42</time>
      </trkpt>
      <trkpt lat="45.51261" lon="6.05074">
        <ele>823.3</ele>
        <time>2026-02-27T10:29:51</time>
      </trkpt>
      <trkpt lat="45.51261" lon="6.05074">
        <ele>823.3</ele>
        <time>2026-02-27T10:30:46</time>
      </trkpt>
      <trkpt lat="45.51257" lon="6.0508">
        <ele>823.3</ele>
        <time>2026-02-27T10:31:03</time>
      </trkpt>
      <trkpt lat="45.51258" lon="6.05079">
        <ele>823.3</ele>
        <time>2026-02-27T10:31:05</time>
      </trkpt>
      <trkpt lat="45.51258" lon="6.05078">
        <ele>830.5</ele>
        <time>2026-02-27T10:31:08</time>
      </trkpt>
      <trkpt lat="45.51258" lon="6.05078">
        <ele>830.5</ele>
        <time>2026-02-27T10:31:10</time>
      </trkpt>
      <trkpt lat="45.51256" lon="6.05078">
        <ele>830.5</ele>
        <time>2026-02-27T10:31:11</time>
      </trkpt>
      <trkpt lat="45.51254" lon="6.05076">
        <ele>830.5</ele>
        <time>2026-02-27T10:31:15</time>
      </trkpt>
      <trkpt lat="45.51254" lon="6.05074">
        <ele>830.6</ele>
        <time>2026-02-27T10:31:17</time>
      </trkpt>
      <trkpt lat="45.51253" lon="6.05072">
        <ele>830.6</ele>
        <time>2026-02-27T10:31:19</time>
      </trkpt>
      <trkpt lat="45.51253" lon="6.05072">
        <ele>830.6</ele>
        <time>2026-02-27T10:31:20</time>
      </trkpt>
      <trkpt lat="45.51252" lon="6.05072">
        <ele>831.1</ele>
        <time>2026-02-27T10:31:30</time>
      </trkpt>
      <trkpt lat="45.51252" lon="6.05072">
        <ele>830.9</ele>
        <time>2026-02-27T10:32:34</time>
      </trkpt>
      <trkpt lat="45.51252" lon="6.05072">
        <ele>830.9</ele>
        <time>2026-02-27T10:33:09</time>
      </trkpt>
      <trkpt lat="45.51254" lon="6.05074">
        <ele>830.9</ele>
        <time>2026-02-27T10:33:46</time>
      </trkpt>
      <trkpt lat="45.51256" lon="6.05076">
        <ele>830.9</ele>
        <time>2026-02-27T10:33:47</time>
      </trkpt>
      <trkpt lat="45.51258" lon="6.05081">
        <ele>830.9</ele>
        <time>2026-02-27T10:33:48</time>
      </trkpt>
      <trkpt lat="45.51261" lon="6.05084">
        <ele>830.9</ele>
        <time>2026-02-27T10:33:50</time>
      </trkpt>
      <trkpt lat="45.51266" lon="6.05092">
        <ele>830.7</ele>
        <time>2026-02-27T10:34:00</time>
      </trkpt>
      <trkpt lat="45.51267" lon="6.05095">
        <ele>830.9</ele>
        <time>2026-02-27T10:34:06</time>
      </trkpt>
      <trkpt lat="45.5127" lon="6.051">
        <ele>830.4</ele>
        <time>2026-02-27T10:34:11</time>
      </trkpt>
      <trkpt lat="45.51272" lon="6.05102">
        <ele>830.4</ele>
        <time>2026-02-27T10:34:14</time>
      </trkpt>
      <trkpt lat="45.51275" lon="6.05104">
        <ele>829.2</ele>
        <time>2026-02-27T10:34:17</time>
      </trkpt>
      <trkpt lat="45.51275" lon="6.05105">
        <ele>829.2</ele>
        <time>2026-02-27T10:34:19</time>
      </trkpt>
      <trkpt lat="45.51276" lon="6.05105">
        <ele>829.2</ele>
        <time>2026-02-27T10:34:20</time>
      </trkpt>
      <trkpt lat="45.51278" lon="6.05107">
        <ele>828.6</ele>
        <time>2026-02-27T10:34:25</time>
      </trkpt>
      <trkpt lat="45.51278" lon="6.05107">
        <ele>828.6</ele>
        <time>2026-02-27T10:34:27</time>
      </trkpt>
      <trkpt lat="45.51286" lon="6.05109">
        <ele>831.5</ele>
        <time>2026-02-27T10:34:40</time>
      </trkpt>
      <trkpt lat="45.51288" lon="6.0511">
        <ele>831.5</ele>
        <time>2026-02-27T10:34:43</time>
      </trkpt>
      <trkpt lat="45.51289" lon="6.05111">
        <ele>831.5</ele>
        <time>2026-02-27T10:34:46</time>
      </trkpt>
      <trkpt lat="45.51293" lon="6.05114">
        <ele>832.73334</ele>
        <time>2026-02-27T10:34:50</time>
      </trkpt>
      <trkpt lat="45.51294" lon="6.05114">
        <ele>832.73334</ele>
        <time>2026-02-27T10:34:51</time>
      </trkpt>
      <trkpt lat="45.51296" lon="6.05116">
        <ele>834.3</ele>
        <time>2026-02-27T10:34:56</time>
      </trkpt>
      <trkpt lat="45.51297" lon="6.05118">
        <ele>834.3</ele>
        <time>2026-02-27T10:34:58</time>
      </trkpt>
      <trkpt lat="45.51298" lon="6.0512">
        <ele>834.3</ele>
        <time>2026-02-27T10:35:00</time>
      </trkpt>
      <trkpt lat="45.51298" lon="6.05121">
        <ele>835.7</ele>
        <time>2026-02-27T10:35:02</time>
      </trkpt>
      <trkpt lat="45.51302" lon="6.05122">
        <ele>837.9</ele>
        <time>2026-02-27T10:35:09</time>
      </trkpt>
      <trkpt lat="45.51305" lon="6.05123">
        <ele>837.9</ele>
        <time>2026-02-27T10:35:13</time>
      </trkpt>
      <trkpt lat="45.51307" lon="6.05124">
        <ele>837.9</ele>
        <time>2026-02-27T10:35:16</time>
      </trkpt>
      <trkpt lat="45.51308" lon="6.05126">
        <ele>840.3</ele>
        <time>2026-02-27T10:35:19</time>
      </trkpt>
      <trkpt lat="45.51308" lon="6.05126">
        <ele>840.3</ele>
        <time>2026-02-27T10:35:20</time>
      </trkpt>
      <trkpt lat="45.51309" lon="6.05126">
        <ele>840.3</ele>
        <time>2026-02-27T10:35:21</time>
      </trkpt>
      <trkpt lat="45.5131" lon="6.05127">
        <ele>840.3</ele>
        <time>2026-02-27T10:35:24</time>
      </trkpt>
      <trkpt lat="45.51311" lon="6.05127">
        <ele>842.9</ele>
        <time>2026-02-27T10:35:25</time>
      </trkpt>
      <trkpt lat="45.51315" lon="6.0513">
        <ele>842.9</ele>
        <time>2026-02-27T10:35:30</time>
      </trkpt>
      <trkpt lat="45.51315" lon="6.05131">
        <ele>842.9</ele>
        <time>2026-02-27T10:35:31</time>
      </trkpt>
      <trkpt lat="45.51316" lon="6.05132">
        <ele>842.9</ele>
        <time>2026-02-27T10:35:32</time>
      </trkpt>
      <trkpt lat="45.51316" lon="6.05132">
        <ele>844.7</ele>
        <time>2026-02-27T10:35:33</time>
      </trkpt>
      <trkpt lat="45.51319" lon="6.05134">
        <ele>844.7</ele>
        <time>2026-02-27T10:35:38</time>
      </trkpt>
      <trkpt lat="45.5132" lon="6.05135">
        <ele>844.7</ele>
        <time>2026-02-27T10:35:39</time>
      </trkpt>
      <trkpt lat="45.51322" lon="6.05135">
        <ele>847.3</ele>
        <time>2026-02-27T10:35:41</time>
      </trkpt>
      <trkpt lat="45.51325" lon="6.05136">
        <ele>847.3</ele>
        <time>2026-02-27T10:35:45</time>
      </trkpt>
      <trkpt lat="45.51326" lon="6.05136">
        <ele>847.3</ele>
        <time>2026-02-27T10:35:46</time>
      </trkpt>
      <trkpt lat="45.51328" lon="6.05137">
        <ele>850.1</ele>
        <time>2026-02-27T10:35:48</time>
      </trkpt>
      <trkpt lat="45.51334" lon="6.05142">
        <ele>851.3</ele>
        <time>2026-02-27T10:36:00</time>
      </trkpt>
      <trkpt lat="45.51335" lon="6.05142">
        <ele>851.3</ele>
        <time>2026-02-27T10:36:01</time>
      </trkpt>
      <trkpt lat="45.51341" lon="6.05147">
        <ele>853.3333</ele>
        <time>2026-02-27T10:36:07</time>
      </trkpt>
      <trkpt lat="45.51344" lon="6.05149">
        <ele>853.3333</ele>
        <time>2026-02-27T10:36:10</time>
      </trkpt>
      <trkpt lat="45.51348" lon="6.05151">
        <ele>854.2</ele>
        <time>2026-02-27T10:36:15</time>
      </trkpt>
      <trkpt lat="45.51349" lon="6.05151">
        <ele>854.2</ele>
        <time>2026-02-27T10:36:17</time>
      </trkpt>
      <trkpt lat="45.51352" lon="6.05151">
        <ele>854.8</ele>
        <time>2026-02-27T10:36:22</time>
      </trkpt>
      <trkpt lat="45.51353" lon="6.0515">
        <ele>854.8</ele>
        <time>2026-02-27T10:36:22</time>
      </trkpt>
      <trkpt lat="45.51354" lon="6.0515">
        <ele>854.8</ele>
        <time>2026-02-27T10:36:24</time>
      </trkpt>
      <trkpt lat="45.51355" lon="6.05149">
        <ele>854.8</ele>
        <time>2026-02-27T10:36:25</time>
      </trkpt>
      <trkpt lat="45.51356" lon="6.05148">
        <ele>855.9</ele>
        <time>2026-02-27T10:36:29</time>
      </trkpt>
      <trkpt lat="45.51357" lon="6.05148">
        <ele>855.9</ele>
        <time>2026-02-27T10:36:30</time>
      </trkpt>
      <trkpt lat="45.51359" lon="6.05148">
        <ele>855.9</ele>
        <time>2026-02-27T10:36:32</time>
      </trkpt>
      <trkpt lat="45.5136" lon="6.05148">
        <ele>856.2</ele>
        <time>2026-02-27T10:36:34</time>
      </trkpt>
      <trkpt lat="45.51362" lon="6.05149">
        <ele>856.2</ele>
        <time>2026-02-27T10:36:36</time>
      </trkpt>
      <trkpt lat="45.51364" lon="6.05151">
        <ele>856.2</ele>
        <time>2026-02-27T10:36:39</time>
      </trkpt>
      <trkpt lat="45.51367" lon="6.05153">
        <ele>856.7</ele>
        <time>2026-02-27T10:36:42</time>
      </trkpt>
      <trkpt lat="45.51367" lon="6.05154">
        <ele>856.7</ele>
        <time>2026-02-27T10:36:44</time>
      </trkpt>
      <trkpt lat="45.51368" lon="6.05155">
        <ele>856.7</ele>
        <time>2026-02-27T10:36:45</time>
      </trkpt>
      <trkpt lat="45.51369" lon="6.05156">
        <ele>856.7</ele>
        <time>2026-02-27T10:36:48</time>
      </trkpt>
      <trkpt lat="45.51371" lon="6.05158">
        <ele>858.1</ele>
        <time>2026-02-27T10:36:51</time>
      </trkpt>
      <trkpt lat="45.51372" lon="6.05158">
        <ele>858.1</ele>
        <time>2026-02-27T10:36:53</time>
      </trkpt>
      <trkpt lat="45.51373" lon="6.05158">
        <ele>858.1</ele>
        <time>2026-02-27T10:36:54</time>
      </trkpt>
      <trkpt lat="45.51374" lon="6.05159">
        <ele>858.1</ele>
        <time>2026-02-27T10:36:55</time>
      </trkpt>
      <trkpt lat="45.51374" lon="6.05159">
        <ele>858.1</ele>
        <time>2026-02-27T10:36:56</time>
      </trkpt>
      <trkpt lat="45.51375" lon="6.05159">
        <ele>858.7</ele>
        <time>2026-02-27T10:36:57</time>
      </trkpt>
      <trkpt lat="45.51376" lon="6.05159">
        <ele>858.7</ele>
        <time>2026-02-27T10:36:59</time>
      </trkpt>
      <trkpt lat="45.51378" lon="6.0516">
        <ele>858.7</ele>
        <time>2026-02-27T10:37:02</time>
      </trkpt>
      <trkpt lat="45.51381" lon="6.05163">
        <ele>859.1</ele>
        <time>2026-02-27T10:37:09</time>
      </trkpt>
      <trkpt lat="45.51382" lon="6.05163">
        <ele>859.1</ele>
        <time>2026-02-27T10:37:11</time>
      </trkpt>
      <trkpt lat="45.51388" lon="6.05168">
        <ele>861.8</ele>
        <time>2026-02-27T10:37:20</time>
      </trkpt>
      <trkpt lat="45.51391" lon="6.0517">
        <ele>861.8</ele>
        <time>2026-02-27T10:37:26</time>
      </trkpt>
      <trkpt lat="45.51394" lon="6.0517">
        <ele>865.9</ele>
        <time>2026-02-27T10:37:30</time>
      </trkpt>
      <trkpt lat="45.51396" lon="6.05169">
        <ele>865.9</ele>
        <time>2026-02-27T10:37:32</time>
      </trkpt>
      <trkpt lat="45.51398" lon="6.05168">
        <ele>865.9</ele>
        <time>2026-02-27T10:37:35</time>
      </trkpt>
      <trkpt lat="45.51399" lon="6.05168">
        <ele>866.5</ele>
        <time>2026-02-27T10:37:36</time>
      </trkpt>
      <trkpt lat="45.51399" lon="6.05168">
        <ele>866.5</ele>
        <time>2026-02-27T10:37:37</time>
      </trkpt>
      <trkpt lat="45.514" lon="6.05168">
        <ele>866.5</ele>
        <time>2026-02-27T10:37:37</time>
      </trkpt>
      <trkpt lat="45.514" lon="6.05168">
        <ele>866.5</ele>
        <time>2026-02-27T10:37:38</time>
      </trkpt>
      <trkpt lat="45.51404" lon="6.05169">
        <ele>866.8</ele>
        <time>2026-02-27T10:37:43</time>
      </trkpt>
      <trkpt lat="45.51406" lon="6.05169">
        <ele>866.8</ele>
        <time>2026-02-27T10:37:47</time>
      </trkpt>
      <trkpt lat="45.51406" lon="6.05169">
        <ele>866.8</ele>
        <time>2026-02-27T10:37:48</time>
      </trkpt>
      <trkpt lat="45.51407" lon="6.0517">
        <ele>866.8</ele>
        <time>2026-02-27T10:37:51</time>
      </trkpt>
      <trkpt lat="45.51407" lon="6.05172">
        <ele>868.1</ele>
        <time>2026-02-27T10:37:55</time>
      </trkpt>
      <trkpt lat="45.51409" lon="6.05173">
        <ele>868.1</ele>
        <time>2026-02-27T10:37:59</time>
      </trkpt>
      <trkpt lat="45.5141" lon="6.05173">
        <ele>869.7</ele>
        <time>2026-02-27T10:38:02</time>
      </trkpt>
      <trkpt lat="45.51411" lon="6.05174">
        <ele>869.7</ele>
        <time>2026-02-27T10:38:04</time>
      </trkpt>
      <trkpt lat="45.51413" lon="6.05174">
        <ele>869.7</ele>
        <time>2026-02-27T10:38:06</time>
      </trkpt>
      <trkpt lat="45.51414" lon="6.05174">
        <ele>871.5</ele>
        <time>2026-02-27T10:38:08</time>
      </trkpt>
      <trkpt lat="45.51417" lon="6.05174">
        <ele>872.7</ele>
        <time>2026-02-27T10:38:15</time>
      </trkpt>
      <trkpt lat="45.51418" lon="6.05174">
        <ele>872.7</ele>
        <time>2026-02-27T10:38:16</time>
      </trkpt>
      <trkpt lat="45.51418" lon="6.05174">
        <ele>872.7</ele>
        <time>2026-02-27T10:38:17</time>
      </trkpt>
      <trkpt lat="45.51419" lon="6.05173">
        <ele>872.7</ele>
        <time>2026-02-27T10:38:18</time>
      </trkpt>
      <trkpt lat="45.51419" lon="6.05173">
        <ele>872.7</ele>
        <time>2026-02-27T10:38:19</time>
      </trkpt>
      <trkpt lat="45.5142" lon="6.05172">
        <ele>872.7</ele>
        <time>2026-02-27T10:38:20</time>
      </trkpt>
      <trkpt lat="45.51421" lon="6.05171">
        <ele>872.7</ele>
        <time>2026-02-27T10:38:23</time>
      </trkpt>
      <trkpt lat="45.51421" lon="6.05171">
        <ele>873.4</ele>
        <time>2026-02-27T10:38:23</time>
      </trkpt>
      <trkpt lat="45.51422" lon="6.05171">
        <ele>873.4</ele>
        <time>2026-02-27T10:38:25</time>
      </trkpt>
      <trkpt lat="45.51422" lon="6.05171">
        <ele>873.4</ele>
        <time>2026-02-27T10:38:26</time>
      </trkpt>
      <trkpt lat="45.51422" lon="6.0517">
        <ele>873.4</ele>
        <time>2026-02-27T10:38:27</time>
      </trkpt>
      <trkpt lat="45.51422" lon="6.0517">
        <ele>873.4</ele>
        <time>2026-02-27T10:38:27</time>
      </trkpt>
      <trkpt lat="45.51421" lon="6.05169">
        <ele>873.4</ele>
        <time>2026-02-27T10:38:29</time>
      </trkpt>
      <trkpt lat="45.51421" lon="6.05167">
        <ele>875.1</ele>
        <time>2026-02-27T10:38:31</time>
      </trkpt>
      <trkpt lat="45.5142" lon="6.05165">
        <ele>875.1</ele>
        <time>2026-02-27T10:38:34</time>
      </trkpt>
      <trkpt lat="45.51417" lon="6.0516">
        <ele>876.6</ele>
        <time>2026-02-27T10:38:42</time>
      </trkpt>
      <trkpt lat="45.51417" lon="6.05159">
        <ele>876.6</ele>
        <time>2026-02-27T10:38:44</time>
      </trkpt>
      <trkpt lat="45.51416" lon="6.05157">
        <ele>879</ele>
        <time>2026-02-27T10:38:47</time>
      </trkpt>
      <trkpt lat="45.51416" lon="6.05155">
        <ele>879</ele>
        <time>2026-02-27T10:38:49</time>
      </trkpt>
      <trkpt lat="45.51416" lon="6.05153">
        <ele>879</ele>
        <time>2026-02-27T10:38:50</time>
      </trkpt>
      <trkpt lat="45.51416" lon="6.0515">
        <ele>879</ele>
        <time>2026-02-27T10:38:52</time>
      </trkpt>
      <trkpt lat="45.51416" lon="6.05144">
        <ele>878.6</ele>
        <time>2026-02-27T10:38:57</time>
      </trkpt>
      <trkpt lat="45.51416" lon="6.0514">
        <ele>878.3</ele>
        <time>2026-02-27T10:39:04</time>
      </trkpt>
      <trkpt lat="45.51416" lon="6.0514">
        <ele>878.3</ele>
        <time>2026-02-27T10:39:05</time>
      </trkpt>
      <trkpt lat="45.51415" lon="6.05138">
        <ele>878.3</ele>
        <time>2026-02-27T10:39:08</time>
      </trkpt>
      <trkpt lat="45.51415" lon="6.05136">
        <ele>876.6</ele>
        <time>2026-02-27T10:39:12</time>
      </trkpt>
      <trkpt lat="45.51413" lon="6.05131">
        <ele>877.1</ele>
        <time>2026-02-27T10:39:19</time>
      </trkpt>
      <trkpt lat="45.51412" lon="6.05131">
        <ele>877.1</ele>
        <time>2026-02-27T10:39:22</time>
      </trkpt>
      <trkpt lat="45.51411" lon="6.0513">
        <ele>877.1</ele>
        <time>2026-02-27T10:39:24</time>
      </trkpt>
      <trkpt lat="45.5141" lon="6.05129">
        <ele>877.1</ele>
        <time>2026-02-27T10:39:25</time>
      </trkpt>
      <trkpt lat="45.51407" lon="6.05125">
        <ele>880</ele>
        <time>2026-02-27T10:39:33</time>
      </trkpt>
      <trkpt lat="45.51407" lon="6.05124">
        <ele>880</ele>
        <time>2026-02-27T10:39:34</time>
      </trkpt>
      <trkpt lat="45.51407" lon="6.05123">
        <ele>880</ele>
        <time>2026-02-27T10:39:34</time>
      </trkpt>
      <trkpt lat="45.51407" lon="6.05122">
        <ele>885.6</ele>
        <time>2026-02-27T10:39:35</time>
      </trkpt>
      <trkpt lat="45.51407" lon="6.0512">
        <ele>885.6</ele>
        <time>2026-02-27T10:39:37</time>
      </trkpt>
      <trkpt lat="45.51408" lon="6.05112">
        <ele>888.2</ele>
        <time>2026-02-27T10:39:43</time>
      </trkpt>
      <trkpt lat="45.51408" lon="6.05111">
        <ele>888.2</ele>
        <time>2026-02-27T10:39:44</time>
      </trkpt>
      <trkpt lat="45.51408" lon="6.05111">
        <ele>888.2</ele>
        <time>2026-02-27T10:39:45</time>
      </trkpt>
      <trkpt lat="45.51407" lon="6.05109">
        <ele>888.2</ele>
        <time>2026-02-27T10:39:46</time>
      </trkpt>
      <trkpt lat="45.51406" lon="6.05108">
        <ele>888.2</ele>
        <time>2026-02-27T10:39:49</time>
      </trkpt>
      <trkpt lat="45.51405" lon="6.05103">
        <ele>891.1</ele>
        <time>2026-02-27T10:39:53</time>
      </trkpt>
      <trkpt lat="45.51404" lon="6.05102">
        <ele>891.1</ele>
        <time>2026-02-27T10:39:55</time>
      </trkpt>
      <trkpt lat="45.51404" lon="6.05098">
        <ele>891.1</ele>
        <time>2026-02-27T10:39:58</time>
      </trkpt>
      <trkpt lat="45.51404" lon="6.05097">
        <ele>891.1</ele>
        <time>2026-02-27T10:39:59</time>
      </trkpt>
      <trkpt lat="45.51404" lon="6.05097">
        <ele>892.1</ele>
        <time>2026-02-27T10:40:00</time>
      </trkpt>
      <trkpt lat="45.51403" lon="6.05096">
        <ele>892.1</ele>
        <time>2026-02-27T10:40:00</time>
      </trkpt>
      <trkpt lat="45.51403" lon="6.05096">
        <ele>892.1</ele>
        <time>2026-02-27T10:40:01</time>
      </trkpt>
      <trkpt lat="45.51403" lon="6.05096">
        <ele>892.1</ele>
        <time>2026-02-27T10:40:01</time>
      </trkpt>
      <trkpt lat="45.51403" lon="6.05095">
        <ele>892.1</ele>
        <time>2026-02-27T10:40:02</time>
      </trkpt>
      <trkpt lat="45.51402" lon="6.05094">
        <ele>892.1</ele>
        <time>2026-02-27T10:40:03</time>
      </trkpt>
      <trkpt lat="45.51401" lon="6.05091">
        <ele>894.86664</ele>
        <time>2026-02-27T10:40:08</time>
      </trkpt>
      <trkpt lat="45.51401" lon="6.05089">
        <ele>894.86664</ele>
        <time>2026-02-27T10:40:09</time>
      </trkpt>
      <trkpt lat="45.514" lon="6.05088">
        <ele>894.86664</ele>
        <time>2026-02-27T10:40:11</time>
      </trkpt>
      <trkpt lat="45.514" lon="6.05087">
        <ele>894.86664</ele>
        <time>2026-02-27T10:40:12</time>
      </trkpt>
      <trkpt lat="45.51399" lon="6.05084">
        <ele>894.86664</ele>
        <time>2026-02-27T10:40:14</time>
      </trkpt>
      <trkpt lat="45.51399" lon="6.05084">
        <ele>896.2</ele>
        <time>2026-02-27T10:40:15</time>
      </trkpt>
      <trkpt lat="45.51399" lon="6.05083">
        <ele>896.2</ele>
        <time>2026-02-27T10:40:16</time>
      </trkpt>
      <trkpt lat="45.51398" lon="6.05083">
        <ele>896.2</ele>
        <time>2026-02-27T10:40:16</time>
      </trkpt>
      <trkpt lat="45.51398" lon="6.05082">
        <ele>896.2</ele>
        <time>2026-02-27T10:40:17</time>
      </trkpt>
      <trkpt lat="45.51398" lon="6.05081">
        <ele>896.2</ele>
        <time>2026-02-27T10:40:18</time>
      </trkpt>
      <trkpt lat="45.51398" lon="6.0508">
        <ele>896.2</ele>
        <time>2026-02-27T10:40:20</time>
      </trkpt>
      <trkpt lat="45.51397" lon="6.0508">
        <ele>896.2</ele>
        <time>2026-02-27T10:40:21</time>
      </trkpt>
      <trkpt lat="45.51396" lon="6.05079">
        <ele>898.4</ele>
        <time>2026-02-27T10:40:22</time>
      </trkpt>
      <trkpt lat="45.51393" lon="6.05077">
        <ele>898.4</ele>
        <time>2026-02-27T10:40:27</time>
      </trkpt>
      <trkpt lat="45.51392" lon="6.05077">
        <ele>898.4</ele>
        <time>2026-02-27T10:40:28</time>
      </trkpt>
      <trkpt lat="45.5139" lon="6.05075">
        <ele>900.2</ele>
        <time>2026-02-27T10:40:31</time>
      </trkpt>
      <trkpt lat="45.51388" lon="6.05073">
        <ele>900.2</ele>
        <time>2026-02-27T10:40:35</time>
      </trkpt>
      <trkpt lat="45.51387" lon="6.05073">
        <ele>900.2</ele>
        <time>2026-02-27T10:40:36</time>
      </trkpt>
      <trkpt lat="45.51387" lon="6.05072">
        <ele>900.2</ele>
        <time>2026-02-27T10:40:36</time>
      </trkpt>
      <trkpt lat="45.51386" lon="6.05072">
        <ele>900.2</ele>
        <time>2026-02-27T10:40:37</time>
      </trkpt>
      <trkpt lat="45.51386" lon="6.05071">
        <ele>901.9</ele>
        <time>2026-02-27T10:40:38</time>
      </trkpt>
      <trkpt lat="45.51384" lon="6.05067">
        <ele>904.4</ele>
        <time>2026-02-27T10:40:45</time>
      </trkpt>
      <trkpt lat="45.51383" lon="6.05062">
        <ele>904.4</ele>
        <time>2026-02-27T10:40:51</time>
      </trkpt>
      <trkpt lat="45.51383" lon="6.05061">
        <ele>904.4</ele>
        <time>2026-02-27T10:40:52</time>
      </trkpt>
      <trkpt lat="45.51383" lon="6.05059">
        <ele>906</ele>
        <time>2026-02-27T10:40:53</time>
      </trkpt>
      <trkpt lat="45.51382" lon="6.05051">
        <ele>906</ele>
        <time>2026-02-27T10:40:58</time>
      </trkpt>
      <trkpt lat="45.51381" lon="6.05048">
        <ele>907.5333</ele>
        <time>2026-02-27T10:41:02</time>
      </trkpt>
      <trkpt lat="45.5138" lon="6.05047">
        <ele>907.5333</ele>
        <time>2026-02-27T10:41:03</time>
      </trkpt>
      <trkpt lat="45.5138" lon="6.05047">
        <ele>907.5333</ele>
        <time>2026-02-27T10:41:04</time>
      </trkpt>
      <trkpt lat="45.5138" lon="6.05046">
        <ele>907.5333</ele>
        <time>2026-02-27T10:41:05</time>
      </trkpt>
      <trkpt lat="45.5138" lon="6.05046">
        <ele>907.5333</ele>
        <time>2026-02-27T10:41:05</time>
      </trkpt>
      <trkpt lat="45.51379" lon="6.05046">
        <ele>907.5333</ele>
        <time>2026-02-27T10:41:06</time>
      </trkpt>
      <trkpt lat="45.51379" lon="6.05046">
        <ele>907.5333</ele>
        <time>2026-02-27T10:41:07</time>
      </trkpt>
      <trkpt lat="45.51379" lon="6.05046">
        <ele>907.5333</ele>
        <time>2026-02-27T10:41:08</time>
      </trkpt>
      <trkpt lat="45.51379" lon="6.05047">
        <ele>908</ele>
        <time>2026-02-27T10:41:12</time>
      </trkpt>
      <trkpt lat="45.51379" lon="6.05047">
        <ele>908</ele>
        <time>2026-02-27T10:41:14</time>
      </trkpt>
      <trkpt lat="45.5138" lon="6.05048">
        <ele>908</ele>
        <time>2026-02-27T10:41:15</time>
      </trkpt>
      <trkpt lat="45.5138" lon="6.05048">
        <ele>908</ele>
        <time>2026-02-27T10:41:16</time>
      </trkpt>
      <trkpt lat="45.51381" lon="6.05048">
        <ele>907</ele>
        <time>2026-02-27T10:41:18</time>
      </trkpt>
      <trkpt lat="45.51381" lon="6.05048">
        <ele>907</ele>
        <time>2026-02-27T10:41:19</time>
      </trkpt>
      <trkpt lat="45.51382" lon="6.05049">
        <ele>907</ele>
        <time>2026-02-27T10:41:22</time>
      </trkpt>
      <trkpt lat="45.51383" lon="6.05049">
        <ele>907.3</ele>
        <time>2026-02-27T10:41:28</time>
      </trkpt>
      <trkpt lat="45.51384" lon="6.0505">
        <ele>907.3</ele>
        <time>2026-02-27T10:41:29</time>
      </trkpt>
      <trkpt lat="45.51386" lon="6.0505">
        <ele>907.3</ele>
        <time>2026-02-27T10:41:30</time>
      </trkpt>
      <trkpt lat="45.51388" lon="6.05051">
        <ele>907.3</ele>
        <time>2026-02-27T10:41:32</time>
      </trkpt>
      <trkpt lat="45.51389" lon="6.05051">
        <ele>907.5</ele>
        <time>2026-02-27T10:41:34</time>
      </trkpt>
      <trkpt lat="45.5139" lon="6.05052">
        <ele>907.5</ele>
        <time>2026-02-27T10:41:36</time>
      </trkpt>
      <trkpt lat="45.51391" lon="6.05054">
        <ele>907.5</ele>
        <time>2026-02-27T10:41:36</time>
      </trkpt>
      <trkpt lat="45.51391" lon="6.05055">
        <ele>907.5</ele>
        <time>2026-02-27T10:41:38</time>
      </trkpt>
      <trkpt lat="45.51392" lon="6.05055">
        <ele>907.5</ele>
        <time>2026-02-27T10:41:39</time>
      </trkpt>
      <trkpt lat="45.51392" lon="6.05055">
        <ele>907.5</ele>
        <time>2026-02-27T10:41:39</time>
      </trkpt>
      <trkpt lat="45.51393" lon="6.05056">
        <ele>907.5</ele>
        <time>2026-02-27T10:41:40</time>
      </trkpt>
      <trkpt lat="45.51393" lon="6.05056">
        <ele>907.5</ele>
        <time>2026-02-27T10:41:41</time>
      </trkpt>
      <trkpt lat="45.51397" lon="6.05057">
        <ele>907.5</ele>
        <time>2026-02-27T10:41:46</time>
      </trkpt>
      <trkpt lat="45.51398" lon="6.05057">
        <ele>907.9</ele>
        <time>2026-02-27T10:41:49</time>
      </trkpt>
      <trkpt lat="45.514" lon="6.05057">
        <ele>907.9</ele>
        <time>2026-02-27T10:41:53</time>
      </trkpt>
      <trkpt lat="45.51402" lon="6.05057">
        <ele>908.6</ele>
        <time>2026-02-27T10:41:55</time>
      </trkpt>
      <trkpt lat="45.51404" lon="6.05057">
        <ele>908.6</ele>
        <time>2026-02-27T10:41:58</time>
      </trkpt>
      <trkpt lat="45.51406" lon="6.05058">
        <ele>908.6</ele>
        <time>2026-02-27T10:42:00</time>
      </trkpt>
      <trkpt lat="45.51406" lon="6.05058">
        <ele>908.6</ele>
        <time>2026-02-27T10:42:00</time>
      </trkpt>
      <trkpt lat="45.51406" lon="6.05058">
        <ele>908.6</ele>
        <time>2026-02-27T10:42:01</time>
      </trkpt>
      <trkpt lat="45.51406" lon="6.05058">
        <ele>911.5</ele>
        <time>2026-02-27T10:42:03</time>
      </trkpt>
      <trkpt lat="45.51406" lon="6.05058">
        <ele>911.5</ele>
        <time>2026-02-27T10:42:03</time>
      </trkpt>
      <trkpt lat="45.51406" lon="6.05059">
        <ele>911.5</ele>
        <time>2026-02-27T10:42:04</time>
      </trkpt>
      <trkpt lat="45.51407" lon="6.05059">
        <ele>911.5</ele>
        <time>2026-02-27T10:42:06</time>
      </trkpt>
      <trkpt lat="45.51407" lon="6.05059">
        <ele>911.5</ele>
        <time>2026-02-27T10:42:07</time>
      </trkpt>
      <trkpt lat="45.51407" lon="6.05059">
        <ele>911.5</ele>
        <time>2026-02-27T10:42:07</time>
      </trkpt>
      <trkpt lat="45.51407" lon="6.0506">
        <ele>911.5</ele>
        <time>2026-02-27T10:42:09</time>
      </trkpt>
      <trkpt lat="45.51409" lon="6.0506">
        <ele>911.7</ele>
        <time>2026-02-27T10:42:11</time>
      </trkpt>
      <trkpt lat="45.5141" lon="6.05061">
        <ele>911.7</ele>
        <time>2026-02-27T10:42:12</time>
      </trkpt>
      <trkpt lat="45.51411" lon="6.05061">
        <ele>911.7</ele>
        <time>2026-02-27T10:42:14</time>
      </trkpt>
      <trkpt lat="45.51412" lon="6.05061">
        <ele>911.7</ele>
        <time>2026-02-27T10:42:14</time>
      </trkpt>
      <trkpt lat="45.51412" lon="6.05061">
        <ele>911.7</ele>
        <time>2026-02-27T10:42:15</time>
      </trkpt>
      <trkpt lat="45.51415" lon="6.05061">
        <ele>913.5</ele>
        <time>2026-02-27T10:42:19</time>
      </trkpt>
      <trkpt lat="45.5142" lon="6.05059">
        <ele>913.5</ele>
        <time>2026-02-27T10:42:23</time>
      </trkpt>
      <trkpt lat="45.51424" lon="6.05057">
        <ele>914.2</ele>
        <time>2026-02-27T10:42:28</time>
      </trkpt>
      <trkpt lat="45.51425" lon="6.05057">
        <ele>914.2</ele>
        <time>2026-02-27T10:42:29</time>
      </trkpt>
      <trkpt lat="45.51426" lon="6.05056">
        <ele>914.2</ele>
        <time>2026-02-27T10:42:30</time>
      </trkpt>
      <trkpt lat="45.51426" lon="6.05056">
        <ele>914.2</ele>
        <time>2026-02-27T10:42:31</time>
      </trkpt>
      <trkpt lat="45.51426" lon="6.05055">
        <ele>914.2</ele>
        <time>2026-02-27T10:42:31</time>
      </trkpt>
      <trkpt lat="45.51427" lon="6.05055">
        <ele>914.2</ele>
        <time>2026-02-27T10:42:32</time>
      </trkpt>
      <trkpt lat="45.51429" lon="6.05053">
        <ele>914.2</ele>
        <time>2026-02-27T10:42:34</time>
      </trkpt>
      <trkpt lat="45.5143" lon="6.05052">
        <ele>917.5</ele>
        <time>2026-02-27T10:42:37</time>
      </trkpt>
      <trkpt lat="45.51432" lon="6.0505">
        <ele>917.5</ele>
        <time>2026-02-27T10:42:39</time>
      </trkpt>
      <trkpt lat="45.51433" lon="6.0505">
        <ele>917.5</ele>
        <time>2026-02-27T10:42:41</time>
      </trkpt>
      <trkpt lat="45.51434" lon="6.0505">
        <ele>920.63336</ele>
        <time>2026-02-27T10:42:43</time>
      </trkpt>
      <trkpt lat="45.51434" lon="6.05049">
        <ele>920.63336</ele>
        <time>2026-02-27T10:42:43</time>
      </trkpt>
      <trkpt lat="45.51435" lon="6.05048">
        <ele>920.63336</ele>
        <time>2026-02-27T10:42:47</time>
      </trkpt>
      <trkpt lat="45.51435" lon="6.05048">
        <ele>920.63336</ele>
        <time>2026-02-27T10:42:47</time>
      </trkpt>
      <trkpt lat="45.51436" lon="6.05048">
        <ele>920.63336</ele>
        <time>2026-02-27T10:42:49</time>
      </trkpt>
      <trkpt lat="45.51436" lon="6.05048">
        <ele>920.63336</ele>
        <time>2026-02-27T10:42:50</time>
      </trkpt>
      <trkpt lat="45.51436" lon="6.05048">
        <ele>920.63336</ele>
        <time>2026-02-27T10:42:51</time>
      </trkpt>
      <trkpt lat="45.51436" lon="6.05047">
        <ele>923.4667</ele>
        <time>2026-02-27T10:42:56</time>
      </trkpt>
      <trkpt lat="45.51429" lon="6.05042">
        <ele>924.3</ele>
        <time>2026-02-27T10:43:10</time>
      </trkpt>
      <trkpt lat="45.51427" lon="6.05041">
        <ele>924.3</ele>
        <time>2026-02-27T10:43:11</time>
      </trkpt>
      <trkpt lat="45.51425" lon="6.05041">
        <ele>932.1</ele>
        <time>2026-02-27T10:43:28</time>
      </trkpt>
      <trkpt lat="45.51425" lon="6.05041">
        <ele>932.1</ele>
        <time>2026-02-27T10:43:30</time>
      </trkpt>
      <trkpt lat="45.51425" lon="6.05041">
        <ele>932.1</ele>
        <time>2026-02-27T10:43:33</time>
      </trkpt>
      <trkpt lat="45.51424" lon="6.05042">
        <ele>932.1</ele>
        <time>2026-02-27T10:43:36</time>
      </trkpt>
      <trkpt lat="45.51422" lon="6.05044">
        <ele>932.1</ele>
        <time>2026-02-27T10:43:37</time>
      </trkpt>
      <trkpt lat="45.51422" lon="6.05045">
        <ele>932.1</ele>
        <time>2026-02-27T10:43:39</time>
      </trkpt>
      <trkpt lat="45.5142" lon="6.05048">
        <ele>932.6</ele>
        <time>2026-02-27T10:43:41</time>
      </trkpt>
      <trkpt lat="45.51419" lon="6.05049">
        <ele>932.6</ele>
        <time>2026-02-27T10:43:42</time>
      </trkpt>
      <trkpt lat="45.51418" lon="6.0505">
        <ele>932.6</ele>
        <time>2026-02-27T10:43:43</time>
      </trkpt>
      <trkpt lat="45.51417" lon="6.05053">
        <ele>932.6</ele>
        <time>2026-02-27T10:43:47</time>
      </trkpt>
      <trkpt lat="45.51417" lon="6.05053">
        <ele>932.6</ele>
        <time>2026-02-27T10:43:47</time>
      </trkpt>
      <trkpt lat="45.51417" lon="6.05053">
        <ele>932.6</ele>
        <time>2026-02-27T10:43:48</time>
      </trkpt>
      <trkpt lat="45.51417" lon="6.05053">
        <ele>932.6</ele>
        <time>2026-02-27T10:43:49</time>
      </trkpt>
      <trkpt lat="45.51417" lon="6.05053">
        <ele>933.6</ele>
        <time>2026-02-27T10:43:49</time>
      </trkpt>
      <trkpt lat="45.51419" lon="6.05051">
        <ele>932.2</ele>
        <time>2026-02-27T10:44:03</time>
      </trkpt>
      <trkpt lat="45.5142" lon="6.05051">
        <ele>932.2</ele>
        <time>2026-02-27T10:44:20</time>
      </trkpt>
      <trkpt lat="45.5142" lon="6.05045">
        <ele>928.8</ele>
        <time>2026-02-27T10:49:04</time>
      </trkpt>
      <trkpt lat="45.5142" lon="6.05045">
        <ele>928.8</ele>
        <time>2026-02-27T10:49:12</time>
      </trkpt>
      <trkpt lat="45.5142" lon="6.05045">
        <ele>928.8</ele>
        <time>2026-02-27T10:49:12</time>
      </trkpt>
      <trkpt lat="45.5142" lon="6.05045">
        <ele>928.8</ele>
        <time>2026-02-27T10:49:13</time>
      </trkpt>
      <trkpt lat="45.5142" lon="6.05045">
        <ele>928.8</ele>
        <time>2026-02-27T10:49:14</time>
      </trkpt>
      <trkpt lat="45.5142" lon="6.05045">
        <ele>928.8</ele>
        <time>2026-02-27T10:49:15</time>
      </trkpt>
      <trkpt lat="45.5142" lon="6.05045">
        <ele>928.8</ele>
        <time>2026-02-27T10:49:16</time>
      </trkpt>
      <trkpt lat="45.5142" lon="6.05045">
        <ele>928.8</ele>
        <time>2026-02-27T10:49:17</time>
      </trkpt>
      <trkpt lat="45.5142" lon="6.05045">
        <ele>928.8</ele>
        <time>2026-02-27T10:49:19</time>
      </trkpt>
      <trkpt lat="45.51427" lon="6.05046">
        <ele>928.8</ele>
        <time>2026-02-27T10:49:20</time>
      </trkpt>
      <trkpt lat="45.51429" lon="6.05046">
        <ele>928.8</ele>
        <time>2026-02-27T10:49:21</time>
      </trkpt>
      <trkpt lat="45.51431" lon="6.05046">
        <ele>928.8</ele>
        <time>2026-02-27T10:49:22</time>
      </trkpt>
      <trkpt lat="45.51431" lon="6.05046">
        <ele>928.8</ele>
        <time>2026-02-27T10:49:22</time>
      </trkpt>
      <trkpt lat="45.51432" lon="6.05046">
        <ele>928.8</ele>
        <time>2026-02-27T10:49:23</time>
      </trkpt>
      <trkpt lat="45.51432" lon="6.05046">
        <ele>928.8</ele>
        <time>2026-02-27T10:49:24</time>
      </trkpt>
      <trkpt lat="45.51433" lon="6.05046">
        <ele>928.8</ele>
        <time>2026-02-27T10:49:25</time>
      </trkpt>
      <trkpt lat="45.51434" lon="6.05046">
        <ele>928.8</ele>
        <time>2026-02-27T10:49:26</time>
      </trkpt>
      <trkpt lat="45.51435" lon="6.05046">
        <ele>928.8</ele>
        <time>2026-02-27T10:49:26</time>
      </trkpt>
      <trkpt lat="45.51436" lon="6.05045">
        <ele>928.8</ele>
        <time>2026-02-27T10:49:27</time>
      </trkpt>
      <trkpt lat="45.51436" lon="6.05045">
        <ele>928.8</ele>
        <time>2026-02-27T10:49:28</time>
      </trkpt>
      <trkpt lat="45.51436" lon="6.05045">
        <ele>928.8</ele>
        <time>2026-02-27T10:49:29</time>
      </trkpt>
      <trkpt lat="45.51437" lon="6.05045">
        <ele>928.8</ele>
        <time>2026-02-27T10:49:29</time>
      </trkpt>
      <trkpt lat="45.51437" lon="6.05044">
        <ele>928.7</ele>
        <time>2026-02-27T10:49:31</time>
      </trkpt>
      <trkpt lat="45.51437" lon="6.05043">
        <ele>928.7</ele>
        <time>2026-02-27T10:49:31</time>
      </trkpt>
      <trkpt lat="45.51438" lon="6.05043">
        <ele>928.7</ele>
        <time>2026-02-27T10:49:32</time>
      </trkpt>
      <trkpt lat="45.51439" lon="6.05042">
        <ele>928.7</ele>
        <time>2026-02-27T10:49:34</time>
      </trkpt>
      <trkpt lat="45.51439" lon="6.05042">
        <ele>928.7</ele>
        <time>2026-02-27T10:49:35</time>
      </trkpt>
      <trkpt lat="45.51439" lon="6.05041">
        <ele>928.7</ele>
        <time>2026-02-27T10:49:36</time>
      </trkpt>
      <trkpt lat="45.5144" lon="6.05041">
        <ele>929.6</ele>
        <time>2026-02-27T10:49:37</time>
      </trkpt>
      <trkpt lat="45.51441" lon="6.0504">
        <ele>929.6</ele>
        <time>2026-02-27T10:49:40</time>
      </trkpt>
      <trkpt lat="45.51441" lon="6.05039">
        <ele>929.6</ele>
        <time>2026-02-27T10:49:42</time>
      </trkpt>
      <trkpt lat="45.51441" lon="6.05039">
        <ele>929.6</ele>
        <time>2026-02-27T10:49:43</time>
      </trkpt>
      <trkpt lat="45.51441" lon="6.05039">
        <ele>930.7</ele>
        <time>2026-02-27T10:49:45</time>
      </trkpt>
      <trkpt lat="45.51441" lon="6.05039">
        <ele>930.7</ele>
        <time>2026-02-27T10:49:45</time>
      </trkpt>
      <trkpt lat="45.51441" lon="6.05039">
        <ele>930.7</ele>
        <time>2026-02-27T10:49:47</time>
      </trkpt>
      <trkpt lat="45.51441" lon="6.05039">
        <ele>930.7</ele>
        <time>2026-02-27T10:49:48</time>
      </trkpt>
      <trkpt lat="45.51441" lon="6.05039">
        <ele>930.7</ele>
        <time>2026-02-27T10:49:48</time>
      </trkpt>
      <trkpt lat="45.51441" lon="6.05039">
        <ele>930.7</ele>
        <time>2026-02-27T10:49:49</time>
      </trkpt>
      <trkpt lat="45.51441" lon="6.05039">
        <ele>930.7</ele>
        <time>2026-02-27T10:49:52</time>
      </trkpt>
      <trkpt lat="45.51441" lon="6.05039">
        <ele>931.3</ele>
        <time>2026-02-27T10:49:52</time>
      </trkpt>
      <trkpt lat="45.51441" lon="6.05039">
        <ele>931.3</ele>
        <time>2026-02-27T10:49:54</time>
      </trkpt>
      <trkpt lat="45.51442" lon="6.0504">
        <ele>931.3</ele>
        <time>2026-02-27T10:49:56</time>
      </trkpt>
      <trkpt lat="45.51442" lon="6.0504">
        <ele>931.3</ele>
        <time>2026-02-27T10:49:57</time>
      </trkpt>
      <trkpt lat="45.51443" lon="6.05041">
        <ele>931.3</ele>
        <time>2026-02-27T10:49:57</time>
      </trkpt>
      <trkpt lat="45.51444" lon="6.05042">
        <ele>931.3</ele>
        <time>2026-02-27T10:49:59</time>
      </trkpt>
      <trkpt lat="45.51446" lon="6.05042">
        <ele>932.36664</ele>
        <time>2026-02-27T10:50:00</time>
      </trkpt>
      <trkpt lat="45.51449" lon="6.05041">
        <ele>932.36664</ele>
        <time>2026-02-27T10:50:00</time>
      </trkpt>
      <trkpt lat="45.51454" lon="6.05042">
        <ele>932.36664</ele>
        <time>2026-02-27T10:50:04</time>
      </trkpt>
      <trkpt lat="45.51457" lon="6.05043">
        <ele>933.2</ele>
        <time>2026-02-27T10:50:09</time>
      </trkpt>
      <trkpt lat="45.51466" lon="6.05051">
        <ele>934.6</ele>
        <time>2026-02-27T10:50:22</time>
      </trkpt>
      <trkpt lat="45.51466" lon="6.05053">
        <ele>934.6</ele>
        <time>2026-02-27T10:50:24</time>
      </trkpt>
      <trkpt lat="45.51468" lon="6.05061">
        <ele>934.6</ele>
        <time>2026-02-27T10:50:29</time>
      </trkpt>
      <trkpt lat="45.51471" lon="6.05062">
        <ele>935.3</ele>
        <time>2026-02-27T10:50:32</time>
      </trkpt>
      <trkpt lat="45.51472" lon="6.05062">
        <ele>935.3</ele>
        <time>2026-02-27T10:50:34</time>
      </trkpt>
      <trkpt lat="45.51474" lon="6.05062">
        <ele>935.3</ele>
        <time>2026-02-27T10:50:35</time>
      </trkpt>
      <trkpt lat="45.51478" lon="6.05063">
        <ele>935.4</ele>
        <time>2026-02-27T10:50:39</time>
      </trkpt>
      <trkpt lat="45.51483" lon="6.05068">
        <ele>935.4</ele>
        <time>2026-02-27T10:50:46</time>
      </trkpt>
      <trkpt lat="45.51485" lon="6.05073">
        <ele>935.9</ele>
        <time>2026-02-27T10:50:48</time>
      </trkpt>
      <trkpt lat="45.51491" lon="6.05083">
        <ele>936.7</ele>
        <time>2026-02-27T10:50:58</time>
      </trkpt>
      <trkpt lat="45.51498" lon="6.05093">
        <ele>937.5</ele>
        <time>2026-02-27T10:51:09</time>
      </trkpt>
      <trkpt lat="45.51514" lon="6.05112">
        <ele>939.9</ele>
        <time>2026-02-27T10:51:29</time>
      </trkpt>
      <trkpt lat="45.51517" lon="6.05116">
        <ele>943.1</ele>
        <time>2026-02-27T10:51:36</time>
      </trkpt>
      <trkpt lat="45.51519" lon="6.05118">
        <ele>947.6</ele>
        <time>2026-02-27T10:51:40</time>
      </trkpt>
      <trkpt lat="45.51522" lon="6.05119">
        <ele>947.6</ele>
        <time>2026-02-27T10:51:43</time>
      </trkpt>
      <trkpt lat="45.51526" lon="6.05126">
        <ele>947.2</ele>
        <time>2026-02-27T10:51:48</time>
      </trkpt>
      <trkpt lat="45.51531" lon="6.05131">
        <ele>946.5</ele>
        <time>2026-02-27T10:51:53</time>
      </trkpt>
      <trkpt lat="45.51537" lon="6.05135">
        <ele>945.9</ele>
        <time>2026-02-27T10:52:00</time>
      </trkpt>
      <trkpt lat="45.51541" lon="6.05138">
        <ele>945.9</ele>
        <time>2026-02-27T10:52:06</time>
      </trkpt>
      <trkpt lat="45.51548" lon="6.05144">
        <ele>944.8</ele>
        <time>2026-02-27T10:52:15</time>
      </trkpt>
      <trkpt lat="45.51552" lon="6.05149">
        <ele>945.1</ele>
        <time>2026-02-27T10:52:21</time>
      </trkpt>
      <trkpt lat="45.51558" lon="6.05154">
        <ele>944.6</ele>
        <time>2026-02-27T10:52:32</time>
      </trkpt>
      <trkpt lat="45.51559" lon="6.05154">
        <ele>944.7</ele>
        <time>2026-02-27T10:52:32</time>
      </trkpt>
      <trkpt lat="45.51559" lon="6.05154">
        <ele>944.7</ele>
        <time>2026-02-27T10:52:33</time>
      </trkpt>
      <trkpt lat="45.5156" lon="6.05154">
        <ele>944.7</ele>
        <time>2026-02-27T10:52:34</time>
      </trkpt>
      <trkpt lat="45.5156" lon="6.05154">
        <ele>944.7</ele>
        <time>2026-02-27T10:52:35</time>
      </trkpt>
      <trkpt lat="45.51561" lon="6.05154">
        <ele>944.7</ele>
        <time>2026-02-27T10:52:36</time>
      </trkpt>
      <trkpt lat="45.51561" lon="6.05154">
        <ele>944.7</ele>
        <time>2026-02-27T10:52:37</time>
      </trkpt>
      <trkpt lat="45.5156" lon="6.05154">
        <ele>944.7</ele>
        <time>2026-02-27T10:52:38</time>
      </trkpt>
      <trkpt lat="45.5156" lon="6.05155">
        <ele>944.7</ele>
        <time>2026-02-27T10:52:40</time>
      </trkpt>
      <trkpt lat="45.5156" lon="6.05155">
        <ele>944.7</ele>
        <time>2026-02-27T10:52:41</time>
      </trkpt>
      <trkpt lat="45.51561" lon="6.05154">
        <ele>945</ele>
        <time>2026-02-27T10:52:41</time>
      </trkpt>
      <trkpt lat="45.51561" lon="6.05154">
        <ele>945</ele>
        <time>2026-02-27T10:52:42</time>
      </trkpt>
      <trkpt lat="45.51562" lon="6.05153">
        <ele>945</ele>
        <time>2026-02-27T10:52:43</time>
      </trkpt>
      <trkpt lat="45.51562" lon="6.05153">
        <ele>945</ele>
        <time>2026-02-27T10:52:44</time>
      </trkpt>
      <trkpt lat="45.51562" lon="6.05152">
        <ele>945</ele>
        <time>2026-02-27T10:52:45</time>
      </trkpt>
      <trkpt lat="45.51562" lon="6.05149">
        <ele>945</ele>
        <time>2026-02-27T10:52:47</time>
      </trkpt>
      <trkpt lat="45.51562" lon="6.05147">
        <ele>947.6</ele>
        <time>2026-02-27T10:52:49</time>
      </trkpt>
      <trkpt lat="45.51562" lon="6.05146">
        <ele>947.6</ele>
        <time>2026-02-27T10:52:50</time>
      </trkpt>
      <trkpt lat="45.51559" lon="6.05131">
        <ele>950.5</ele>
        <time>2026-02-27T10:53:01</time>
      </trkpt>
      <trkpt lat="45.51559" lon="6.05131">
        <ele>950.5</ele>
        <time>2026-02-27T10:53:02</time>
      </trkpt>
      <trkpt lat="45.51556" lon="6.05129">
        <ele>950.4</ele>
        <time>2026-02-27T10:53:06</time>
      </trkpt>
      <trkpt lat="45.51555" lon="6.05123">
        <ele>950.4</ele>
        <time>2026-02-27T10:53:11</time>
      </trkpt>
      <trkpt lat="45.51555" lon="6.05119">
        <ele>950.9</ele>
        <time>2026-02-27T10:53:14</time>
      </trkpt>
      <trkpt lat="45.51555" lon="6.05115">
        <ele>950.9</ele>
        <time>2026-02-27T10:53:17</time>
      </trkpt>
      <trkpt lat="45.51555" lon="6.05113">
        <ele>953</ele>
        <time>2026-02-27T10:53:20</time>
      </trkpt>
      <trkpt lat="45.51555" lon="6.05112">
        <ele>953</ele>
        <time>2026-02-27T10:53:21</time>
      </trkpt>
      <trkpt lat="45.51555" lon="6.05111">
        <ele>953</ele>
        <time>2026-02-27T10:53:22</time>
      </trkpt>
      <trkpt lat="45.51555" lon="6.0511">
        <ele>953</ele>
        <time>2026-02-27T10:53:23</time>
      </trkpt>
      <trkpt lat="45.51555" lon="6.05109">
        <ele>953</ele>
        <time>2026-02-27T10:53:24</time>
      </trkpt>
      <trkpt lat="45.51554" lon="6.05103">
        <ele>954.3</ele>
        <time>2026-02-27T10:53:28</time>
      </trkpt>
      <trkpt lat="45.51554" lon="6.051">
        <ele>954.3</ele>
        <time>2026-02-27T10:53:30</time>
      </trkpt>
      <trkpt lat="45.51553" lon="6.05097">
        <ele>954.3</ele>
        <time>2026-02-27T10:53:34</time>
      </trkpt>
      <trkpt lat="45.51553" lon="6.05095">
        <ele>954.1</ele>
        <time>2026-02-27T10:53:35</time>
      </trkpt>
      <trkpt lat="45.51552" lon="6.05093">
        <ele>954.1</ele>
        <time>2026-02-27T10:53:37</time>
      </trkpt>
      <trkpt lat="45.51552" lon="6.05091">
        <ele>954.1</ele>
        <time>2026-02-27T10:53:40</time>
      </trkpt>
      <trkpt lat="45.51551" lon="6.0509">
        <ele>954.1</ele>
        <time>2026-02-27T10:53:40</time>
      </trkpt>
      <trkpt lat="45.51551" lon="6.05089">
        <ele>954.1</ele>
        <time>2026-02-27T10:53:41</time>
      </trkpt>
      <trkpt lat="45.5155" lon="6.05088">
        <ele>953.7</ele>
        <time>2026-02-27T10:53:43</time>
      </trkpt>
      <trkpt lat="45.5155" lon="6.05088">
        <ele>953.7</ele>
        <time>2026-02-27T10:53:44</time>
      </trkpt>
      <trkpt lat="45.51549" lon="6.05088">
        <ele>953.7</ele>
        <time>2026-02-27T10:53:45</time>
      </trkpt>
      <trkpt lat="45.51549" lon="6.05088">
        <ele>953.7</ele>
        <time>2026-02-27T10:53:45</time>
      </trkpt>
      <trkpt lat="45.51549" lon="6.05088">
        <ele>953.7</ele>
        <time>2026-02-27T10:53:46</time>
      </trkpt>
      <trkpt lat="45.51549" lon="6.05088">
        <ele>953.7</ele>
        <time>2026-02-27T10:53:47</time>
      </trkpt>
      <trkpt lat="45.51549" lon="6.05088">
        <ele>953.7</ele>
        <time>2026-02-27T10:53:48</time>
      </trkpt>
      <trkpt lat="45.51549" lon="6.05088">
        <ele>953.7</ele>
        <time>2026-02-27T10:53:48</time>
      </trkpt>
      <trkpt lat="45.5155" lon="6.05089">
        <ele>953.7</ele>
        <time>2026-02-27T10:53:50</time>
      </trkpt>
      <trkpt lat="45.5155" lon="6.0509">
        <ele>954.1</ele>
        <time>2026-02-27T10:53:51</time>
      </trkpt>
      <trkpt lat="45.5155" lon="6.05101">
        <ele>954.8</ele>
        <time>2026-02-27T10:54:01</time>
      </trkpt>
      <trkpt lat="45.51551" lon="6.05104">
        <ele>954.8</ele>
        <time>2026-02-27T10:54:01</time>
      </trkpt>
      <trkpt lat="45.51552" lon="6.05108">
        <ele>956.6</ele>
        <time>2026-02-27T10:54:07</time>
      </trkpt>
      <trkpt lat="45.51552" lon="6.05108">
        <ele>956.6</ele>
        <time>2026-02-27T10:54:07</time>
      </trkpt>
      <trkpt lat="45.51555" lon="6.0511">
        <ele>956.6</ele>
        <time>2026-02-27T10:54:11</time>
      </trkpt>
      <trkpt lat="45.51558" lon="6.05111">
        <ele>958.4667</ele>
        <time>2026-02-27T10:54:14</time>
      </trkpt>
      <trkpt lat="45.51559" lon="6.05113">
        <ele>958.4667</ele>
        <time>2026-02-27T10:54:18</time>
      </trkpt>
      <trkpt lat="45.51565" lon="6.05119">
        <ele>959.1</ele>
        <time>2026-02-27T10:54:27</time>
      </trkpt>
      <trkpt lat="45.51571" lon="6.05124">
        <ele>964.1</ele>
        <time>2026-02-27T10:54:37</time>
      </trkpt>
      <trkpt lat="45.51581" lon="6.05129">
        <ele>966.2</ele>
        <time>2026-02-27T10:54:52</time>
      </trkpt>
      <trkpt lat="45.51582" lon="6.05131">
        <ele>966.2</ele>
        <time>2026-02-27T10:54:56</time>
      </trkpt>
      <trkpt lat="45.51582" lon="6.05132">
        <ele>966.2</ele>
        <time>2026-02-27T10:54:57</time>
      </trkpt>
      <trkpt lat="45.51583" lon="6.05133">
        <ele>966.2</ele>
        <time>2026-02-27T10:54:58</time>
      </trkpt>
      <trkpt lat="45.51584" lon="6.05134">
        <ele>967.7</ele>
        <time>2026-02-27T10:55:01</time>
      </trkpt>
      <trkpt lat="45.51584" lon="6.05135">
        <ele>967.7</ele>
        <time>2026-02-27T10:55:05</time>
      </trkpt>
      <trkpt lat="45.51584" lon="6.05136">
        <ele>969.6</ele>
        <time>2026-02-27T10:55:08</time>
      </trkpt>
      <trkpt lat="45.51584" lon="6.05136">
        <ele>969.6</ele>
        <time>2026-02-27T10:55:10</time>
      </trkpt>
      <trkpt lat="45.51584" lon="6.05136">
        <ele>969.6</ele>
        <time>2026-02-27T10:55:11</time>
      </trkpt>
      <trkpt lat="45.51584" lon="6.05136">
        <ele>969.6</ele>
        <time>2026-02-27T10:55:14</time>
      </trkpt>
      <trkpt lat="45.51583" lon="6.05136">
        <ele>970.2</ele>
        <time>2026-02-27T10:55:16</time>
      </trkpt>
      <trkpt lat="45.51584" lon="6.05136">
        <ele>970.2</ele>
        <time>2026-02-27T10:55:17</time>
      </trkpt>
      <trkpt lat="45.51584" lon="6.05136">
        <ele>970.2</ele>
        <time>2026-02-27T10:55:18</time>
      </trkpt>
      <trkpt lat="45.51584" lon="6.05136">
        <ele>970.2</ele>
        <time>2026-02-27T10:55:20</time>
      </trkpt>
      <trkpt lat="45.51584" lon="6.05135">
        <ele>970.2</ele>
        <time>2026-02-27T10:55:21</time>
      </trkpt>
      <trkpt lat="45.51584" lon="6.05135">
        <ele>970.2</ele>
        <time>2026-02-27T10:55:21</time>
      </trkpt>
      <trkpt lat="45.51583" lon="6.05135">
        <ele>970.2</ele>
        <time>2026-02-27T10:55:22</time>
      </trkpt>
      <trkpt lat="45.51583" lon="6.05135">
        <ele>970.2</ele>
        <time>2026-02-27T10:55:24</time>
      </trkpt>
      <trkpt lat="45.51583" lon="6.05135">
        <ele>970.2</ele>
        <time>2026-02-27T10:55:25</time>
      </trkpt>
      <trkpt lat="45.51583" lon="6.05135">
        <ele>970.2</ele>
        <time>2026-02-27T10:55:28</time>
      </trkpt>
      <trkpt lat="45.51584" lon="6.05134">
        <ele>970.2</ele>
        <time>2026-02-27T10:55:31</time>
      </trkpt>
      <trkpt lat="45.51586" lon="6.05127">
        <ele>970.2</ele>
        <time>2026-02-27T10:55:36</time>
      </trkpt>
      <trkpt lat="45.51588" lon="6.05119">
        <ele>973</ele>
        <time>2026-02-27T10:55:42</time>
      </trkpt>
      <trkpt lat="45.51589" lon="6.05113">
        <ele>973</ele>
        <time>2026-02-27T10:55:47</time>
      </trkpt>
      <trkpt lat="45.51589" lon="6.05112">
        <ele>973</ele>
        <time>2026-02-27T10:55:49</time>
      </trkpt>
      <trkpt lat="45.51589" lon="6.05111">
        <ele>973</ele>
        <time>2026-02-27T10:55:49</time>
      </trkpt>
      <trkpt lat="45.51589" lon="6.05111">
        <ele>970.4</ele>
        <time>2026-02-27T10:55:50</time>
      </trkpt>
      <trkpt lat="45.51589" lon="6.05111">
        <ele>970.4</ele>
        <time>2026-02-27T10:55:51</time>
      </trkpt>
      <trkpt lat="45.5159" lon="6.05111">
        <ele>970.4</ele>
        <time>2026-02-27T10:55:52</time>
      </trkpt>
      <trkpt lat="45.5159" lon="6.0511">
        <ele>970.4</ele>
        <time>2026-02-27T10:55:57</time>
      </trkpt>
      <trkpt lat="45.51588" lon="6.05112">
        <ele>980.4</ele>
        <time>2026-02-27T10:56:34</time>
      </trkpt>
      <trkpt lat="45.51589" lon="6.05111">
        <ele>980.4</ele>
        <time>2026-02-27T10:56:35</time>
      </trkpt>
      <trkpt lat="45.51589" lon="6.05111">
        <ele>980.4</ele>
        <time>2026-02-27T10:56:36</time>
      </trkpt>
      <trkpt lat="45.5159" lon="6.05114">
        <ele>978.36664</ele>
        <time>2026-02-27T10:56:41</time>
      </trkpt>
      <trkpt lat="45.51591" lon="6.05116">
        <ele>978.36664</ele>
        <time>2026-02-27T10:56:42</time>
      </trkpt>
      <trkpt lat="45.51595" lon="6.05123">
        <ele>978.3</ele>
        <time>2026-02-27T10:56:48</time>
      </trkpt>
      <trkpt lat="45.51599" lon="6.05125">
        <ele>978.3</ele>
        <time>2026-02-27T10:56:50</time>
      </trkpt>
      <trkpt lat="45.51601" lon="6.05126">
        <ele>978.3</ele>
        <time>2026-02-27T10:56:51</time>
      </trkpt>
      <trkpt lat="45.51602" lon="6.05126">
        <ele>978.3</ele>
        <time>2026-02-27T10:56:53</time>
      </trkpt>
      <trkpt lat="45.51603" lon="6.05126">
        <ele>980.06665</ele>
        <time>2026-02-27T10:56:54</time>
      </trkpt>
      <trkpt lat="45.51606" lon="6.05126">
        <ele>979.4</ele>
        <time>2026-02-27T10:57:02</time>
      </trkpt>
      <trkpt lat="45.51609" lon="6.05128">
        <ele>979.4</ele>
        <time>2026-02-27T10:57:06</time>
      </trkpt>
      <trkpt lat="45.51611" lon="6.05133">
        <ele>980.1</ele>
        <time>2026-02-27T10:57:12</time>
      </trkpt>
      <trkpt lat="45.51611" lon="6.05135">
        <ele>980.1</ele>
        <time>2026-02-27T10:57:12</time>
      </trkpt>
      <trkpt lat="45.51612" lon="6.05136">
        <ele>980.1</ele>
        <time>2026-02-27T10:57:13</time>
      </trkpt>
      <trkpt lat="45.51612" lon="6.05138">
        <ele>980.1</ele>
        <time>2026-02-27T10:57:15</time>
      </trkpt>
      <trkpt lat="45.51612" lon="6.05144">
        <ele>980.6</ele>
        <time>2026-02-27T10:57:18</time>
      </trkpt>
      <trkpt lat="45.51613" lon="6.05146">
        <ele>980.6</ele>
        <time>2026-02-27T10:57:22</time>
      </trkpt>
      <trkpt lat="45.51614" lon="6.05147">
        <ele>980.6</ele>
        <time>2026-02-27T10:57:24</time>
      </trkpt>
      <trkpt lat="45.51614" lon="6.05147">
        <ele>982.3</ele>
        <time>2026-02-27T10:57:25</time>
      </trkpt>
      <trkpt lat="45.51614" lon="6.05147">
        <ele>982.3</ele>
        <time>2026-02-27T10:57:25</time>
      </trkpt>
      <trkpt lat="45.51614" lon="6.05148">
        <ele>982.3</ele>
        <time>2026-02-27T10:57:27</time>
      </trkpt>
      <trkpt lat="45.51614" lon="6.05149">
        <ele>982.3</ele>
        <time>2026-02-27T10:57:28</time>
      </trkpt>
      <trkpt lat="45.51613" lon="6.05151">
        <ele>982.3</ele>
        <time>2026-02-27T10:57:31</time>
      </trkpt>
      <trkpt lat="45.51614" lon="6.05154">
        <ele>984.3</ele>
        <time>2026-02-27T10:57:35</time>
      </trkpt>
      <trkpt lat="45.51614" lon="6.05154">
        <ele>984.3</ele>
        <time>2026-02-27T10:57:35</time>
      </trkpt>
      <trkpt lat="45.51615" lon="6.05155">
        <ele>984.3</ele>
        <time>2026-02-27T10:57:37</time>
      </trkpt>
      <trkpt lat="45.51615" lon="6.05155">
        <ele>984.3</ele>
        <time>2026-02-27T10:57:38</time>
      </trkpt>
      <trkpt lat="45.51615" lon="6.05156">
        <ele>984.3</ele>
        <time>2026-02-27T10:57:39</time>
      </trkpt>
      <trkpt lat="45.51615" lon="6.05156">
        <ele>986.3</ele>
        <time>2026-02-27T10:57:40</time>
      </trkpt>
      <trkpt lat="45.51616" lon="6.05157">
        <ele>986.3</ele>
        <time>2026-02-27T10:57:41</time>
      </trkpt>
      <trkpt lat="45.51616" lon="6.05158">
        <ele>986.3</ele>
        <time>2026-02-27T10:57:42</time>
      </trkpt>
      <trkpt lat="45.51617" lon="6.05159">
        <ele>986.3</ele>
        <time>2026-02-27T10:57:43</time>
      </trkpt>
      <trkpt lat="45.51618" lon="6.0516">
        <ele>986.3</ele>
        <time>2026-02-27T10:57:44</time>
      </trkpt>
      <trkpt lat="45.51619" lon="6.05161">
        <ele>986.3</ele>
        <time>2026-02-27T10:57:45</time>
      </trkpt>
      <trkpt lat="45.51619" lon="6.05161">
        <ele>986.1</ele>
        <time>2026-02-27T10:57:46</time>
      </trkpt>
      <trkpt lat="45.5162" lon="6.05161">
        <ele>986.1</ele>
        <time>2026-02-27T10:57:48</time>
      </trkpt>
      <trkpt lat="45.5162" lon="6.05161">
        <ele>986.1</ele>
        <time>2026-02-27T10:57:49</time>
      </trkpt>
      <trkpt lat="45.5162" lon="6.05161">
        <ele>986.1</ele>
        <time>2026-02-27T10:57:51</time>
      </trkpt>
      <trkpt lat="45.51619" lon="6.05161">
        <ele>986.1</ele>
        <time>2026-02-27T10:57:51</time>
      </trkpt>
      <trkpt lat="45.51619" lon="6.05161">
        <ele>986.1</ele>
        <time>2026-02-27T10:57:52</time>
      </trkpt>
      <trkpt lat="45.51619" lon="6.05161">
        <ele>986.1</ele>
        <time>2026-02-27T10:57:53</time>
      </trkpt>
      <trkpt lat="45.51619" lon="6.05161">
        <ele>986.1</ele>
        <time>2026-02-27T10:57:54</time>
      </trkpt>
      <trkpt lat="45.51619" lon="6.05161">
        <ele>985.9</ele>
        <time>2026-02-27T10:58:01</time>
      </trkpt>
      <trkpt lat="45.51619" lon="6.05161">
        <ele>985.9</ele>
        <time>2026-02-27T10:58:02</time>
      </trkpt>
      <trkpt lat="45.51619" lon="6.05161">
        <ele>985.9</ele>
        <time>2026-02-27T10:58:04</time>
      </trkpt>
      <trkpt lat="45.51619" lon="6.05161">
        <ele>985.9</ele>
        <time>2026-02-27T10:58:04</time>
      </trkpt>
      <trkpt lat="45.51619" lon="6.05161">
        <ele>985.9</ele>
        <time>2026-02-27T10:58:05</time>
      </trkpt>
      <trkpt lat="45.51619" lon="6.05161">
        <ele>985.9</ele>
        <time>2026-02-27T10:58:05</time>
      </trkpt>
      <trkpt lat="45.51619" lon="6.05161">
        <ele>985.9</ele>
        <time>2026-02-27T10:58:07</time>
      </trkpt>
      <trkpt lat="45.51619" lon="6.05161">
        <ele>985.9</ele>
        <time>2026-02-27T10:58:08</time>
      </trkpt>
      <trkpt lat="45.51619" lon="6.05162">
        <ele>985.9</ele>
        <time>2026-02-27T10:58:10</time>
      </trkpt>
      <trkpt lat="45.51619" lon="6.05162">
        <ele>985.9</ele>
        <time>2026-02-27T10:58:10</time>
      </trkpt>
      <trkpt lat="45.5162" lon="6.05163">
        <ele>985.9</ele>
        <time>2026-02-27T10:58:11</time>
      </trkpt>
      <trkpt lat="45.5162" lon="6.05163">
        <ele>985.9</ele>
        <time>2026-02-27T10:58:12</time>
      </trkpt>
      <trkpt lat="45.5162" lon="6.05163">
        <ele>985.9</ele>
        <time>2026-02-27T10:58:14</time>
      </trkpt>
      <trkpt lat="45.51621" lon="6.05164">
        <ele>985.9</ele>
        <time>2026-02-27T10:58:17</time>
      </trkpt>
      <trkpt lat="45.51622" lon="6.05165">
        <ele>988.1</ele>
        <time>2026-02-27T10:58:22</time>
      </trkpt>
      <trkpt lat="45.51624" lon="6.0517">
        <ele>988.1</ele>
        <time>2026-02-27T10:58:25</time>
      </trkpt>
      <trkpt lat="45.51623" lon="6.05171">
        <ele>988.1</ele>
        <time>2026-02-27T10:58:26</time>
      </trkpt>
      <trkpt lat="45.51622" lon="6.05175">
        <ele>987.9</ele>
        <time>2026-02-27T10:58:29</time>
      </trkpt>
      <trkpt lat="45.51622" lon="6.05176">
        <ele>987.9</ele>
        <time>2026-02-27T10:58:30</time>
      </trkpt>
      <trkpt lat="45.51621" lon="6.05176">
        <ele>987.9</ele>
        <time>2026-02-27T10:58:30</time>
      </trkpt>
      <trkpt lat="45.51621" lon="6.05177">
        <ele>987.9</ele>
        <time>2026-02-27T10:58:31</time>
      </trkpt>
      <trkpt lat="45.5162" lon="6.05177">
        <ele>987.9</ele>
        <time>2026-02-27T10:58:32</time>
      </trkpt>
      <trkpt lat="45.5162" lon="6.05178">
        <ele>987.9</ele>
        <time>2026-02-27T10:58:32</time>
      </trkpt>
      <trkpt lat="45.5162" lon="6.05178">
        <ele>987.9</ele>
        <time>2026-02-27T10:58:33</time>
      </trkpt>
      <trkpt lat="45.51621" lon="6.05182">
        <ele>987.5</ele>
        <time>2026-02-27T10:58:35</time>
      </trkpt>
      <trkpt lat="45.51621" lon="6.05182">
        <ele>987.5</ele>
        <time>2026-02-27T10:58:36</time>
      </trkpt>
      <trkpt lat="45.51624" lon="6.05191">
        <ele>987.5</ele>
        <time>2026-02-27T10:58:44</time>
      </trkpt>
      <trkpt lat="45.51624" lon="6.05193">
        <ele>987.1</ele>
        <time>2026-02-27T10:58:46</time>
      </trkpt>
      <trkpt lat="45.51624" lon="6.05194">
        <ele>987.1</ele>
        <time>2026-02-27T10:58:47</time>
      </trkpt>
      <trkpt lat="45.51624" lon="6.05195">
        <ele>987.1</ele>
        <time>2026-02-27T10:58:49</time>
      </trkpt>
      <trkpt lat="45.51625" lon="6.05197">
        <ele>982.2</ele>
        <time>2026-02-27T10:58:53</time>
      </trkpt>
      <trkpt lat="45.51625" lon="6.05201">
        <ele>982.2</ele>
        <time>2026-02-27T10:58:56</time>
      </trkpt>
      <trkpt lat="45.51625" lon="6.05202">
        <ele>980.63336</ele>
        <time>2026-02-27T10:58:58</time>
      </trkpt>
      <trkpt lat="45.51625" lon="6.05203">
        <ele>980.63336</ele>
        <time>2026-02-27T10:58:59</time>
      </trkpt>
      <trkpt lat="45.51625" lon="6.05205">
        <ele>980.63336</ele>
        <time>2026-02-27T10:59:01</time>
      </trkpt>
      <trkpt lat="45.51624" lon="6.05206">
        <ele>980.63336</ele>
        <time>2026-02-27T10:59:02</time>
      </trkpt>
      <trkpt lat="45.51625" lon="6.05207">
        <ele>978.4</ele>
        <time>2026-02-27T10:59:06</time>
      </trkpt>
      <trkpt lat="45.51625" lon="6.05207">
        <ele>978.4</ele>
        <time>2026-02-27T10:59:07</time>
      </trkpt>
      <trkpt lat="45.51625" lon="6.05207">
        <ele>978.4</ele>
        <time>2026-02-27T10:59:07</time>
      </trkpt>
      <trkpt lat="45.51625" lon="6.05206">
        <ele>978.4</ele>
        <time>2026-02-27T10:59:08</time>
      </trkpt>
      <trkpt lat="45.51625" lon="6.05206">
        <ele>978.4</ele>
        <time>2026-02-27T10:59:09</time>
      </trkpt>
      <trkpt lat="45.51625" lon="6.05206">
        <ele>978.4</ele>
        <time>2026-02-27T10:59:09</time>
      </trkpt>
      <trkpt lat="45.51624" lon="6.05206">
        <ele>976.7</ele>
        <time>2026-02-27T10:59:11</time>
      </trkpt>
      <trkpt lat="45.51624" lon="6.05206">
        <ele>976.7</ele>
        <time>2026-02-27T10:59:11</time>
      </trkpt>
      <trkpt lat="45.51624" lon="6.05206">
        <ele>976.7</ele>
        <time>2026-02-27T10:59:12</time>
      </trkpt>
      <trkpt lat="45.51624" lon="6.05206">
        <ele>976.7</ele>
        <time>2026-02-27T10:59:12</time>
      </trkpt>
      <trkpt lat="45.51624" lon="6.05206">
        <ele>976.7</ele>
        <time>2026-02-27T10:59:14</time>
      </trkpt>
      <trkpt lat="45.51622" lon="6.05206">
        <ele>976.7</ele>
        <time>2026-02-27T10:59:15</time>
      </trkpt>
      <trkpt lat="45.5162" lon="6.05205">
        <ele>976.1</ele>
        <time>2026-02-27T10:59:17</time>
      </trkpt>
      <trkpt lat="45.51612" lon="6.052">
        <ele>975.6</ele>
        <time>2026-02-27T10:59:24</time>
      </trkpt>
      <trkpt lat="45.51612" lon="6.05198">
        <ele>975.6</ele>
        <time>2026-02-27T10:59:26</time>
      </trkpt>
      <trkpt lat="45.51611" lon="6.05197">
        <ele>974.9</ele>
        <time>2026-02-27T10:59:29</time>
      </trkpt>
      <trkpt lat="45.5161" lon="6.05196">
        <ele>974.9</ele>
        <time>2026-02-27T10:59:30</time>
      </trkpt>
      <trkpt lat="45.5161" lon="6.05195">
        <ele>974.9</ele>
        <time>2026-02-27T10:59:31</time>
      </trkpt>
      <trkpt lat="45.5161" lon="6.05195">
        <ele>975</ele>
        <time>2026-02-27T10:59:32</time>
      </trkpt>
      <trkpt lat="45.5161" lon="6.05196">
        <ele>975</ele>
        <time>2026-02-27T10:59:33</time>
      </trkpt>
      <trkpt lat="45.5161" lon="6.05196">
        <ele>975</ele>
        <time>2026-02-27T10:59:33</time>
      </trkpt>
      <trkpt lat="45.5161" lon="6.05197">
        <ele>975</ele>
        <time>2026-02-27T10:59:34</time>
      </trkpt>
      <trkpt lat="45.5161" lon="6.05198">
        <ele>975</ele>
        <time>2026-02-27T10:59:34</time>
      </trkpt>
      <trkpt lat="45.51613" lon="6.05207">
        <ele>975.1</ele>
        <time>2026-02-27T10:59:40</time>
      </trkpt>
      <trkpt lat="45.51614" lon="6.05209">
        <ele>975.1</ele>
        <time>2026-02-27T10:59:42</time>
      </trkpt>
      <trkpt lat="45.5162" lon="6.05215">
        <ele>974.4</ele>
        <time>2026-02-27T10:59:49</time>
      </trkpt>
      <trkpt lat="45.51622" lon="6.05221">
        <ele>968.5</ele>
        <time>2026-02-27T10:59:54</time>
      </trkpt>
      <trkpt lat="45.51625" lon="6.05227">
        <ele>966.9</ele>
        <time>2026-02-27T11:00:00</time>
      </trkpt>
      <trkpt lat="45.51626" lon="6.05229">
        <ele>966.9</ele>
        <time>2026-02-27T11:00:02</time>
      </trkpt>
      <trkpt lat="45.51626" lon="6.05229">
        <ele>966.9</ele>
        <time>2026-02-27T11:00:03</time>
      </trkpt>
      <trkpt lat="45.51627" lon="6.0523">
        <ele>966.9</ele>
        <time>2026-02-27T11:00:03</time>
      </trkpt>
      <trkpt lat="45.51629" lon="6.05233">
        <ele>964</ele>
        <time>2026-02-27T11:00:06</time>
      </trkpt>
      <trkpt lat="45.51629" lon="6.05235">
        <ele>964</ele>
        <time>2026-02-27T11:00:07</time>
      </trkpt>
      <trkpt lat="45.51629" lon="6.05236">
        <ele>964</ele>
        <time>2026-02-27T11:00:08</time>
      </trkpt>
      <trkpt lat="45.51628" lon="6.0524">
        <ele>964</ele>
        <time>2026-02-27T11:00:11</time>
      </trkpt>
      <trkpt lat="45.51629" lon="6.05243">
        <ele>960.1</ele>
        <time>2026-02-27T11:00:13</time>
      </trkpt>
      <trkpt lat="45.5163" lon="6.05246">
        <ele>960.1</ele>
        <time>2026-02-27T11:00:17</time>
      </trkpt>
      <trkpt lat="45.5163" lon="6.05247">
        <ele>960.1</ele>
        <time>2026-02-27T11:00:17</time>
      </trkpt>
      <trkpt lat="45.5163" lon="6.05249">
        <ele>957.7</ele>
        <time>2026-02-27T11:00:20</time>
      </trkpt>
      <trkpt lat="45.5163" lon="6.0525">
        <ele>957.7</ele>
        <time>2026-02-27T11:00:21</time>
      </trkpt>
      <trkpt lat="45.51631" lon="6.05251">
        <ele>957.7</ele>
        <time>2026-02-27T11:00:22</time>
      </trkpt>
      <trkpt lat="45.51631" lon="6.05254">
        <ele>957.7</ele>
        <time>2026-02-27T11:00:25</time>
      </trkpt>
      <trkpt lat="45.51631" lon="6.05256">
        <ele>955.13336</ele>
        <time>2026-02-27T11:00:28</time>
      </trkpt>
      <trkpt lat="45.51631" lon="6.05258">
        <ele>955.13336</ele>
        <time>2026-02-27T11:00:29</time>
      </trkpt>
      <trkpt lat="45.51631" lon="6.05261">
        <ele>955.13336</ele>
        <time>2026-02-27T11:00:31</time>
      </trkpt>
      <trkpt lat="45.51632" lon="6.05267">
        <ele>954.76666</ele>
        <time>2026-02-27T11:00:35</time>
      </trkpt>
      <trkpt lat="45.51632" lon="6.05269">
        <ele>954.76666</ele>
        <time>2026-02-27T11:00:36</time>
      </trkpt>
      <trkpt lat="45.51635" lon="6.05274">
        <ele>953.3</ele>
        <time>2026-02-27T11:00:40</time>
      </trkpt>
      <trkpt lat="45.51635" lon="6.05276">
        <ele>953.3</ele>
        <time>2026-02-27T11:00:42</time>
      </trkpt>
      <trkpt lat="45.51636" lon="6.05277">
        <ele>953.3</ele>
        <time>2026-02-27T11:00:43</time>
      </trkpt>
      <trkpt lat="45.51639" lon="6.0528">
        <ele>953.3</ele>
        <time>2026-02-27T11:00:46</time>
      </trkpt>
      <trkpt lat="45.51643" lon="6.05281">
        <ele>951.8</ele>
        <time>2026-02-27T11:00:49</time>
      </trkpt>
      <trkpt lat="45.51644" lon="6.05282">
        <ele>951.8</ele>
        <time>2026-02-27T11:00:50</time>
      </trkpt>
      <trkpt lat="45.51644" lon="6.05284">
        <ele>951.8</ele>
        <time>2026-02-27T11:00:50</time>
      </trkpt>
      <trkpt lat="45.51644" lon="6.05284">
        <ele>951.8</ele>
        <time>2026-02-27T11:00:51</time>
      </trkpt>
      <trkpt lat="45.51643" lon="6.05287">
        <ele>951.8</ele>
        <time>2026-02-27T11:00:52</time>
      </trkpt>
      <trkpt lat="45.51642" lon="6.0529">
        <ele>949.7</ele>
        <time>2026-02-27T11:00:55</time>
      </trkpt>
      <trkpt lat="45.51642" lon="6.0529">
        <ele>949.7</ele>
        <time>2026-02-27T11:00:55</time>
      </trkpt>
      <trkpt lat="45.51642" lon="6.05291">
        <ele>949.7</ele>
        <time>2026-02-27T11:00:56</time>
      </trkpt>
      <trkpt lat="45.51642" lon="6.05292">
        <ele>949.7</ele>
        <time>2026-02-27T11:00:57</time>
      </trkpt>
      <trkpt lat="45.51645" lon="6.053">
        <ele>948.5</ele>
        <time>2026-02-27T11:01:01</time>
      </trkpt>
      <trkpt lat="45.51645" lon="6.053">
        <ele>948.5</ele>
        <time>2026-02-27T11:01:02</time>
      </trkpt>
      <trkpt lat="45.51646" lon="6.053">
        <ele>948.5</ele>
        <time>2026-02-27T11:01:03</time>
      </trkpt>
      <trkpt lat="45.51652" lon="6.05302">
        <ele>948.5</ele>
        <time>2026-02-27T11:01:07</time>
      </trkpt>
      <trkpt lat="45.51658" lon="6.05304">
        <ele>945.63336</ele>
        <time>2026-02-27T11:01:14</time>
      </trkpt>
      <trkpt lat="45.5166" lon="6.05305">
        <ele>945.63336</ele>
        <time>2026-02-27T11:01:16</time>
      </trkpt>
      <trkpt lat="45.5166" lon="6.05306">
        <ele>945.63336</ele>
        <time>2026-02-27T11:01:17</time>
      </trkpt>
      <trkpt lat="45.51661" lon="6.05306">
        <ele>945.63336</ele>
        <time>2026-02-27T11:01:17</time>
      </trkpt>
      <trkpt lat="45.51661" lon="6.05307">
        <ele>945.63336</ele>
        <time>2026-02-27T11:01:19</time>
      </trkpt>
      <trkpt lat="45.51661" lon="6.05309">
        <ele>944.9</ele>
        <time>2026-02-27T11:01:20</time>
      </trkpt>
      <trkpt lat="45.51661" lon="6.05309">
        <ele>944.9</ele>
        <time>2026-02-27T11:01:21</time>
      </trkpt>
      <trkpt lat="45.51661" lon="6.0531">
        <ele>944.9</ele>
        <time>2026-02-27T11:01:22</time>
      </trkpt>
      <trkpt lat="45.5166" lon="6.0531">
        <ele>944.9</ele>
        <time>2026-02-27T11:01:22</time>
      </trkpt>
      <trkpt lat="45.51661" lon="6.05311">
        <ele>944.9</ele>
        <time>2026-02-27T11:01:23</time>
      </trkpt>
      <trkpt lat="45.51662" lon="6.05311">
        <ele>944.9</ele>
        <time>2026-02-27T11:01:24</time>
      </trkpt>
      <trkpt lat="45.51665" lon="6.05316">
        <ele>950.4667</ele>
        <time>2026-02-27T11:01:30</time>
      </trkpt>
      <trkpt lat="45.51665" lon="6.05316">
        <ele>950.4667</ele>
        <time>2026-02-27T11:01:30</time>
      </trkpt>
      <trkpt lat="45.51665" lon="6.05316">
        <ele>950.4667</ele>
        <time>2026-02-27T11:01:31</time>
      </trkpt>
      <trkpt lat="45.51665" lon="6.05316">
        <ele>950.4667</ele>
        <time>2026-02-27T11:01:32</time>
      </trkpt>
      <trkpt lat="45.51665" lon="6.05316">
        <ele>950.4667</ele>
        <time>2026-02-27T11:01:33</time>
      </trkpt>
      <trkpt lat="45.51666" lon="6.05317">
        <ele>951.8</ele>
        <time>2026-02-27T11:01:36</time>
      </trkpt>
      <trkpt lat="45.51667" lon="6.05318">
        <ele>951.8</ele>
        <time>2026-02-27T11:01:38</time>
      </trkpt>
      <trkpt lat="45.51669" lon="6.0532">
        <ele>951.8</ele>
        <time>2026-02-27T11:01:39</time>
      </trkpt>
      <trkpt lat="45.51671" lon="6.05322">
        <ele>951.8</ele>
        <time>2026-02-27T11:01:41</time>
      </trkpt>
      <trkpt lat="45.51679" lon="6.05334">
        <ele>952</ele>
        <time>2026-02-27T11:01:53</time>
      </trkpt>
      <trkpt lat="45.5168" lon="6.05336">
        <ele>952</ele>
        <time>2026-02-27T11:01:55</time>
      </trkpt>
      <trkpt lat="45.5168" lon="6.05338">
        <ele>951.9</ele>
        <time>2026-02-27T11:01:56</time>
      </trkpt>
      <trkpt lat="45.51682" lon="6.05342">
        <ele>951.9</ele>
        <time>2026-02-27T11:01:59</time>
      </trkpt>
      <trkpt lat="45.51683" lon="6.05347">
        <ele>951.5</ele>
        <time>2026-02-27T11:02:02</time>
      </trkpt>
      <trkpt lat="45.51684" lon="6.05351">
        <ele>951.5</ele>
        <time>2026-02-27T11:02:04</time>
      </trkpt>
      <trkpt lat="45.51684" lon="6.05353">
        <ele>951.5</ele>
        <time>2026-02-27T11:02:06</time>
      </trkpt>
      <trkpt lat="45.51686" lon="6.05359">
        <ele>950.4667</ele>
        <time>2026-02-27T11:02:12</time>
      </trkpt>
      <trkpt lat="45.51686" lon="6.0536">
        <ele>950.4667</ele>
        <time>2026-02-27T11:02:13</time>
      </trkpt>
      <trkpt lat="45.51686" lon="6.05361">
        <ele>950.4667</ele>
        <time>2026-02-27T11:02:13</time>
      </trkpt>
      <trkpt lat="45.51686" lon="6.05369">
        <ele>950.56665</ele>
        <time>2026-02-27T11:02:19</time>
      </trkpt>
      <trkpt lat="45.51686" lon="6.0537">
        <ele>950.56665</ele>
        <time>2026-02-27T11:02:19</time>
      </trkpt>
      <trkpt lat="45.51688" lon="6.05377">
        <ele>950.93335</ele>
        <time>2026-02-27T11:02:25</time>
      </trkpt>
      <trkpt lat="45.51688" lon="6.05379">
        <ele>950.93335</ele>
        <time>2026-02-27T11:02:27</time>
      </trkpt>
      <trkpt lat="45.51688" lon="6.0538">
        <ele>950.93335</ele>
        <time>2026-02-27T11:02:27</time>
      </trkpt>
      <trkpt lat="45.51688" lon="6.05381">
        <ele>950.93335</ele>
        <time>2026-02-27T11:02:29</time>
      </trkpt>
      <trkpt lat="45.51688" lon="6.0539">
        <ele>953.5</ele>
        <time>2026-02-27T11:02:38</time>
      </trkpt>
      <trkpt lat="45.51688" lon="6.05399">
        <ele>957.1</ele>
        <time>2026-02-27T11:02:46</time>
      </trkpt>
      <trkpt lat="45.51688" lon="6.054">
        <ele>957.1</ele>
        <time>2026-02-27T11:02:46</time>
      </trkpt>
      <trkpt lat="45.51687" lon="6.05401">
        <ele>957.1</ele>
        <time>2026-02-27T11:02:47</time>
      </trkpt>
      <trkpt lat="45.51685" lon="6.0541">
        <ele>958.9</ele>
        <time>2026-02-27T11:02:52</time>
      </trkpt>
      <trkpt lat="45.51685" lon="6.05411">
        <ele>958.9</ele>
        <time>2026-02-27T11:02:53</time>
      </trkpt>
      <trkpt lat="45.51686" lon="6.05413">
        <ele>958.9</ele>
        <time>2026-02-27T11:02:54</time>
      </trkpt>
      <trkpt lat="45.51686" lon="6.05415">
        <ele>958.9</ele>
        <time>2026-02-27T11:02:56</time>
      </trkpt>
      <trkpt lat="45.51689" lon="6.05424">
        <ele>960</ele>
        <time>2026-02-27T11:03:01</time>
      </trkpt>
      <trkpt lat="45.51688" lon="6.05426">
        <ele>960</ele>
        <time>2026-02-27T11:03:02</time>
      </trkpt>
      <trkpt lat="45.51689" lon="6.05432">
        <ele>960</ele>
        <time>2026-02-27T11:03:07</time>
      </trkpt>
      <trkpt lat="45.51689" lon="6.05432">
        <ele>962.2</ele>
        <time>2026-02-27T11:03:08</time>
      </trkpt>
      <trkpt lat="45.5169" lon="6.05433">
        <ele>962.2</ele>
        <time>2026-02-27T11:03:09</time>
      </trkpt>
      <trkpt lat="45.5169" lon="6.05433">
        <ele>962.2</ele>
        <time>2026-02-27T11:03:10</time>
      </trkpt>
      <trkpt lat="45.5169" lon="6.05432">
        <ele>962.2</ele>
        <time>2026-02-27T11:03:10</time>
      </trkpt>
      <trkpt lat="45.5169" lon="6.05432">
        <ele>962.2</ele>
        <time>2026-02-27T11:03:11</time>
      </trkpt>
      <trkpt lat="45.51691" lon="6.05431">
        <ele>962.2</ele>
        <time>2026-02-27T11:03:13</time>
      </trkpt>
      <trkpt lat="45.51691" lon="6.0543">
        <ele>962.2</ele>
        <time>2026-02-27T11:03:13</time>
      </trkpt>
      <trkpt lat="45.51691" lon="6.05428">
        <ele>962.2</ele>
        <time>2026-02-27T11:03:15</time>
      </trkpt>
      <trkpt lat="45.51692" lon="6.05427">
        <ele>963.9</ele>
        <time>2026-02-27T11:03:17</time>
      </trkpt>
      <trkpt lat="45.51693" lon="6.05426">
        <ele>963.9</ele>
        <time>2026-02-27T11:03:18</time>
      </trkpt>
      <trkpt lat="45.51695" lon="6.05422">
        <ele>963.9</ele>
        <time>2026-02-27T11:03:22</time>
      </trkpt>
      <trkpt lat="45.51696" lon="6.05419">
        <ele>966</ele>
        <time>2026-02-27T11:03:26</time>
      </trkpt>
      <trkpt lat="45.51696" lon="6.05416">
        <ele>966</ele>
        <time>2026-02-27T11:03:29</time>
      </trkpt>
      <trkpt lat="45.51696" lon="6.05412">
        <ele>967.6</ele>
        <time>2026-02-27T11:03:33</time>
      </trkpt>
      <trkpt lat="45.51698" lon="6.05409">
        <ele>967.6</ele>
        <time>2026-02-27T11:03:38</time>
      </trkpt>
      <trkpt lat="45.51697" lon="6.05406">
        <ele>969.3</ele>
        <time>2026-02-27T11:03:41</time>
      </trkpt>
      <trkpt lat="45.51697" lon="6.05405">
        <ele>969.3</ele>
        <time>2026-02-27T11:03:42</time>
      </trkpt>
      <trkpt lat="45.51698" lon="6.05405">
        <ele>969.3</ele>
        <time>2026-02-27T11:03:43</time>
      </trkpt>
      <trkpt lat="45.51697" lon="6.05405">
        <ele>969.3</ele>
        <time>2026-02-27T11:03:43</time>
      </trkpt>
      <trkpt lat="45.51697" lon="6.05405">
        <ele>969.3</ele>
        <time>2026-02-27T11:03:44</time>
      </trkpt>
      <trkpt lat="45.51697" lon="6.05406">
        <ele>969.3</ele>
        <time>2026-02-27T11:03:44</time>
      </trkpt>
      <trkpt lat="45.51697" lon="6.05407">
        <ele>969.3</ele>
        <time>2026-02-27T11:03:46</time>
      </trkpt>
      <trkpt lat="45.51697" lon="6.05407">
        <ele>969.3</ele>
        <time>2026-02-27T11:03:47</time>
      </trkpt>
      <trkpt lat="45.51697" lon="6.05408">
        <ele>966.6</ele>
        <time>2026-02-27T11:03:49</time>
      </trkpt>
      <trkpt lat="45.51697" lon="6.05408">
        <ele>966.6</ele>
        <time>2026-02-27T11:03:50</time>
      </trkpt>
      <trkpt lat="45.51697" lon="6.05409">
        <ele>966.6</ele>
        <time>2026-02-27T11:03:51</time>
      </trkpt>
      <trkpt lat="45.51697" lon="6.05409">
        <ele>966.6</ele>
        <time>2026-02-27T11:03:53</time>
      </trkpt>
      <trkpt lat="45.51698" lon="6.0541">
        <ele>966.6</ele>
        <time>2026-02-27T11:03:54</time>
      </trkpt>
      <trkpt lat="45.51699" lon="6.05411">
        <ele>966.6</ele>
        <time>2026-02-27T11:03:56</time>
      </trkpt>
      <trkpt lat="45.517" lon="6.05411">
        <ele>965.1</ele>
        <time>2026-02-27T11:03:56</time>
      </trkpt>
      <trkpt lat="45.517" lon="6.05412">
        <ele>965.1</ele>
        <time>2026-02-27T11:03:57</time>
      </trkpt>
      <trkpt lat="45.51703" lon="6.05417">
        <ele>965.1</ele>
        <time>2026-02-27T11:04:03</time>
      </trkpt>
      <trkpt lat="45.51704" lon="6.0542">
        <ele>966.1</ele>
        <time>2026-02-27T11:04:06</time>
      </trkpt>
      <trkpt lat="45.51704" lon="6.05424">
        <ele>966.1</ele>
        <time>2026-02-27T11:04:10</time>
      </trkpt>
      <trkpt lat="45.51706" lon="6.05432">
        <ele>968.1</ele>
        <time>2026-02-27T11:04:16</time>
      </trkpt>
      <trkpt lat="45.51707" lon="6.05438">
        <ele>968.1</ele>
        <time>2026-02-27T11:04:20</time>
      </trkpt>
      <trkpt lat="45.51707" lon="6.0544">
        <ele>972.2</ele>
        <time>2026-02-27T11:04:22</time>
      </trkpt>
      <trkpt lat="45.51707" lon="6.05442">
        <ele>972.2</ele>
        <time>2026-02-27T11:04:23</time>
      </trkpt>
      <trkpt lat="45.51707" lon="6.05443">
        <ele>972.2</ele>
        <time>2026-02-27T11:04:24</time>
      </trkpt>
      <trkpt lat="45.51706" lon="6.05443">
        <ele>972.2</ele>
        <time>2026-02-27T11:04:25</time>
      </trkpt>
      <trkpt lat="45.51705" lon="6.05444">
        <ele>972.2</ele>
        <time>2026-02-27T11:04:28</time>
      </trkpt>
      <trkpt lat="45.51705" lon="6.05446">
        <ele>974.5</ele>
        <time>2026-02-27T11:04:30</time>
      </trkpt>
      <trkpt lat="45.51705" lon="6.05446">
        <ele>974.5</ele>
        <time>2026-02-27T11:04:31</time>
      </trkpt>
      <trkpt lat="45.51706" lon="6.0545">
        <ele>974.5</ele>
        <time>2026-02-27T11:04:33</time>
      </trkpt>
      <trkpt lat="45.51707" lon="6.05453">
        <ele>974.5</ele>
        <time>2026-02-27T11:04:36</time>
      </trkpt>
      <trkpt lat="45.51709" lon="6.05456">
        <ele>976.2</ele>
        <time>2026-02-27T11:04:38</time>
      </trkpt>
      <trkpt lat="45.5171" lon="6.05457">
        <ele>976.2</ele>
        <time>2026-02-27T11:04:38</time>
      </trkpt>
      <trkpt lat="45.51712" lon="6.05458">
        <ele>976.2</ele>
        <time>2026-02-27T11:04:40</time>
      </trkpt>
      <trkpt lat="45.51715" lon="6.05461">
        <ele>976.2</ele>
        <time>2026-02-27T11:04:45</time>
      </trkpt>
      <trkpt lat="45.51715" lon="6.05462">
        <ele>976</ele>
        <time>2026-02-27T11:04:46</time>
      </trkpt>
      <trkpt lat="45.51715" lon="6.05464">
        <ele>976</ele>
        <time>2026-02-27T11:04:47</time>
      </trkpt>
      <trkpt lat="45.51715" lon="6.05466">
        <ele>976</ele>
        <time>2026-02-27T11:04:49</time>
      </trkpt>
      <trkpt lat="45.51715" lon="6.05467">
        <ele>976</ele>
        <time>2026-02-27T11:04:51</time>
      </trkpt>
      <trkpt lat="45.51716" lon="6.05469">
        <ele>976.8</ele>
        <time>2026-02-27T11:04:54</time>
      </trkpt>
      <trkpt lat="45.51716" lon="6.05469">
        <ele>976.8</ele>
        <time>2026-02-27T11:04:56</time>
      </trkpt>
      <trkpt lat="45.51716" lon="6.05469">
        <ele>976.8</ele>
        <time>2026-02-27T11:04:57</time>
      </trkpt>
      <trkpt lat="45.51717" lon="6.05469">
        <ele>976.8</ele>
        <time>2026-02-27T11:04:58</time>
      </trkpt>
      <trkpt lat="45.51717" lon="6.05469">
        <ele>976.8</ele>
        <time>2026-02-27T11:04:58</time>
      </trkpt>
      <trkpt lat="45.51717" lon="6.05468">
        <ele>976.8</ele>
        <time>2026-02-27T11:04:59</time>
      </trkpt>
      <trkpt lat="45.51717" lon="6.05467">
        <ele>976.8</ele>
        <time>2026-02-27T11:05:00</time>
      </trkpt>
      <trkpt lat="45.51716" lon="6.05466">
        <ele>979.23334</ele>
        <time>2026-02-27T11:05:01</time>
      </trkpt>
      <trkpt lat="45.51716" lon="6.05466">
        <ele>979.23334</ele>
        <time>2026-02-27T11:05:02</time>
      </trkpt>
      <trkpt lat="45.51716" lon="6.05463">
        <ele>979.23334</ele>
        <time>2026-02-27T11:05:06</time>
      </trkpt>
      <trkpt lat="45.51716" lon="6.05461">
        <ele>981.2</ele>
        <time>2026-02-27T11:05:09</time>
      </trkpt>
      <trkpt lat="45.51716" lon="6.05461">
        <ele>981.2</ele>
        <time>2026-02-27T11:05:10</time>
      </trkpt>
      <trkpt lat="45.5172" lon="6.05454">
        <ele>981.2</ele>
        <time>2026-02-27T11:05:15</time>
      </trkpt>
      <trkpt lat="45.51722" lon="6.0545">
        <ele>984.1</ele>
        <time>2026-02-27T11:05:18</time>
      </trkpt>
      <trkpt lat="45.51723" lon="6.05449">
        <ele>984.1</ele>
        <time>2026-02-27T11:05:20</time>
      </trkpt>
      <trkpt lat="45.51723" lon="6.05447">
        <ele>984.1</ele>
        <time>2026-02-27T11:05:24</time>
      </trkpt>
      <trkpt lat="45.51722" lon="6.05447">
        <ele>986.8</ele>
        <time>2026-02-27T11:05:28</time>
      </trkpt>
      <trkpt lat="45.51724" lon="6.05446">
        <ele>987.1</ele>
        <time>2026-02-27T11:06:32</time>
      </trkpt>
      <trkpt lat="45.51725" lon="6.05447">
        <ele>987.1</ele>
        <time>2026-02-27T11:06:33</time>
      </trkpt>
      <trkpt lat="45.51725" lon="6.05448">
        <ele>987.1</ele>
        <time>2026-02-27T11:06:35</time>
      </trkpt>
      <trkpt lat="45.51724" lon="6.05449">
        <ele>987.1</ele>
        <time>2026-02-27T11:06:35</time>
      </trkpt>
      <trkpt lat="45.51724" lon="6.0545">
        <ele>987.1</ele>
        <time>2026-02-27T11:06:36</time>
      </trkpt>
      <trkpt lat="45.51725" lon="6.05453">
        <ele>987.1</ele>
        <time>2026-02-27T11:06:40</time>
      </trkpt>
      <trkpt lat="45.51725" lon="6.05454">
        <ele>990.7</ele>
        <time>2026-02-27T11:06:43</time>
      </trkpt>
      <trkpt lat="45.5173" lon="6.05463">
        <ele>991</ele>
        <time>2026-02-27T11:06:55</time>
      </trkpt>
      <trkpt lat="45.5173" lon="6.05464">
        <ele>991</ele>
        <time>2026-02-27T11:06:55</time>
      </trkpt>
      <trkpt lat="45.51731" lon="6.05464">
        <ele>991</ele>
        <time>2026-02-27T11:06:57</time>
      </trkpt>
      <trkpt lat="45.51731" lon="6.05465">
        <ele>991.5</ele>
        <time>2026-02-27T11:06:59</time>
      </trkpt>
      <trkpt lat="45.51732" lon="6.05465">
        <ele>991.5</ele>
        <time>2026-02-27T11:07:00</time>
      </trkpt>
      <trkpt lat="45.51733" lon="6.05465">
        <ele>991.5</ele>
        <time>2026-02-27T11:07:03</time>
      </trkpt>
      <trkpt lat="45.51735" lon="6.05465">
        <ele>993.23334</ele>
        <time>2026-02-27T11:07:06</time>
      </trkpt>
      <trkpt lat="45.51737" lon="6.05465">
        <ele>993.23334</ele>
        <time>2026-02-27T11:07:07</time>
      </trkpt>
      <trkpt lat="45.51738" lon="6.05466">
        <ele>993.23334</ele>
        <time>2026-02-27T11:07:09</time>
      </trkpt>
      <trkpt lat="45.51739" lon="6.05466">
        <ele>993.23334</ele>
        <time>2026-02-27T11:07:10</time>
      </trkpt>
      <trkpt lat="45.5174" lon="6.05468">
        <ele>995.2</ele>
        <time>2026-02-27T11:07:13</time>
      </trkpt>
      <trkpt lat="45.5174" lon="6.05469">
        <ele>995.2</ele>
        <time>2026-02-27T11:07:14</time>
      </trkpt>
      <trkpt lat="45.51742" lon="6.05473">
        <ele>995.2</ele>
        <time>2026-02-27T11:07:19</time>
      </trkpt>
      <trkpt lat="45.51742" lon="6.05476">
        <ele>996.5</ele>
        <time>2026-02-27T11:07:23</time>
      </trkpt>
      <trkpt lat="45.51743" lon="6.05478">
        <ele>996.5</ele>
        <time>2026-02-27T11:07:27</time>
      </trkpt>
      <trkpt lat="45.51746" lon="6.05494">
        <ele>999.9</ele>
        <time>2026-02-27T11:07:39</time>
      </trkpt>
      <trkpt lat="45.5175" lon="6.05504">
        <ele>1001</ele>
        <time>2026-02-27T11:07:54</time>
      </trkpt>
      <trkpt lat="45.5175" lon="6.05506">
        <ele>1001</ele>
        <time>2026-02-27T11:07:55</time>
      </trkpt>
      <trkpt lat="45.51751" lon="6.05518">
        <ele>1001.8</ele>
        <time>2026-02-27T11:08:07</time>
      </trkpt>
      <trkpt lat="45.51751" lon="6.05519">
        <ele>1004.2</ele>
        <time>2026-02-27T11:08:08</time>
      </trkpt>
      <trkpt lat="45.51752" lon="6.05521">
        <ele>1004.2</ele>
        <time>2026-02-27T11:08:12</time>
      </trkpt>
      <trkpt lat="45.51752" lon="6.05521">
        <ele>1004.2</ele>
        <time>2026-02-27T11:08:13</time>
      </trkpt>
      <trkpt lat="45.51753" lon="6.05527">
        <ele>1007.2</ele>
        <time>2026-02-27T11:08:21</time>
      </trkpt>
      <trkpt lat="45.51756" lon="6.05532">
        <ele>1012.1</ele>
        <time>2026-02-27T11:08:35</time>
      </trkpt>
      <trkpt lat="45.51756" lon="6.05532">
        <ele>1012.1</ele>
        <time>2026-02-27T11:08:36</time>
      </trkpt>
      <trkpt lat="45.51756" lon="6.05532">
        <ele>1012.1</ele>
        <time>2026-02-27T11:08:37</time>
      </trkpt>
      <trkpt lat="45.51756" lon="6.05531">
        <ele>1012.1</ele>
        <time>2026-02-27T11:08:37</time>
      </trkpt>
      <trkpt lat="45.51756" lon="6.05531">
        <ele>1012.1</ele>
        <time>2026-02-27T11:08:38</time>
      </trkpt>
      <trkpt lat="45.51756" lon="6.05531">
        <ele>1012.1</ele>
        <time>2026-02-27T11:08:39</time>
      </trkpt>
      <trkpt lat="45.51756" lon="6.05531">
        <ele>1012.1</ele>
        <time>2026-02-27T11:08:41</time>
      </trkpt>
      <trkpt lat="45.51756" lon="6.05531">
        <ele>1012.9</ele>
        <time>2026-02-27T11:08:42</time>
      </trkpt>
      <trkpt lat="45.51756" lon="6.05531">
        <ele>1012.9</ele>
        <time>2026-02-27T11:08:45</time>
      </trkpt>
      <trkpt lat="45.51756" lon="6.05531">
        <ele>1012.9</ele>
        <time>2026-02-27T11:08:46</time>
      </trkpt>
      <trkpt lat="45.51756" lon="6.05531">
        <ele>1012.9</ele>
        <time>2026-02-27T11:08:49</time>
      </trkpt>
      <trkpt lat="45.51756" lon="6.05531">
        <ele>1012.9</ele>
        <time>2026-02-27T11:08:50</time>
      </trkpt>
      <trkpt lat="45.51756" lon="6.0553">
        <ele>1012.9</ele>
        <time>2026-02-27T11:08:52</time>
      </trkpt>
      <trkpt lat="45.51766" lon="6.05538">
        <ele>1012.9</ele>
        <time>2026-02-27T11:08:52</time>
      </trkpt>
      <trkpt lat="45.51768" lon="6.05539">
        <ele>1012.9</ele>
        <time>2026-02-27T11:08:53</time>
      </trkpt>
      <trkpt lat="45.51768" lon="6.05539">
        <ele>1012.9</ele>
        <time>2026-02-27T11:08:54</time>
      </trkpt>
      <trkpt lat="45.51768" lon="6.05539">
        <ele>1012.9</ele>
        <time>2026-02-27T11:08:56</time>
      </trkpt>
      <trkpt lat="45.51769" lon="6.05539">
        <ele>1012.9</ele>
        <time>2026-02-27T11:08:56</time>
      </trkpt>
      <trkpt lat="45.51769" lon="6.05538">
        <ele>1009.1</ele>
        <time>2026-02-27T11:08:57</time>
      </trkpt>
      <trkpt lat="45.51769" lon="6.05537">
        <ele>1009.1</ele>
        <time>2026-02-27T11:08:58</time>
      </trkpt>
      <trkpt lat="45.51769" lon="6.05536">
        <ele>1009.1</ele>
        <time>2026-02-27T11:08:59</time>
      </trkpt>
      <trkpt lat="45.51769" lon="6.05535">
        <ele>1009.1</ele>
        <time>2026-02-27T11:09:01</time>
      </trkpt>
      <trkpt lat="45.51769" lon="6.05533">
        <ele>1006.9667</ele>
        <time>2026-02-27T11:09:05</time>
      </trkpt>
      <trkpt lat="45.51769" lon="6.05527">
        <ele>1006.9667</ele>
        <time>2026-02-27T11:09:09</time>
      </trkpt>
      <trkpt lat="45.51769" lon="6.05521">
        <ele>1006.9667</ele>
        <time>2026-02-27T11:09:12</time>
      </trkpt>
      <trkpt lat="45.5177" lon="6.05511">
        <ele>1006.8</ele>
        <time>2026-02-27T11:09:18</time>
      </trkpt>
      <trkpt lat="45.5177" lon="6.05504">
        <ele>1008.6</ele>
        <time>2026-02-27T11:09:23</time>
      </trkpt>
      <trkpt lat="45.51771" lon="6.05496">
        <ele>1009.0333</ele>
        <time>2026-02-27T11:09:31</time>
      </trkpt>
      <trkpt lat="45.51771" lon="6.05496">
        <ele>1009.0333</ele>
        <time>2026-02-27T11:09:32</time>
      </trkpt>
      <trkpt lat="45.51772" lon="6.05492">
        <ele>1009.0333</ele>
        <time>2026-02-27T11:09:34</time>
      </trkpt>
      <trkpt lat="45.51773" lon="6.05488">
        <ele>1012.2</ele>
        <time>2026-02-27T11:09:37</time>
      </trkpt>
      <trkpt lat="45.51774" lon="6.05482">
        <ele>1013</ele>
        <time>2026-02-27T11:09:44</time>
      </trkpt>
      <trkpt lat="45.51776" lon="6.05476">
        <ele>1014.4</ele>
        <time>2026-02-27T11:09:52</time>
      </trkpt>
      <trkpt lat="45.51776" lon="6.05474">
        <ele>1014.4</ele>
        <time>2026-02-27T11:09:54</time>
      </trkpt>
      <trkpt lat="45.51777" lon="6.05464">
        <ele>1015.3</ele>
        <time>2026-02-27T11:10:06</time>
      </trkpt>
      <trkpt lat="45.51777" lon="6.05462">
        <ele>1016.5</ele>
        <time>2026-02-27T11:10:09</time>
      </trkpt>
      <trkpt lat="45.51777" lon="6.0546">
        <ele>1016.5</ele>
        <time>2026-02-27T11:10:12</time>
      </trkpt>
      <trkpt lat="45.51777" lon="6.0546">
        <ele>1016.5</ele>
        <time>2026-02-27T11:10:13</time>
      </trkpt>
      <trkpt lat="45.51778" lon="6.05458">
        <ele>1018.6</ele>
        <time>2026-02-27T11:10:16</time>
      </trkpt>
      <trkpt lat="45.51779" lon="6.05457">
        <ele>1018.6</ele>
        <time>2026-02-27T11:10:17</time>
      </trkpt>
      <trkpt lat="45.51781" lon="6.05454">
        <ele>1018.6</ele>
        <time>2026-02-27T11:10:21</time>
      </trkpt>
      <trkpt lat="45.51781" lon="6.05452">
        <ele>1018.9</ele>
        <time>2026-02-27T11:10:24</time>
      </trkpt>
      <trkpt lat="45.51781" lon="6.05451">
        <ele>1018.9</ele>
        <time>2026-02-27T11:10:25</time>
      </trkpt>
      <trkpt lat="45.51781" lon="6.05446">
        <ele>1018.9</ele>
        <time>2026-02-27T11:10:28</time>
      </trkpt>
      <trkpt lat="45.5178" lon="6.05443">
        <ele>1018.9</ele>
        <time>2026-02-27T11:10:30</time>
      </trkpt>
      <trkpt lat="45.5178" lon="6.05442">
        <ele>1018.9</ele>
        <time>2026-02-27T11:10:32</time>
      </trkpt>
      <trkpt lat="45.51779" lon="6.05441">
        <ele>1018.63336</ele>
        <time>2026-02-27T11:10:32</time>
      </trkpt>
      <trkpt lat="45.51779" lon="6.05441">
        <ele>1018.63336</ele>
        <time>2026-02-27T11:10:33</time>
      </trkpt>
      <trkpt lat="45.51777" lon="6.05439">
        <ele>1018.63336</ele>
        <time>2026-02-27T11:10:35</time>
      </trkpt>
      <trkpt lat="45.51777" lon="6.05439">
        <ele>1018.63336</ele>
        <time>2026-02-27T11:10:36</time>
      </trkpt>
      <trkpt lat="45.51776" lon="6.05438">
        <ele>1018.63336</ele>
        <time>2026-02-27T11:10:37</time>
      </trkpt>
      <trkpt lat="45.51775" lon="6.05437">
        <ele>1018.63336</ele>
        <time>2026-02-27T11:10:38</time>
      </trkpt>
      <trkpt lat="45.51774" lon="6.05436">
        <ele>1018.63336</ele>
        <time>2026-02-27T11:10:39</time>
      </trkpt>
      <trkpt lat="45.51774" lon="6.05434">
        <ele>1018.6</ele>
        <time>2026-02-27T11:10:40</time>
      </trkpt>
      <trkpt lat="45.51774" lon="6.05434">
        <ele>1018.6</ele>
        <time>2026-02-27T11:10:41</time>
      </trkpt>
      <trkpt lat="45.51773" lon="6.05433">
        <ele>1018.6</ele>
        <time>2026-02-27T11:10:42</time>
      </trkpt>
      <trkpt lat="45.51773" lon="6.05432">
        <ele>1018.6</ele>
        <time>2026-02-27T11:10:43</time>
      </trkpt>
      <trkpt lat="45.51774" lon="6.05432">
        <ele>1018.6</ele>
        <time>2026-02-27T11:10:43</time>
      </trkpt>
      <trkpt lat="45.51774" lon="6.05432">
        <ele>1018.6</ele>
        <time>2026-02-27T11:10:44</time>
      </trkpt>
      <trkpt lat="45.51774" lon="6.05432">
        <ele>1018.6</ele>
        <time>2026-02-27T11:10:45</time>
      </trkpt>
      <trkpt lat="45.51776" lon="6.05434">
        <ele>1022.6</ele>
        <time>2026-02-27T11:10:48</time>
      </trkpt>
      <trkpt lat="45.51776" lon="6.05436">
        <ele>1022.6</ele>
        <time>2026-02-27T11:10:51</time>
      </trkpt>
      <trkpt lat="45.51777" lon="6.05437">
        <ele>1022.6</ele>
        <time>2026-02-27T11:10:51</time>
      </trkpt>
      <trkpt lat="45.51777" lon="6.05438">
        <ele>1022.6</ele>
        <time>2026-02-27T11:10:52</time>
      </trkpt>
      <trkpt lat="45.51777" lon="6.05439">
        <ele>1022.6</ele>
        <time>2026-02-27T11:10:53</time>
      </trkpt>
      <trkpt lat="45.51776" lon="6.0544">
        <ele>1022.6</ele>
        <time>2026-02-27T11:10:54</time>
      </trkpt>
      <trkpt lat="45.51776" lon="6.05442">
        <ele>1024.2667</ele>
        <time>2026-02-27T11:10:55</time>
      </trkpt>
      <trkpt lat="45.51776" lon="6.05443">
        <ele>1024.2667</ele>
        <time>2026-02-27T11:10:56</time>
      </trkpt>
      <trkpt lat="45.51776" lon="6.05458">
        <ele>1027.1</ele>
        <time>2026-02-27T11:11:08</time>
      </trkpt>
      <trkpt lat="45.51776" lon="6.05458">
        <ele>1027.1</ele>
        <time>2026-02-27T11:11:11</time>
      </trkpt>
      <trkpt lat="45.51777" lon="6.05462">
        <ele>1033.4</ele>
        <time>2026-02-27T11:11:17</time>
      </trkpt>
      <trkpt lat="45.51777" lon="6.05466">
        <ele>1033.7</ele>
        <time>2026-02-27T11:11:22</time>
      </trkpt>
      <trkpt lat="45.51777" lon="6.05469">
        <ele>1033.7</ele>
        <time>2026-02-27T11:11:24</time>
      </trkpt>
      <trkpt lat="45.51778" lon="6.05473">
        <ele>1033.7</ele>
        <time>2026-02-27T11:11:27</time>
      </trkpt>
      <trkpt lat="45.51779" lon="6.05476">
        <ele>1037.1</ele>
        <time>2026-02-27T11:11:31</time>
      </trkpt>
      <trkpt lat="45.51782" lon="6.05484">
        <ele>1038.2</ele>
        <time>2026-02-27T11:11:39</time>
      </trkpt>
      <trkpt lat="45.51783" lon="6.05493">
        <ele>1037.6</ele>
        <time>2026-02-27T11:11:47</time>
      </trkpt>
      <trkpt lat="45.51783" lon="6.05503">
        <ele>1037.6</ele>
        <time>2026-02-27T11:11:57</time>
      </trkpt>
      <trkpt lat="45.51784" lon="6.05506">
        <ele>1037.6</ele>
        <time>2026-02-27T11:12:00</time>
      </trkpt>
      <trkpt lat="45.51785" lon="6.05509">
        <ele>1039.3</ele>
        <time>2026-02-27T11:12:02</time>
      </trkpt>
      <trkpt lat="45.51788" lon="6.05517">
        <ele>1042.0333</ele>
        <time>2026-02-27T11:12:13</time>
      </trkpt>
      <trkpt lat="45.51789" lon="6.05523">
        <ele>1042.5</ele>
        <time>2026-02-27T11:12:17</time>
      </trkpt>
      <trkpt lat="45.5179" lon="6.05524">
        <ele>1042.5</ele>
        <time>2026-02-27T11:12:19</time>
      </trkpt>
      <trkpt lat="45.51791" lon="6.05526">
        <ele>1042.5</ele>
        <time>2026-02-27T11:12:20</time>
      </trkpt>
      <trkpt lat="45.51792" lon="6.0553">
        <ele>1042.5</ele>
        <time>2026-02-27T11:12:25</time>
      </trkpt>
      <trkpt lat="45.51793" lon="6.05532">
        <ele>1040</ele>
        <time>2026-02-27T11:12:28</time>
      </trkpt>
      <trkpt lat="45.51793" lon="6.05532">
        <ele>1040</ele>
        <time>2026-02-27T11:12:29</time>
      </trkpt>
      <trkpt lat="45.51793" lon="6.05532">
        <ele>1040</ele>
        <time>2026-02-27T11:12:29</time>
      </trkpt>
      <trkpt lat="45.51793" lon="6.05532">
        <ele>1040</ele>
        <time>2026-02-27T11:12:30</time>
      </trkpt>
      <trkpt lat="45.51794" lon="6.0553">
        <ele>1040.2</ele>
        <time>2026-02-27T11:12:34</time>
      </trkpt>
      <trkpt lat="45.51794" lon="6.05529">
        <ele>1040.2</ele>
        <time>2026-02-27T11:12:34</time>
      </trkpt>
      <trkpt lat="45.51795" lon="6.05528">
        <ele>1040.2</ele>
        <time>2026-02-27T11:12:35</time>
      </trkpt>
      <trkpt lat="45.51797" lon="6.05525">
        <ele>1040.2</ele>
        <time>2026-02-27T11:12:39</time>
      </trkpt>
      <trkpt lat="45.51798" lon="6.05522">
        <ele>1038.8</ele>
        <time>2026-02-27T11:12:42</time>
      </trkpt>
      <trkpt lat="45.51798" lon="6.05521">
        <ele>1038.8</ele>
        <time>2026-02-27T11:12:43</time>
      </trkpt>
      <trkpt lat="45.51798" lon="6.0552">
        <ele>1038.8</ele>
        <time>2026-02-27T11:12:45</time>
      </trkpt>
      <trkpt lat="45.51798" lon="6.05519">
        <ele>1038.8</ele>
        <time>2026-02-27T11:12:46</time>
      </trkpt>
      <trkpt lat="45.51798" lon="6.05517">
        <ele>1038.8</ele>
        <time>2026-02-27T11:12:48</time>
      </trkpt>
      <trkpt lat="45.51799" lon="6.05516">
        <ele>1038.3</ele>
        <time>2026-02-27T11:12:49</time>
      </trkpt>
      <trkpt lat="45.51799" lon="6.05515">
        <ele>1038.3</ele>
        <time>2026-02-27T11:12:50</time>
      </trkpt>
      <trkpt lat="45.518" lon="6.05505">
        <ele>1040</ele>
        <time>2026-02-27T11:12:58</time>
      </trkpt>
      <trkpt lat="45.51801" lon="6.05498">
        <ele>1041.8</ele>
        <time>2026-02-27T11:13:07</time>
      </trkpt>
      <trkpt lat="45.51801" lon="6.05497">
        <ele>1041.8</ele>
        <time>2026-02-27T11:13:08</time>
      </trkpt>
      <trkpt lat="45.51801" lon="6.05496">
        <ele>1041.8</ele>
        <time>2026-02-27T11:13:09</time>
      </trkpt>
      <trkpt lat="45.51801" lon="6.05494">
        <ele>1041.8</ele>
        <time>2026-02-27T11:13:12</time>
      </trkpt>
      <trkpt lat="45.51802" lon="6.0549">
        <ele>1043.7</ele>
        <time>2026-02-27T11:13:15</time>
      </trkpt>
      <trkpt lat="45.51802" lon="6.05488">
        <ele>1043.7</ele>
        <time>2026-02-27T11:13:18</time>
      </trkpt>
      <trkpt lat="45.51802" lon="6.05487">
        <ele>1043.7</ele>
        <time>2026-02-27T11:13:18</time>
      </trkpt>
      <trkpt lat="45.51802" lon="6.05484">
        <ele>1043.7</ele>
        <time>2026-02-27T11:13:20</time>
      </trkpt>
      <trkpt lat="45.51802" lon="6.05476">
        <ele>1044.5</ele>
        <time>2026-02-27T11:13:27</time>
      </trkpt>
      <trkpt lat="45.51802" lon="6.05474">
        <ele>1044.5</ele>
        <time>2026-02-27T11:13:28</time>
      </trkpt>
      <trkpt lat="45.51801" lon="6.05473">
        <ele>1046.3</ele>
        <time>2026-02-27T11:13:30</time>
      </trkpt>
      <trkpt lat="45.51799" lon="6.0547">
        <ele>1046.3</ele>
        <time>2026-02-27T11:13:33</time>
      </trkpt>
      <trkpt lat="45.51797" lon="6.05467">
        <ele>1046.3</ele>
        <time>2026-02-27T11:13:36</time>
      </trkpt>
      <trkpt lat="45.51795" lon="6.0546">
        <ele>1047.4667</ele>
        <time>2026-02-27T11:13:43</time>
      </trkpt>
      <trkpt lat="45.51796" lon="6.05459">
        <ele>1047.4667</ele>
        <time>2026-02-27T11:13:45</time>
      </trkpt>
      <trkpt lat="45.51798" lon="6.05454">
        <ele>1053.3334</ele>
        <time>2026-02-27T11:13:53</time>
      </trkpt>
      <trkpt lat="45.51798" lon="6.05454">
        <ele>1053.3334</ele>
        <time>2026-02-27T11:13:54</time>
      </trkpt>
      <trkpt lat="45.51798" lon="6.05451">
        <ele>1053.3334</ele>
        <time>2026-02-27T11:13:57</time>
      </trkpt>
      <trkpt lat="45.51799" lon="6.05446">
        <ele>1055.5</ele>
        <time>2026-02-27T11:14:02</time>
      </trkpt>
      <trkpt lat="45.51799" lon="6.05445">
        <ele>1055.5</ele>
        <time>2026-02-27T11:14:04</time>
      </trkpt>
      <trkpt lat="45.51799" lon="6.05444">
        <ele>1055.5</ele>
        <time>2026-02-27T11:14:05</time>
      </trkpt>
      <trkpt lat="45.51799" lon="6.05443">
        <ele>1055.5</ele>
        <time>2026-02-27T11:14:06</time>
      </trkpt>
      <trkpt lat="45.51799" lon="6.05441">
        <ele>1055.5</ele>
        <time>2026-02-27T11:14:07</time>
      </trkpt>
      <trkpt lat="45.51798" lon="6.0544">
        <ele>1056.8</ele>
        <time>2026-02-27T11:14:08</time>
      </trkpt>
      <trkpt lat="45.51798" lon="6.05438">
        <ele>1056.8</ele>
        <time>2026-02-27T11:14:10</time>
      </trkpt>
      <trkpt lat="45.51797" lon="6.05437">
        <ele>1056.8</ele>
        <time>2026-02-27T11:14:11</time>
      </trkpt>
      <trkpt lat="45.51797" lon="6.05436">
        <ele>1056.8</ele>
        <time>2026-02-27T11:14:12</time>
      </trkpt>
      <trkpt lat="45.51797" lon="6.05435">
        <ele>1056.8</ele>
        <time>2026-02-27T11:14:13</time>
      </trkpt>
      <trkpt lat="45.51796" lon="6.05435">
        <ele>1056.8</ele>
        <time>2026-02-27T11:14:14</time>
      </trkpt>
      <trkpt lat="45.51796" lon="6.05433">
        <ele>1056.8</ele>
        <time>2026-02-27T11:14:15</time>
      </trkpt>
      <trkpt lat="45.51795" lon="6.0543">
        <ele>1060.6333</ele>
        <time>2026-02-27T11:14:18</time>
      </trkpt>
      <trkpt lat="45.51795" lon="6.05428">
        <ele>1060.6333</ele>
        <time>2026-02-27T11:14:20</time>
      </trkpt>
      <trkpt lat="45.51796" lon="6.05425">
        <ele>1060.6333</ele>
        <time>2026-02-27T11:14:23</time>
      </trkpt>
      <trkpt lat="45.51796" lon="6.05424">
        <ele>1060.6333</ele>
        <time>2026-02-27T11:14:25</time>
      </trkpt>
      <trkpt lat="45.51797" lon="6.05423">
        <ele>1060.6333</ele>
        <time>2026-02-27T11:14:26</time>
      </trkpt>
      <trkpt lat="45.51797" lon="6.05423">
        <ele>1061</ele>
        <time>2026-02-27T11:14:27</time>
      </trkpt>
      <trkpt lat="45.51797" lon="6.05422">
        <ele>1061</ele>
        <time>2026-02-27T11:14:31</time>
      </trkpt>
      <trkpt lat="45.51797" lon="6.05422">
        <ele>1060.6</ele>
        <time>2026-02-27T11:14:45</time>
      </trkpt>
      <trkpt lat="45.51797" lon="6.05422">
        <ele>1060.6</ele>
        <time>2026-02-27T11:14:45</time>
      </trkpt>
      <trkpt lat="45.51797" lon="6.05422">
        <ele>1060.6</ele>
        <time>2026-02-27T11:14:46</time>
      </trkpt>
      <trkpt lat="45.51797" lon="6.05422">
        <ele>1060.6</ele>
        <time>2026-02-27T11:14:47</time>
      </trkpt>
      <trkpt lat="45.51797" lon="6.05422">
        <ele>1060.6</ele>
        <time>2026-02-27T11:14:48</time>
      </trkpt>
      <trkpt lat="45.51799" lon="6.05428">
        <ele>1061.3</ele>
        <time>2026-02-27T11:14:54</time>
      </trkpt>
      <trkpt lat="45.51796" lon="6.05435">
        <ele>1061.3</ele>
        <time>2026-02-27T11:14:55</time>
      </trkpt>
      <trkpt lat="45.51796" lon="6.05449">
        <ele>1060.1</ele>
        <time>2026-02-27T11:15:06</time>
      </trkpt>
      <trkpt lat="45.51796" lon="6.05451">
        <ele>1060.1</ele>
        <time>2026-02-27T11:15:09</time>
      </trkpt>
      <trkpt lat="45.51797" lon="6.05452">
        <ele>1059.7</ele>
        <time>2026-02-27T11:15:10</time>
      </trkpt>
      <trkpt lat="45.518" lon="6.05455">
        <ele>1059.7</ele>
        <time>2026-02-27T11:15:15</time>
      </trkpt>
      <trkpt lat="45.51801" lon="6.05456">
        <ele>1059.7</ele>
        <time>2026-02-27T11:15:17</time>
      </trkpt>
      <trkpt lat="45.51803" lon="6.05458">
        <ele>1061.1333</ele>
        <time>2026-02-27T11:15:21</time>
      </trkpt>
      <trkpt lat="45.51805" lon="6.05461">
        <ele>1061.1333</ele>
        <time>2026-02-27T11:15:24</time>
      </trkpt>
      <trkpt lat="45.51817" lon="6.05488">
        <ele>1058.6</ele>
        <time>2026-02-27T11:15:47</time>
      </trkpt>
      <trkpt lat="45.51817" lon="6.05489">
        <ele>1059</ele>
        <time>2026-02-27T11:15:49</time>
      </trkpt>
      <trkpt lat="45.51818" lon="6.055">
        <ele>1060.7</ele>
        <time>2026-02-27T11:15:58</time>
      </trkpt>
      <trkpt lat="45.51818" lon="6.05508">
        <ele>1060.7</ele>
        <time>2026-02-27T11:16:03</time>
      </trkpt>
      <trkpt lat="45.51819" lon="6.05513">
        <ele>1063.1</ele>
        <time>2026-02-27T11:16:06</time>
      </trkpt>
      <trkpt lat="45.5182" lon="6.05517">
        <ele>1063.1</ele>
        <time>2026-02-27T11:16:09</time>
      </trkpt>
      <trkpt lat="45.51821" lon="6.05521">
        <ele>1063.1</ele>
        <time>2026-02-27T11:16:12</time>
      </trkpt>
      <trkpt lat="45.51823" lon="6.05525">
        <ele>1063.1</ele>
        <time>2026-02-27T11:16:17</time>
      </trkpt>
      <trkpt lat="45.51824" lon="6.05525">
        <ele>1063.1</ele>
        <time>2026-02-27T11:16:18</time>
      </trkpt>
      <trkpt lat="45.51825" lon="6.05525">
        <ele>1063.1</ele>
        <time>2026-02-27T11:16:19</time>
      </trkpt>
      <trkpt lat="45.51827" lon="6.05526">
        <ele>1064.3</ele>
        <time>2026-02-27T11:16:21</time>
      </trkpt>
      <trkpt lat="45.51829" lon="6.05527">
        <ele>1064.3</ele>
        <time>2026-02-27T11:16:24</time>
      </trkpt>
      <trkpt lat="45.51831" lon="6.05529">
        <ele>1064.3</ele>
        <time>2026-02-27T11:16:26</time>
      </trkpt>
      <trkpt lat="45.51832" lon="6.0553">
        <ele>1063.9</ele>
        <time>2026-02-27T11:16:27</time>
      </trkpt>
      <trkpt lat="45.51844" lon="6.0554">
        <ele>1066.1</ele>
        <time>2026-02-27T11:16:43</time>
      </trkpt>
      <trkpt lat="45.5186" lon="6.05554">
        <ele>1069.0333</ele>
        <time>2026-02-27T11:17:00</time>
      </trkpt>
      <trkpt lat="45.5186" lon="6.05555">
        <ele>1069.0333</ele>
        <time>2026-02-27T11:17:01</time>
      </trkpt>
      <trkpt lat="45.51861" lon="6.05558">
        <ele>1069.0333</ele>
        <time>2026-02-27T11:17:06</time>
      </trkpt>
      <trkpt lat="45.51861" lon="6.05559">
        <ele>1069.0333</ele>
        <time>2026-02-27T11:17:07</time>
      </trkpt>
      <trkpt lat="45.51861" lon="6.05559">
        <ele>1069.0333</ele>
        <time>2026-02-27T11:17:07</time>
      </trkpt>
      <trkpt lat="45.51861" lon="6.05559">
        <ele>1069.6</ele>
        <time>2026-02-27T11:17:08</time>
      </trkpt>
      <trkpt lat="45.51862" lon="6.05559">
        <ele>1069.6</ele>
        <time>2026-02-27T11:17:09</time>
      </trkpt>
      <trkpt lat="45.51862" lon="6.05558">
        <ele>1069.6</ele>
        <time>2026-02-27T11:17:10</time>
      </trkpt>
      <trkpt lat="45.51862" lon="6.05558">
        <ele>1069.6</ele>
        <time>2026-02-27T11:17:10</time>
      </trkpt>
      <trkpt lat="45.51864" lon="6.05557">
        <ele>1069.6</ele>
        <time>2026-02-27T11:17:15</time>
      </trkpt>
      <trkpt lat="45.51864" lon="6.05557">
        <ele>1069.6</ele>
        <time>2026-02-27T11:17:15</time>
      </trkpt>
      <trkpt lat="45.51865" lon="6.05557">
        <ele>1070.4</ele>
        <time>2026-02-27T11:17:17</time>
      </trkpt>
      <trkpt lat="45.51866" lon="6.05558">
        <ele>1070.4</ele>
        <time>2026-02-27T11:17:17</time>
      </trkpt>
      <trkpt lat="45.51866" lon="6.05558">
        <ele>1070.4</ele>
        <time>2026-02-27T11:17:18</time>
      </trkpt>
      <trkpt lat="45.51867" lon="6.05558">
        <ele>1070.4</ele>
        <time>2026-02-27T11:17:18</time>
      </trkpt>
      <trkpt lat="45.51867" lon="6.05557">
        <ele>1070.4</ele>
        <time>2026-02-27T11:17:22</time>
      </trkpt>
      <trkpt lat="45.51867" lon="6.05556">
        <ele>1070.4</ele>
        <time>2026-02-27T11:17:23</time>
      </trkpt>
      <trkpt lat="45.51867" lon="6.05556">
        <ele>1070.4</ele>
        <time>2026-02-27T11:17:24</time>
      </trkpt>
      <trkpt lat="45.51867" lon="6.05557">
        <ele>1073</ele>
        <time>2026-02-27T11:17:27</time>
      </trkpt>
      <trkpt lat="45.51867" lon="6.05558">
        <ele>1073</ele>
        <time>2026-02-27T11:17:28</time>
      </trkpt>
      <trkpt lat="45.51867" lon="6.05559">
        <ele>1073</ele>
        <time>2026-02-27T11:17:31</time>
      </trkpt>
      <trkpt lat="45.51865" lon="6.05561">
        <ele>1074.6</ele>
        <time>2026-02-27T11:17:39</time>
      </trkpt>
      <trkpt lat="45.51868" lon="6.05557">
        <ele>1074.6</ele>
        <time>2026-02-27T11:17:43</time>
      </trkpt>
      <trkpt lat="45.51867" lon="6.05559">
        <ele>1074.5</ele>
        <time>2026-02-27T11:17:46</time>
      </trkpt>
      <trkpt lat="45.51867" lon="6.05559">
        <ele>1074.5</ele>
        <time>2026-02-27T11:17:47</time>
      </trkpt>
      <trkpt lat="45.51867" lon="6.0556">
        <ele>1074.5</ele>
        <time>2026-02-27T11:17:48</time>
      </trkpt>
      <trkpt lat="45.51867" lon="6.05559">
        <ele>1074.5</ele>
        <time>2026-02-27T11:17:51</time>
      </trkpt>
      <trkpt lat="45.51867" lon="6.0556">
        <ele>1074.5</ele>
        <time>2026-02-27T11:17:52</time>
      </trkpt>
      <trkpt lat="45.51867" lon="6.0556">
        <ele>1074.5</ele>
        <time>2026-02-27T11:17:55</time>
      </trkpt>
      <trkpt lat="45.51868" lon="6.05562">
        <ele>1074.2333</ele>
        <time>2026-02-27T11:17:59</time>
      </trkpt>
      <trkpt lat="45.51878" lon="6.05569">
        <ele>1074.2</ele>
        <time>2026-02-27T11:18:07</time>
      </trkpt>
      <trkpt lat="45.51884" lon="6.0557">
        <ele>1073.4</ele>
        <time>2026-02-27T11:18:11</time>
      </trkpt>
      <trkpt lat="45.5189" lon="6.05572">
        <ele>1073.3334</ele>
        <time>2026-02-27T11:18:18</time>
      </trkpt>
      <trkpt lat="45.51891" lon="6.05574">
        <ele>1073.3334</ele>
        <time>2026-02-27T11:18:21</time>
      </trkpt>
      <trkpt lat="45.51891" lon="6.05576">
        <ele>1073.3334</ele>
        <time>2026-02-27T11:18:22</time>
      </trkpt>
      <trkpt lat="45.51892" lon="6.05577">
        <ele>1073.3334</ele>
        <time>2026-02-27T11:18:23</time>
      </trkpt>
      <trkpt lat="45.51892" lon="6.05579">
        <ele>1073.3334</ele>
        <time>2026-02-27T11:18:24</time>
      </trkpt>
      <trkpt lat="45.51893" lon="6.05582">
        <ele>1073.3</ele>
        <time>2026-02-27T11:18:26</time>
      </trkpt>
      <trkpt lat="45.51893" lon="6.05586">
        <ele>1073.3</ele>
        <time>2026-02-27T11:18:30</time>
      </trkpt>
      <trkpt lat="45.51894" lon="6.05587">
        <ele>1073.3</ele>
        <time>2026-02-27T11:18:30</time>
      </trkpt>
      <trkpt lat="45.51895" lon="6.05589">
        <ele>1073.3</ele>
        <time>2026-02-27T11:18:33</time>
      </trkpt>
      <trkpt lat="45.51896" lon="6.05592">
        <ele>1071.7</ele>
        <time>2026-02-27T11:18:35</time>
      </trkpt>
      <trkpt lat="45.51899" lon="6.05594">
        <ele>1071.7</ele>
        <time>2026-02-27T11:18:40</time>
      </trkpt>
      <trkpt lat="45.51899" lon="6.05595">
        <ele>1071.7</ele>
        <time>2026-02-27T11:18:41</time>
      </trkpt>
      <trkpt lat="45.51899" lon="6.05595">
        <ele>1070.1333</ele>
        <time>2026-02-27T11:18:42</time>
      </trkpt>
      <trkpt lat="45.519" lon="6.05595">
        <ele>1070.1333</ele>
        <time>2026-02-27T11:18:43</time>
      </trkpt>
      <trkpt lat="45.519" lon="6.05595">
        <ele>1070.1333</ele>
        <time>2026-02-27T11:18:44</time>
      </trkpt>
      <trkpt lat="45.519" lon="6.05596">
        <ele>1070.1333</ele>
        <time>2026-02-27T11:18:46</time>
      </trkpt>
      <trkpt lat="45.51901" lon="6.05598">
        <ele>1068</ele>
        <time>2026-02-27T11:18:49</time>
      </trkpt>
      <trkpt lat="45.51902" lon="6.05599">
        <ele>1068</ele>
        <time>2026-02-27T11:18:50</time>
      </trkpt>
      <trkpt lat="45.51903" lon="6.056">
        <ele>1068</ele>
        <time>2026-02-27T11:18:52</time>
      </trkpt>
      <trkpt lat="45.51903" lon="6.05602">
        <ele>1068</ele>
        <time>2026-02-27T11:18:53</time>
      </trkpt>
      <trkpt lat="45.51903" lon="6.05603">
        <ele>1068</ele>
        <time>2026-02-27T11:18:53</time>
      </trkpt>
      <trkpt lat="45.51903" lon="6.05605">
        <ele>1068</ele>
        <time>2026-02-27T11:18:54</time>
      </trkpt>
      <trkpt lat="45.51903" lon="6.05606">
        <ele>1068</ele>
        <time>2026-02-27T11:18:55</time>
      </trkpt>
      <trkpt lat="45.51903" lon="6.05608">
        <ele>1067</ele>
        <time>2026-02-27T11:18:57</time>
      </trkpt>
      <trkpt lat="45.51903" lon="6.05609">
        <ele>1067</ele>
        <time>2026-02-27T11:18:57</time>
      </trkpt>
      <trkpt lat="45.51903" lon="6.0561">
        <ele>1067</ele>
        <time>2026-02-27T11:18:59</time>
      </trkpt>
      <trkpt lat="45.51903" lon="6.05611">
        <ele>1067</ele>
        <time>2026-02-27T11:19:00</time>
      </trkpt>
      <trkpt lat="45.51903" lon="6.05615">
        <ele>1065.5</ele>
        <time>2026-02-27T11:19:03</time>
      </trkpt>
      <trkpt lat="45.51903" lon="6.05616">
        <ele>1065.5</ele>
        <time>2026-02-27T11:19:04</time>
      </trkpt>
      <trkpt lat="45.51903" lon="6.05616">
        <ele>1065.5</ele>
        <time>2026-02-27T11:19:05</time>
      </trkpt>
      <trkpt lat="45.51903" lon="6.05617">
        <ele>1065.5</ele>
        <time>2026-02-27T11:19:05</time>
      </trkpt>
      <trkpt lat="45.51904" lon="6.05619">
        <ele>1065.5</ele>
        <time>2026-02-27T11:19:07</time>
      </trkpt>
      <trkpt lat="45.51905" lon="6.0562">
        <ele>1065.5</ele>
        <time>2026-02-27T11:19:08</time>
      </trkpt>
      <trkpt lat="45.51907" lon="6.05622">
        <ele>1065.5</ele>
        <time>2026-02-27T11:19:12</time>
      </trkpt>
      <trkpt lat="45.51909" lon="6.05622">
        <ele>1065.5</ele>
        <time>2026-02-27T11:19:15</time>
      </trkpt>
      <trkpt lat="45.51911" lon="6.05623">
        <ele>1064.7</ele>
        <time>2026-02-27T11:19:17</time>
      </trkpt>
      <trkpt lat="45.51912" lon="6.05623">
        <ele>1064.7</ele>
        <time>2026-02-27T11:19:18</time>
      </trkpt>
      <trkpt lat="45.51919" lon="6.05624">
        <ele>1065.2</ele>
        <time>2026-02-27T11:19:25</time>
      </trkpt>
      <trkpt lat="45.51923" lon="6.05626">
        <ele>1065.2</ele>
        <time>2026-02-27T11:19:29</time>
      </trkpt>
      <trkpt lat="45.51924" lon="6.05625">
        <ele>1064.1666</ele>
        <time>2026-02-27T11:19:33</time>
      </trkpt>
      <trkpt lat="45.51927" lon="6.05624">
        <ele>1064.1666</ele>
        <time>2026-02-27T11:19:36</time>
      </trkpt>
      <trkpt lat="45.51928" lon="6.05623">
        <ele>1064.1666</ele>
        <time>2026-02-27T11:19:37</time>
      </trkpt>
      <trkpt lat="45.51928" lon="6.05622">
        <ele>1064.1666</ele>
        <time>2026-02-27T11:19:38</time>
      </trkpt>
      <trkpt lat="45.51928" lon="6.05621">
        <ele>1062.9333</ele>
        <time>2026-02-27T11:19:38</time>
      </trkpt>
      <trkpt lat="45.51928" lon="6.0562">
        <ele>1062.9333</ele>
        <time>2026-02-27T11:19:39</time>
      </trkpt>
      <trkpt lat="45.51928" lon="6.05618">
        <ele>1062.9333</ele>
        <time>2026-02-27T11:19:41</time>
      </trkpt>
      <trkpt lat="45.51926" lon="6.05615">
        <ele>1062.9333</ele>
        <time>2026-02-27T11:19:42</time>
      </trkpt>
      <trkpt lat="45.51925" lon="6.0561">
        <ele>1063.1</ele>
        <time>2026-02-27T11:19:47</time>
      </trkpt>
      <trkpt lat="45.51924" lon="6.0561">
        <ele>1063.1</ele>
        <time>2026-02-27T11:19:49</time>
      </trkpt>
      <trkpt lat="45.51924" lon="6.0561">
        <ele>1063.1</ele>
        <time>2026-02-27T11:19:50</time>
      </trkpt>
      <trkpt lat="45.51922" lon="6.0561">
        <ele>1063.1</ele>
        <time>2026-02-27T11:19:54</time>
      </trkpt>
      <trkpt lat="45.51921" lon="6.05609">
        <ele>1064.7</ele>
        <time>2026-02-27T11:19:57</time>
      </trkpt>
      <trkpt lat="45.51919" lon="6.0561">
        <ele>1064.7</ele>
        <time>2026-02-27T11:20:00</time>
      </trkpt>
      <trkpt lat="45.51918" lon="6.05611">
        <ele>1064.7</ele>
        <time>2026-02-27T11:20:02</time>
      </trkpt>
      <trkpt lat="45.51918" lon="6.05612">
        <ele>1064.7</ele>
        <time>2026-02-27T11:20:04</time>
      </trkpt>
      <trkpt lat="45.51917" lon="6.05614">
        <ele>1066.1</ele>
        <time>2026-02-27T11:20:05</time>
      </trkpt>
      <trkpt lat="45.51916" lon="6.05618">
        <ele>1066.1</ele>
        <time>2026-02-27T11:20:08</time>
      </trkpt>
      <trkpt lat="45.51916" lon="6.05619">
        <ele>1066.1</ele>
        <time>2026-02-27T11:20:09</time>
      </trkpt>
      <trkpt lat="45.51916" lon="6.0562">
        <ele>1066.1</ele>
        <time>2026-02-27T11:20:10</time>
      </trkpt>
      <trkpt lat="45.51916" lon="6.05621">
        <ele>1066.1</ele>
        <time>2026-02-27T11:20:11</time>
      </trkpt>
      <trkpt lat="45.51916" lon="6.05622">
        <ele>1066.1</ele>
        <time>2026-02-27T11:20:12</time>
      </trkpt>
      <trkpt lat="45.51915" lon="6.05623">
        <ele>1066.1</ele>
        <time>2026-02-27T11:20:12</time>
      </trkpt>
      <trkpt lat="45.51915" lon="6.05624">
        <ele>1065.9667</ele>
        <time>2026-02-27T11:20:14</time>
      </trkpt>
      <trkpt lat="45.51915" lon="6.05624">
        <ele>1065.9667</ele>
        <time>2026-02-27T11:20:14</time>
      </trkpt>
      <trkpt lat="45.51916" lon="6.05626">
        <ele>1065.9667</ele>
        <time>2026-02-27T11:20:17</time>
      </trkpt>
      <trkpt lat="45.51916" lon="6.05627">
        <ele>1065.9667</ele>
        <time>2026-02-27T11:20:19</time>
      </trkpt>
      <trkpt lat="45.51917" lon="6.05627">
        <ele>1063.9667</ele>
        <time>2026-02-27T11:20:22</time>
      </trkpt>
      <trkpt lat="45.51917" lon="6.05627">
        <ele>1063.9667</ele>
        <time>2026-02-27T11:20:22</time>
      </trkpt>
      <trkpt lat="45.51917" lon="6.05627">
        <ele>1063.9667</ele>
        <time>2026-02-27T11:20:23</time>
      </trkpt>
      <trkpt lat="45.51917" lon="6.05627">
        <ele>1063.9667</ele>
        <time>2026-02-27T11:20:24</time>
      </trkpt>
      <trkpt lat="45.51917" lon="6.05627">
        <ele>1063.9667</ele>
        <time>2026-02-27T11:20:24</time>
      </trkpt>
      <trkpt lat="45.51917" lon="6.05627">
        <ele>1063.9667</ele>
        <time>2026-02-27T11:20:26</time>
      </trkpt>
      <trkpt lat="45.51918" lon="6.05627">
        <ele>1063.9667</ele>
        <time>2026-02-27T11:20:28</time>
      </trkpt>
      <trkpt lat="45.51918" lon="6.05627">
        <ele>1063.9667</ele>
        <time>2026-02-27T11:20:29</time>
      </trkpt>
      <trkpt lat="45.51918" lon="6.05627">
        <ele>1063.4</ele>
        <time>2026-02-27T11:20:32</time>
      </trkpt>
      <trkpt lat="45.51918" lon="6.05627">
        <ele>1063.4</ele>
        <time>2026-02-27T11:20:32</time>
      </trkpt>
      <trkpt lat="45.51917" lon="6.05627">
        <ele>1063.4</ele>
        <time>2026-02-27T11:20:33</time>
      </trkpt>
      <trkpt lat="45.51917" lon="6.05627">
        <ele>1063.4</ele>
        <time>2026-02-27T11:20:33</time>
      </trkpt>
      <trkpt lat="45.51918" lon="6.05627">
        <ele>1063.4</ele>
        <time>2026-02-27T11:20:34</time>
      </trkpt>
      <trkpt lat="45.5192" lon="6.05628">
        <ele>1063.4</ele>
        <time>2026-02-27T11:20:36</time>
      </trkpt>
      <trkpt lat="45.51921" lon="6.05629">
        <ele>1063.4</ele>
        <time>2026-02-27T11:20:36</time>
      </trkpt>
      <trkpt lat="45.51921" lon="6.05631">
        <ele>1063.4</ele>
        <time>2026-02-27T11:20:38</time>
      </trkpt>
      <trkpt lat="45.51922" lon="6.05632">
        <ele>1063.4</ele>
        <time>2026-02-27T11:20:38</time>
      </trkpt>
      <trkpt lat="45.51922" lon="6.05637">
        <ele>1063.4</ele>
        <time>2026-02-27T11:20:43</time>
      </trkpt>
      <trkpt lat="45.51921" lon="6.05638">
        <ele>1064.1</ele>
        <time>2026-02-27T11:20:45</time>
      </trkpt>
      <trkpt lat="45.51921" lon="6.05639">
        <ele>1064.1</ele>
        <time>2026-02-27T11:20:47</time>
      </trkpt>
      <trkpt lat="45.5192" lon="6.05639">
        <ele>1064.1</ele>
        <time>2026-02-27T11:20:47</time>
      </trkpt>
      <trkpt lat="45.5192" lon="6.05639">
        <ele>1064.1</ele>
        <time>2026-02-27T11:20:48</time>
      </trkpt>
      <trkpt lat="45.51918" lon="6.05639">
        <ele>1064.1</ele>
        <time>2026-02-27T11:20:50</time>
      </trkpt>
      <trkpt lat="45.51918" lon="6.0564">
        <ele>1064.1</ele>
        <time>2026-02-27T11:20:50</time>
      </trkpt>
      <trkpt lat="45.51917" lon="6.05641">
        <ele>1064.5</ele>
        <time>2026-02-27T11:20:52</time>
      </trkpt>
      <trkpt lat="45.51915" lon="6.05644">
        <ele>1064.5</ele>
        <time>2026-02-27T11:20:58</time>
      </trkpt>
      <trkpt lat="45.51915" lon="6.05646">
        <ele>1063.8667</ele>
        <time>2026-02-27T11:21:02</time>
      </trkpt>
      <trkpt lat="45.51915" lon="6.05647">
        <ele>1063.8667</ele>
        <time>2026-02-27T11:21:03</time>
      </trkpt>
      <trkpt lat="45.51915" lon="6.05647">
        <ele>1063.8667</ele>
        <time>2026-02-27T11:21:03</time>
      </trkpt>
      <trkpt lat="45.51916" lon="6.05649">
        <ele>1062.2</ele>
        <time>2026-02-27T11:21:05</time>
      </trkpt>
      <trkpt lat="45.51917" lon="6.05651">
        <ele>1062.2</ele>
        <time>2026-02-27T11:21:07</time>
      </trkpt>
      <trkpt lat="45.51917" lon="6.05652">
        <ele>1062.2</ele>
        <time>2026-02-27T11:21:08</time>
      </trkpt>
      <trkpt lat="45.51918" lon="6.05656">
        <ele>1060.3667</ele>
        <time>2026-02-27T11:21:12</time>
      </trkpt>
      <trkpt lat="45.51919" lon="6.05658">
        <ele>1060.3667</ele>
        <time>2026-02-27T11:21:13</time>
      </trkpt>
      <trkpt lat="45.5192" lon="6.0566">
        <ele>1060.3667</ele>
        <time>2026-02-27T11:21:15</time>
      </trkpt>
      <trkpt lat="45.5192" lon="6.05662">
        <ele>1060.3667</ele>
        <time>2026-02-27T11:21:16</time>
      </trkpt>
      <trkpt lat="45.5192" lon="6.05667">
        <ele>1059.1</ele>
        <time>2026-02-27T11:21:20</time>
      </trkpt>
      <trkpt lat="45.51919" lon="6.05673">
        <ele>1059.1</ele>
        <time>2026-02-27T11:21:25</time>
      </trkpt>
      <trkpt lat="45.51919" lon="6.05674">
        <ele>1058.2</ele>
        <time>2026-02-27T11:21:25</time>
      </trkpt>
      <trkpt lat="45.5192" lon="6.05674">
        <ele>1058.2</ele>
        <time>2026-02-27T11:21:26</time>
      </trkpt>
      <trkpt lat="45.5192" lon="6.05676">
        <ele>1058.2</ele>
        <time>2026-02-27T11:21:27</time>
      </trkpt>
      <trkpt lat="45.51921" lon="6.05679">
        <ele>1058.2</ele>
        <time>2026-02-27T11:21:29</time>
      </trkpt>
      <trkpt lat="45.51923" lon="6.05685">
        <ele>1055.9</ele>
        <time>2026-02-27T11:21:33</time>
      </trkpt>
      <trkpt lat="45.51925" lon="6.05693">
        <ele>1055.9</ele>
        <time>2026-02-27T11:21:38</time>
      </trkpt>
      <trkpt lat="45.51927" lon="6.05697">
        <ele>1053.6</ele>
        <time>2026-02-27T11:21:40</time>
      </trkpt>
      <trkpt lat="45.51933" lon="6.05705">
        <ele>1053.6</ele>
        <time>2026-02-27T11:21:46</time>
      </trkpt>
      <trkpt lat="45.51934" lon="6.05708">
        <ele>1051.9667</ele>
        <time>2026-02-27T11:21:48</time>
      </trkpt>
      <trkpt lat="45.51934" lon="6.05709">
        <ele>1051.9667</ele>
        <time>2026-02-27T11:21:48</time>
      </trkpt>
      <trkpt lat="45.51935" lon="6.05711">
        <ele>1051.9667</ele>
        <time>2026-02-27T11:21:49</time>
      </trkpt>
      <trkpt lat="45.51941" lon="6.05732">
        <ele>1051.8</ele>
        <time>2026-02-27T11:22:07</time>
      </trkpt>
      <trkpt lat="45.51943" lon="6.05735">
        <ele>1051.8</ele>
        <time>2026-02-27T11:22:09</time>
      </trkpt>
      <trkpt lat="45.51944" lon="6.05738">
        <ele>1051.8</ele>
        <time>2026-02-27T11:22:12</time>
      </trkpt>
      <trkpt lat="45.51948" lon="6.05748">
        <ele>1051.9</ele>
        <time>2026-02-27T11:22:20</time>
      </trkpt>
      <trkpt lat="45.51955" lon="6.05772">
        <ele>1053.2</ele>
        <time>2026-02-27T11:22:37</time>
      </trkpt>
      <trkpt lat="45.51957" lon="6.0578">
        <ele>1056.8</ele>
        <time>2026-02-27T11:22:44</time>
      </trkpt>
      <trkpt lat="45.51956" lon="6.05782">
        <ele>1056.8</ele>
        <time>2026-02-27T11:22:46</time>
      </trkpt>
      <trkpt lat="45.51956" lon="6.05787">
        <ele>1056.8334</ele>
        <time>2026-02-27T11:22:49</time>
      </trkpt>
      <trkpt lat="45.51955" lon="6.05788">
        <ele>1056.8334</ele>
        <time>2026-02-27T11:22:50</time>
      </trkpt>
      <trkpt lat="45.51953" lon="6.05794">
        <ele>1056.8334</ele>
        <time>2026-02-27T11:22:54</time>
      </trkpt>
      <trkpt lat="45.51951" lon="6.05797">
        <ele>1056.5</ele>
        <time>2026-02-27T11:22:58</time>
      </trkpt>
      <trkpt lat="45.51949" lon="6.05803">
        <ele>1056.5</ele>
        <time>2026-02-27T11:23:03</time>
      </trkpt>
      <trkpt lat="45.51948" lon="6.05804">
        <ele>1057.3</ele>
        <time>2026-02-27T11:23:04</time>
      </trkpt>
      <trkpt lat="45.51946" lon="6.05807">
        <ele>1057.3</ele>
        <time>2026-02-27T11:23:06</time>
      </trkpt>
      <trkpt lat="45.51944" lon="6.0581">
        <ele>1057.3</ele>
        <time>2026-02-27T11:23:08</time>
      </trkpt>
      <trkpt lat="45.51939" lon="6.05819">
        <ele>1058</ele>
        <time>2026-02-27T11:23:15</time>
      </trkpt>
      <trkpt lat="45.51939" lon="6.0582">
        <ele>1058</ele>
        <time>2026-02-27T11:23:17</time>
      </trkpt>
      <trkpt lat="45.51939" lon="6.05824">
        <ele>1059.0667</ele>
        <time>2026-02-27T11:23:20</time>
      </trkpt>
      <trkpt lat="45.51938" lon="6.05825">
        <ele>1059.0667</ele>
        <time>2026-02-27T11:23:21</time>
      </trkpt>
      <trkpt lat="45.51938" lon="6.05826">
        <ele>1059.0667</ele>
        <time>2026-02-27T11:23:22</time>
      </trkpt>
      <trkpt lat="45.51937" lon="6.05827">
        <ele>1059.0667</ele>
        <time>2026-02-27T11:23:24</time>
      </trkpt>
      <trkpt lat="45.51937" lon="6.05827">
        <ele>1059.0667</ele>
        <time>2026-02-27T11:23:25</time>
      </trkpt>
      <trkpt lat="45.51933" lon="6.0583">
        <ele>1057.7</ele>
        <time>2026-02-27T11:23:31</time>
      </trkpt>
      <trkpt lat="45.51933" lon="6.0583">
        <ele>1057.7</ele>
        <time>2026-02-27T11:23:32</time>
      </trkpt>
      <trkpt lat="45.51933" lon="6.05831">
        <ele>1057.7</ele>
        <time>2026-02-27T11:23:33</time>
      </trkpt>
      <trkpt lat="45.51933" lon="6.05832">
        <ele>1057.7</ele>
        <time>2026-02-27T11:23:33</time>
      </trkpt>
      <trkpt lat="45.51933" lon="6.05832">
        <ele>1057.7</ele>
        <time>2026-02-27T11:23:34</time>
      </trkpt>
      <trkpt lat="45.51933" lon="6.05833">
        <ele>1058.6333</ele>
        <time>2026-02-27T11:23:36</time>
      </trkpt>
      <trkpt lat="45.51933" lon="6.05834">
        <ele>1058.6333</ele>
        <time>2026-02-27T11:23:37</time>
      </trkpt>
      <trkpt lat="45.51934" lon="6.05836">
        <ele>1058.6333</ele>
        <time>2026-02-27T11:23:40</time>
      </trkpt>
      <trkpt lat="45.51934" lon="6.05836">
        <ele>1058.6333</ele>
        <time>2026-02-27T11:23:41</time>
      </trkpt>
      <trkpt lat="45.51934" lon="6.05837">
        <ele>1058.6333</ele>
        <time>2026-02-27T11:23:42</time>
      </trkpt>
      <trkpt lat="45.51935" lon="6.05837">
        <ele>1058.6333</ele>
        <time>2026-02-27T11:23:42</time>
      </trkpt>
      <trkpt lat="45.51935" lon="6.05838">
        <ele>1059</ele>
        <time>2026-02-27T11:23:43</time>
      </trkpt>
      <trkpt lat="45.51936" lon="6.05838">
        <ele>1059</ele>
        <time>2026-02-27T11:23:44</time>
      </trkpt>
      <trkpt lat="45.51936" lon="6.05838">
        <ele>1059</ele>
        <time>2026-02-27T11:23:44</time>
      </trkpt>
      <trkpt lat="45.51937" lon="6.05838">
        <ele>1059</ele>
        <time>2026-02-27T11:23:45</time>
      </trkpt>
      <trkpt lat="45.51937" lon="6.05838">
        <ele>1059</ele>
        <time>2026-02-27T11:23:46</time>
      </trkpt>
      <trkpt lat="45.51938" lon="6.05838">
        <ele>1059</ele>
        <time>2026-02-27T11:23:47</time>
      </trkpt>
      <trkpt lat="45.5194" lon="6.05838">
        <ele>1059</ele>
        <time>2026-02-27T11:23:49</time>
      </trkpt>
      <trkpt lat="45.51941" lon="6.05839">
        <ele>1061.2</ele>
        <time>2026-02-27T11:23:51</time>
      </trkpt>
      <trkpt lat="45.51941" lon="6.05839">
        <ele>1061.2</ele>
        <time>2026-02-27T11:23:52</time>
      </trkpt>
      <trkpt lat="45.51944" lon="6.05842">
        <ele>1063.1</ele>
        <time>2026-02-27T11:23:56</time>
      </trkpt>
      <trkpt lat="45.51944" lon="6.05842">
        <ele>1063.1</ele>
        <time>2026-02-27T11:23:57</time>
      </trkpt>
      <trkpt lat="45.51946" lon="6.05842">
        <ele>1063.1</ele>
        <time>2026-02-27T11:23:59</time>
      </trkpt>
      <trkpt lat="45.51947" lon="6.05842">
        <ele>1063.1</ele>
        <time>2026-02-27T11:24:00</time>
      </trkpt>
      <trkpt lat="45.51947" lon="6.05842">
        <ele>1063.1</ele>
        <time>2026-02-27T11:24:01</time>
      </trkpt>
      <trkpt lat="45.51949" lon="6.05843">
        <ele>1063.1</ele>
        <time>2026-02-27T11:24:02</time>
      </trkpt>
      <trkpt lat="45.51949" lon="6.05843">
        <ele>1063.1</ele>
        <time>2026-02-27T11:24:02</time>
      </trkpt>
      <trkpt lat="45.51949" lon="6.05844">
        <ele>1063.2</ele>
        <time>2026-02-27T11:24:03</time>
      </trkpt>
      <trkpt lat="45.51951" lon="6.05844">
        <ele>1063.2</ele>
        <time>2026-02-27T11:24:04</time>
      </trkpt>
      <trkpt lat="45.51951" lon="6.05844">
        <ele>1063.2</ele>
        <time>2026-02-27T11:24:05</time>
      </trkpt>
      <trkpt lat="45.51952" lon="6.05845">
        <ele>1063.2</ele>
        <time>2026-02-27T11:24:06</time>
      </trkpt>
      <trkpt lat="45.51953" lon="6.05846">
        <ele>1063.2</ele>
        <time>2026-02-27T11:24:08</time>
      </trkpt>
      <trkpt lat="45.51953" lon="6.05845">
        <ele>1063.2</ele>
        <time>2026-02-27T11:24:08</time>
      </trkpt>
      <trkpt lat="45.51953" lon="6.05845">
        <ele>1062.9</ele>
        <time>2026-02-27T11:24:10</time>
      </trkpt>
      <trkpt lat="45.51953" lon="6.05844">
        <ele>1062.9</ele>
        <time>2026-02-27T11:24:10</time>
      </trkpt>
      <trkpt lat="45.51953" lon="6.05844">
        <ele>1062.9</ele>
        <time>2026-02-27T11:24:11</time>
      </trkpt>
      <trkpt lat="45.51954" lon="6.05845">
        <ele>1062.9</ele>
        <time>2026-02-27T11:24:11</time>
      </trkpt>
      <trkpt lat="45.51954" lon="6.05844">
        <ele>1062.9</ele>
        <time>2026-02-27T11:24:12</time>
      </trkpt>
      <trkpt lat="45.51956" lon="6.05847">
        <ele>1062.9</ele>
        <time>2026-02-27T11:24:13</time>
      </trkpt>
      <trkpt lat="45.51956" lon="6.05848">
        <ele>1062.9</ele>
        <time>2026-02-27T11:24:13</time>
      </trkpt>
      <trkpt lat="45.51957" lon="6.05849">
        <ele>1062.9</ele>
        <time>2026-02-27T11:24:14</time>
      </trkpt>
      <trkpt lat="45.51958" lon="6.0585">
        <ele>1062.7667</ele>
        <time>2026-02-27T11:24:15</time>
      </trkpt>
      <trkpt lat="45.51959" lon="6.05852">
        <ele>1062.7667</ele>
        <time>2026-02-27T11:24:16</time>
      </trkpt>
      <trkpt lat="45.51962" lon="6.05856">
        <ele>1062.7667</ele>
        <time>2026-02-27T11:24:18</time>
      </trkpt>
      <trkpt lat="45.51963" lon="6.05856">
        <ele>1062.7667</ele>
        <time>2026-02-27T11:24:19</time>
      </trkpt>
      <trkpt lat="45.51964" lon="6.05857">
        <ele>1062.7667</ele>
        <time>2026-02-27T11:24:19</time>
      </trkpt>
      <trkpt lat="45.51966" lon="6.05858">
        <ele>1062.7667</ele>
        <time>2026-02-27T11:24:20</time>
      </trkpt>
      <trkpt lat="45.51967" lon="6.05859">
        <ele>1062.7667</ele>
        <time>2026-02-27T11:24:21</time>
      </trkpt>
      <trkpt lat="45.51969" lon="6.05861">
        <ele>1063.2</ele>
        <time>2026-02-27T11:24:23</time>
      </trkpt>
      <trkpt lat="45.51976" lon="6.05866">
        <ele>1062.5</ele>
        <time>2026-02-27T11:24:30</time>
      </trkpt>
      <trkpt lat="45.51977" lon="6.05868">
        <ele>1062.5</ele>
        <time>2026-02-27T11:24:31</time>
      </trkpt>
      <trkpt lat="45.51978" lon="6.05869">
        <ele>1062.5</ele>
        <time>2026-02-27T11:24:33</time>
      </trkpt>
      <trkpt lat="45.51978" lon="6.0587">
        <ele>1062.5</ele>
        <time>2026-02-27T11:24:34</time>
      </trkpt>
      <trkpt lat="45.51979" lon="6.05872">
        <ele>1061.9</ele>
        <time>2026-02-27T11:24:36</time>
      </trkpt>
      <trkpt lat="45.51979" lon="6.05872">
        <ele>1061.9</ele>
        <time>2026-02-27T11:24:37</time>
      </trkpt>
      <trkpt lat="45.5198" lon="6.05872">
        <ele>1061.9</ele>
        <time>2026-02-27T11:24:38</time>
      </trkpt>
      <trkpt lat="45.51981" lon="6.05874">
        <ele>1061.9</ele>
        <time>2026-02-27T11:24:41</time>
      </trkpt>
      <trkpt lat="45.51981" lon="6.05875">
        <ele>1061.9</ele>
        <time>2026-02-27T11:24:42</time>
      </trkpt>
      <trkpt lat="45.51982" lon="6.05875">
        <ele>1061.7</ele>
        <time>2026-02-27T11:24:43</time>
      </trkpt>
      <trkpt lat="45.51982" lon="6.05877">
        <ele>1061.7</ele>
        <time>2026-02-27T11:24:44</time>
      </trkpt>
      <trkpt lat="45.51983" lon="6.05877">
        <ele>1061.7</ele>
        <time>2026-02-27T11:24:45</time>
      </trkpt>
      <trkpt lat="45.51983" lon="6.05878">
        <ele>1061.7</ele>
        <time>2026-02-27T11:24:45</time>
      </trkpt>
      <trkpt lat="45.51983" lon="6.05878">
        <ele>1061.7</ele>
        <time>2026-02-27T11:24:46</time>
      </trkpt>
      <trkpt lat="45.51984" lon="6.05881">
        <ele>1061.7</ele>
        <time>2026-02-27T11:24:49</time>
      </trkpt>
      <trkpt lat="45.51984" lon="6.05883">
        <ele>1059.7</ele>
        <time>2026-02-27T11:24:50</time>
      </trkpt>
      <trkpt lat="45.51985" lon="6.05884">
        <ele>1059.7</ele>
        <time>2026-02-27T11:24:51</time>
      </trkpt>
      <trkpt lat="45.51987" lon="6.05887">
        <ele>1059.7</ele>
        <time>2026-02-27T11:24:54</time>
      </trkpt>
      <trkpt lat="45.51988" lon="6.05887">
        <ele>1059.7</ele>
        <time>2026-02-27T11:24:55</time>
      </trkpt>
      <trkpt lat="45.51989" lon="6.05887">
        <ele>1056.8</ele>
        <time>2026-02-27T11:24:57</time>
      </trkpt>
      <trkpt lat="45.5199" lon="6.05888">
        <ele>1056.8</ele>
        <time>2026-02-27T11:24:58</time>
      </trkpt>
      <trkpt lat="45.51993" lon="6.05889">
        <ele>1056.8</ele>
        <time>2026-02-27T11:25:00</time>
      </trkpt>
      <trkpt lat="45.51993" lon="6.05889">
        <ele>1056.8</ele>
        <time>2026-02-27T11:25:02</time>
      </trkpt>
      <trkpt lat="45.51994" lon="6.05889">
        <ele>1056.8</ele>
        <time>2026-02-27T11:25:03</time>
      </trkpt>
      <trkpt lat="45.51994" lon="6.05888">
        <ele>1056.8</ele>
        <time>2026-02-27T11:25:04</time>
      </trkpt>
      <trkpt lat="45.51995" lon="6.05889">
        <ele>1056.8</ele>
        <time>2026-02-27T11:25:05</time>
      </trkpt>
      <trkpt lat="45.51995" lon="6.05889">
        <ele>1056.8</ele>
        <time>2026-02-27T11:25:06</time>
      </trkpt>
      <trkpt lat="45.51995" lon="6.0589">
        <ele>1056.8</ele>
        <time>2026-02-27T11:25:07</time>
      </trkpt>
      <trkpt lat="45.51996" lon="6.0589">
        <ele>1056.8</ele>
        <time>2026-02-27T11:25:08</time>
      </trkpt>
      <trkpt lat="45.51996" lon="6.0589">
        <ele>1056.8</ele>
        <time>2026-02-27T11:25:09</time>
      </trkpt>
      <trkpt lat="45.51997" lon="6.05891">
        <ele>1056.8</ele>
        <time>2026-02-27T11:25:11</time>
      </trkpt>
      <trkpt lat="45.51999" lon="6.05892">
        <ele>1054.3</ele>
        <time>2026-02-27T11:25:15</time>
      </trkpt>
      <trkpt lat="45.52" lon="6.05893">
        <ele>1054.3</ele>
        <time>2026-02-27T11:25:15</time>
      </trkpt>
      <trkpt lat="45.52" lon="6.05892">
        <ele>1054.3</ele>
        <time>2026-02-27T11:25:16</time>
      </trkpt>
      <trkpt lat="45.52001" lon="6.05892">
        <ele>1054.3</ele>
        <time>2026-02-27T11:25:17</time>
      </trkpt>
      <trkpt lat="45.52001" lon="6.05892">
        <ele>1054.3</ele>
        <time>2026-02-27T11:25:17</time>
      </trkpt>
      <trkpt lat="45.52004" lon="6.05891">
        <ele>1052.2</ele>
        <time>2026-02-27T11:25:20</time>
      </trkpt>
      <trkpt lat="45.52005" lon="6.05892">
        <ele>1052.2</ele>
        <time>2026-02-27T11:25:21</time>
      </trkpt>
      <trkpt lat="45.52006" lon="6.05892">
        <ele>1052.2</ele>
        <time>2026-02-27T11:25:22</time>
      </trkpt>
      <trkpt lat="45.52007" lon="6.05894">
        <ele>1052.2</ele>
        <time>2026-02-27T11:25:24</time>
      </trkpt>
      <trkpt lat="45.5201" lon="6.05897">
        <ele>1050.6</ele>
        <time>2026-02-27T11:25:29</time>
      </trkpt>
      <trkpt lat="45.52011" lon="6.05898">
        <ele>1050.6</ele>
        <time>2026-02-27T11:25:32</time>
      </trkpt>
      <trkpt lat="45.52012" lon="6.05898">
        <ele>1048.2</ele>
        <time>2026-02-27T11:25:35</time>
      </trkpt>
      <trkpt lat="45.52013" lon="6.05899">
        <ele>1048.2</ele>
        <time>2026-02-27T11:25:37</time>
      </trkpt>
      <trkpt lat="45.52016" lon="6.05901">
        <ele>1047.1</ele>
        <time>2026-02-27T11:25:42</time>
      </trkpt>
      <trkpt lat="45.52017" lon="6.05902">
        <ele>1047.1</ele>
        <time>2026-02-27T11:25:43</time>
      </trkpt>
      <trkpt lat="45.52017" lon="6.05903">
        <ele>1047.1</ele>
        <time>2026-02-27T11:25:46</time>
      </trkpt>
      <trkpt lat="45.52018" lon="6.05904">
        <ele>1046</ele>
        <time>2026-02-27T11:25:47</time>
      </trkpt>
      <trkpt lat="45.52018" lon="6.05904">
        <ele>1046</ele>
        <time>2026-02-27T11:25:48</time>
      </trkpt>
      <trkpt lat="45.52019" lon="6.05905">
        <ele>1046</ele>
        <time>2026-02-27T11:25:50</time>
      </trkpt>
      <trkpt lat="45.5202" lon="6.05905">
        <ele>1046</ele>
        <time>2026-02-27T11:25:51</time>
      </trkpt>
      <trkpt lat="45.52022" lon="6.05908">
        <ele>1044.2</ele>
        <time>2026-02-27T11:25:55</time>
      </trkpt>
      <trkpt lat="45.52022" lon="6.05908">
        <ele>1044.2</ele>
        <time>2026-02-27T11:25:57</time>
      </trkpt>
      <trkpt lat="45.52023" lon="6.05909">
        <ele>1044.2</ele>
        <time>2026-02-27T11:25:58</time>
      </trkpt>
      <trkpt lat="45.52023" lon="6.05909">
        <ele>1044.4</ele>
        <time>2026-02-27T11:26:00</time>
      </trkpt>
      <trkpt lat="45.52024" lon="6.05909">
        <ele>1044.4</ele>
        <time>2026-02-27T11:26:02</time>
      </trkpt>
      <trkpt lat="45.52025" lon="6.05909">
        <ele>1044.4</ele>
        <time>2026-02-27T11:26:03</time>
      </trkpt>
      <trkpt lat="45.52025" lon="6.0591">
        <ele>1044.4</ele>
        <time>2026-02-27T11:26:03</time>
      </trkpt>
      <trkpt lat="45.52026" lon="6.0591">
        <ele>1043.1</ele>
        <time>2026-02-27T11:26:06</time>
      </trkpt>
      <trkpt lat="45.52027" lon="6.05911">
        <ele>1043.1</ele>
        <time>2026-02-27T11:26:09</time>
      </trkpt>
      <trkpt lat="45.52029" lon="6.05913">
        <ele>1043.1</ele>
        <time>2026-02-27T11:26:12</time>
      </trkpt>
      <trkpt lat="45.5203" lon="6.05914">
        <ele>1042.1</ele>
        <time>2026-02-27T11:26:14</time>
      </trkpt>
      <trkpt lat="45.52031" lon="6.05917">
        <ele>1042.1</ele>
        <time>2026-02-27T11:26:18</time>
      </trkpt>
      <trkpt lat="45.52032" lon="6.05918">
        <ele>1041.6333</ele>
        <time>2026-02-27T11:26:19</time>
      </trkpt>
      <trkpt lat="45.52032" lon="6.05919">
        <ele>1041.6333</ele>
        <time>2026-02-27T11:26:20</time>
      </trkpt>
      <trkpt lat="45.52034" lon="6.05921">
        <ele>1041.6333</ele>
        <time>2026-02-27T11:26:23</time>
      </trkpt>
      <trkpt lat="45.52035" lon="6.05923">
        <ele>1041.6</ele>
        <time>2026-02-27T11:26:25</time>
      </trkpt>
      <trkpt lat="45.52035" lon="6.05923">
        <ele>1041.6</ele>
        <time>2026-02-27T11:26:26</time>
      </trkpt>
      <trkpt lat="45.52037" lon="6.05923">
        <ele>1041.6</ele>
        <time>2026-02-27T11:26:30</time>
      </trkpt>
      <trkpt lat="45.52037" lon="6.05923">
        <ele>1041.6</ele>
        <time>2026-02-27T11:26:31</time>
      </trkpt>
      <trkpt lat="45.52037" lon="6.05923">
        <ele>1039.7</ele>
        <time>2026-02-27T11:26:31</time>
      </trkpt>
      <trkpt lat="45.52038" lon="6.05926">
        <ele>1039.7</ele>
        <time>2026-02-27T11:26:37</time>
      </trkpt>
      <trkpt lat="45.52039" lon="6.05926">
        <ele>1038.8</ele>
        <time>2026-02-27T11:26:38</time>
      </trkpt>
      <trkpt lat="45.52039" lon="6.05926">
        <ele>1038.8</ele>
        <time>2026-02-27T11:26:39</time>
      </trkpt>
      <trkpt lat="45.52039" lon="6.05927">
        <ele>1038.8</ele>
        <time>2026-02-27T11:26:40</time>
      </trkpt>
      <trkpt lat="45.52039" lon="6.05927">
        <ele>1038.8</ele>
        <time>2026-02-27T11:26:40</time>
      </trkpt>
      <trkpt lat="45.52039" lon="6.05928">
        <ele>1038.8</ele>
        <time>2026-02-27T11:26:41</time>
      </trkpt>
      <trkpt lat="45.52039" lon="6.05931">
        <ele>1038.8</ele>
        <time>2026-02-27T11:26:44</time>
      </trkpt>
      <trkpt lat="45.5204" lon="6.05933">
        <ele>1037.3</ele>
        <time>2026-02-27T11:26:46</time>
      </trkpt>
      <trkpt lat="45.52039" lon="6.05934">
        <ele>1037.3</ele>
        <time>2026-02-27T11:26:47</time>
      </trkpt>
      <trkpt lat="45.52039" lon="6.05935">
        <ele>1037.3</ele>
        <time>2026-02-27T11:26:49</time>
      </trkpt>
      <trkpt lat="45.52038" lon="6.05936">
        <ele>1037.3</ele>
        <time>2026-02-27T11:26:50</time>
      </trkpt>
      <trkpt lat="45.52037" lon="6.05937">
        <ele>1036.8</ele>
        <time>2026-02-27T11:26:52</time>
      </trkpt>
      <trkpt lat="45.52036" lon="6.05938">
        <ele>1036.8</ele>
        <time>2026-02-27T11:26:54</time>
      </trkpt>
      <trkpt lat="45.52033" lon="6.0594">
        <ele>1036.8</ele>
        <time>2026-02-27T11:26:59</time>
      </trkpt>
      <trkpt lat="45.52033" lon="6.0594">
        <ele>1036.8</ele>
        <time>2026-02-27T11:26:59</time>
      </trkpt>
      <trkpt lat="45.52032" lon="6.0594">
        <ele>1035.9</ele>
        <time>2026-02-27T11:27:00</time>
      </trkpt>
      <trkpt lat="45.52031" lon="6.0594">
        <ele>1035.9</ele>
        <time>2026-02-27T11:27:02</time>
      </trkpt>
      <trkpt lat="45.52029" lon="6.05941">
        <ele>1035.9</ele>
        <time>2026-02-27T11:27:05</time>
      </trkpt>
      <trkpt lat="45.52029" lon="6.05941">
        <ele>1035.9</ele>
        <time>2026-02-27T11:27:06</time>
      </trkpt>
      <trkpt lat="45.52027" lon="6.05942">
        <ele>1034.8</ele>
        <time>2026-02-27T11:27:10</time>
      </trkpt>
      <trkpt lat="45.52026" lon="6.05943">
        <ele>1034.8</ele>
        <time>2026-02-27T11:27:12</time>
      </trkpt>
      <trkpt lat="45.52024" lon="6.05944">
        <ele>1034.6</ele>
        <time>2026-02-27T11:27:15</time>
      </trkpt>
      <trkpt lat="45.52024" lon="6.05944">
        <ele>1034.6</ele>
        <time>2026-02-27T11:27:16</time>
      </trkpt>
      <trkpt lat="45.52022" lon="6.05947">
        <ele>1034.6</ele>
        <time>2026-02-27T11:27:19</time>
      </trkpt>
      <trkpt lat="45.52022" lon="6.05947">
        <ele>1034.5</ele>
        <time>2026-02-27T11:27:20</time>
      </trkpt>
      <trkpt lat="45.52022" lon="6.05949">
        <ele>1034.5</ele>
        <time>2026-02-27T11:27:21</time>
      </trkpt>
      <trkpt lat="45.52021" lon="6.05949">
        <ele>1034.5</ele>
        <time>2026-02-27T11:27:22</time>
      </trkpt>
      <trkpt lat="45.5202" lon="6.05951">
        <ele>1034.5</ele>
        <time>2026-02-27T11:27:23</time>
      </trkpt>
      <trkpt lat="45.52018" lon="6.05957">
        <ele>1033.8</ele>
        <time>2026-02-27T11:27:28</time>
      </trkpt>
      <trkpt lat="45.52018" lon="6.05958">
        <ele>1033.8</ele>
        <time>2026-02-27T11:27:28</time>
      </trkpt>
      <trkpt lat="45.52019" lon="6.05965">
        <ele>1033.2</ele>
        <time>2026-02-27T11:27:36</time>
      </trkpt>
      <trkpt lat="45.52019" lon="6.05966">
        <ele>1033.2</ele>
        <time>2026-02-27T11:27:38</time>
      </trkpt>
      <trkpt lat="45.52019" lon="6.05968">
        <ele>1033.5</ele>
        <time>2026-02-27T11:27:39</time>
      </trkpt>
      <trkpt lat="45.5202" lon="6.0597">
        <ele>1033.5</ele>
        <time>2026-02-27T11:27:40</time>
      </trkpt>
      <trkpt lat="45.5202" lon="6.05977">
        <ele>1032.9</ele>
        <time>2026-02-27T11:27:45</time>
      </trkpt>
      <trkpt lat="45.5202" lon="6.05981">
        <ele>1032.9</ele>
        <time>2026-02-27T11:27:49</time>
      </trkpt>
      <trkpt lat="45.5202" lon="6.05982">
        <ele>1032.9</ele>
        <time>2026-02-27T11:27:49</time>
      </trkpt>
      <trkpt lat="45.5202" lon="6.05984">
        <ele>1031.6</ele>
        <time>2026-02-27T11:27:51</time>
      </trkpt>
      <trkpt lat="45.5202" lon="6.05987">
        <ele>1031.6</ele>
        <time>2026-02-27T11:27:54</time>
      </trkpt>
      <trkpt lat="45.5202" lon="6.05988">
        <ele>1031.6</ele>
        <time>2026-02-27T11:27:55</time>
      </trkpt>
      <trkpt lat="45.5202" lon="6.05992">
        <ele>1030.4</ele>
        <time>2026-02-27T11:27:58</time>
      </trkpt>
      <trkpt lat="45.5202" lon="6.05993">
        <ele>1030.4</ele>
        <time>2026-02-27T11:27:59</time>
      </trkpt>
      <trkpt lat="45.52019" lon="6.05996">
        <ele>1030.4</ele>
        <time>2026-02-27T11:28:02</time>
      </trkpt>
      <trkpt lat="45.52019" lon="6.05996">
        <ele>1030.4</ele>
        <time>2026-02-27T11:28:02</time>
      </trkpt>
      <trkpt lat="45.52019" lon="6.05997">
        <ele>1030.4</ele>
        <time>2026-02-27T11:28:03</time>
      </trkpt>
      <trkpt lat="45.5202" lon="6.06">
        <ele>1030.1</ele>
        <time>2026-02-27T11:28:05</time>
      </trkpt>
      <trkpt lat="45.5202" lon="6.06003">
        <ele>1030.1</ele>
        <time>2026-02-27T11:28:09</time>
      </trkpt>
      <trkpt lat="45.5202" lon="6.06007">
        <ele>1029.2</ele>
        <time>2026-02-27T11:28:13</time>
      </trkpt>
      <trkpt lat="45.5202" lon="6.06009">
        <ele>1029.2</ele>
        <time>2026-02-27T11:28:14</time>
      </trkpt>
      <trkpt lat="45.5202" lon="6.06015">
        <ele>1029.2</ele>
        <time>2026-02-27T11:28:18</time>
      </trkpt>
      <trkpt lat="45.5202" lon="6.06017">
        <ele>1029.2</ele>
        <time>2026-02-27T11:28:19</time>
      </trkpt>
      <trkpt lat="45.52019" lon="6.06019">
        <ele>1027.7</ele>
        <time>2026-02-27T11:28:20</time>
      </trkpt>
      <trkpt lat="45.52018" lon="6.06024">
        <ele>1027.7</ele>
        <time>2026-02-27T11:28:24</time>
      </trkpt>
      <trkpt lat="45.52016" lon="6.06034">
        <ele>1025</ele>
        <time>2026-02-27T11:28:32</time>
      </trkpt>
      <trkpt lat="45.52016" lon="6.06035">
        <ele>1025</ele>
        <time>2026-02-27T11:28:33</time>
      </trkpt>
      <trkpt lat="45.52016" lon="6.06037">
        <ele>1025</ele>
        <time>2026-02-27T11:28:35</time>
      </trkpt>
      <trkpt lat="45.52016" lon="6.06038">
        <ele>1024.9</ele>
        <time>2026-02-27T11:28:36</time>
      </trkpt>
      <trkpt lat="45.52016" lon="6.06044">
        <ele>1024.9</ele>
        <time>2026-02-27T11:28:41</time>
      </trkpt>
      <trkpt lat="45.52016" lon="6.06045">
        <ele>1023.5</ele>
        <time>2026-02-27T11:28:42</time>
      </trkpt>
      <trkpt lat="45.52015" lon="6.06048">
        <ele>1023.5</ele>
        <time>2026-02-27T11:28:45</time>
      </trkpt>
      <trkpt lat="45.52015" lon="6.06049">
        <ele>1023.5</ele>
        <time>2026-02-27T11:28:45</time>
      </trkpt>
      <trkpt lat="45.52016" lon="6.0605">
        <ele>1023.5</ele>
        <time>2026-02-27T11:28:47</time>
      </trkpt>
      <trkpt lat="45.52016" lon="6.06052">
        <ele>1023.5</ele>
        <time>2026-02-27T11:28:48</time>
      </trkpt>
      <trkpt lat="45.52017" lon="6.06053">
        <ele>1022</ele>
        <time>2026-02-27T11:28:49</time>
      </trkpt>
      <trkpt lat="45.52018" lon="6.06055">
        <ele>1022</ele>
        <time>2026-02-27T11:28:53</time>
      </trkpt>
      <trkpt lat="45.52018" lon="6.06056">
        <ele>1022</ele>
        <time>2026-02-27T11:28:54</time>
      </trkpt>
      <trkpt lat="45.52019" lon="6.06058">
        <ele>1022</ele>
        <time>2026-02-27T11:28:55</time>
      </trkpt>
      <trkpt lat="45.52019" lon="6.06059">
        <ele>1019.7</ele>
        <time>2026-02-27T11:28:56</time>
      </trkpt>
      <trkpt lat="45.52023" lon="6.06069">
        <ele>1018.4</ele>
        <time>2026-02-27T11:29:03</time>
      </trkpt>
      <trkpt lat="45.52024" lon="6.06069">
        <ele>1018.4</ele>
        <time>2026-02-27T11:29:04</time>
      </trkpt>
      <trkpt lat="45.52025" lon="6.06071">
        <ele>1018.4</ele>
        <time>2026-02-27T11:29:04</time>
      </trkpt>
      <trkpt lat="45.52026" lon="6.06072">
        <ele>1018.4</ele>
        <time>2026-02-27T11:29:06</time>
      </trkpt>
      <trkpt lat="45.52029" lon="6.06076">
        <ele>1018.4</ele>
        <time>2026-02-27T11:29:09</time>
      </trkpt>
      <trkpt lat="45.5203" lon="6.06079">
        <ele>1017.6</ele>
        <time>2026-02-27T11:29:11</time>
      </trkpt>
      <trkpt lat="45.52032" lon="6.06081">
        <ele>1017.6</ele>
        <time>2026-02-27T11:29:14</time>
      </trkpt>
      <trkpt lat="45.52033" lon="6.06082">
        <ele>1017.6</ele>
        <time>2026-02-27T11:29:14</time>
      </trkpt>
      <trkpt lat="45.52035" lon="6.06083">
        <ele>1017.6</ele>
        <time>2026-02-27T11:29:16</time>
      </trkpt>
      <trkpt lat="45.52037" lon="6.06086">
        <ele>1017.1</ele>
        <time>2026-02-27T11:29:18</time>
      </trkpt>
      <trkpt lat="45.52039" lon="6.06088">
        <ele>1017.1</ele>
        <time>2026-02-27T11:29:20</time>
      </trkpt>
      <trkpt lat="45.52041" lon="6.06092">
        <ele>1017.2</ele>
        <time>2026-02-27T11:29:24</time>
      </trkpt>
      <trkpt lat="45.52042" lon="6.06093">
        <ele>1017.2</ele>
        <time>2026-02-27T11:29:26</time>
      </trkpt>
      <trkpt lat="45.52046" lon="6.06095">
        <ele>1017.2</ele>
        <time>2026-02-27T11:29:29</time>
      </trkpt>
      <trkpt lat="45.52049" lon="6.06096">
        <ele>1015.5</ele>
        <time>2026-02-27T11:29:32</time>
      </trkpt>
      <trkpt lat="45.5205" lon="6.06096">
        <ele>1015.5</ele>
        <time>2026-02-27T11:29:33</time>
      </trkpt>
      <trkpt lat="45.52057" lon="6.06104">
        <ele>1014.6</ele>
        <time>2026-02-27T11:29:46</time>
      </trkpt>
      <trkpt lat="45.52058" lon="6.06107">
        <ele>1014.6</ele>
        <time>2026-02-27T11:29:48</time>
      </trkpt>
      <trkpt lat="45.52059" lon="6.06108">
        <ele>1014.6</ele>
        <time>2026-02-27T11:29:50</time>
      </trkpt>
      <trkpt lat="45.5206" lon="6.06109">
        <ele>1014.6</ele>
        <time>2026-02-27T11:29:51</time>
      </trkpt>
      <trkpt lat="45.52061" lon="6.06109">
        <ele>1014.6</ele>
        <time>2026-02-27T11:29:52</time>
      </trkpt>
      <trkpt lat="45.52061" lon="6.06109">
        <ele>1016.5</ele>
        <time>2026-02-27T11:29:53</time>
      </trkpt>
      <trkpt lat="45.52062" lon="6.06111">
        <ele>1016.5</ele>
        <time>2026-02-27T11:29:55</time>
      </trkpt>
      <trkpt lat="45.52064" lon="6.06113">
        <ele>1016.5</ele>
        <time>2026-02-27T11:29:58</time>
      </trkpt>
      <trkpt lat="45.52066" lon="6.06114">
        <ele>1020.2</ele>
        <time>2026-02-27T11:30:00</time>
      </trkpt>
      <trkpt lat="45.52068" lon="6.06115">
        <ele>1020.2</ele>
        <time>2026-02-27T11:30:01</time>
      </trkpt>
      <trkpt lat="45.52069" lon="6.06115">
        <ele>1020.2</ele>
        <time>2026-02-27T11:30:02</time>
      </trkpt>
      <trkpt lat="45.52071" lon="6.06116">
        <ele>1020.2</ele>
        <time>2026-02-27T11:30:04</time>
      </trkpt>
      <trkpt lat="45.52072" lon="6.06115">
        <ele>1020.2</ele>
        <time>2026-02-27T11:30:05</time>
      </trkpt>
      <trkpt lat="45.52074" lon="6.06113">
        <ele>1020.2</ele>
        <time>2026-02-27T11:30:07</time>
      </trkpt>
      <trkpt lat="45.52075" lon="6.06112">
        <ele>1021.1</ele>
        <time>2026-02-27T11:30:08</time>
      </trkpt>
      <trkpt lat="45.52075" lon="6.06111">
        <ele>1021.1</ele>
        <time>2026-02-27T11:30:09</time>
      </trkpt>
      <trkpt lat="45.52076" lon="6.0611">
        <ele>1021.1</ele>
        <time>2026-02-27T11:30:10</time>
      </trkpt>
      <trkpt lat="45.52078" lon="6.06111">
        <ele>1021.1</ele>
        <time>2026-02-27T11:30:11</time>
      </trkpt>
      <trkpt lat="45.52083" lon="6.06111">
        <ele>1022.7</ele>
        <time>2026-02-27T11:30:17</time>
      </trkpt>
      <trkpt lat="45.52083" lon="6.06111">
        <ele>1022.7</ele>
        <time>2026-02-27T11:30:18</time>
      </trkpt>
      <trkpt lat="45.52084" lon="6.06111">
        <ele>1022.7</ele>
        <time>2026-02-27T11:30:19</time>
      </trkpt>
      <trkpt lat="45.52089" lon="6.0611">
        <ele>1021.5</ele>
        <time>2026-02-27T11:30:25</time>
      </trkpt>
      <trkpt lat="45.5209" lon="6.06109">
        <ele>1021.5</ele>
        <time>2026-02-27T11:30:27</time>
      </trkpt>
      <trkpt lat="45.52091" lon="6.06109">
        <ele>1021.5</ele>
        <time>2026-02-27T11:30:28</time>
      </trkpt>
      <trkpt lat="45.52093" lon="6.06109">
        <ele>1021.3</ele>
        <time>2026-02-27T11:30:29</time>
      </trkpt>
      <trkpt lat="45.52094" lon="6.06109">
        <ele>1021.3</ele>
        <time>2026-02-27T11:30:31</time>
      </trkpt>
      <trkpt lat="45.52096" lon="6.06108">
        <ele>1021.3</ele>
        <time>2026-02-27T11:30:33</time>
      </trkpt>
      <trkpt lat="45.52097" lon="6.06109">
        <ele>1021.3</ele>
        <time>2026-02-27T11:30:35</time>
      </trkpt>
      <trkpt lat="45.52098" lon="6.06109">
        <ele>1021.3</ele>
        <time>2026-02-27T11:30:36</time>
      </trkpt>
      <trkpt lat="45.52098" lon="6.06109">
        <ele>1021.3</ele>
        <time>2026-02-27T11:30:37</time>
      </trkpt>
      <trkpt lat="45.52098" lon="6.0611">
        <ele>1018.5</ele>
        <time>2026-02-27T11:30:38</time>
      </trkpt>
      <trkpt lat="45.52098" lon="6.0611">
        <ele>1018.5</ele>
        <time>2026-02-27T11:30:39</time>
      </trkpt>
      <trkpt lat="45.52098" lon="6.0611">
        <ele>1018.5</ele>
        <time>2026-02-27T11:30:40</time>
      </trkpt>
      <trkpt lat="45.52098" lon="6.0611">
        <ele>1018.5</ele>
        <time>2026-02-27T11:30:40</time>
      </trkpt>
      <trkpt lat="45.52098" lon="6.0611">
        <ele>1018.5</ele>
        <time>2026-02-27T11:30:41</time>
      </trkpt>
      <trkpt lat="45.52098" lon="6.0611">
        <ele>1018.5</ele>
        <time>2026-02-27T11:30:44</time>
      </trkpt>
      <trkpt lat="45.52099" lon="6.0611">
        <ele>1018.5</ele>
        <time>2026-02-27T11:30:45</time>
      </trkpt>
      <trkpt lat="45.52099" lon="6.0611">
        <ele>1016.4667</ele>
        <time>2026-02-27T11:30:52</time>
      </trkpt>
      <trkpt lat="45.521" lon="6.0611">
        <ele>1016.4667</ele>
        <time>2026-02-27T11:30:54</time>
      </trkpt>
      <trkpt lat="45.521" lon="6.0611">
        <ele>1016.4667</ele>
        <time>2026-02-27T11:30:55</time>
      </trkpt>
      <trkpt lat="45.521" lon="6.0611">
        <ele>1016.4667</ele>
        <time>2026-02-27T11:30:55</time>
      </trkpt>
      <trkpt lat="45.52099" lon="6.0611">
        <ele>1016.5</ele>
        <time>2026-02-27T11:30:58</time>
      </trkpt>
      <trkpt lat="45.52099" lon="6.0611">
        <ele>1016.5</ele>
        <time>2026-02-27T11:31:00</time>
      </trkpt>
      <trkpt lat="45.52099" lon="6.0611">
        <ele>1016.5</ele>
        <time>2026-02-27T11:31:01</time>
      </trkpt>
      <trkpt lat="45.52099" lon="6.0611">
        <ele>1016.5</ele>
        <time>2026-02-27T11:31:02</time>
      </trkpt>
      <trkpt lat="45.52099" lon="6.0611">
        <ele>1016.5</ele>
        <time>2026-02-27T11:31:16</time>
      </trkpt>
      <trkpt lat="45.52099" lon="6.0611">
        <ele>1016.5</ele>
        <time>2026-02-27T11:31:16</time>
      </trkpt>
      <trkpt lat="45.52099" lon="6.0611">
        <ele>1016.5</ele>
        <time>2026-02-27T11:31:17</time>
      </trkpt>
      <trkpt lat="45.52095" lon="6.0611">
        <ele>1016.5</ele>
        <time>2026-02-27T11:31:21</time>
      </trkpt>
      <trkpt lat="45.52092" lon="6.06109">
        <ele>1016.5</ele>
        <time>2026-02-27T11:31:23</time>
      </trkpt>
      <trkpt lat="45.52092" lon="6.06109">
        <ele>1016.5</ele>
        <time>2026-02-27T11:31:24</time>
      </trkpt>
      <trkpt lat="45.52091" lon="6.0611">
        <ele>1016.5</ele>
        <time>2026-02-27T11:31:25</time>
      </trkpt>
      <trkpt lat="45.5209" lon="6.06111">
        <ele>1016.5</ele>
        <time>2026-02-27T11:31:26</time>
      </trkpt>
      <trkpt lat="45.5209" lon="6.06112">
        <ele>1019.4</ele>
        <time>2026-02-27T11:31:48</time>
      </trkpt>
      <trkpt lat="45.5209" lon="6.06113">
        <ele>1019.4</ele>
        <time>2026-02-27T11:32:05</time>
      </trkpt>
      <trkpt lat="45.52091" lon="6.06112">
        <ele>1019.4</ele>
        <time>2026-02-27T11:32:06</time>
      </trkpt>
      <trkpt lat="45.52091" lon="6.06112">
        <ele>1019.4</ele>
        <time>2026-02-27T11:32:07</time>
      </trkpt>
      <trkpt lat="45.52093" lon="6.06111">
        <ele>1019.4</ele>
        <time>2026-02-27T11:32:08</time>
      </trkpt>
      <trkpt lat="45.52095" lon="6.06109">
        <ele>1019.4</ele>
        <time>2026-02-27T11:32:10</time>
      </trkpt>
      <trkpt lat="45.52096" lon="6.06109">
        <ele>1019.4</ele>
        <time>2026-02-27T11:32:10</time>
      </trkpt>
      <trkpt lat="45.52097" lon="6.0611">
        <ele>1019.4</ele>
        <time>2026-02-27T11:32:11</time>
      </trkpt>
      <trkpt lat="45.52097" lon="6.0611">
        <ele>1019.4</ele>
        <time>2026-02-27T11:32:12</time>
      </trkpt>
      <trkpt lat="45.52099" lon="6.0611">
        <ele>1019.4</ele>
        <time>2026-02-27T11:32:13</time>
      </trkpt>
      <trkpt lat="45.52099" lon="6.0611">
        <ele>1019.4</ele>
        <time>2026-02-27T11:32:14</time>
      </trkpt>
      <trkpt lat="45.521" lon="6.06109">
        <ele>1019.4</ele>
        <time>2026-02-27T11:32:16</time>
      </trkpt>
      <trkpt lat="45.52106" lon="6.06098">
        <ele>1019.9</ele>
        <time>2026-02-27T11:32:24</time>
      </trkpt>
      <trkpt lat="45.5211" lon="6.06091">
        <ele>1019.9</ele>
        <time>2026-02-27T11:32:30</time>
      </trkpt>
      <trkpt lat="45.52113" lon="6.06088">
        <ele>1018.4</ele>
        <time>2026-02-27T11:32:33</time>
      </trkpt>
      <trkpt lat="45.52114" lon="6.06087">
        <ele>1018.4</ele>
        <time>2026-02-27T11:32:35</time>
      </trkpt>
      <trkpt lat="45.52116" lon="6.06086">
        <ele>1018.4</ele>
        <time>2026-02-27T11:32:36</time>
      </trkpt>
      <trkpt lat="45.52122" lon="6.06085">
        <ele>1018</ele>
        <time>2026-02-27T11:32:41</time>
      </trkpt>
      <trkpt lat="45.52128" lon="6.06082">
        <ele>1018</ele>
        <time>2026-02-27T11:32:46</time>
      </trkpt>
      <trkpt lat="45.5213" lon="6.06081">
        <ele>1018.7</ele>
        <time>2026-02-27T11:32:48</time>
      </trkpt>
      <trkpt lat="45.52131" lon="6.06079">
        <ele>1018.7</ele>
        <time>2026-02-27T11:32:50</time>
      </trkpt>
      <trkpt lat="45.52136" lon="6.06069">
        <ele>1018.6</ele>
        <time>2026-02-27T11:32:55</time>
      </trkpt>
      <trkpt lat="45.52138" lon="6.06068">
        <ele>1018.6</ele>
        <time>2026-02-27T11:32:57</time>
      </trkpt>
      <trkpt lat="45.5214" lon="6.06066">
        <ele>1018.6</ele>
        <time>2026-02-27T11:32:58</time>
      </trkpt>
      <trkpt lat="45.52142" lon="6.06065">
        <ele>1018.6</ele>
        <time>2026-02-27T11:32:59</time>
      </trkpt>
      <trkpt lat="45.52143" lon="6.06064">
        <ele>1018.6</ele>
        <time>2026-02-27T11:33:01</time>
      </trkpt>
      <trkpt lat="45.52146" lon="6.06063">
        <ele>1018.0333</ele>
        <time>2026-02-27T11:33:04</time>
      </trkpt>
      <trkpt lat="45.52148" lon="6.06063">
        <ele>1018.0333</ele>
        <time>2026-02-27T11:33:05</time>
      </trkpt>
      <trkpt lat="45.52151" lon="6.06064">
        <ele>1016.86664</ele>
        <time>2026-02-27T11:33:09</time>
      </trkpt>
      <trkpt lat="45.52152" lon="6.06064">
        <ele>1016.86664</ele>
        <time>2026-02-27T11:33:11</time>
      </trkpt>
      <trkpt lat="45.52152" lon="6.06063">
        <ele>1016.86664</ele>
        <time>2026-02-27T11:33:12</time>
      </trkpt>
      <trkpt lat="45.52152" lon="6.06063">
        <ele>1016.86664</ele>
        <time>2026-02-27T11:33:13</time>
      </trkpt>
      <trkpt lat="45.52153" lon="6.06063">
        <ele>1016.86664</ele>
        <time>2026-02-27T11:33:14</time>
      </trkpt>
      <trkpt lat="45.52153" lon="6.06064">
        <ele>1016.86664</ele>
        <time>2026-02-27T11:33:14</time>
      </trkpt>
      <trkpt lat="45.52154" lon="6.06066">
        <ele>1016.9667</ele>
        <time>2026-02-27T11:33:17</time>
      </trkpt>
      <trkpt lat="45.52154" lon="6.06067">
        <ele>1016.9667</ele>
        <time>2026-02-27T11:33:18</time>
      </trkpt>
      <trkpt lat="45.52156" lon="6.06073">
        <ele>1016.9667</ele>
        <time>2026-02-27T11:33:22</time>
      </trkpt>
      <trkpt lat="45.52158" lon="6.06077">
        <ele>1016.9667</ele>
        <time>2026-02-27T11:33:24</time>
      </trkpt>
      <trkpt lat="45.52158" lon="6.06078">
        <ele>1019.4</ele>
        <time>2026-02-27T11:33:25</time>
      </trkpt>
      <trkpt lat="45.52159" lon="6.0608">
        <ele>1019.4</ele>
        <time>2026-02-27T11:33:27</time>
      </trkpt>
      <trkpt lat="45.52159" lon="6.06081">
        <ele>1019.4</ele>
        <time>2026-02-27T11:33:28</time>
      </trkpt>
      <trkpt lat="45.52159" lon="6.06083">
        <ele>1019.4</ele>
        <time>2026-02-27T11:33:31</time>
      </trkpt>
      <trkpt lat="45.52159" lon="6.06084">
        <ele>1019.4</ele>
        <time>2026-02-27T11:33:31</time>
      </trkpt>
      <trkpt lat="45.5216" lon="6.06086">
        <ele>1020.1</ele>
        <time>2026-02-27T11:33:35</time>
      </trkpt>
      <trkpt lat="45.5216" lon="6.06087">
        <ele>1020.1</ele>
        <time>2026-02-27T11:33:36</time>
      </trkpt>
      <trkpt lat="45.52161" lon="6.06089">
        <ele>1020.1</ele>
        <time>2026-02-27T11:33:37</time>
      </trkpt>
      <trkpt lat="45.52162" lon="6.0609">
        <ele>1020.1</ele>
        <time>2026-02-27T11:33:39</time>
      </trkpt>
      <trkpt lat="45.52162" lon="6.06091">
        <ele>1020.1</ele>
        <time>2026-02-27T11:33:39</time>
      </trkpt>
      <trkpt lat="45.52162" lon="6.06091">
        <ele>1020.1</ele>
        <time>2026-02-27T11:33:40</time>
      </trkpt>
      <trkpt lat="45.52169" lon="6.06093">
        <ele>1020.06665</ele>
        <time>2026-02-27T11:33:46</time>
      </trkpt>
      <trkpt lat="45.5217" lon="6.06093">
        <ele>1020.06665</ele>
        <time>2026-02-27T11:33:47</time>
      </trkpt>
      <trkpt lat="45.52173" lon="6.06092">
        <ele>1019.3</ele>
        <time>2026-02-27T11:33:50</time>
      </trkpt>
      <trkpt lat="45.52177" lon="6.06091">
        <ele>1019.3</ele>
        <time>2026-02-27T11:33:54</time>
      </trkpt>
      <trkpt lat="45.52181" lon="6.06091">
        <ele>1019.3</ele>
        <time>2026-02-27T11:33:57</time>
      </trkpt>
      <trkpt lat="45.52183" lon="6.06092">
        <ele>1019.8</ele>
        <time>2026-02-27T11:33:59</time>
      </trkpt>
      <trkpt lat="45.52185" lon="6.06093">
        <ele>1019.8</ele>
        <time>2026-02-27T11:34:02</time>
      </trkpt>
      <trkpt lat="45.52185" lon="6.06093">
        <ele>1019.8</ele>
        <time>2026-02-27T11:34:03</time>
      </trkpt>
      <trkpt lat="45.52186" lon="6.06095">
        <ele>1019.8</ele>
        <time>2026-02-27T11:34:04</time>
      </trkpt>
      <trkpt lat="45.52187" lon="6.06097">
        <ele>1021</ele>
        <time>2026-02-27T11:34:07</time>
      </trkpt>
      <trkpt lat="45.5219" lon="6.06105">
        <ele>1022.6</ele>
        <time>2026-02-27T11:34:13</time>
      </trkpt>
      <trkpt lat="45.52191" lon="6.06109">
        <ele>1022.6</ele>
        <time>2026-02-27T11:34:17</time>
      </trkpt>
      <trkpt lat="45.52192" lon="6.06114">
        <ele>1023.8</ele>
        <time>2026-02-27T11:34:24</time>
      </trkpt>
      <trkpt lat="45.52193" lon="6.06116">
        <ele>1023.8</ele>
        <time>2026-02-27T11:34:25</time>
      </trkpt>
      <trkpt lat="45.52194" lon="6.06123">
        <ele>1025.0667</ele>
        <time>2026-02-27T11:34:32</time>
      </trkpt>
      <trkpt lat="45.52195" lon="6.06128">
        <ele>1026.2</ele>
        <time>2026-02-27T11:34:38</time>
      </trkpt>
      <trkpt lat="45.52195" lon="6.0613">
        <ele>1026.2</ele>
        <time>2026-02-27T11:34:40</time>
      </trkpt>
      <trkpt lat="45.52195" lon="6.06131">
        <ele>1026.2</ele>
        <time>2026-02-27T11:34:42</time>
      </trkpt>
      <trkpt lat="45.52195" lon="6.06131">
        <ele>1026.2</ele>
        <time>2026-02-27T11:34:43</time>
      </trkpt>
      <trkpt lat="45.52189" lon="6.06136">
        <ele>1027.6</ele>
        <time>2026-02-27T11:34:51</time>
      </trkpt>
      <trkpt lat="45.52186" lon="6.06138">
        <ele>1027.5</ele>
        <time>2026-02-27T11:34:54</time>
      </trkpt>
      <trkpt lat="45.52185" lon="6.06139">
        <ele>1027.5</ele>
        <time>2026-02-27T11:34:56</time>
      </trkpt>
      <trkpt lat="45.52182" lon="6.06143">
        <ele>1027.9</ele>
        <time>2026-02-27T11:35:01</time>
      </trkpt>
      <trkpt lat="45.5218" lon="6.06147">
        <ele>1027.9</ele>
        <time>2026-02-27T11:35:05</time>
      </trkpt>
      <trkpt lat="45.52179" lon="6.06155">
        <ele>1033.3</ele>
        <time>2026-02-27T11:35:10</time>
      </trkpt>
      <trkpt lat="45.52178" lon="6.06164">
        <ele>1033.6</ele>
        <time>2026-02-27T11:35:18</time>
      </trkpt>
      <trkpt lat="45.52177" lon="6.06176">
        <ele>1034.6</ele>
        <time>2026-02-27T11:35:26</time>
      </trkpt>
      <trkpt lat="45.52176" lon="6.06182">
        <ele>1035.7</ele>
        <time>2026-02-27T11:35:32</time>
      </trkpt>
      <trkpt lat="45.52176" lon="6.06185">
        <ele>1035.7</ele>
        <time>2026-02-27T11:35:35</time>
      </trkpt>
      <trkpt lat="45.52176" lon="6.06186">
        <ele>1034.7333</ele>
        <time>2026-02-27T11:35:36</time>
      </trkpt>
      <trkpt lat="45.52177" lon="6.06189">
        <ele>1034.7333</ele>
        <time>2026-02-27T11:35:39</time>
      </trkpt>
      <trkpt lat="45.52177" lon="6.0619">
        <ele>1034.7333</ele>
        <time>2026-02-27T11:35:39</time>
      </trkpt>
      <trkpt lat="45.52179" lon="6.06196">
        <ele>1034.8</ele>
        <time>2026-02-27T11:35:45</time>
      </trkpt>
      <trkpt lat="45.5218" lon="6.06202">
        <ele>1034.8</ele>
        <time>2026-02-27T11:35:50</time>
      </trkpt>
      <trkpt lat="45.5218" lon="6.06205">
        <ele>1035.8667</ele>
        <time>2026-02-27T11:35:52</time>
      </trkpt>
      <trkpt lat="45.5218" lon="6.06209">
        <ele>1035.8667</ele>
        <time>2026-02-27T11:35:55</time>
      </trkpt>
      <trkpt lat="45.52179" lon="6.06211">
        <ele>1035.8667</ele>
        <time>2026-02-27T11:35:56</time>
      </trkpt>
      <trkpt lat="45.52179" lon="6.06214">
        <ele>1036.3</ele>
        <time>2026-02-27T11:35:59</time>
      </trkpt>
      <trkpt lat="45.52179" lon="6.06218">
        <ele>1036.3</ele>
        <time>2026-02-27T11:36:02</time>
      </trkpt>
      <trkpt lat="45.52179" lon="6.06222">
        <ele>1034.5667</ele>
        <time>2026-02-27T11:36:05</time>
      </trkpt>
      <trkpt lat="45.52179" lon="6.06224">
        <ele>1034.5667</ele>
        <time>2026-02-27T11:36:06</time>
      </trkpt>
      <trkpt lat="45.52179" lon="6.06225">
        <ele>1034.5667</ele>
        <time>2026-02-27T11:36:07</time>
      </trkpt>
      <trkpt lat="45.5218" lon="6.06228">
        <ele>1034.5667</ele>
        <time>2026-02-27T11:36:09</time>
      </trkpt>
      <trkpt lat="45.5218" lon="6.06229">
        <ele>1033.1</ele>
        <time>2026-02-27T11:36:11</time>
      </trkpt>
      <trkpt lat="45.5218" lon="6.0623">
        <ele>1033.1</ele>
        <time>2026-02-27T11:36:11</time>
      </trkpt>
      <trkpt lat="45.5218" lon="6.06233">
        <ele>1033.1</ele>
        <time>2026-02-27T11:36:14</time>
      </trkpt>
      <trkpt lat="45.52183" lon="6.0624">
        <ele>1031.5</ele>
        <time>2026-02-27T11:36:19</time>
      </trkpt>
      <trkpt lat="45.52185" lon="6.06244">
        <ele>1031.5</ele>
        <time>2026-02-27T11:36:22</time>
      </trkpt>
      <trkpt lat="45.52188" lon="6.06252">
        <ele>1029.9333</ele>
        <time>2026-02-27T11:36:29</time>
      </trkpt>
      <trkpt lat="45.52191" lon="6.06264">
        <ele>1027.6</ele>
        <time>2026-02-27T11:36:36</time>
      </trkpt>
      <trkpt lat="45.52191" lon="6.06272">
        <ele>1027.6</ele>
        <time>2026-02-27T11:36:41</time>
      </trkpt>
      <trkpt lat="45.52191" lon="6.06274">
        <ele>1027.1</ele>
        <time>2026-02-27T11:36:42</time>
      </trkpt>
      <trkpt lat="45.52191" lon="6.06277">
        <ele>1027.1</ele>
        <time>2026-02-27T11:36:45</time>
      </trkpt>
      <trkpt lat="45.52191" lon="6.06277">
        <ele>1027.1</ele>
        <time>2026-02-27T11:36:46</time>
      </trkpt>
      <trkpt lat="45.52191" lon="6.06277">
        <ele>1026.9333</ele>
        <time>2026-02-27T11:36:51</time>
      </trkpt>
      <trkpt lat="45.52191" lon="6.06276">
        <ele>1026.9333</ele>
        <time>2026-02-27T11:36:51</time>
      </trkpt>
      <trkpt lat="45.52191" lon="6.06276">
        <ele>1026.9333</ele>
        <time>2026-02-27T11:36:53</time>
      </trkpt>
      <trkpt lat="45.52191" lon="6.06276">
        <ele>1026.9333</ele>
        <time>2026-02-27T11:36:54</time>
      </trkpt>
      <trkpt lat="45.52192" lon="6.06275">
        <ele>1026.9333</ele>
        <time>2026-02-27T11:36:55</time>
      </trkpt>
      <trkpt lat="45.52193" lon="6.06275">
        <ele>1026.9333</ele>
        <time>2026-02-27T11:36:57</time>
      </trkpt>
      <trkpt lat="45.52195" lon="6.06275">
        <ele>1027</ele>
        <time>2026-02-27T11:36:58</time>
      </trkpt>
      <trkpt lat="45.52198" lon="6.06275">
        <ele>1027</ele>
        <time>2026-02-27T11:37:01</time>
      </trkpt>
      <trkpt lat="45.52199" lon="6.06276">
        <ele>1027</ele>
        <time>2026-02-27T11:37:01</time>
      </trkpt>
      <trkpt lat="45.52201" lon="6.06276">
        <ele>1027</ele>
        <time>2026-02-27T11:37:03</time>
      </trkpt>
      <trkpt lat="45.52203" lon="6.06277">
        <ele>1027.5</ele>
        <time>2026-02-27T11:37:07</time>
      </trkpt>
      <trkpt lat="45.52204" lon="6.06277">
        <ele>1027.5</ele>
        <time>2026-02-27T11:37:09</time>
      </trkpt>
      <trkpt lat="45.52206" lon="6.06278">
        <ele>1027.5</ele>
        <time>2026-02-27T11:37:10</time>
      </trkpt>
      <trkpt lat="45.52211" lon="6.06283">
        <ele>1028</ele>
        <time>2026-02-27T11:37:18</time>
      </trkpt>
      <trkpt lat="45.52214" lon="6.06286">
        <ele>1028.1</ele>
        <time>2026-02-27T11:37:23</time>
      </trkpt>
      <trkpt lat="45.52214" lon="6.06286">
        <ele>1028.1</ele>
        <time>2026-02-27T11:37:25</time>
      </trkpt>
      <trkpt lat="45.52215" lon="6.06286">
        <ele>1028.1</ele>
        <time>2026-02-27T11:37:26</time>
      </trkpt>
      <trkpt lat="45.52217" lon="6.06287">
        <ele>1029.3667</ele>
        <time>2026-02-27T11:37:29</time>
      </trkpt>
      <trkpt lat="45.52217" lon="6.06288">
        <ele>1029.3667</ele>
        <time>2026-02-27T11:37:30</time>
      </trkpt>
      <trkpt lat="45.5222" lon="6.06292">
        <ele>1029.3667</ele>
        <time>2026-02-27T11:37:36</time>
      </trkpt>
      <trkpt lat="45.52221" lon="6.06293">
        <ele>1031.1</ele>
        <time>2026-02-27T11:37:37</time>
      </trkpt>
      <trkpt lat="45.52222" lon="6.06296">
        <ele>1031.1</ele>
        <time>2026-02-27T11:37:40</time>
      </trkpt>
      <trkpt lat="45.52223" lon="6.06298">
        <ele>1031.1</ele>
        <time>2026-02-27T11:37:43</time>
      </trkpt>
      <trkpt lat="45.52223" lon="6.06299">
        <ele>1033.9</ele>
        <time>2026-02-27T11:37:44</time>
      </trkpt>
      <trkpt lat="45.52223" lon="6.06299">
        <ele>1033.9</ele>
        <time>2026-02-27T11:37:45</time>
      </trkpt>
      <trkpt lat="45.52223" lon="6.06299">
        <ele>1033.9</ele>
        <time>2026-02-27T11:37:45</time>
      </trkpt>
      <trkpt lat="45.52224" lon="6.06299">
        <ele>1033.9</ele>
        <time>2026-02-27T11:37:47</time>
      </trkpt>
      <trkpt lat="45.52225" lon="6.063">
        <ele>1033.9</ele>
        <time>2026-02-27T11:37:47</time>
      </trkpt>
      <trkpt lat="45.52226" lon="6.06301">
        <ele>1033.9</ele>
        <time>2026-02-27T11:37:50</time>
      </trkpt>
      <trkpt lat="45.52227" lon="6.06302">
        <ele>1035.4</ele>
        <time>2026-02-27T11:37:51</time>
      </trkpt>
      <trkpt lat="45.5223" lon="6.06306">
        <ele>1035.4</ele>
        <time>2026-02-27T11:37:57</time>
      </trkpt>
      <trkpt lat="45.52233" lon="6.06314">
        <ele>1036.3</ele>
        <time>2026-02-27T11:38:04</time>
      </trkpt>
      <trkpt lat="45.52233" lon="6.06316">
        <ele>1036.4</ele>
        <time>2026-02-27T11:38:06</time>
      </trkpt>
      <trkpt lat="45.52233" lon="6.0632">
        <ele>1036.4</ele>
        <time>2026-02-27T11:38:09</time>
      </trkpt>
      <trkpt lat="45.5224" lon="6.06336">
        <ele>1037.8</ele>
        <time>2026-02-27T11:38:22</time>
      </trkpt>
      <trkpt lat="45.52241" lon="6.0634">
        <ele>1037.8</ele>
        <time>2026-02-27T11:38:24</time>
      </trkpt>
      <trkpt lat="45.52242" lon="6.06342">
        <ele>1037.8</ele>
        <time>2026-02-27T11:38:26</time>
      </trkpt>
      <trkpt lat="45.52242" lon="6.06344">
        <ele>1037.8</ele>
        <time>2026-02-27T11:38:28</time>
      </trkpt>
      <trkpt lat="45.52244" lon="6.06349">
        <ele>1037.5</ele>
        <time>2026-02-27T11:38:32</time>
      </trkpt>
      <trkpt lat="45.52245" lon="6.06353">
        <ele>1037.5</ele>
        <time>2026-02-27T11:38:34</time>
      </trkpt>
      <trkpt lat="45.52247" lon="6.06359">
        <ele>1037.3</ele>
        <time>2026-02-27T11:38:38</time>
      </trkpt>
      <trkpt lat="45.52249" lon="6.06361">
        <ele>1037.3</ele>
        <time>2026-02-27T11:38:40</time>
      </trkpt>
      <trkpt lat="45.52251" lon="6.06366">
        <ele>1039.6333</ele>
        <time>2026-02-27T11:38:43</time>
      </trkpt>
      <trkpt lat="45.52256" lon="6.06377">
        <ele>1040.1</ele>
        <time>2026-02-27T11:38:52</time>
      </trkpt>
      <trkpt lat="45.52257" lon="6.06378">
        <ele>1040.1</ele>
        <time>2026-02-27T11:38:53</time>
      </trkpt>
      <trkpt lat="45.52257" lon="6.0638">
        <ele>1040.1</ele>
        <time>2026-02-27T11:38:54</time>
      </trkpt>
      <trkpt lat="45.52261" lon="6.06387">
        <ele>1040.8</ele>
        <time>2026-02-27T11:39:00</time>
      </trkpt>
      <trkpt lat="45.52267" lon="6.06396">
        <ele>1041.7</ele>
        <time>2026-02-27T11:39:08</time>
      </trkpt>
      <trkpt lat="45.52268" lon="6.06397">
        <ele>1041.8</ele>
        <time>2026-02-27T11:39:10</time>
      </trkpt>
      <trkpt lat="45.52271" lon="6.06404">
        <ele>1041.8</ele>
        <time>2026-02-27T11:39:15</time>
      </trkpt>
      <trkpt lat="45.52272" lon="6.06409">
        <ele>1042.1</ele>
        <time>2026-02-27T11:39:18</time>
      </trkpt>
      <trkpt lat="45.52272" lon="6.0641">
        <ele>1042.1</ele>
        <time>2026-02-27T11:39:18</time>
      </trkpt>
      <trkpt lat="45.52274" lon="6.06413">
        <ele>1042.1</ele>
        <time>2026-02-27T11:39:22</time>
      </trkpt>
      <trkpt lat="45.52274" lon="6.06414">
        <ele>1042.1</ele>
        <time>2026-02-27T11:39:24</time>
      </trkpt>
      <trkpt lat="45.52274" lon="6.06414">
        <ele>1042.1</ele>
        <time>2026-02-27T11:39:25</time>
      </trkpt>
      <trkpt lat="45.52274" lon="6.06414">
        <ele>1042.1</ele>
        <time>2026-02-27T11:39:26</time>
      </trkpt>
      <trkpt lat="45.52273" lon="6.06413">
        <ele>1041</ele>
        <time>2026-02-27T11:39:28</time>
      </trkpt>
      <trkpt lat="45.52273" lon="6.06413">
        <ele>1041</ele>
        <time>2026-02-27T11:39:29</time>
      </trkpt>
      <trkpt lat="45.52274" lon="6.06413">
        <ele>1041</ele>
        <time>2026-02-27T11:39:30</time>
      </trkpt>
      <trkpt lat="45.52275" lon="6.06414">
        <ele>1041</ele>
        <time>2026-02-27T11:39:32</time>
      </trkpt>
      <trkpt lat="45.52276" lon="6.06415">
        <ele>1041</ele>
        <time>2026-02-27T11:39:35</time>
      </trkpt>
      <trkpt lat="45.52278" lon="6.06416">
        <ele>1041</ele>
        <time>2026-02-27T11:39:37</time>
      </trkpt>
      <trkpt lat="45.52279" lon="6.06417">
        <ele>1041</ele>
        <time>2026-02-27T11:39:38</time>
      </trkpt>
      <trkpt lat="45.52285" lon="6.06421">
        <ele>1040.7667</ele>
        <time>2026-02-27T11:39:44</time>
      </trkpt>
      <trkpt lat="45.52296" lon="6.06428">
        <ele>1040.8</ele>
        <time>2026-02-27T11:39:52</time>
      </trkpt>
      <trkpt lat="45.52298" lon="6.06428">
        <ele>1040.8</ele>
        <time>2026-02-27T11:39:55</time>
      </trkpt>
      <trkpt lat="45.52303" lon="6.06433">
        <ele>1039.1</ele>
        <time>2026-02-27T11:39:59</time>
      </trkpt>
      <trkpt lat="45.52312" lon="6.06444">
        <ele>1038.7</ele>
        <time>2026-02-27T11:40:10</time>
      </trkpt>
      <trkpt lat="45.52313" lon="6.06445">
        <ele>1038.7</ele>
        <time>2026-02-27T11:40:12</time>
      </trkpt>
      <trkpt lat="45.52316" lon="6.06448">
        <ele>1038.5</ele>
        <time>2026-02-27T11:40:15</time>
      </trkpt>
      <trkpt lat="45.52316" lon="6.06449">
        <ele>1038.5</ele>
        <time>2026-02-27T11:40:16</time>
      </trkpt>
      <trkpt lat="45.52316" lon="6.06451">
        <ele>1038.5</ele>
        <time>2026-02-27T11:40:18</time>
      </trkpt>
      <trkpt lat="45.52317" lon="6.06452">
        <ele>1038.5</ele>
        <time>2026-02-27T11:40:18</time>
      </trkpt>
      <trkpt lat="45.52318" lon="6.06452">
        <ele>1038.5</ele>
        <time>2026-02-27T11:40:19</time>
      </trkpt>
      <trkpt lat="45.52322" lon="6.06454">
        <ele>1040.4</ele>
        <time>2026-02-27T11:40:22</time>
      </trkpt>
      <trkpt lat="45.52326" lon="6.06457">
        <ele>1040.4</ele>
        <time>2026-02-27T11:40:26</time>
      </trkpt>
      <trkpt lat="45.52327" lon="6.06459">
        <ele>1040.4</ele>
        <time>2026-02-27T11:40:27</time>
      </trkpt>
      <trkpt lat="45.52327" lon="6.0646">
        <ele>1039.5</ele>
        <time>2026-02-27T11:40:28</time>
      </trkpt>
      <trkpt lat="45.52328" lon="6.06461">
        <ele>1039.5</ele>
        <time>2026-02-27T11:40:29</time>
      </trkpt>
      <trkpt lat="45.52328" lon="6.06462">
        <ele>1039.5</ele>
        <time>2026-02-27T11:40:29</time>
      </trkpt>
      <trkpt lat="45.52328" lon="6.06464">
        <ele>1039.5</ele>
        <time>2026-02-27T11:40:31</time>
      </trkpt>
      <trkpt lat="45.52329" lon="6.06464">
        <ele>1039.5</ele>
        <time>2026-02-27T11:40:31</time>
      </trkpt>
      <trkpt lat="45.5233" lon="6.06464">
        <ele>1039.5</ele>
        <time>2026-02-27T11:40:32</time>
      </trkpt>
      <trkpt lat="45.52331" lon="6.06465">
        <ele>1039.5</ele>
        <time>2026-02-27T11:40:33</time>
      </trkpt>
      <trkpt lat="45.52333" lon="6.06466">
        <ele>1040.6</ele>
        <time>2026-02-27T11:40:35</time>
      </trkpt>
      <trkpt lat="45.52333" lon="6.06467">
        <ele>1040.6</ele>
        <time>2026-02-27T11:40:35</time>
      </trkpt>
      <trkpt lat="45.52334" lon="6.06468">
        <ele>1040.6</ele>
        <time>2026-02-27T11:40:37</time>
      </trkpt>
      <trkpt lat="45.52333" lon="6.0647">
        <ele>1040.6</ele>
        <time>2026-02-27T11:40:38</time>
      </trkpt>
      <trkpt lat="45.52333" lon="6.06472">
        <ele>1040.6</ele>
        <time>2026-02-27T11:40:38</time>
      </trkpt>
      <trkpt lat="45.52333" lon="6.06472">
        <ele>1040.6</ele>
        <time>2026-02-27T11:40:39</time>
      </trkpt>
      <trkpt lat="45.52334" lon="6.06473">
        <ele>1040.6</ele>
        <time>2026-02-27T11:40:40</time>
      </trkpt>
      <trkpt lat="45.52336" lon="6.06476">
        <ele>1042.2</ele>
        <time>2026-02-27T11:40:42</time>
      </trkpt>
      <trkpt lat="45.52337" lon="6.06479">
        <ele>1042.2</ele>
        <time>2026-02-27T11:40:44</time>
      </trkpt>
      <trkpt lat="45.52338" lon="6.06482">
        <ele>1042.2</ele>
        <time>2026-02-27T11:40:46</time>
      </trkpt>
      <trkpt lat="45.52338" lon="6.06483">
        <ele>1042.2</ele>
        <time>2026-02-27T11:40:46</time>
      </trkpt>
      <trkpt lat="45.52337" lon="6.06484">
        <ele>1042.2</ele>
        <time>2026-02-27T11:40:47</time>
      </trkpt>
      <trkpt lat="45.52337" lon="6.06485">
        <ele>1042.2</ele>
        <time>2026-02-27T11:40:47</time>
      </trkpt>
      <trkpt lat="45.52336" lon="6.06486">
        <ele>1042.2</ele>
        <time>2026-02-27T11:40:48</time>
      </trkpt>
      <trkpt lat="45.52337" lon="6.06487">
        <ele>1041.3334</ele>
        <time>2026-02-27T11:40:49</time>
      </trkpt>
      <trkpt lat="45.52337" lon="6.06493">
        <ele>1041.3334</ele>
        <time>2026-02-27T11:40:53</time>
      </trkpt>
      <trkpt lat="45.52336" lon="6.065">
        <ele>1040.5</ele>
        <time>2026-02-27T11:40:59</time>
      </trkpt>
      <trkpt lat="45.52335" lon="6.06501">
        <ele>1040.5</ele>
        <time>2026-02-27T11:41:00</time>
      </trkpt>
      <trkpt lat="45.52335" lon="6.06503">
        <ele>1040.5</ele>
        <time>2026-02-27T11:41:01</time>
      </trkpt>
      <trkpt lat="45.52335" lon="6.06504">
        <ele>1040.5</ele>
        <time>2026-02-27T11:41:02</time>
      </trkpt>
      <trkpt lat="45.52335" lon="6.06508">
        <ele>1040.8</ele>
        <time>2026-02-27T11:41:04</time>
      </trkpt>
      <trkpt lat="45.52335" lon="6.06513">
        <ele>1040.8</ele>
        <time>2026-02-27T11:41:08</time>
      </trkpt>
      <trkpt lat="45.52333" lon="6.06533">
        <ele>1039.8667</ele>
        <time>2026-02-27T11:41:19</time>
      </trkpt>
      <trkpt lat="45.52332" lon="6.06539">
        <ele>1041.2</ele>
        <time>2026-02-27T11:41:22</time>
      </trkpt>
      <trkpt lat="45.52328" lon="6.06556">
        <ele>1041.4</ele>
        <time>2026-02-27T11:41:33</time>
      </trkpt>
      <trkpt lat="45.52328" lon="6.06558">
        <ele>1041.4</ele>
        <time>2026-02-27T11:41:35</time>
      </trkpt>
      <trkpt lat="45.52323" lon="6.06574">
        <ele>1039.5</ele>
        <time>2026-02-27T11:41:45</time>
      </trkpt>
      <trkpt lat="45.52319" lon="6.06579">
        <ele>1039.5</ele>
        <time>2026-02-27T11:41:50</time>
      </trkpt>
      <trkpt lat="45.52319" lon="6.0658">
        <ele>1039.5</ele>
        <time>2026-02-27T11:41:51</time>
      </trkpt>
      <trkpt lat="45.52318" lon="6.06581">
        <ele>1038.6</ele>
        <time>2026-02-27T11:41:51</time>
      </trkpt>
      <trkpt lat="45.52318" lon="6.06582">
        <ele>1038.6</ele>
        <time>2026-02-27T11:41:53</time>
      </trkpt>
      <trkpt lat="45.52318" lon="6.06582">
        <ele>1038.6</ele>
        <time>2026-02-27T11:41:54</time>
      </trkpt>
      <trkpt lat="45.52318" lon="6.06582">
        <ele>1038.6</ele>
        <time>2026-02-27T11:41:55</time>
      </trkpt>
      <trkpt lat="45.52318" lon="6.06583">
        <ele>1038.6</ele>
        <time>2026-02-27T11:41:55</time>
      </trkpt>
      <trkpt lat="45.5231" lon="6.06597">
        <ele>1036.9</ele>
        <time>2026-02-27T11:42:08</time>
      </trkpt>
      <trkpt lat="45.52309" lon="6.06598">
        <ele>1036.9</ele>
        <time>2026-02-27T11:42:09</time>
      </trkpt>
      <trkpt lat="45.52308" lon="6.06597">
        <ele>1034.5</ele>
        <time>2026-02-27T11:42:16</time>
      </trkpt>
      <trkpt lat="45.52309" lon="6.06597">
        <ele>1034.5</ele>
        <time>2026-02-27T11:42:17</time>
      </trkpt>
      <trkpt lat="45.52309" lon="6.06597">
        <ele>1034.5</ele>
        <time>2026-02-27T11:42:18</time>
      </trkpt>
      <trkpt lat="45.52309" lon="6.06597">
        <ele>1034.5</ele>
        <time>2026-02-27T11:42:19</time>
      </trkpt>
      <trkpt lat="45.52309" lon="6.06596">
        <ele>1034.5</ele>
        <time>2026-02-27T11:42:19</time>
      </trkpt>
      <trkpt lat="45.52309" lon="6.06596">
        <ele>1034.5</ele>
        <time>2026-02-27T11:42:20</time>
      </trkpt>
      <trkpt lat="45.52309" lon="6.06597">
        <ele>1034.5</ele>
        <time>2026-02-27T11:42:21</time>
      </trkpt>
      <trkpt lat="45.52309" lon="6.06597">
        <ele>1034.5</ele>
        <time>2026-02-27T11:42:22</time>
      </trkpt>
      <trkpt lat="45.5231" lon="6.06597">
        <ele>1033.9</ele>
        <time>2026-02-27T11:42:50</time>
      </trkpt>
      <trkpt lat="45.5231" lon="6.06597">
        <ele>1033.9</ele>
        <time>2026-02-27T11:45:12</time>
      </trkpt>
      <trkpt lat="45.52309" lon="6.06596">
        <ele>1033.9</ele>
        <time>2026-02-27T11:46:51</time>
      </trkpt>
      <trkpt lat="45.5231" lon="6.06596">
        <ele>1033.9</ele>
        <time>2026-02-27T11:46:52</time>
      </trkpt>
      <trkpt lat="45.5231" lon="6.06596">
        <ele>1033.9</ele>
        <time>2026-02-27T11:46:52</time>
      </trkpt>
      <trkpt lat="45.5231" lon="6.06596">
        <ele>1033.9</ele>
        <time>2026-02-27T11:46:53</time>
      </trkpt>
      <trkpt lat="45.5231" lon="6.06596">
        <ele>1033.9</ele>
        <time>2026-02-27T11:46:54</time>
      </trkpt>
      <trkpt lat="45.5231" lon="6.06595">
        <ele>1033.9</ele>
        <time>2026-02-27T11:46:56</time>
      </trkpt>
      <trkpt lat="45.52311" lon="6.06594">
        <ele>1033.9</ele>
        <time>2026-02-27T11:46:57</time>
      </trkpt>
      <trkpt lat="45.52314" lon="6.06591">
        <ele>1033.9</ele>
        <time>2026-02-27T11:47:00</time>
      </trkpt>
      <trkpt lat="45.52314" lon="6.0659">
        <ele>1033.9</ele>
        <time>2026-02-27T11:47:01</time>
      </trkpt>
      <trkpt lat="45.52317" lon="6.06587">
        <ele>1032.3667</ele>
        <time>2026-02-27T11:47:05</time>
      </trkpt>
      <trkpt lat="45.52318" lon="6.06587">
        <ele>1032.3667</ele>
        <time>2026-02-27T11:47:06</time>
      </trkpt>
      <trkpt lat="45.52318" lon="6.06585">
        <ele>1032.3667</ele>
        <time>2026-02-27T11:47:07</time>
      </trkpt>
      <trkpt lat="45.52318" lon="6.06585">
        <ele>1032.3667</ele>
        <time>2026-02-27T11:47:08</time>
      </trkpt>
      <trkpt lat="45.5232" lon="6.06581">
        <ele>1032.2</ele>
        <time>2026-02-27T11:47:11</time>
      </trkpt>
      <trkpt lat="45.5232" lon="6.06581">
        <ele>1032.2</ele>
        <time>2026-02-27T11:47:12</time>
      </trkpt>
      <trkpt lat="45.5232" lon="6.06581">
        <ele>1032.2</ele>
        <time>2026-02-27T11:47:12</time>
      </trkpt>
      <trkpt lat="45.52321" lon="6.06581">
        <ele>1032.2</ele>
        <time>2026-02-27T11:47:14</time>
      </trkpt>
      <trkpt lat="45.52322" lon="6.06581">
        <ele>1035.1333</ele>
        <time>2026-02-27T11:47:18</time>
      </trkpt>
      <trkpt lat="45.52322" lon="6.06581">
        <ele>1035.1333</ele>
        <time>2026-02-27T11:47:21</time>
      </trkpt>
      <trkpt lat="45.52322" lon="6.06581">
        <ele>1035.1333</ele>
        <time>2026-02-27T11:47:22</time>
      </trkpt>
      <trkpt lat="45.52322" lon="6.06581">
        <ele>1035.1333</ele>
        <time>2026-02-27T11:47:24</time>
      </trkpt>
      <trkpt lat="45.52322" lon="6.06581">
        <ele>1035.1333</ele>
        <time>2026-02-27T11:47:25</time>
      </trkpt>
      <trkpt lat="45.52322" lon="6.06581">
        <ele>1035.1333</ele>
        <time>2026-02-27T11:47:26</time>
      </trkpt>
      <trkpt lat="45.52322" lon="6.06581">
        <ele>1035.1333</ele>
        <time>2026-02-27T11:47:27</time>
      </trkpt>
      <trkpt lat="45.52322" lon="6.06581">
        <ele>1035.1</ele>
        <time>2026-02-27T11:47:29</time>
      </trkpt>
      <trkpt lat="45.52322" lon="6.06581">
        <ele>1035.1</ele>
        <time>2026-02-27T11:47:31</time>
      </trkpt>
      <trkpt lat="45.52322" lon="6.06581">
        <ele>1035.1</ele>
        <time>2026-02-27T11:47:31</time>
      </trkpt>
      <trkpt lat="45.52322" lon="6.06581">
        <ele>1035.1</ele>
        <time>2026-02-27T11:47:33</time>
      </trkpt>
      <trkpt lat="45.52322" lon="6.06581">
        <ele>1035.1</ele>
        <time>2026-02-27T11:47:39</time>
      </trkpt>
      <trkpt lat="45.52322" lon="6.06581">
        <ele>1035.1</ele>
        <time>2026-02-27T11:47:40</time>
      </trkpt>
      <trkpt lat="45.52322" lon="6.06581">
        <ele>1035.1</ele>
        <time>2026-02-27T11:47:40</time>
      </trkpt>
      <trkpt lat="45.52322" lon="6.06581">
        <ele>1035.1</ele>
        <time>2026-02-27T11:47:44</time>
      </trkpt>
      <trkpt lat="45.52322" lon="6.06582">
        <ele>1035.1</ele>
        <time>2026-02-27T11:47:46</time>
      </trkpt>
      <trkpt lat="45.52322" lon="6.06582">
        <ele>1035.1</ele>
        <time>2026-02-27T11:47:47</time>
      </trkpt>
      <trkpt lat="45.52321" lon="6.06581">
        <ele>1035.1</ele>
        <time>2026-02-27T11:47:50</time>
      </trkpt>
      <trkpt lat="45.52321" lon="6.06581">
        <ele>1035.1</ele>
        <time>2026-02-27T11:47:50</time>
      </trkpt>
      <trkpt lat="45.5232" lon="6.06581">
        <ele>1035.1</ele>
        <time>2026-02-27T11:47:52</time>
      </trkpt>
      <trkpt lat="45.5232" lon="6.06581">
        <ele>1035.1</ele>
        <time>2026-02-27T11:47:53</time>
      </trkpt>
      <trkpt lat="45.5232" lon="6.06581">
        <ele>1035.1</ele>
        <time>2026-02-27T11:47:54</time>
      </trkpt>
      <trkpt lat="45.5232" lon="6.06581">
        <ele>1035.7</ele>
        <time>2026-02-27T11:47:56</time>
      </trkpt>
      <trkpt lat="45.5232" lon="6.06581">
        <ele>1035.7</ele>
        <time>2026-02-27T11:47:57</time>
      </trkpt>
      <trkpt lat="45.5232" lon="6.06581">
        <ele>1035.7</ele>
        <time>2026-02-27T11:47:57</time>
      </trkpt>
      <trkpt lat="45.5232" lon="6.06581">
        <ele>1035.7</ele>
        <time>2026-02-27T11:48:00</time>
      </trkpt>
      <trkpt lat="45.5232" lon="6.06581">
        <ele>1035.7</ele>
        <time>2026-02-27T11:48:01</time>
      </trkpt>
      <trkpt lat="45.5232" lon="6.06581">
        <ele>1035.7</ele>
        <time>2026-02-27T11:48:01</time>
      </trkpt>
      <trkpt lat="45.5232" lon="6.06581">
        <ele>1035.7</ele>
        <time>2026-02-27T11:48:03</time>
      </trkpt>
      <trkpt lat="45.5232" lon="6.06581">
        <ele>1035.7</ele>
        <time>2026-02-27T11:48:04</time>
      </trkpt>
      <trkpt lat="45.5232" lon="6.06581">
        <ele>1035.7</ele>
        <time>2026-02-27T11:48:05</time>
      </trkpt>
      <trkpt lat="45.5232" lon="6.06581">
        <ele>1035.7</ele>
        <time>2026-02-27T11:48:05</time>
      </trkpt>
      <trkpt lat="45.52321" lon="6.06581">
        <ele>1035.7</ele>
        <time>2026-02-27T11:48:06</time>
      </trkpt>
      <trkpt lat="45.52321" lon="6.06582">
        <ele>1035.7</ele>
        <time>2026-02-27T11:48:07</time>
      </trkpt>
      <trkpt lat="45.52321" lon="6.06582">
        <ele>1035.7</ele>
        <time>2026-02-27T11:48:08</time>
      </trkpt>
      <trkpt lat="45.52321" lon="6.06581">
        <ele>1035.7</ele>
        <time>2026-02-27T11:48:09</time>
      </trkpt>
      <trkpt lat="45.52321" lon="6.06581">
        <ele>1035.7</ele>
        <time>2026-02-27T11:48:11</time>
      </trkpt>
      <trkpt lat="45.5232" lon="6.0658">
        <ele>1035.7</ele>
        <time>2026-02-27T11:48:11</time>
      </trkpt>
      <trkpt lat="45.5232" lon="6.0658">
        <ele>1035.7</ele>
        <time>2026-02-27T11:48:12</time>
      </trkpt>
      <trkpt lat="45.5232" lon="6.0658">
        <ele>1035.7</ele>
        <time>2026-02-27T11:48:12</time>
      </trkpt>
      <trkpt lat="45.5232" lon="6.06581">
        <ele>1035.7</ele>
        <time>2026-02-27T11:48:13</time>
      </trkpt>
      <trkpt lat="45.5232" lon="6.06582">
        <ele>1035.7</ele>
        <time>2026-02-27T11:48:15</time>
      </trkpt>
      <trkpt lat="45.52319" lon="6.06583">
        <ele>1035.7</ele>
        <time>2026-02-27T11:48:16</time>
      </trkpt>
      <trkpt lat="45.52319" lon="6.06586">
        <ele>1035.7</ele>
        <time>2026-02-27T11:48:18</time>
      </trkpt>
      <trkpt lat="45.52319" lon="6.06586">
        <ele>1035.6333</ele>
        <time>2026-02-27T11:48:18</time>
      </trkpt>
      <trkpt lat="45.52319" lon="6.06587">
        <ele>1035.6333</ele>
        <time>2026-02-27T11:48:19</time>
      </trkpt>
      <trkpt lat="45.5232" lon="6.06587">
        <ele>1035.6333</ele>
        <time>2026-02-27T11:48:20</time>
      </trkpt>
      <trkpt lat="45.5232" lon="6.06587">
        <ele>1035.6333</ele>
        <time>2026-02-27T11:48:23</time>
      </trkpt>
      <trkpt lat="45.52322" lon="6.06586">
        <ele>1035.4</ele>
        <time>2026-02-27T11:48:28</time>
      </trkpt>
      <trkpt lat="45.52322" lon="6.06586">
        <ele>1035.4</ele>
        <time>2026-02-27T11:48:30</time>
      </trkpt>
      <trkpt lat="45.52323" lon="6.06586">
        <ele>1035.4</ele>
        <time>2026-02-27T11:48:31</time>
      </trkpt>
      <trkpt lat="45.52323" lon="6.06586">
        <ele>1035.4</ele>
        <time>2026-02-27T11:48:32</time>
      </trkpt>
      <trkpt lat="45.52324" lon="6.06588">
        <ele>1035.4</ele>
        <time>2026-02-27T11:48:34</time>
      </trkpt>
      <trkpt lat="45.52324" lon="6.06589">
        <ele>1035.5</ele>
        <time>2026-02-27T11:48:35</time>
      </trkpt>
      <trkpt lat="45.52325" lon="6.06593">
        <ele>1035.5</ele>
        <time>2026-02-27T11:48:38</time>
      </trkpt>
      <trkpt lat="45.52325" lon="6.06593">
        <ele>1035.5</ele>
        <time>2026-02-27T11:48:39</time>
      </trkpt>
      <trkpt lat="45.52325" lon="6.06593">
        <ele>1035.5</ele>
        <time>2026-02-27T11:48:40</time>
      </trkpt>
      <trkpt lat="45.52326" lon="6.06592">
        <ele>1033.8</ele>
        <time>2026-02-27T11:48:55</time>
      </trkpt>
      <trkpt lat="45.52326" lon="6.06592">
        <ele>1033.8</ele>
        <time>2026-02-27T11:48:56</time>
      </trkpt>
      <trkpt lat="45.52326" lon="6.06592">
        <ele>1033.8</ele>
        <time>2026-02-27T11:48:58</time>
      </trkpt>
      <trkpt lat="45.52326" lon="6.06592">
        <ele>1033.8</ele>
        <time>2026-02-27T11:48:59</time>
      </trkpt>
      <trkpt lat="45.52326" lon="6.06592">
        <ele>1033.8</ele>
        <time>2026-02-27T11:49:00</time>
      </trkpt>
      <trkpt lat="45.52326" lon="6.06592">
        <ele>1033.8</ele>
        <time>2026-02-27T11:49:01</time>
      </trkpt>
      <trkpt lat="45.52326" lon="6.06592">
        <ele>1033.8</ele>
        <time>2026-02-27T11:49:02</time>
      </trkpt>
      <trkpt lat="45.52326" lon="6.06592">
        <ele>1033.8</ele>
        <time>2026-02-27T11:49:02</time>
      </trkpt>
      <trkpt lat="45.52326" lon="6.06591">
        <ele>1033.8</ele>
        <time>2026-02-27T11:49:03</time>
      </trkpt>
      <trkpt lat="45.52325" lon="6.06591">
        <ele>1033.8</ele>
        <time>2026-02-27T11:49:04</time>
      </trkpt>
      <trkpt lat="45.52325" lon="6.0659">
        <ele>1033.8</ele>
        <time>2026-02-27T11:49:05</time>
      </trkpt>
      <trkpt lat="45.52324" lon="6.06586">
        <ele>1033.8</ele>
        <time>2026-02-27T11:49:07</time>
      </trkpt>
      <trkpt lat="45.52325" lon="6.06583">
        <ele>1033.8</ele>
        <time>2026-02-27T11:49:09</time>
      </trkpt>
      <trkpt lat="45.52324" lon="6.06582">
        <ele>1033.8</ele>
        <time>2026-02-27T11:49:10</time>
      </trkpt>
      <trkpt lat="45.52324" lon="6.06582">
        <ele>1033.8</ele>
        <time>2026-02-27T11:49:11</time>
      </trkpt>
      <trkpt lat="45.52324" lon="6.06583">
        <ele>1033.3667</ele>
        <time>2026-02-27T11:49:11</time>
      </trkpt>
      <trkpt lat="45.52324" lon="6.06583">
        <ele>1033.3667</ele>
        <time>2026-02-27T11:49:12</time>
      </trkpt>
      <trkpt lat="45.52323" lon="6.06583">
        <ele>1033.3667</ele>
        <time>2026-02-27T11:49:13</time>
      </trkpt>
      <trkpt lat="45.52325" lon="6.06583">
        <ele>1033.6</ele>
        <time>2026-02-27T11:49:20</time>
      </trkpt>
      <trkpt lat="45.52325" lon="6.06583">
        <ele>1033.6</ele>
        <time>2026-02-27T11:49:22</time>
      </trkpt>
      <trkpt lat="45.52325" lon="6.06583">
        <ele>1033.6</ele>
        <time>2026-02-27T11:49:23</time>
      </trkpt>
      <trkpt lat="45.52325" lon="6.06584">
        <ele>1033.6</ele>
        <time>2026-02-27T11:49:26</time>
      </trkpt>
      <trkpt lat="45.52325" lon="6.06583">
        <ele>1033.6</ele>
        <time>2026-02-27T11:49:27</time>
      </trkpt>
      <trkpt lat="45.52325" lon="6.06583">
        <ele>1033.6</ele>
        <time>2026-02-27T11:49:28</time>
      </trkpt>
      <trkpt lat="45.52325" lon="6.06584">
        <ele>1033.6</ele>
        <time>2026-02-27T11:49:29</time>
      </trkpt>
      <trkpt lat="45.52324" lon="6.06584">
        <ele>1033.6</ele>
        <time>2026-02-27T11:49:30</time>
      </trkpt>
      <trkpt lat="45.52324" lon="6.06584">
        <ele>1033.6</ele>
        <time>2026-02-27T11:49:33</time>
      </trkpt>
      <trkpt lat="45.52323" lon="6.06583">
        <ele>1033.6</ele>
        <time>2026-02-27T11:49:36</time>
      </trkpt>
      <trkpt lat="45.52324" lon="6.06583">
        <ele>1035.9</ele>
        <time>2026-02-27T11:49:39</time>
      </trkpt>
    </trkseg>
  </trk>
</gpx>